<?xml version="1.0" encoding="UTF-8" standalone="no" ?>
<gpx xmlns="http://www.topografix.com/GPX/1/1" xmlns:xsi="http://www.w3.org/2001/XMLSchema-instance" xsi:schemaLocation="http://www.topografix.com/GPX/1/1 http://www.topografix.com/GPX/1/1/gpx.xsd" version="1.1" creator="VisuGPX - https://www.visugpx.com">
  <metadata>
    <name>Bric de Rubren</name>
    <desc><![CDATA[Randonnée-trail du 15/7/2011
CR : [url]http://www.ascvtt.com/wordpress/2011/07/17/bric-de-rubren-ubaye-j2/#more-3460[/url]]]></desc>
  </metadata>
  <trk>
    <name><![CDATA[EF/(E) - Bric Rubren]]></name>
    <trkseg>
      <trkpt lat="44.59159" lon="6.84003">
        <ele>1906.0981445312</ele>
        <time>2011-07-15T05:16:46Z</time>
      </trkpt>
      <trkpt lat="44.59159" lon="6.84003">
        <ele>1906.1020507812</ele>
        <time>2011-07-15T05:16:47Z</time>
      </trkpt>
      <trkpt lat="44.59159" lon="6.84003">
        <ele>1906.0098876953</ele>
        <time>2011-07-15T05:16:48Z</time>
      </trkpt>
      <trkpt lat="44.59156" lon="6.84009">
        <ele>1905.01953125</ele>
        <time>2011-07-15T05:16:55Z</time>
      </trkpt>
      <trkpt lat="44.59155" lon="6.84014">
        <ele>1904.7347412109</ele>
        <time>2011-07-15T05:16:58Z</time>
      </trkpt>
      <trkpt lat="44.59153" lon="6.84022">
        <ele>1904.1424560547</ele>
        <time>2011-07-15T05:17:02Z</time>
      </trkpt>
      <trkpt lat="44.59155" lon="6.84031">
        <ele>1904.3917236328</ele>
        <time>2011-07-15T05:17:07Z</time>
      </trkpt>
      <trkpt lat="44.59156" lon="6.84033">
        <ele>1904.4924316406</ele>
        <time>2011-07-15T05:17:08Z</time>
      </trkpt>
      <trkpt lat="44.59161" lon="6.84044">
        <ele>1904.76953125</ele>
        <time>2011-07-15T05:17:15Z</time>
      </trkpt>
      <trkpt lat="44.59164" lon="6.84056">
        <ele>1904.6687011719</ele>
        <time>2011-07-15T05:17:21Z</time>
      </trkpt>
      <trkpt lat="44.59168" lon="6.84067">
        <ele>1904.9525146484</ele>
        <time>2011-07-15T05:17:27Z</time>
      </trkpt>
      <trkpt lat="44.59169" lon="6.84071">
        <ele>1905.0689697266</ele>
        <time>2011-07-15T05:17:29Z</time>
      </trkpt>
      <trkpt lat="44.59173" lon="6.84079">
        <ele>1905.5250244141</ele>
        <time>2011-07-15T05:17:33Z</time>
      </trkpt>
      <trkpt lat="44.59178" lon="6.84094">
        <ele>1905.8629150391</ele>
        <time>2011-07-15T05:17:41Z</time>
      </trkpt>
      <trkpt lat="44.59183" lon="6.8411">
        <ele>1905.9711914062</ele>
        <time>2011-07-15T05:17:49Z</time>
      </trkpt>
      <trkpt lat="44.59188" lon="6.84122">
        <ele>1906.005859375</ele>
        <time>2011-07-15T05:17:56Z</time>
      </trkpt>
      <trkpt lat="44.59196" lon="6.84134">
        <ele>1906.7175292969</ele>
        <time>2011-07-15T05:18:04Z</time>
      </trkpt>
      <trkpt lat="44.59204" lon="6.84144">
        <ele>1907.6840820312</ele>
        <time>2011-07-15T05:18:11Z</time>
      </trkpt>
      <trkpt lat="44.59211" lon="6.84152">
        <ele>1907.9635009766</ele>
        <time>2011-07-15T05:18:18Z</time>
      </trkpt>
      <trkpt lat="44.59214" lon="6.84154">
        <ele>1908.3251953125</ele>
        <time>2011-07-15T05:18:24Z</time>
      </trkpt>
      <trkpt lat="44.59214" lon="6.84155">
        <ele>1908.2952880859</ele>
        <time>2011-07-15T05:18:25Z</time>
      </trkpt>
      <trkpt lat="44.59218" lon="6.84162">
        <ele>1907.9748535156</ele>
        <time>2011-07-15T05:18:29Z</time>
      </trkpt>
      <trkpt lat="44.59229" lon="6.84178">
        <ele>1909.2806396484</ele>
        <time>2011-07-15T05:18:39Z</time>
      </trkpt>
      <trkpt lat="44.59234" lon="6.84186">
        <ele>1909.9451904297</ele>
        <time>2011-07-15T05:18:44Z</time>
      </trkpt>
      <trkpt lat="44.5924" lon="6.84195">
        <ele>1910.6329345703</ele>
        <time>2011-07-15T05:18:50Z</time>
      </trkpt>
      <trkpt lat="44.59249" lon="6.84208">
        <ele>1911.3869628906</ele>
        <time>2011-07-15T05:18:58Z</time>
      </trkpt>
      <trkpt lat="44.59259" lon="6.84217">
        <ele>1911.7358398438</ele>
        <time>2011-07-15T05:19:05Z</time>
      </trkpt>
      <trkpt lat="44.5927" lon="6.84225">
        <ele>1912.8430175781</ele>
        <time>2011-07-15T05:19:10Z</time>
      </trkpt>
      <trkpt lat="44.59281" lon="6.84234">
        <ele>1913.2862548828</ele>
        <time>2011-07-15T05:19:16Z</time>
      </trkpt>
      <trkpt lat="44.59289" lon="6.84242">
        <ele>1913.0699462891</ele>
        <time>2011-07-15T05:19:21Z</time>
      </trkpt>
      <trkpt lat="44.593" lon="6.84249">
        <ele>1913.4321289062</ele>
        <time>2011-07-15T05:19:26Z</time>
      </trkpt>
      <trkpt lat="44.59302" lon="6.8425">
        <ele>1913.3662109375</ele>
        <time>2011-07-15T05:19:27Z</time>
      </trkpt>
      <trkpt lat="44.59305" lon="6.84257">
        <ele>1912.5009765625</ele>
        <time>2011-07-15T05:19:29Z</time>
      </trkpt>
      <trkpt lat="44.59314" lon="6.84266">
        <ele>1912.5654296875</ele>
        <time>2011-07-15T05:19:34Z</time>
      </trkpt>
      <trkpt lat="44.5932" lon="6.84275">
        <ele>1912.4812011719</ele>
        <time>2011-07-15T05:19:41Z</time>
      </trkpt>
      <trkpt lat="44.59321" lon="6.84277">
        <ele>1912.59375</ele>
        <time>2011-07-15T05:19:42Z</time>
      </trkpt>
      <trkpt lat="44.59324" lon="6.84281">
        <ele>1912.90625</ele>
        <time>2011-07-15T05:19:46Z</time>
      </trkpt>
      <trkpt lat="44.59325" lon="6.84285">
        <ele>1912.4401855469</ele>
        <time>2011-07-15T05:19:48Z</time>
      </trkpt>
      <trkpt lat="44.5933" lon="6.84296">
        <ele>1912.3348388672</ele>
        <time>2011-07-15T05:19:55Z</time>
      </trkpt>
      <trkpt lat="44.59335" lon="6.8431">
        <ele>1912.1579589844</ele>
        <time>2011-07-15T05:20:03Z</time>
      </trkpt>
      <trkpt lat="44.59337" lon="6.84314">
        <ele>1912.201171875</ele>
        <time>2011-07-15T05:20:05Z</time>
      </trkpt>
      <trkpt lat="44.59338" lon="6.84319">
        <ele>1911.9855957031</ele>
        <time>2011-07-15T05:20:08Z</time>
      </trkpt>
      <trkpt lat="44.5934" lon="6.84323">
        <ele>1912.0876464844</ele>
        <time>2011-07-15T05:20:15Z</time>
      </trkpt>
      <trkpt lat="44.59342" lon="6.84329">
        <ele>1911.9102783203</ele>
        <time>2011-07-15T05:20:22Z</time>
      </trkpt>
      <trkpt lat="44.59343" lon="6.84333">
        <ele>1911.6254882812</ele>
        <time>2011-07-15T05:20:25Z</time>
      </trkpt>
      <trkpt lat="44.59346" lon="6.84344">
        <ele>1911.5194091797</ele>
        <time>2011-07-15T05:20:31Z</time>
      </trkpt>
      <trkpt lat="44.5935" lon="6.84355">
        <ele>1911.7064208984</ele>
        <time>2011-07-15T05:20:37Z</time>
      </trkpt>
      <trkpt lat="44.59353" lon="6.84365">
        <ele>1912.1656494141</ele>
        <time>2011-07-15T05:20:42Z</time>
      </trkpt>
      <trkpt lat="44.59357" lon="6.8438">
        <ele>1912.1149902344</ele>
        <time>2011-07-15T05:20:50Z</time>
      </trkpt>
      <trkpt lat="44.59361" lon="6.84394">
        <ele>1912.3697509766</ele>
        <time>2011-07-15T05:20:57Z</time>
      </trkpt>
      <trkpt lat="44.59364" lon="6.84406">
        <ele>1912.0936279297</ele>
        <time>2011-07-15T05:21:03Z</time>
      </trkpt>
      <trkpt lat="44.59369" lon="6.84424">
        <ele>1911.9621582031</ele>
        <time>2011-07-15T05:21:12Z</time>
      </trkpt>
      <trkpt lat="44.59371" lon="6.84437">
        <ele>1911.8043212891</ele>
        <time>2011-07-15T05:21:18Z</time>
      </trkpt>
      <trkpt lat="44.59372" lon="6.84441">
        <ele>1911.8969726562</ele>
        <time>2011-07-15T05:21:20Z</time>
      </trkpt>
      <trkpt lat="44.59374" lon="6.84449">
        <ele>1912.3106689453</ele>
        <time>2011-07-15T05:21:24Z</time>
      </trkpt>
      <trkpt lat="44.59376" lon="6.8446">
        <ele>1913.3900146484</ele>
        <time>2011-07-15T05:21:29Z</time>
      </trkpt>
      <trkpt lat="44.59376" lon="6.84462">
        <ele>1913.4609375</ele>
        <time>2011-07-15T05:21:30Z</time>
      </trkpt>
      <trkpt lat="44.59379" lon="6.84476">
        <ele>1914.5953369141</ele>
        <time>2011-07-15T05:21:37Z</time>
      </trkpt>
      <trkpt lat="44.59377" lon="6.84492">
        <ele>1914.6794433594</ele>
        <time>2011-07-15T05:21:44Z</time>
      </trkpt>
      <trkpt lat="44.59373" lon="6.84503">
        <ele>1914.2147216797</ele>
        <time>2011-07-15T05:21:50Z</time>
      </trkpt>
      <trkpt lat="44.59368" lon="6.84515">
        <ele>1913.6861572266</ele>
        <time>2011-07-15T05:21:56Z</time>
      </trkpt>
      <trkpt lat="44.59361" lon="6.8453">
        <ele>1913.1011962891</ele>
        <time>2011-07-15T05:22:05Z</time>
      </trkpt>
      <trkpt lat="44.59357" lon="6.84543">
        <ele>1912.9672851562</ele>
        <time>2011-07-15T05:22:12Z</time>
      </trkpt>
      <trkpt lat="44.59354" lon="6.84562">
        <ele>1913.4532470703</ele>
        <time>2011-07-15T05:22:21Z</time>
      </trkpt>
      <trkpt lat="44.59352" lon="6.84581">
        <ele>1914.3289794922</ele>
        <time>2011-07-15T05:22:31Z</time>
      </trkpt>
      <trkpt lat="44.5935" lon="6.84604">
        <ele>1914.0368652344</ele>
        <time>2011-07-15T05:22:42Z</time>
      </trkpt>
      <trkpt lat="44.59346" lon="6.84626">
        <ele>1913.0367431641</ele>
        <time>2011-07-15T05:22:53Z</time>
      </trkpt>
      <trkpt lat="44.59343" lon="6.84645">
        <ele>1912.6209716797</ele>
        <time>2011-07-15T05:23:02Z</time>
      </trkpt>
      <trkpt lat="44.59341" lon="6.84658">
        <ele>1912.9705810547</ele>
        <time>2011-07-15T05:23:08Z</time>
      </trkpt>
      <trkpt lat="44.5934" lon="6.84675">
        <ele>1913.72265625</ele>
        <time>2011-07-15T05:23:17Z</time>
      </trkpt>
      <trkpt lat="44.59338" lon="6.84692">
        <ele>1914.5198974609</ele>
        <time>2011-07-15T05:23:25Z</time>
      </trkpt>
      <trkpt lat="44.59337" lon="6.84717">
        <ele>1915.4270019531</ele>
        <time>2011-07-15T05:23:37Z</time>
      </trkpt>
      <trkpt lat="44.59339" lon="6.84734">
        <ele>1915.9768066406</ele>
        <time>2011-07-15T05:23:45Z</time>
      </trkpt>
      <trkpt lat="44.59341" lon="6.8475">
        <ele>1916.3350830078</ele>
        <time>2011-07-15T05:23:53Z</time>
      </trkpt>
      <trkpt lat="44.59346" lon="6.8477">
        <ele>1917.9349365234</ele>
        <time>2011-07-15T05:24:03Z</time>
      </trkpt>
      <trkpt lat="44.59351" lon="6.84782">
        <ele>1919.2427978516</ele>
        <time>2011-07-15T05:24:10Z</time>
      </trkpt>
      <trkpt lat="44.59356" lon="6.84791">
        <ele>1919.998046875</ele>
        <time>2011-07-15T05:24:15Z</time>
      </trkpt>
      <trkpt lat="44.59361" lon="6.84801">
        <ele>1920.8907470703</ele>
        <time>2011-07-15T05:24:21Z</time>
      </trkpt>
      <trkpt lat="44.59367" lon="6.84813">
        <ele>1922.1491699219</ele>
        <time>2011-07-15T05:24:28Z</time>
      </trkpt>
      <trkpt lat="44.59372" lon="6.84824">
        <ele>1923.0336914062</ele>
        <time>2011-07-15T05:24:34Z</time>
      </trkpt>
      <trkpt lat="44.5938" lon="6.84839">
        <ele>1924.6086425781</ele>
        <time>2011-07-15T05:24:43Z</time>
      </trkpt>
      <trkpt lat="44.59381" lon="6.84841">
        <ele>1924.7540283203</ele>
        <time>2011-07-15T05:24:44Z</time>
      </trkpt>
      <trkpt lat="44.59381" lon="6.84842">
        <ele>1924.8936767578</ele>
        <time>2011-07-15T05:24:45Z</time>
      </trkpt>
      <trkpt lat="44.59383" lon="6.84844">
        <ele>1925.1232910156</ele>
        <time>2011-07-15T05:24:46Z</time>
      </trkpt>
      <trkpt lat="44.59385" lon="6.84849">
        <ele>1925.5137939453</ele>
        <time>2011-07-15T05:24:49Z</time>
      </trkpt>
      <trkpt lat="44.59386" lon="6.84851">
        <ele>1925.7248535156</ele>
        <time>2011-07-15T05:24:50Z</time>
      </trkpt>
      <trkpt lat="44.59388" lon="6.84854">
        <ele>1926.1439208984</ele>
        <time>2011-07-15T05:24:52Z</time>
      </trkpt>
      <trkpt lat="44.59394" lon="6.84864">
        <ele>1927.5407714844</ele>
        <time>2011-07-15T05:24:58Z</time>
      </trkpt>
      <trkpt lat="44.59397" lon="6.84872">
        <ele>1928.0406494141</ele>
        <time>2011-07-15T05:25:03Z</time>
      </trkpt>
      <trkpt lat="44.59403" lon="6.84884">
        <ele>1929.0738525391</ele>
        <time>2011-07-15T05:25:10Z</time>
      </trkpt>
      <trkpt lat="44.59409" lon="6.84896">
        <ele>1930.1362304688</ele>
        <time>2011-07-15T05:25:17Z</time>
      </trkpt>
      <trkpt lat="44.59416" lon="6.84907">
        <ele>1931.5267333984</ele>
        <time>2011-07-15T05:25:24Z</time>
      </trkpt>
      <trkpt lat="44.59423" lon="6.84919">
        <ele>1932.9527587891</ele>
        <time>2011-07-15T05:25:31Z</time>
      </trkpt>
      <trkpt lat="44.59425" lon="6.84922">
        <ele>1933.3464355469</ele>
        <time>2011-07-15T05:25:33Z</time>
      </trkpt>
      <trkpt lat="44.59431" lon="6.84934">
        <ele>1934.9495849609</ele>
        <time>2011-07-15T05:25:40Z</time>
      </trkpt>
      <trkpt lat="44.59433" lon="6.84938">
        <ele>1935.4909667969</ele>
        <time>2011-07-15T05:25:42Z</time>
      </trkpt>
      <trkpt lat="44.59434" lon="6.84939">
        <ele>1935.6948242188</ele>
        <time>2011-07-15T05:25:43Z</time>
      </trkpt>
      <trkpt lat="44.59439" lon="6.84951">
        <ele>1936.8518066406</ele>
        <time>2011-07-15T05:25:49Z</time>
      </trkpt>
      <trkpt lat="44.59443" lon="6.84961">
        <ele>1937.6655273438</ele>
        <time>2011-07-15T05:25:55Z</time>
      </trkpt>
      <trkpt lat="44.59447" lon="6.84972">
        <ele>1937.7829589844</ele>
        <time>2011-07-15T05:26:01Z</time>
      </trkpt>
      <trkpt lat="44.59453" lon="6.84986">
        <ele>1938.0931396484</ele>
        <time>2011-07-15T05:26:09Z</time>
      </trkpt>
      <trkpt lat="44.59456" lon="6.85001">
        <ele>1937.8225097656</ele>
        <time>2011-07-15T05:26:16Z</time>
      </trkpt>
      <trkpt lat="44.59456" lon="6.85015">
        <ele>1936.5931396484</ele>
        <time>2011-07-15T05:26:23Z</time>
      </trkpt>
      <trkpt lat="44.59457" lon="6.85031">
        <ele>1935.2918701172</ele>
        <time>2011-07-15T05:26:31Z</time>
      </trkpt>
      <trkpt lat="44.5946" lon="6.85046">
        <ele>1934.4112548828</ele>
        <time>2011-07-15T05:26:39Z</time>
      </trkpt>
      <trkpt lat="44.59464" lon="6.85057">
        <ele>1934.0427246094</ele>
        <time>2011-07-15T05:26:45Z</time>
      </trkpt>
      <trkpt lat="44.59468" lon="6.85069">
        <ele>1933.3199462891</ele>
        <time>2011-07-15T05:26:52Z</time>
      </trkpt>
      <trkpt lat="44.59472" lon="6.85078">
        <ele>1932.5880126953</ele>
        <time>2011-07-15T05:26:57Z</time>
      </trkpt>
      <trkpt lat="44.59477" lon="6.85094">
        <ele>1933.2980957031</ele>
        <time>2011-07-15T05:27:06Z</time>
      </trkpt>
      <trkpt lat="44.59483" lon="6.85107">
        <ele>1934.9438476562</ele>
        <time>2011-07-15T05:27:13Z</time>
      </trkpt>
      <trkpt lat="44.59488" lon="6.85116">
        <ele>1937.0869140625</ele>
        <time>2011-07-15T05:27:19Z</time>
      </trkpt>
      <trkpt lat="44.59499" lon="6.85124">
        <ele>1942.2717285156</ele>
        <time>2011-07-15T05:27:28Z</time>
      </trkpt>
      <trkpt lat="44.59507" lon="6.8513">
        <ele>1944.3071289062</ele>
        <time>2011-07-15T05:27:34Z</time>
      </trkpt>
      <trkpt lat="44.59519" lon="6.85138">
        <ele>1946.2365722656</ele>
        <time>2011-07-15T05:27:43Z</time>
      </trkpt>
      <trkpt lat="44.59529" lon="6.85146">
        <ele>1947.5288085938</ele>
        <time>2011-07-15T05:27:51Z</time>
      </trkpt>
      <trkpt lat="44.59539" lon="6.85155">
        <ele>1950.1444091797</ele>
        <time>2011-07-15T05:27:59Z</time>
      </trkpt>
      <trkpt lat="44.59547" lon="6.85165">
        <ele>1951.20703125</ele>
        <time>2011-07-15T05:28:06Z</time>
      </trkpt>
      <trkpt lat="44.59554" lon="6.85174">
        <ele>1951.1750488281</ele>
        <time>2011-07-15T05:28:13Z</time>
      </trkpt>
      <trkpt lat="44.59563" lon="6.85187">
        <ele>1950.1221923828</ele>
        <time>2011-07-15T05:28:21Z</time>
      </trkpt>
      <trkpt lat="44.59571" lon="6.85198">
        <ele>1949.8353271484</ele>
        <time>2011-07-15T05:28:28Z</time>
      </trkpt>
      <trkpt lat="44.5958" lon="6.85212">
        <ele>1950.8927001953</ele>
        <time>2011-07-15T05:28:37Z</time>
      </trkpt>
      <trkpt lat="44.59589" lon="6.85225">
        <ele>1953.6378173828</ele>
        <time>2011-07-15T05:28:46Z</time>
      </trkpt>
      <trkpt lat="44.59595" lon="6.85237">
        <ele>1955.2761230469</ele>
        <time>2011-07-15T05:28:53Z</time>
      </trkpt>
      <trkpt lat="44.596" lon="6.85252">
        <ele>1956.2340087891</ele>
        <time>2011-07-15T05:29:01Z</time>
      </trkpt>
      <trkpt lat="44.59602" lon="6.85263">
        <ele>1956.3524169922</ele>
        <time>2011-07-15T05:29:07Z</time>
      </trkpt>
      <trkpt lat="44.59604" lon="6.85279">
        <ele>1955.5180664062</ele>
        <time>2011-07-15T05:29:16Z</time>
      </trkpt>
      <trkpt lat="44.59604" lon="6.8529">
        <ele>1955.2930908203</ele>
        <time>2011-07-15T05:29:22Z</time>
      </trkpt>
      <trkpt lat="44.59607" lon="6.85306">
        <ele>1955.8309326172</ele>
        <time>2011-07-15T05:29:30Z</time>
      </trkpt>
      <trkpt lat="44.59611" lon="6.85319">
        <ele>1957.0728759766</ele>
        <time>2011-07-15T05:29:37Z</time>
      </trkpt>
      <trkpt lat="44.59616" lon="6.85328">
        <ele>1957.8924560547</ele>
        <time>2011-07-15T05:29:42Z</time>
      </trkpt>
      <trkpt lat="44.59624" lon="6.8534">
        <ele>1960.6938476562</ele>
        <time>2011-07-15T05:29:50Z</time>
      </trkpt>
      <trkpt lat="44.59629" lon="6.8535">
        <ele>1962.2110595703</ele>
        <time>2011-07-15T05:29:56Z</time>
      </trkpt>
      <trkpt lat="44.59634" lon="6.85362">
        <ele>1963.4532470703</ele>
        <time>2011-07-15T05:30:03Z</time>
      </trkpt>
      <trkpt lat="44.59639" lon="6.85377">
        <ele>1964.7407226562</ele>
        <time>2011-07-15T05:30:11Z</time>
      </trkpt>
      <trkpt lat="44.59643" lon="6.85391">
        <ele>1966.1943359375</ele>
        <time>2011-07-15T05:30:19Z</time>
      </trkpt>
      <trkpt lat="44.59648" lon="6.85409">
        <ele>1968.2681884766</ele>
        <time>2011-07-15T05:30:28Z</time>
      </trkpt>
      <trkpt lat="44.59651" lon="6.85422">
        <ele>1969.0551757812</ele>
        <time>2011-07-15T05:30:35Z</time>
      </trkpt>
      <trkpt lat="44.59653" lon="6.85433">
        <ele>1969.0231933594</ele>
        <time>2011-07-15T05:30:41Z</time>
      </trkpt>
      <trkpt lat="44.59658" lon="6.85453">
        <ele>1968.8435058594</ele>
        <time>2011-07-15T05:30:51Z</time>
      </trkpt>
      <trkpt lat="44.59661" lon="6.85466">
        <ele>1968.1158447266</ele>
        <time>2011-07-15T05:30:58Z</time>
      </trkpt>
      <trkpt lat="44.59662" lon="6.85474">
        <ele>1967.8634033203</ele>
        <time>2011-07-15T05:31:02Z</time>
      </trkpt>
      <trkpt lat="44.59663" lon="6.85476">
        <ele>1967.9400634766</ele>
        <time>2011-07-15T05:31:03Z</time>
      </trkpt>
      <trkpt lat="44.59663" lon="6.85481">
        <ele>1968.1038818359</ele>
        <time>2011-07-15T05:31:05Z</time>
      </trkpt>
      <trkpt lat="44.59664" lon="6.85483">
        <ele>1968.1925048828</ele>
        <time>2011-07-15T05:31:06Z</time>
      </trkpt>
      <trkpt lat="44.59665" lon="6.85487">
        <ele>1968.4927978516</ele>
        <time>2011-07-15T05:31:08Z</time>
      </trkpt>
      <trkpt lat="44.59665" lon="6.85489">
        <ele>1968.5960693359</ele>
        <time>2011-07-15T05:31:09Z</time>
      </trkpt>
      <trkpt lat="44.59669" lon="6.85506">
        <ele>1969.0972900391</ele>
        <time>2011-07-15T05:31:15Z</time>
      </trkpt>
      <trkpt lat="44.5967" lon="6.8551">
        <ele>1968.8793945312</ele>
        <time>2011-07-15T05:31:16Z</time>
      </trkpt>
      <trkpt lat="44.5967" lon="6.85513">
        <ele>1968.6671142578</ele>
        <time>2011-07-15T05:31:17Z</time>
      </trkpt>
      <trkpt lat="44.59671" lon="6.8552">
        <ele>1968.3078613281</ele>
        <time>2011-07-15T05:31:19Z</time>
      </trkpt>
      <trkpt lat="44.59671" lon="6.85523">
        <ele>1968.0125732422</ele>
        <time>2011-07-15T05:31:20Z</time>
      </trkpt>
      <trkpt lat="44.59671" lon="6.85526">
        <ele>1967.7388916016</ele>
        <time>2011-07-15T05:31:21Z</time>
      </trkpt>
      <trkpt lat="44.59671" lon="6.85529">
        <ele>1967.6534423828</ele>
        <time>2011-07-15T05:31:22Z</time>
      </trkpt>
      <trkpt lat="44.59671" lon="6.85532">
        <ele>1967.3757324219</ele>
        <time>2011-07-15T05:31:23Z</time>
      </trkpt>
      <trkpt lat="44.59671" lon="6.85539">
        <ele>1966.9561767578</ele>
        <time>2011-07-15T05:31:25Z</time>
      </trkpt>
      <trkpt lat="44.59671" lon="6.85542">
        <ele>1966.8443603516</ele>
        <time>2011-07-15T05:31:26Z</time>
      </trkpt>
      <trkpt lat="44.59672" lon="6.85555">
        <ele>1966.6701660156</ele>
        <time>2011-07-15T05:31:32Z</time>
      </trkpt>
      <trkpt lat="44.59671" lon="6.85559">
        <ele>1966.8673095703</ele>
        <time>2011-07-15T05:31:34Z</time>
      </trkpt>
      <trkpt lat="44.59671" lon="6.85561">
        <ele>1966.9361572266</ele>
        <time>2011-07-15T05:31:35Z</time>
      </trkpt>
      <trkpt lat="44.59671" lon="6.85563">
        <ele>1967.1114501953</ele>
        <time>2011-07-15T05:31:36Z</time>
      </trkpt>
      <trkpt lat="44.5967" lon="6.85581">
        <ele>1968.6063232422</ele>
        <time>2011-07-15T05:31:46Z</time>
      </trkpt>
      <trkpt lat="44.59669" lon="6.85594">
        <ele>1969.4968261719</ele>
        <time>2011-07-15T05:31:54Z</time>
      </trkpt>
      <trkpt lat="44.5967" lon="6.85599">
        <ele>1969.9534912109</ele>
        <time>2011-07-15T05:31:57Z</time>
      </trkpt>
      <trkpt lat="44.5967" lon="6.85601">
        <ele>1970.0736083984</ele>
        <time>2011-07-15T05:31:58Z</time>
      </trkpt>
      <trkpt lat="44.59668" lon="6.85608">
        <ele>1970.2211914062</ele>
        <time>2011-07-15T05:32:03Z</time>
      </trkpt>
      <trkpt lat="44.59666" lon="6.85618">
        <ele>1970.6732177734</ele>
        <time>2011-07-15T05:32:11Z</time>
      </trkpt>
      <trkpt lat="44.59666" lon="6.8562">
        <ele>1970.6802978516</ele>
        <time>2011-07-15T05:32:13Z</time>
      </trkpt>
      <trkpt lat="44.59666" lon="6.85621">
        <ele>1970.7717285156</ele>
        <time>2011-07-15T05:32:14Z</time>
      </trkpt>
      <trkpt lat="44.59665" lon="6.85624">
        <ele>1970.4879150391</ele>
        <time>2011-07-15T05:32:17Z</time>
      </trkpt>
      <trkpt lat="44.59665" lon="6.85625">
        <ele>1970.3995361328</ele>
        <time>2011-07-15T05:32:18Z</time>
      </trkpt>
      <trkpt lat="44.59664" lon="6.85626">
        <ele>1970.3090820312</ele>
        <time>2011-07-15T05:32:19Z</time>
      </trkpt>
      <trkpt lat="44.59662" lon="6.85635">
        <ele>1970.0533447266</ele>
        <time>2011-07-15T05:32:28Z</time>
      </trkpt>
      <trkpt lat="44.5966" lon="6.85642">
        <ele>1969.9885253906</ele>
        <time>2011-07-15T05:32:35Z</time>
      </trkpt>
      <trkpt lat="44.59658" lon="6.85649">
        <ele>1969.8566894531</ele>
        <time>2011-07-15T05:32:41Z</time>
      </trkpt>
      <trkpt lat="44.59654" lon="6.85654">
        <ele>1968.2786865234</ele>
        <time>2011-07-15T05:32:47Z</time>
      </trkpt>
      <trkpt lat="44.59643" lon="6.85666">
        <ele>1964.8422851562</ele>
        <time>2011-07-15T05:32:54Z</time>
      </trkpt>
      <trkpt lat="44.59632" lon="6.85679">
        <ele>1964.0734863281</ele>
        <time>2011-07-15T05:33:01Z</time>
      </trkpt>
      <trkpt lat="44.59623" lon="6.85691">
        <ele>1963.4757080078</ele>
        <time>2011-07-15T05:33:07Z</time>
      </trkpt>
      <trkpt lat="44.59614" lon="6.85705">
        <ele>1962.8181152344</ele>
        <time>2011-07-15T05:33:15Z</time>
      </trkpt>
      <trkpt lat="44.5961" lon="6.85716">
        <ele>1963.259765625</ele>
        <time>2011-07-15T05:33:22Z</time>
      </trkpt>
      <trkpt lat="44.59606" lon="6.85725">
        <ele>1963.8619384766</ele>
        <time>2011-07-15T05:33:29Z</time>
      </trkpt>
      <trkpt lat="44.59604" lon="6.85734">
        <ele>1965.2290039062</ele>
        <time>2011-07-15T05:33:35Z</time>
      </trkpt>
      <trkpt lat="44.59604" lon="6.8574">
        <ele>1966.2869873047</ele>
        <time>2011-07-15T05:33:39Z</time>
      </trkpt>
      <trkpt lat="44.59602" lon="6.85749">
        <ele>1967.2806396484</ele>
        <time>2011-07-15T05:33:45Z</time>
      </trkpt>
      <trkpt lat="44.59599" lon="6.85762">
        <ele>1968.7004394531</ele>
        <time>2011-07-15T05:33:54Z</time>
      </trkpt>
      <trkpt lat="44.59598" lon="6.85774">
        <ele>1970.4544677734</ele>
        <time>2011-07-15T05:34:02Z</time>
      </trkpt>
      <trkpt lat="44.59597" lon="6.85785">
        <ele>1970.4814453125</ele>
        <time>2011-07-15T05:34:10Z</time>
      </trkpt>
      <trkpt lat="44.59597" lon="6.85787">
        <ele>1970.5642089844</ele>
        <time>2011-07-15T05:34:11Z</time>
      </trkpt>
      <trkpt lat="44.59596" lon="6.85796">
        <ele>1970.8580322266</ele>
        <time>2011-07-15T05:34:18Z</time>
      </trkpt>
      <trkpt lat="44.59598" lon="6.85808">
        <ele>1972.5885009766</ele>
        <time>2011-07-15T05:34:27Z</time>
      </trkpt>
      <trkpt lat="44.59598" lon="6.85811">
        <ele>1972.8923339844</ele>
        <time>2011-07-15T05:34:29Z</time>
      </trkpt>
      <trkpt lat="44.59597" lon="6.85812">
        <ele>1972.8271484375</ele>
        <time>2011-07-15T05:34:30Z</time>
      </trkpt>
      <trkpt lat="44.59596" lon="6.85824">
        <ele>1973.4708251953</ele>
        <time>2011-07-15T05:34:38Z</time>
      </trkpt>
      <trkpt lat="44.59595" lon="6.85836">
        <ele>1974.2258300781</ele>
        <time>2011-07-15T05:34:45Z</time>
      </trkpt>
      <trkpt lat="44.59595" lon="6.85839">
        <ele>1974.3093261719</ele>
        <time>2011-07-15T05:34:47Z</time>
      </trkpt>
      <trkpt lat="44.59592" lon="6.85852">
        <ele>1974.04296875</ele>
        <time>2011-07-15T05:34:55Z</time>
      </trkpt>
      <trkpt lat="44.59588" lon="6.85866">
        <ele>1973.9105224609</ele>
        <time>2011-07-15T05:35:01Z</time>
      </trkpt>
      <trkpt lat="44.59585" lon="6.85878">
        <ele>1974.1585693359</ele>
        <time>2011-07-15T05:35:05Z</time>
      </trkpt>
      <trkpt lat="44.59584" lon="6.85883">
        <ele>1974.2535400391</ele>
        <time>2011-07-15T05:35:07Z</time>
      </trkpt>
      <trkpt lat="44.59579" lon="6.85901">
        <ele>1975.2485351562</ele>
        <time>2011-07-15T05:35:14Z</time>
      </trkpt>
      <trkpt lat="44.59576" lon="6.85914">
        <ele>1975.4735107422</ele>
        <time>2011-07-15T05:35:20Z</time>
      </trkpt>
      <trkpt lat="44.59573" lon="6.85926">
        <ele>1975.9990234375</ele>
        <time>2011-07-15T05:35:27Z</time>
      </trkpt>
      <trkpt lat="44.59573" lon="6.85938">
        <ele>1976.9591064453</ele>
        <time>2011-07-15T05:35:35Z</time>
      </trkpt>
      <trkpt lat="44.59573" lon="6.85948">
        <ele>1978.3039550781</ele>
        <time>2011-07-15T05:35:43Z</time>
      </trkpt>
      <trkpt lat="44.59572" lon="6.85958">
        <ele>1979.4832763672</ele>
        <time>2011-07-15T05:35:50Z</time>
      </trkpt>
      <trkpt lat="44.5957" lon="6.85969">
        <ele>1980.7116699219</ele>
        <time>2011-07-15T05:35:57Z</time>
      </trkpt>
      <trkpt lat="44.59569" lon="6.8598">
        <ele>1981.8438720703</ele>
        <time>2011-07-15T05:36:04Z</time>
      </trkpt>
      <trkpt lat="44.59567" lon="6.85992">
        <ele>1982.9747314453</ele>
        <time>2011-07-15T05:36:11Z</time>
      </trkpt>
      <trkpt lat="44.59567" lon="6.86005">
        <ele>1984.7657470703</ele>
        <time>2011-07-15T05:36:18Z</time>
      </trkpt>
      <trkpt lat="44.59568" lon="6.86016">
        <ele>1986.9853515625</ele>
        <time>2011-07-15T05:36:24Z</time>
      </trkpt>
      <trkpt lat="44.59569" lon="6.86025">
        <ele>1988.8427734375</ele>
        <time>2011-07-15T05:36:29Z</time>
      </trkpt>
      <trkpt lat="44.59573" lon="6.86039">
        <ele>1990.345703125</ele>
        <time>2011-07-15T05:36:38Z</time>
      </trkpt>
      <trkpt lat="44.59579" lon="6.86056">
        <ele>1991.7719726562</ele>
        <time>2011-07-15T05:36:49Z</time>
      </trkpt>
      <trkpt lat="44.59584" lon="6.86071">
        <ele>1993.4599609375</ele>
        <time>2011-07-15T05:36:59Z</time>
      </trkpt>
      <trkpt lat="44.59589" lon="6.86081">
        <ele>1995.4311523438</ele>
        <time>2011-07-15T05:37:05Z</time>
      </trkpt>
      <trkpt lat="44.59592" lon="6.86091">
        <ele>1996.3260498047</ele>
        <time>2011-07-15T05:37:11Z</time>
      </trkpt>
      <trkpt lat="44.59597" lon="6.86102">
        <ele>1997.2310791016</ele>
        <time>2011-07-15T05:37:18Z</time>
      </trkpt>
      <trkpt lat="44.59601" lon="6.86116">
        <ele>1997.4719238281</ele>
        <time>2011-07-15T05:37:26Z</time>
      </trkpt>
      <trkpt lat="44.59604" lon="6.86125">
        <ele>1998.0124511719</ele>
        <time>2011-07-15T05:37:32Z</time>
      </trkpt>
      <trkpt lat="44.59607" lon="6.86134">
        <ele>1998.6348876953</ele>
        <time>2011-07-15T05:37:38Z</time>
      </trkpt>
      <trkpt lat="44.59612" lon="6.86143">
        <ele>2000.1536865234</ele>
        <time>2011-07-15T05:37:45Z</time>
      </trkpt>
      <trkpt lat="44.59616" lon="6.86153">
        <ele>2000.7188720703</ele>
        <time>2011-07-15T05:37:52Z</time>
      </trkpt>
      <trkpt lat="44.59621" lon="6.86163">
        <ele>2000.9188232422</ele>
        <time>2011-07-15T05:37:59Z</time>
      </trkpt>
      <trkpt lat="44.59626" lon="6.86173">
        <ele>2000.7380371094</ele>
        <time>2011-07-15T05:38:05Z</time>
      </trkpt>
      <trkpt lat="44.59634" lon="6.86188">
        <ele>2000.25390625</ele>
        <time>2011-07-15T05:38:13Z</time>
      </trkpt>
      <trkpt lat="44.59641" lon="6.86198">
        <ele>2000.6098632812</ele>
        <time>2011-07-15T05:38:20Z</time>
      </trkpt>
      <trkpt lat="44.59648" lon="6.86205">
        <ele>2002.3839111328</ele>
        <time>2011-07-15T05:38:26Z</time>
      </trkpt>
      <trkpt lat="44.59653" lon="6.86219">
        <ele>2002.8416748047</ele>
        <time>2011-07-15T05:38:34Z</time>
      </trkpt>
      <trkpt lat="44.59655" lon="6.86227">
        <ele>2002.4234619141</ele>
        <time>2011-07-15T05:38:38Z</time>
      </trkpt>
      <trkpt lat="44.59658" lon="6.86236">
        <ele>2001.7427978516</ele>
        <time>2011-07-15T05:38:43Z</time>
      </trkpt>
      <trkpt lat="44.59663" lon="6.8625">
        <ele>2000</ele>
        <time>2011-07-15T05:38:51Z</time>
      </trkpt>
      <trkpt lat="44.59668" lon="6.86259">
        <ele>2000.3649902344</ele>
        <time>2011-07-15T05:38:56Z</time>
      </trkpt>
      <trkpt lat="44.59674" lon="6.86273">
        <ele>2002.5286865234</ele>
        <time>2011-07-15T05:39:04Z</time>
      </trkpt>
      <trkpt lat="44.59679" lon="6.86285">
        <ele>2004.4252929688</ele>
        <time>2011-07-15T05:39:11Z</time>
      </trkpt>
      <trkpt lat="44.59686" lon="6.86294">
        <ele>2006.2734375</ele>
        <time>2011-07-15T05:39:17Z</time>
      </trkpt>
      <trkpt lat="44.59691" lon="6.86307">
        <ele>2007.3475341797</ele>
        <time>2011-07-15T05:39:24Z</time>
      </trkpt>
      <trkpt lat="44.59696" lon="6.86316">
        <ele>2007.8314208984</ele>
        <time>2011-07-15T05:39:30Z</time>
      </trkpt>
      <trkpt lat="44.59703" lon="6.86329">
        <ele>2010.4835205078</ele>
        <time>2011-07-15T05:39:38Z</time>
      </trkpt>
      <trkpt lat="44.59709" lon="6.86337">
        <ele>2012.3618164062</ele>
        <time>2011-07-15T05:39:44Z</time>
      </trkpt>
      <trkpt lat="44.5971" lon="6.86339">
        <ele>2012.6878662109</ele>
        <time>2011-07-15T05:39:45Z</time>
      </trkpt>
      <trkpt lat="44.59717" lon="6.86351">
        <ele>2013.8497314453</ele>
        <time>2011-07-15T05:39:53Z</time>
      </trkpt>
      <trkpt lat="44.59722" lon="6.86359">
        <ele>2014.1614990234</ele>
        <time>2011-07-15T05:39:59Z</time>
      </trkpt>
      <trkpt lat="44.59729" lon="6.86371">
        <ele>2015.2924804688</ele>
        <time>2011-07-15T05:40:07Z</time>
      </trkpt>
      <trkpt lat="44.59739" lon="6.86385">
        <ele>2017.0408935547</ele>
        <time>2011-07-15T05:40:17Z</time>
      </trkpt>
      <trkpt lat="44.59748" lon="6.86396">
        <ele>2018.5604248047</ele>
        <time>2011-07-15T05:40:25Z</time>
      </trkpt>
      <trkpt lat="44.59749" lon="6.86398">
        <ele>2018.6782226562</ele>
        <time>2011-07-15T05:40:26Z</time>
      </trkpt>
      <trkpt lat="44.59758" lon="6.8641">
        <ele>2017.8074951172</ele>
        <time>2011-07-15T05:40:35Z</time>
      </trkpt>
      <trkpt lat="44.59761" lon="6.86413">
        <ele>2017.6318359375</ele>
        <time>2011-07-15T05:40:37Z</time>
      </trkpt>
      <trkpt lat="44.59762" lon="6.86415">
        <ele>2017.5463867188</ele>
        <time>2011-07-15T05:40:38Z</time>
      </trkpt>
      <trkpt lat="44.59766" lon="6.86419">
        <ele>2017.2725830078</ele>
        <time>2011-07-15T05:40:40Z</time>
      </trkpt>
      <trkpt lat="44.59768" lon="6.86421">
        <ele>2017.0694580078</ele>
        <time>2011-07-15T05:40:41Z</time>
      </trkpt>
      <trkpt lat="44.59771" lon="6.86425">
        <ele>2016.615234375</ele>
        <time>2011-07-15T05:40:43Z</time>
      </trkpt>
      <trkpt lat="44.59773" lon="6.86427">
        <ele>2016.2667236328</ele>
        <time>2011-07-15T05:40:44Z</time>
      </trkpt>
      <trkpt lat="44.59775" lon="6.86429">
        <ele>2015.9442138672</ele>
        <time>2011-07-15T05:40:45Z</time>
      </trkpt>
      <trkpt lat="44.59784" lon="6.86437">
        <ele>2014.1275634766</ele>
        <time>2011-07-15T05:40:50Z</time>
      </trkpt>
      <trkpt lat="44.59789" lon="6.8644">
        <ele>2013.4582519531</ele>
        <time>2011-07-15T05:40:52Z</time>
      </trkpt>
      <trkpt lat="44.59791" lon="6.86442">
        <ele>2013.1282958984</ele>
        <time>2011-07-15T05:40:53Z</time>
      </trkpt>
      <trkpt lat="44.59795" lon="6.86444">
        <ele>2012.6108398438</ele>
        <time>2011-07-15T05:40:55Z</time>
      </trkpt>
      <trkpt lat="44.59809" lon="6.86449">
        <ele>2012.1398925781</ele>
        <time>2011-07-15T05:41:02Z</time>
      </trkpt>
      <trkpt lat="44.59814" lon="6.8645">
        <ele>2012.2672119141</ele>
        <time>2011-07-15T05:41:04Z</time>
      </trkpt>
      <trkpt lat="44.59816" lon="6.86451">
        <ele>2012.2781982422</ele>
        <time>2011-07-15T05:41:05Z</time>
      </trkpt>
      <trkpt lat="44.59829" lon="6.86457">
        <ele>2012.7445068359</ele>
        <time>2011-07-15T05:41:11Z</time>
      </trkpt>
      <trkpt lat="44.59846" lon="6.86461">
        <ele>2014.1745605469</ele>
        <time>2011-07-15T05:41:19Z</time>
      </trkpt>
      <trkpt lat="44.59858" lon="6.86467">
        <ele>2014.662109375</ele>
        <time>2011-07-15T05:41:25Z</time>
      </trkpt>
      <trkpt lat="44.59864" lon="6.86469">
        <ele>2015.8929443359</ele>
        <time>2011-07-15T05:41:28Z</time>
      </trkpt>
      <trkpt lat="44.59875" lon="6.86479">
        <ele>2017.3294677734</ele>
        <time>2011-07-15T05:41:34Z</time>
      </trkpt>
      <trkpt lat="44.59882" lon="6.86487">
        <ele>2017.2919921875</ele>
        <time>2011-07-15T05:41:40Z</time>
      </trkpt>
      <trkpt lat="44.59891" lon="6.86495">
        <ele>2017.7651367188</ele>
        <time>2011-07-15T05:41:47Z</time>
      </trkpt>
      <trkpt lat="44.59902" lon="6.86501">
        <ele>2016.5994873047</ele>
        <time>2011-07-15T05:41:55Z</time>
      </trkpt>
      <trkpt lat="44.59906" lon="6.86501">
        <ele>2017.0423583984</ele>
        <time>2011-07-15T05:41:58Z</time>
      </trkpt>
      <trkpt lat="44.59908" lon="6.865">
        <ele>2017.2088623047</ele>
        <time>2011-07-15T05:41:59Z</time>
      </trkpt>
      <trkpt lat="44.59909" lon="6.865">
        <ele>2017.4320068359</ele>
        <time>2011-07-15T05:42:00Z</time>
      </trkpt>
      <trkpt lat="44.59921" lon="6.86499">
        <ele>2019.3427734375</ele>
        <time>2011-07-15T05:42:08Z</time>
      </trkpt>
      <trkpt lat="44.59925" lon="6.86499">
        <ele>2020.5556640625</ele>
        <time>2011-07-15T05:42:11Z</time>
      </trkpt>
      <trkpt lat="44.59926" lon="6.865">
        <ele>2020.8829345703</ele>
        <time>2011-07-15T05:42:12Z</time>
      </trkpt>
      <trkpt lat="44.59937" lon="6.86504">
        <ele>2022.2973632812</ele>
        <time>2011-07-15T05:42:21Z</time>
      </trkpt>
      <trkpt lat="44.59939" lon="6.86505">
        <ele>2022.7086181641</ele>
        <time>2011-07-15T05:42:23Z</time>
      </trkpt>
      <trkpt lat="44.59946" lon="6.86509">
        <ele>2023.4906005859</ele>
        <time>2011-07-15T05:42:29Z</time>
      </trkpt>
      <trkpt lat="44.59949" lon="6.86511">
        <ele>2023.6978759766</ele>
        <time>2011-07-15T05:42:31Z</time>
      </trkpt>
      <trkpt lat="44.59958" lon="6.86515">
        <ele>2024.4471435547</ele>
        <time>2011-07-15T05:42:39Z</time>
      </trkpt>
      <trkpt lat="44.59965" lon="6.86517">
        <ele>2025.6828613281</ele>
        <time>2011-07-15T05:42:47Z</time>
      </trkpt>
      <trkpt lat="44.59969" lon="6.86518">
        <ele>2026.0814208984</ele>
        <time>2011-07-15T05:42:51Z</time>
      </trkpt>
      <trkpt lat="44.59972" lon="6.8652">
        <ele>2026.0485839844</ele>
        <time>2011-07-15T05:42:54Z</time>
      </trkpt>
      <trkpt lat="44.59979" lon="6.86526">
        <ele>2027.5170898438</ele>
        <time>2011-07-15T05:43:01Z</time>
      </trkpt>
      <trkpt lat="44.5998" lon="6.86527">
        <ele>2027.5090332031</ele>
        <time>2011-07-15T05:43:02Z</time>
      </trkpt>
      <trkpt lat="44.59982" lon="6.86539">
        <ele>2026.4727783203</ele>
        <time>2011-07-15T05:43:10Z</time>
      </trkpt>
      <trkpt lat="44.59983" lon="6.86544">
        <ele>2026.2459716797</ele>
        <time>2011-07-15T05:43:13Z</time>
      </trkpt>
      <trkpt lat="44.59984" lon="6.86545">
        <ele>2026.1669921875</ele>
        <time>2011-07-15T05:43:14Z</time>
      </trkpt>
      <trkpt lat="44.59984" lon="6.86547">
        <ele>2025.8411865234</ele>
        <time>2011-07-15T05:43:15Z</time>
      </trkpt>
      <trkpt lat="44.59985" lon="6.86558">
        <ele>2024.40234375</ele>
        <time>2011-07-15T05:43:22Z</time>
      </trkpt>
      <trkpt lat="44.59986" lon="6.86571">
        <ele>2022.4145507812</ele>
        <time>2011-07-15T05:43:30Z</time>
      </trkpt>
      <trkpt lat="44.59988" lon="6.86582">
        <ele>2021.2952880859</ele>
        <time>2011-07-15T05:43:37Z</time>
      </trkpt>
      <trkpt lat="44.59989" lon="6.86583">
        <ele>2021.2712402344</ele>
        <time>2011-07-15T05:43:38Z</time>
      </trkpt>
      <trkpt lat="44.59995" lon="6.86593">
        <ele>2023.1198730469</ele>
        <time>2011-07-15T05:43:47Z</time>
      </trkpt>
      <trkpt lat="44.60001" lon="6.86607">
        <ele>2024.0394287109</ele>
        <time>2011-07-15T05:43:56Z</time>
      </trkpt>
      <trkpt lat="44.60004" lon="6.86611">
        <ele>2024.0827636719</ele>
        <time>2011-07-15T05:43:59Z</time>
      </trkpt>
      <trkpt lat="44.60005" lon="6.86612">
        <ele>2024.0949707031</ele>
        <time>2011-07-15T05:44:00Z</time>
      </trkpt>
      <trkpt lat="44.60007" lon="6.86617">
        <ele>2024.2424316406</ele>
        <time>2011-07-15T05:44:03Z</time>
      </trkpt>
      <trkpt lat="44.60009" lon="6.86618">
        <ele>2024.3352050781</ele>
        <time>2011-07-15T05:44:04Z</time>
      </trkpt>
      <trkpt lat="44.60015" lon="6.86629">
        <ele>2024.5112304688</ele>
        <time>2011-07-15T05:44:12Z</time>
      </trkpt>
      <trkpt lat="44.60018" lon="6.86633">
        <ele>2024.7198486328</ele>
        <time>2011-07-15T05:44:15Z</time>
      </trkpt>
      <trkpt lat="44.60025" lon="6.86641">
        <ele>2024.9691162109</ele>
        <time>2011-07-15T05:44:22Z</time>
      </trkpt>
      <trkpt lat="44.60025" lon="6.86642">
        <ele>2024.966796875</ele>
        <time>2011-07-15T05:44:23Z</time>
      </trkpt>
      <trkpt lat="44.60035" lon="6.86649">
        <ele>2026.2203369141</ele>
        <time>2011-07-15T05:44:32Z</time>
      </trkpt>
      <trkpt lat="44.60038" lon="6.86652">
        <ele>2026.5782470703</ele>
        <time>2011-07-15T05:44:35Z</time>
      </trkpt>
      <trkpt lat="44.6004" lon="6.86652">
        <ele>2026.7399902344</ele>
        <time>2011-07-15T05:44:36Z</time>
      </trkpt>
      <trkpt lat="44.60049" lon="6.86656">
        <ele>2028.7279052734</ele>
        <time>2011-07-15T05:44:44Z</time>
      </trkpt>
      <trkpt lat="44.60054" lon="6.86656">
        <ele>2029.7122802734</ele>
        <time>2011-07-15T05:44:47Z</time>
      </trkpt>
      <trkpt lat="44.60066" lon="6.86658">
        <ele>2031.056640625</ele>
        <time>2011-07-15T05:44:56Z</time>
      </trkpt>
      <trkpt lat="44.60083" lon="6.86655">
        <ele>2033.7735595703</ele>
        <time>2011-07-15T05:45:08Z</time>
      </trkpt>
      <trkpt lat="44.60095" lon="6.86656">
        <ele>2033.3175048828</ele>
        <time>2011-07-15T05:45:16Z</time>
      </trkpt>
      <trkpt lat="44.60109" lon="6.86657">
        <ele>2033.0394287109</ele>
        <time>2011-07-15T05:45:25Z</time>
      </trkpt>
      <trkpt lat="44.6012" lon="6.86652">
        <ele>2035.3215332031</ele>
        <time>2011-07-15T05:45:33Z</time>
      </trkpt>
      <trkpt lat="44.60128" lon="6.86642">
        <ele>2038.7563476562</ele>
        <time>2011-07-15T05:45:40Z</time>
      </trkpt>
      <trkpt lat="44.60136" lon="6.86639">
        <ele>2039.8005371094</ele>
        <time>2011-07-15T05:45:46Z</time>
      </trkpt>
      <trkpt lat="44.60141" lon="6.86647">
        <ele>2040.1002197266</ele>
        <time>2011-07-15T05:45:52Z</time>
      </trkpt>
      <trkpt lat="44.60147" lon="6.86659">
        <ele>2041.3018798828</ele>
        <time>2011-07-15T05:46:00Z</time>
      </trkpt>
      <trkpt lat="44.60152" lon="6.8667">
        <ele>2042.2901611328</ele>
        <time>2011-07-15T05:46:06Z</time>
      </trkpt>
      <trkpt lat="44.60159" lon="6.86682">
        <ele>2042.2742919922</ele>
        <time>2011-07-15T05:46:14Z</time>
      </trkpt>
      <trkpt lat="44.60165" lon="6.86691">
        <ele>2043.3562011719</ele>
        <time>2011-07-15T05:46:20Z</time>
      </trkpt>
      <trkpt lat="44.60175" lon="6.86702">
        <ele>2044.2517089844</ele>
        <time>2011-07-15T05:46:26Z</time>
      </trkpt>
      <trkpt lat="44.6018" lon="6.86712">
        <ele>2043.5155029297</ele>
        <time>2011-07-15T05:46:30Z</time>
      </trkpt>
      <trkpt lat="44.60183" lon="6.86716">
        <ele>2043.3579101562</ele>
        <time>2011-07-15T05:46:32Z</time>
      </trkpt>
      <trkpt lat="44.6019" lon="6.86731">
        <ele>2040.8028564453</ele>
        <time>2011-07-15T05:46:38Z</time>
      </trkpt>
      <trkpt lat="44.60191" lon="6.86747">
        <ele>2032.4437255859</ele>
        <time>2011-07-15T05:46:43Z</time>
      </trkpt>
      <trkpt lat="44.60186" lon="6.86766">
        <ele>2028.6021728516</ele>
        <time>2011-07-15T05:46:49Z</time>
      </trkpt>
      <trkpt lat="44.60182" lon="6.86778">
        <ele>2026.7288818359</ele>
        <time>2011-07-15T05:46:54Z</time>
      </trkpt>
      <trkpt lat="44.60182" lon="6.8678">
        <ele>2026.8489990234</ele>
        <time>2011-07-15T05:46:55Z</time>
      </trkpt>
      <trkpt lat="44.60179" lon="6.8679">
        <ele>2025.8671875</ele>
        <time>2011-07-15T05:47:02Z</time>
      </trkpt>
      <trkpt lat="44.60178" lon="6.86791">
        <ele>2025.7194824219</ele>
        <time>2011-07-15T05:47:03Z</time>
      </trkpt>
      <trkpt lat="44.60173" lon="6.86799">
        <ele>2023.4227294922</ele>
        <time>2011-07-15T05:47:11Z</time>
      </trkpt>
      <trkpt lat="44.6017" lon="6.86806">
        <ele>2021.7114257812</ele>
        <time>2011-07-15T05:47:18Z</time>
      </trkpt>
      <trkpt lat="44.60165" lon="6.86813">
        <ele>2020.7528076172</ele>
        <time>2011-07-15T05:47:25Z</time>
      </trkpt>
      <trkpt lat="44.6016" lon="6.86828">
        <ele>2021.6668701172</ele>
        <time>2011-07-15T05:47:35Z</time>
      </trkpt>
      <trkpt lat="44.60159" lon="6.86832">
        <ele>2022.0968017578</ele>
        <time>2011-07-15T05:47:38Z</time>
      </trkpt>
      <trkpt lat="44.60158" lon="6.86839">
        <ele>2022.9541015625</ele>
        <time>2011-07-15T05:47:44Z</time>
      </trkpt>
      <trkpt lat="44.60155" lon="6.86853">
        <ele>2024.4663085938</ele>
        <time>2011-07-15T05:47:54Z</time>
      </trkpt>
      <trkpt lat="44.60152" lon="6.86866">
        <ele>2025.5490722656</ele>
        <time>2011-07-15T05:48:03Z</time>
      </trkpt>
      <trkpt lat="44.60151" lon="6.86869">
        <ele>2025.755859375</ele>
        <time>2011-07-15T05:48:05Z</time>
      </trkpt>
      <trkpt lat="44.6015" lon="6.86878">
        <ele>2026.6171875</ele>
        <time>2011-07-15T05:48:11Z</time>
      </trkpt>
      <trkpt lat="44.60149" lon="6.86887">
        <ele>2027.5653076172</ele>
        <time>2011-07-15T05:48:17Z</time>
      </trkpt>
      <trkpt lat="44.60149" lon="6.86894">
        <ele>2028.7741699219</ele>
        <time>2011-07-15T05:48:24Z</time>
      </trkpt>
      <trkpt lat="44.60148" lon="6.86903">
        <ele>2030.0494384766</ele>
        <time>2011-07-15T05:48:32Z</time>
      </trkpt>
      <trkpt lat="44.60149" lon="6.86911">
        <ele>2031.8686523438</ele>
        <time>2011-07-15T05:48:41Z</time>
      </trkpt>
      <trkpt lat="44.60151" lon="6.86918">
        <ele>2033.9031982422</ele>
        <time>2011-07-15T05:48:49Z</time>
      </trkpt>
      <trkpt lat="44.60154" lon="6.86924">
        <ele>2036.2725830078</ele>
        <time>2011-07-15T05:48:57Z</time>
      </trkpt>
      <trkpt lat="44.60159" lon="6.8693">
        <ele>2039.0227050781</ele>
        <time>2011-07-15T05:49:05Z</time>
      </trkpt>
      <trkpt lat="44.60162" lon="6.86941">
        <ele>2041.8754882812</ele>
        <time>2011-07-15T05:49:13Z</time>
      </trkpt>
      <trkpt lat="44.60163" lon="6.86947">
        <ele>2042.9669189453</ele>
        <time>2011-07-15T05:49:17Z</time>
      </trkpt>
      <trkpt lat="44.60164" lon="6.8696">
        <ele>2044.7648925781</ele>
        <time>2011-07-15T05:49:26Z</time>
      </trkpt>
      <trkpt lat="44.60164" lon="6.86971">
        <ele>2046.2161865234</ele>
        <time>2011-07-15T05:49:33Z</time>
      </trkpt>
      <trkpt lat="44.60166" lon="6.86986">
        <ele>2047.2346191406</ele>
        <time>2011-07-15T05:49:41Z</time>
      </trkpt>
      <trkpt lat="44.60167" lon="6.86992">
        <ele>2047.8842773438</ele>
        <time>2011-07-15T05:49:45Z</time>
      </trkpt>
      <trkpt lat="44.60169" lon="6.87004">
        <ele>2048.4973144531</ele>
        <time>2011-07-15T05:49:53Z</time>
      </trkpt>
      <trkpt lat="44.60173" lon="6.87017">
        <ele>2049.2321777344</ele>
        <time>2011-07-15T05:50:02Z</time>
      </trkpt>
      <trkpt lat="44.60178" lon="6.87029">
        <ele>2050.2109375</ele>
        <time>2011-07-15T05:50:10Z</time>
      </trkpt>
      <trkpt lat="44.60183" lon="6.8704">
        <ele>2051.4443359375</ele>
        <time>2011-07-15T05:50:19Z</time>
      </trkpt>
      <trkpt lat="44.60189" lon="6.8705">
        <ele>2053.0051269531</ele>
        <time>2011-07-15T05:50:27Z</time>
      </trkpt>
      <trkpt lat="44.60191" lon="6.87056">
        <ele>2053.8234863281</ele>
        <time>2011-07-15T05:50:32Z</time>
      </trkpt>
      <trkpt lat="44.60196" lon="6.87066">
        <ele>2054.7351074219</ele>
        <time>2011-07-15T05:50:40Z</time>
      </trkpt>
      <trkpt lat="44.60198" lon="6.87071">
        <ele>2055.123046875</ele>
        <time>2011-07-15T05:50:44Z</time>
      </trkpt>
      <trkpt lat="44.602" lon="6.87073">
        <ele>2055.4458007812</ele>
        <time>2011-07-15T05:50:46Z</time>
      </trkpt>
      <trkpt lat="44.60202" lon="6.87078">
        <ele>2055.9675292969</ele>
        <time>2011-07-15T05:50:50Z</time>
      </trkpt>
      <trkpt lat="44.60209" lon="6.87087">
        <ele>2057.654296875</ele>
        <time>2011-07-15T05:50:59Z</time>
      </trkpt>
      <trkpt lat="44.60215" lon="6.87092">
        <ele>2059.0561523438</ele>
        <time>2011-07-15T05:51:07Z</time>
      </trkpt>
      <trkpt lat="44.60222" lon="6.87096">
        <ele>2061.0961914062</ele>
        <time>2011-07-15T05:51:16Z</time>
      </trkpt>
      <trkpt lat="44.60231" lon="6.87098">
        <ele>2063.3747558594</ele>
        <time>2011-07-15T05:51:25Z</time>
      </trkpt>
      <trkpt lat="44.60238" lon="6.87099">
        <ele>2065.3020019531</ele>
        <time>2011-07-15T05:51:32Z</time>
      </trkpt>
      <trkpt lat="44.60244" lon="6.87102">
        <ele>2066.4912109375</ele>
        <time>2011-07-15T05:51:39Z</time>
      </trkpt>
      <trkpt lat="44.60248" lon="6.87108">
        <ele>2066.923828125</ele>
        <time>2011-07-15T05:51:46Z</time>
      </trkpt>
      <trkpt lat="44.60253" lon="6.87117">
        <ele>2067.634765625</ele>
        <time>2011-07-15T05:51:54Z</time>
      </trkpt>
      <trkpt lat="44.60257" lon="6.87126">
        <ele>2068.2600097656</ele>
        <time>2011-07-15T05:52:02Z</time>
      </trkpt>
      <trkpt lat="44.6026" lon="6.87135">
        <ele>2068.7817382812</ele>
        <time>2011-07-15T05:52:09Z</time>
      </trkpt>
      <trkpt lat="44.60265" lon="6.87142">
        <ele>2070.0029296875</ele>
        <time>2011-07-15T05:52:16Z</time>
      </trkpt>
      <trkpt lat="44.60266" lon="6.87144">
        <ele>2070.5954589844</ele>
        <time>2011-07-15T05:52:18Z</time>
      </trkpt>
      <trkpt lat="44.60271" lon="6.87153">
        <ele>2072.4582519531</ele>
        <time>2011-07-15T05:52:25Z</time>
      </trkpt>
      <trkpt lat="44.60275" lon="6.87164">
        <ele>2074.0490722656</ele>
        <time>2011-07-15T05:52:33Z</time>
      </trkpt>
      <trkpt lat="44.60275" lon="6.87165">
        <ele>2074.2072753906</ele>
        <time>2011-07-15T05:52:34Z</time>
      </trkpt>
      <trkpt lat="44.60278" lon="6.87172">
        <ele>2074.9379882812</ele>
        <time>2011-07-15T05:52:39Z</time>
      </trkpt>
      <trkpt lat="44.60285" lon="6.87183">
        <ele>2076.3842773438</ele>
        <time>2011-07-15T05:52:49Z</time>
      </trkpt>
      <trkpt lat="44.60295" lon="6.8719">
        <ele>2078.5349121094</ele>
        <time>2011-07-15T05:52:58Z</time>
      </trkpt>
      <trkpt lat="44.60307" lon="6.87201">
        <ele>2080.5649414062</ele>
        <time>2011-07-15T05:53:08Z</time>
      </trkpt>
      <trkpt lat="44.60315" lon="6.8721">
        <ele>2080.4196777344</ele>
        <time>2011-07-15T05:53:13Z</time>
      </trkpt>
      <trkpt lat="44.60327" lon="6.8722">
        <ele>2079.9755859375</ele>
        <time>2011-07-15T05:53:19Z</time>
      </trkpt>
      <trkpt lat="44.60331" lon="6.87222">
        <ele>2079.94140625</ele>
        <time>2011-07-15T05:53:21Z</time>
      </trkpt>
      <trkpt lat="44.60336" lon="6.87225">
        <ele>2080.1076660156</ele>
        <time>2011-07-15T05:53:23Z</time>
      </trkpt>
      <trkpt lat="44.60338" lon="6.87226">
        <ele>2080.375</ele>
        <time>2011-07-15T05:53:24Z</time>
      </trkpt>
      <trkpt lat="44.60345" lon="6.87231">
        <ele>2080.8955078125</ele>
        <time>2011-07-15T05:53:27Z</time>
      </trkpt>
      <trkpt lat="44.60349" lon="6.87235">
        <ele>2080.8737792969</ele>
        <time>2011-07-15T05:53:30Z</time>
      </trkpt>
      <trkpt lat="44.60351" lon="6.87239">
        <ele>2080.6413574219</ele>
        <time>2011-07-15T05:53:32Z</time>
      </trkpt>
      <trkpt lat="44.60354" lon="6.8725">
        <ele>2079.2062988281</ele>
        <time>2011-07-15T05:53:38Z</time>
      </trkpt>
      <trkpt lat="44.60358" lon="6.87261">
        <ele>2078.5263671875</ele>
        <time>2011-07-15T05:53:45Z</time>
      </trkpt>
      <trkpt lat="44.60361" lon="6.87263">
        <ele>2078.5317382812</ele>
        <time>2011-07-15T05:53:47Z</time>
      </trkpt>
      <trkpt lat="44.60365" lon="6.87274">
        <ele>2078.3666992188</ele>
        <time>2011-07-15T05:53:54Z</time>
      </trkpt>
      <trkpt lat="44.60372" lon="6.87286">
        <ele>2078.4582519531</ele>
        <time>2011-07-15T05:54:02Z</time>
      </trkpt>
      <trkpt lat="44.60381" lon="6.87299">
        <ele>2078.8598632812</ele>
        <time>2011-07-15T05:54:11Z</time>
      </trkpt>
      <trkpt lat="44.60385" lon="6.87311">
        <ele>2078.3383789062</ele>
        <time>2011-07-15T05:54:17Z</time>
      </trkpt>
      <trkpt lat="44.60388" lon="6.87318">
        <ele>2077.50390625</ele>
        <time>2011-07-15T05:54:21Z</time>
      </trkpt>
      <trkpt lat="44.60394" lon="6.87327">
        <ele>2076.8095703125</ele>
        <time>2011-07-15T05:54:26Z</time>
      </trkpt>
      <trkpt lat="44.60403" lon="6.87336">
        <ele>2076.5717773438</ele>
        <time>2011-07-15T05:54:31Z</time>
      </trkpt>
      <trkpt lat="44.60411" lon="6.87341">
        <ele>2076.7243652344</ele>
        <time>2011-07-15T05:54:35Z</time>
      </trkpt>
      <trkpt lat="44.60422" lon="6.87349">
        <ele>2076.9504394531</ele>
        <time>2011-07-15T05:54:40Z</time>
      </trkpt>
      <trkpt lat="44.60435" lon="6.87362">
        <ele>2076.4099121094</ele>
        <time>2011-07-15T05:54:47Z</time>
      </trkpt>
      <trkpt lat="44.60445" lon="6.87374">
        <ele>2075.9165039062</ele>
        <time>2011-07-15T05:54:53Z</time>
      </trkpt>
      <trkpt lat="44.6046" lon="6.87386">
        <ele>2077.4680175781</ele>
        <time>2011-07-15T05:55:01Z</time>
      </trkpt>
      <trkpt lat="44.60474" lon="6.87399">
        <ele>2078.9294433594</ele>
        <time>2011-07-15T05:55:09Z</time>
      </trkpt>
      <trkpt lat="44.60479" lon="6.87405">
        <ele>2079.3410644531</ele>
        <time>2011-07-15T05:55:12Z</time>
      </trkpt>
      <trkpt lat="44.60488" lon="6.87412">
        <ele>2080.068359375</ele>
        <time>2011-07-15T05:55:17Z</time>
      </trkpt>
      <trkpt lat="44.60499" lon="6.87425">
        <ele>2080.5483398438</ele>
        <time>2011-07-15T05:55:24Z</time>
      </trkpt>
      <trkpt lat="44.6051" lon="6.87429">
        <ele>2079.7023925781</ele>
        <time>2011-07-15T05:55:30Z</time>
      </trkpt>
      <trkpt lat="44.60511" lon="6.87429">
        <ele>2079.671875</ele>
        <time>2011-07-15T05:55:31Z</time>
      </trkpt>
      <trkpt lat="44.60512" lon="6.87428">
        <ele>2079.6870117188</ele>
        <time>2011-07-15T05:55:36Z</time>
      </trkpt>
      <trkpt lat="44.60512" lon="6.87428">
        <ele>2079.6809082031</ele>
        <time>2011-07-15T05:55:42Z</time>
      </trkpt>
      <trkpt lat="44.60512" lon="6.87427">
        <ele>2079.7875976562</ele>
        <time>2011-07-15T05:56:02Z</time>
      </trkpt>
      <trkpt lat="44.60512" lon="6.87427">
        <ele>2079.7875976562</ele>
        <time>2011-07-15T05:56:03Z</time>
      </trkpt>
      <trkpt lat="44.60511" lon="6.87428">
        <ele>2079.8022460938</ele>
        <time>2011-07-15T05:56:08Z</time>
      </trkpt>
      <trkpt lat="44.60512" lon="6.87428">
        <ele>2079.69921875</ele>
        <time>2011-07-15T05:56:12Z</time>
      </trkpt>
      <trkpt lat="44.6052" lon="6.87425">
        <ele>2079.5500488281</ele>
        <time>2011-07-15T05:56:19Z</time>
      </trkpt>
      <trkpt lat="44.60522" lon="6.87424">
        <ele>2079.5375976562</ele>
        <time>2011-07-15T05:56:21Z</time>
      </trkpt>
      <trkpt lat="44.60524" lon="6.87424">
        <ele>2079.3684082031</ele>
        <time>2011-07-15T05:56:23Z</time>
      </trkpt>
      <trkpt lat="44.6053" lon="6.87432">
        <ele>2079.0383300781</ele>
        <time>2011-07-15T05:56:31Z</time>
      </trkpt>
      <trkpt lat="44.60531" lon="6.8744">
        <ele>2078.6140136719</ele>
        <time>2011-07-15T05:56:36Z</time>
      </trkpt>
      <trkpt lat="44.60534" lon="6.8745">
        <ele>2078.5805664062</ele>
        <time>2011-07-15T05:56:42Z</time>
      </trkpt>
      <trkpt lat="44.60534" lon="6.87451">
        <ele>2078.5266113281</ele>
        <time>2011-07-15T05:56:43Z</time>
      </trkpt>
      <trkpt lat="44.60538" lon="6.8746">
        <ele>2078.7570800781</ele>
        <time>2011-07-15T05:56:48Z</time>
      </trkpt>
      <trkpt lat="44.60544" lon="6.87471">
        <ele>2079.5285644531</ele>
        <time>2011-07-15T05:56:56Z</time>
      </trkpt>
      <trkpt lat="44.6055" lon="6.87483">
        <ele>2079.2827148438</ele>
        <time>2011-07-15T05:57:03Z</time>
      </trkpt>
      <trkpt lat="44.60556" lon="6.87492">
        <ele>2079.5229492188</ele>
        <time>2011-07-15T05:57:08Z</time>
      </trkpt>
      <trkpt lat="44.60565" lon="6.87506">
        <ele>2077.9377441406</ele>
        <time>2011-07-15T05:57:14Z</time>
      </trkpt>
      <trkpt lat="44.60576" lon="6.87515">
        <ele>2077.8623046875</ele>
        <time>2011-07-15T05:57:20Z</time>
      </trkpt>
      <trkpt lat="44.60592" lon="6.87525">
        <ele>2078.4299316406</ele>
        <time>2011-07-15T05:57:27Z</time>
      </trkpt>
      <trkpt lat="44.60602" lon="6.8753">
        <ele>2078.4343261719</ele>
        <time>2011-07-15T05:57:32Z</time>
      </trkpt>
      <trkpt lat="44.60611" lon="6.87535">
        <ele>2078.3728027344</ele>
        <time>2011-07-15T05:57:37Z</time>
      </trkpt>
      <trkpt lat="44.60623" lon="6.87541">
        <ele>2078.2529296875</ele>
        <time>2011-07-15T05:57:43Z</time>
      </trkpt>
      <trkpt lat="44.60637" lon="6.87543">
        <ele>2079.1545410156</ele>
        <time>2011-07-15T05:57:50Z</time>
      </trkpt>
      <trkpt lat="44.60649" lon="6.87543">
        <ele>2079.2221679688</ele>
        <time>2011-07-15T05:57:56Z</time>
      </trkpt>
      <trkpt lat="44.60662" lon="6.87545">
        <ele>2078.8515625</ele>
        <time>2011-07-15T05:58:05Z</time>
      </trkpt>
      <trkpt lat="44.60673" lon="6.87549">
        <ele>2078.4362792969</ele>
        <time>2011-07-15T05:58:13Z</time>
      </trkpt>
      <trkpt lat="44.60679" lon="6.8756">
        <ele>2077.7563476562</ele>
        <time>2011-07-15T05:58:20Z</time>
      </trkpt>
      <trkpt lat="44.60687" lon="6.87571">
        <ele>2077.2836914062</ele>
        <time>2011-07-15T05:58:28Z</time>
      </trkpt>
      <trkpt lat="44.60694" lon="6.8758">
        <ele>2077.1076660156</ele>
        <time>2011-07-15T05:58:34Z</time>
      </trkpt>
      <trkpt lat="44.60699" lon="6.87593">
        <ele>2076.3395996094</ele>
        <time>2011-07-15T05:58:41Z</time>
      </trkpt>
      <trkpt lat="44.60704" lon="6.8761">
        <ele>2075.0625</ele>
        <time>2011-07-15T05:58:47Z</time>
      </trkpt>
      <trkpt lat="44.60711" lon="6.87622">
        <ele>2074.197265625</ele>
        <time>2011-07-15T05:58:52Z</time>
      </trkpt>
      <trkpt lat="44.60712" lon="6.87624">
        <ele>2074.0529785156</ele>
        <time>2011-07-15T05:58:53Z</time>
      </trkpt>
      <trkpt lat="44.60715" lon="6.87638">
        <ele>2073.0676269531</ele>
        <time>2011-07-15T05:59:00Z</time>
      </trkpt>
      <trkpt lat="44.60721" lon="6.87651">
        <ele>2072.1613769531</ele>
        <time>2011-07-15T05:59:06Z</time>
      </trkpt>
      <trkpt lat="44.60726" lon="6.87665">
        <ele>2071.4282226562</ele>
        <time>2011-07-15T05:59:11Z</time>
      </trkpt>
      <trkpt lat="44.60733" lon="6.87676">
        <ele>2071.1130371094</ele>
        <time>2011-07-15T05:59:16Z</time>
      </trkpt>
      <trkpt lat="44.60736" lon="6.8768">
        <ele>2071.0959472656</ele>
        <time>2011-07-15T05:59:18Z</time>
      </trkpt>
      <trkpt lat="44.60739" lon="6.87695">
        <ele>2070.1862792969</ele>
        <time>2011-07-15T05:59:24Z</time>
      </trkpt>
      <trkpt lat="44.60741" lon="6.8771">
        <ele>2069.6496582031</ele>
        <time>2011-07-15T05:59:29Z</time>
      </trkpt>
      <trkpt lat="44.60742" lon="6.87724">
        <ele>2068.9582519531</ele>
        <time>2011-07-15T05:59:34Z</time>
      </trkpt>
      <trkpt lat="44.60743" lon="6.87732">
        <ele>2068.4948730469</ele>
        <time>2011-07-15T05:59:37Z</time>
      </trkpt>
      <trkpt lat="44.60743" lon="6.87748">
        <ele>2067.3447265625</ele>
        <time>2011-07-15T05:59:43Z</time>
      </trkpt>
      <trkpt lat="44.60743" lon="6.87753">
        <ele>2067.0856933594</ele>
        <time>2011-07-15T05:59:45Z</time>
      </trkpt>
      <trkpt lat="44.60747" lon="6.87771">
        <ele>2066.8510742188</ele>
        <time>2011-07-15T05:59:52Z</time>
      </trkpt>
      <trkpt lat="44.60749" lon="6.87776">
        <ele>2066.8923339844</ele>
        <time>2011-07-15T05:59:54Z</time>
      </trkpt>
      <trkpt lat="44.60747" lon="6.87789">
        <ele>2066.1916503906</ele>
        <time>2011-07-15T06:00:01Z</time>
      </trkpt>
      <trkpt lat="44.60747" lon="6.8779">
        <ele>2066.0834960938</ele>
        <time>2011-07-15T06:00:02Z</time>
      </trkpt>
      <trkpt lat="44.60745" lon="6.87798">
        <ele>2065.5700683594</ele>
        <time>2011-07-15T06:00:07Z</time>
      </trkpt>
      <trkpt lat="44.60743" lon="6.87803">
        <ele>2065.1357421875</ele>
        <time>2011-07-15T06:00:12Z</time>
      </trkpt>
      <trkpt lat="44.60741" lon="6.87805">
        <ele>2064.7392578125</ele>
        <time>2011-07-15T06:00:19Z</time>
      </trkpt>
      <trkpt lat="44.60737" lon="6.87816">
        <ele>2062.5749511719</ele>
        <time>2011-07-15T06:00:24Z</time>
      </trkpt>
      <trkpt lat="44.60732" lon="6.87832">
        <ele>2060.171875</ele>
        <time>2011-07-15T06:00:30Z</time>
      </trkpt>
      <trkpt lat="44.60726" lon="6.87852">
        <ele>2060.34375</ele>
        <time>2011-07-15T06:00:37Z</time>
      </trkpt>
      <trkpt lat="44.60726" lon="6.87853">
        <ele>2060.3579101562</ele>
        <time>2011-07-15T06:00:56Z</time>
      </trkpt>
      <trkpt lat="44.60726" lon="6.87853">
        <ele>2060.361328125</ele>
        <time>2011-07-15T06:01:04Z</time>
      </trkpt>
      <trkpt lat="44.60725" lon="6.87855">
        <ele>2060.3635253906</ele>
        <time>2011-07-15T06:01:11Z</time>
      </trkpt>
      <trkpt lat="44.60725" lon="6.87857">
        <ele>2060.2937011719</ele>
        <time>2011-07-15T06:01:12Z</time>
      </trkpt>
      <trkpt lat="44.60719" lon="6.87869">
        <ele>2060</ele>
        <time>2011-07-15T06:01:20Z</time>
      </trkpt>
      <trkpt lat="44.60712" lon="6.87882">
        <ele>2060</ele>
        <time>2011-07-15T06:01:28Z</time>
      </trkpt>
      <trkpt lat="44.60709" lon="6.87897">
        <ele>2060.6076660156</ele>
        <time>2011-07-15T06:01:36Z</time>
      </trkpt>
      <trkpt lat="44.60707" lon="6.87915">
        <ele>2061.6599121094</ele>
        <time>2011-07-15T06:01:45Z</time>
      </trkpt>
      <trkpt lat="44.60705" lon="6.87932">
        <ele>2062.1696777344</ele>
        <time>2011-07-15T06:01:53Z</time>
      </trkpt>
      <trkpt lat="44.60705" lon="6.87952">
        <ele>2063.03125</ele>
        <time>2011-07-15T06:02:03Z</time>
      </trkpt>
      <trkpt lat="44.60705" lon="6.87962">
        <ele>2063.7084960938</ele>
        <time>2011-07-15T06:02:08Z</time>
      </trkpt>
      <trkpt lat="44.60704" lon="6.8798">
        <ele>2064.3146972656</ele>
        <time>2011-07-15T06:02:16Z</time>
      </trkpt>
      <trkpt lat="44.60704" lon="6.87996">
        <ele>2064.8029785156</ele>
        <time>2011-07-15T06:02:24Z</time>
      </trkpt>
      <trkpt lat="44.60701" lon="6.88009">
        <ele>2063.6623535156</ele>
        <time>2011-07-15T06:02:31Z</time>
      </trkpt>
      <trkpt lat="44.607" lon="6.88011">
        <ele>2063.4975585938</ele>
        <time>2011-07-15T06:02:32Z</time>
      </trkpt>
      <trkpt lat="44.60701" lon="6.88022">
        <ele>2063.6623535156</ele>
        <time>2011-07-15T06:02:37Z</time>
      </trkpt>
      <trkpt lat="44.60701" lon="6.88031">
        <ele>2063.7397460938</ele>
        <time>2011-07-15T06:02:40Z</time>
      </trkpt>
      <trkpt lat="44.60703" lon="6.88043">
        <ele>2064.0981445312</ele>
        <time>2011-07-15T06:02:44Z</time>
      </trkpt>
      <trkpt lat="44.60703" lon="6.88065">
        <ele>2063.8503417969</ele>
        <time>2011-07-15T06:02:52Z</time>
      </trkpt>
      <trkpt lat="44.60703" lon="6.88083">
        <ele>2063.8220214844</ele>
        <time>2011-07-15T06:02:58Z</time>
      </trkpt>
      <trkpt lat="44.60704" lon="6.881">
        <ele>2064.3474121094</ele>
        <time>2011-07-15T06:03:04Z</time>
      </trkpt>
      <trkpt lat="44.60706" lon="6.88111">
        <ele>2065.3791503906</ele>
        <time>2011-07-15T06:03:08Z</time>
      </trkpt>
      <trkpt lat="44.60704" lon="6.88123">
        <ele>2064.2014160156</ele>
        <time>2011-07-15T06:03:12Z</time>
      </trkpt>
      <trkpt lat="44.60701" lon="6.88136">
        <ele>2062.6340332031</ele>
        <time>2011-07-15T06:03:17Z</time>
      </trkpt>
      <trkpt lat="44.60699" lon="6.88146">
        <ele>2061.9248046875</ele>
        <time>2011-07-15T06:03:23Z</time>
      </trkpt>
      <trkpt lat="44.60695" lon="6.88157">
        <ele>2060.1958007812</ele>
        <time>2011-07-15T06:03:30Z</time>
      </trkpt>
      <trkpt lat="44.60692" lon="6.88169">
        <ele>2060.08203125</ele>
        <time>2011-07-15T06:03:37Z</time>
      </trkpt>
      <trkpt lat="44.60689" lon="6.88189">
        <ele>2060.6286621094</ele>
        <time>2011-07-15T06:03:48Z</time>
      </trkpt>
      <trkpt lat="44.60687" lon="6.88204">
        <ele>2061.2563476562</ele>
        <time>2011-07-15T06:03:55Z</time>
      </trkpt>
      <trkpt lat="44.60683" lon="6.8822">
        <ele>2061.693359375</ele>
        <time>2011-07-15T06:04:01Z</time>
      </trkpt>
      <trkpt lat="44.60681" lon="6.88228">
        <ele>2061.9079589844</ele>
        <time>2011-07-15T06:04:05Z</time>
      </trkpt>
      <trkpt lat="44.6068" lon="6.88238">
        <ele>2062.3034667969</ele>
        <time>2011-07-15T06:04:10Z</time>
      </trkpt>
      <trkpt lat="44.60676" lon="6.88256">
        <ele>2062.2668457031</ele>
        <time>2011-07-15T06:04:19Z</time>
      </trkpt>
      <trkpt lat="44.60675" lon="6.88257">
        <ele>2062.130859375</ele>
        <time>2011-07-15T06:04:20Z</time>
      </trkpt>
      <trkpt lat="44.60674" lon="6.88266">
        <ele>2062.025390625</ele>
        <time>2011-07-15T06:04:27Z</time>
      </trkpt>
      <trkpt lat="44.60673" lon="6.88274">
        <ele>2061.8803710938</ele>
        <time>2011-07-15T06:04:31Z</time>
      </trkpt>
      <trkpt lat="44.60672" lon="6.88277">
        <ele>2061.705078125</ele>
        <time>2011-07-15T06:04:37Z</time>
      </trkpt>
      <trkpt lat="44.60671" lon="6.88284">
        <ele>2061.5888671875</ele>
        <time>2011-07-15T06:04:45Z</time>
      </trkpt>
      <trkpt lat="44.60669" lon="6.88302">
        <ele>2060.7963867188</ele>
        <time>2011-07-15T06:04:54Z</time>
      </trkpt>
      <trkpt lat="44.60668" lon="6.88321">
        <ele>2060.5590820312</ele>
        <time>2011-07-15T06:05:03Z</time>
      </trkpt>
      <trkpt lat="44.60669" lon="6.88338">
        <ele>2061.4189453125</ele>
        <time>2011-07-15T06:05:11Z</time>
      </trkpt>
      <trkpt lat="44.60672" lon="6.88354">
        <ele>2062.5412597656</ele>
        <time>2011-07-15T06:05:18Z</time>
      </trkpt>
      <trkpt lat="44.6067" lon="6.88369">
        <ele>2061.6923828125</ele>
        <time>2011-07-15T06:05:25Z</time>
      </trkpt>
      <trkpt lat="44.60667" lon="6.88381">
        <ele>2060</ele>
        <time>2011-07-15T06:05:32Z</time>
      </trkpt>
      <trkpt lat="44.60661" lon="6.88397">
        <ele>2060.7302246094</ele>
        <time>2011-07-15T06:05:41Z</time>
      </trkpt>
      <trkpt lat="44.60658" lon="6.88406">
        <ele>2061.2883300781</ele>
        <time>2011-07-15T06:05:46Z</time>
      </trkpt>
      <trkpt lat="44.60656" lon="6.88423">
        <ele>2062.3786621094</ele>
        <time>2011-07-15T06:05:55Z</time>
      </trkpt>
      <trkpt lat="44.60655" lon="6.88429">
        <ele>2062.7387695312</ele>
        <time>2011-07-15T06:05:58Z</time>
      </trkpt>
      <trkpt lat="44.60653" lon="6.88445">
        <ele>2063.65625</ele>
        <time>2011-07-15T06:06:06Z</time>
      </trkpt>
      <trkpt lat="44.60651" lon="6.88463">
        <ele>2064.0793457031</ele>
        <time>2011-07-15T06:06:15Z</time>
      </trkpt>
      <trkpt lat="44.60648" lon="6.88481">
        <ele>2063.8361816406</ele>
        <time>2011-07-15T06:06:24Z</time>
      </trkpt>
      <trkpt lat="44.60645" lon="6.88493">
        <ele>2062.8312988281</ele>
        <time>2011-07-15T06:06:31Z</time>
      </trkpt>
      <trkpt lat="44.6064" lon="6.88501">
        <ele>2060.8986816406</ele>
        <time>2011-07-15T06:06:37Z</time>
      </trkpt>
      <trkpt lat="44.60634" lon="6.88512">
        <ele>2061.0778808594</ele>
        <time>2011-07-15T06:06:44Z</time>
      </trkpt>
      <trkpt lat="44.6063" lon="6.88529">
        <ele>2062.2958984375</ele>
        <time>2011-07-15T06:06:53Z</time>
      </trkpt>
      <trkpt lat="44.60631" lon="6.8854">
        <ele>2064.1164550781</ele>
        <time>2011-07-15T06:06:59Z</time>
      </trkpt>
      <trkpt lat="44.60633" lon="6.88553">
        <ele>2066.7414550781</ele>
        <time>2011-07-15T06:07:05Z</time>
      </trkpt>
      <trkpt lat="44.60636" lon="6.88561">
        <ele>2067.9853515625</ele>
        <time>2011-07-15T06:07:09Z</time>
      </trkpt>
      <trkpt lat="44.60636" lon="6.88574">
        <ele>2068.1088867188</ele>
        <time>2011-07-15T06:07:15Z</time>
      </trkpt>
      <trkpt lat="44.60638" lon="6.88586">
        <ele>2068.5170898438</ele>
        <time>2011-07-15T06:07:22Z</time>
      </trkpt>
      <trkpt lat="44.60641" lon="6.886">
        <ele>2068.2700195312</ele>
        <time>2011-07-15T06:07:29Z</time>
      </trkpt>
      <trkpt lat="44.60642" lon="6.88605">
        <ele>2068.3425292969</ele>
        <time>2011-07-15T06:07:32Z</time>
      </trkpt>
      <trkpt lat="44.60641" lon="6.88611">
        <ele>2067.4135742188</ele>
        <time>2011-07-15T06:07:37Z</time>
      </trkpt>
      <trkpt lat="44.60643" lon="6.88616">
        <ele>2067.5283203125</ele>
        <time>2011-07-15T06:07:43Z</time>
      </trkpt>
      <trkpt lat="44.60643" lon="6.88621">
        <ele>2067.0314941406</ele>
        <time>2011-07-15T06:07:47Z</time>
      </trkpt>
      <trkpt lat="44.60644" lon="6.88624">
        <ele>2067.3486328125</ele>
        <time>2011-07-15T06:07:54Z</time>
      </trkpt>
      <trkpt lat="44.60648" lon="6.88635">
        <ele>2068.8227539062</ele>
        <time>2011-07-15T06:08:00Z</time>
      </trkpt>
      <trkpt lat="44.60652" lon="6.88642">
        <ele>2070.1435546875</ele>
        <time>2011-07-15T06:08:05Z</time>
      </trkpt>
      <trkpt lat="44.60656" lon="6.88652">
        <ele>2070.58203125</ele>
        <time>2011-07-15T06:08:10Z</time>
      </trkpt>
      <trkpt lat="44.60657" lon="6.88663">
        <ele>2069.771484375</ele>
        <time>2011-07-15T06:08:16Z</time>
      </trkpt>
      <trkpt lat="44.60658" lon="6.88666">
        <ele>2069.728515625</ele>
        <time>2011-07-15T06:08:18Z</time>
      </trkpt>
      <trkpt lat="44.6066" lon="6.8867">
        <ele>2070.1557617188</ele>
        <time>2011-07-15T06:08:21Z</time>
      </trkpt>
      <trkpt lat="44.60663" lon="6.8868">
        <ele>2070.3598632812</ele>
        <time>2011-07-15T06:08:27Z</time>
      </trkpt>
      <trkpt lat="44.60668" lon="6.88689">
        <ele>2072.0275878906</ele>
        <time>2011-07-15T06:08:33Z</time>
      </trkpt>
      <trkpt lat="44.60671" lon="6.88703">
        <ele>2074.06640625</ele>
        <time>2011-07-15T06:08:40Z</time>
      </trkpt>
      <trkpt lat="44.60672" lon="6.88715">
        <ele>2073.7292480469</ele>
        <time>2011-07-15T06:08:46Z</time>
      </trkpt>
      <trkpt lat="44.60671" lon="6.88729">
        <ele>2072.1701660156</ele>
        <time>2011-07-15T06:08:53Z</time>
      </trkpt>
      <trkpt lat="44.60672" lon="6.8873">
        <ele>2072.3967285156</ele>
        <time>2011-07-15T06:08:54Z</time>
      </trkpt>
      <trkpt lat="44.60672" lon="6.88735">
        <ele>2072.59375</ele>
        <time>2011-07-15T06:08:57Z</time>
      </trkpt>
      <trkpt lat="44.60673" lon="6.88744">
        <ele>2072.8474121094</ele>
        <time>2011-07-15T06:09:02Z</time>
      </trkpt>
      <trkpt lat="44.60678" lon="6.88749">
        <ele>2074.4782714844</ele>
        <time>2011-07-15T06:09:08Z</time>
      </trkpt>
      <trkpt lat="44.6068" lon="6.88751">
        <ele>2074.7841796875</ele>
        <time>2011-07-15T06:09:09Z</time>
      </trkpt>
      <trkpt lat="44.60683" lon="6.88761">
        <ele>2076.3520507812</ele>
        <time>2011-07-15T06:09:16Z</time>
      </trkpt>
      <trkpt lat="44.60683" lon="6.88762">
        <ele>2076.5834960938</ele>
        <time>2011-07-15T06:09:17Z</time>
      </trkpt>
      <trkpt lat="44.6069" lon="6.88771">
        <ele>2078.7192382812</ele>
        <time>2011-07-15T06:09:24Z</time>
      </trkpt>
      <trkpt lat="44.60691" lon="6.88773">
        <ele>2078.9860839844</ele>
        <time>2011-07-15T06:09:25Z</time>
      </trkpt>
      <trkpt lat="44.60693" lon="6.8878">
        <ele>2079.62109375</ele>
        <time>2011-07-15T06:09:29Z</time>
      </trkpt>
      <trkpt lat="44.60695" lon="6.88789">
        <ele>2080.1323242188</ele>
        <time>2011-07-15T06:09:34Z</time>
      </trkpt>
      <trkpt lat="44.60695" lon="6.88802">
        <ele>2079.1508789062</ele>
        <time>2011-07-15T06:09:41Z</time>
      </trkpt>
      <trkpt lat="44.60693" lon="6.88807">
        <ele>2078.8693847656</ele>
        <time>2011-07-15T06:09:45Z</time>
      </trkpt>
      <trkpt lat="44.60692" lon="6.88812">
        <ele>2079.033203125</ele>
        <time>2011-07-15T06:09:52Z</time>
      </trkpt>
      <trkpt lat="44.60692" lon="6.88813">
        <ele>2079.0393066406</ele>
        <time>2011-07-15T06:10:04Z</time>
      </trkpt>
      <trkpt lat="44.60692" lon="6.88814">
        <ele>2079.0881347656</ele>
        <time>2011-07-15T06:10:19Z</time>
      </trkpt>
      <trkpt lat="44.60692" lon="6.88814">
        <ele>2079.0922851562</ele>
        <time>2011-07-15T06:10:23Z</time>
      </trkpt>
      <trkpt lat="44.60692" lon="6.88814">
        <ele>2079.0964355469</ele>
        <time>2011-07-15T06:10:26Z</time>
      </trkpt>
      <trkpt lat="44.60691" lon="6.88815">
        <ele>2079.07421875</ele>
        <time>2011-07-15T06:10:34Z</time>
      </trkpt>
      <trkpt lat="44.60691" lon="6.88815">
        <ele>2079.0505371094</ele>
        <time>2011-07-15T06:10:42Z</time>
      </trkpt>
      <trkpt lat="44.60691" lon="6.88815">
        <ele>2079.0590820312</ele>
        <time>2011-07-15T06:10:48Z</time>
      </trkpt>
      <trkpt lat="44.60691" lon="6.88815">
        <ele>2079.0612792969</ele>
        <time>2011-07-15T06:10:57Z</time>
      </trkpt>
      <trkpt lat="44.60691" lon="6.88817">
        <ele>2079.1638183594</ele>
        <time>2011-07-15T06:11:11Z</time>
      </trkpt>
      <trkpt lat="44.60693" lon="6.88821">
        <ele>2079.4833984375</ele>
        <time>2011-07-15T06:11:16Z</time>
      </trkpt>
      <trkpt lat="44.60695" lon="6.88826">
        <ele>2079.7250976562</ele>
        <time>2011-07-15T06:11:22Z</time>
      </trkpt>
      <trkpt lat="44.60694" lon="6.88828">
        <ele>2079.78515625</ele>
        <time>2011-07-15T06:11:29Z</time>
      </trkpt>
      <trkpt lat="44.60695" lon="6.8883">
        <ele>2079.9282226562</ele>
        <time>2011-07-15T06:11:34Z</time>
      </trkpt>
      <trkpt lat="44.60697" lon="6.88833">
        <ele>2080</ele>
        <time>2011-07-15T06:11:38Z</time>
      </trkpt>
      <trkpt lat="44.60697" lon="6.88838">
        <ele>2080</ele>
        <time>2011-07-15T06:11:44Z</time>
      </trkpt>
      <trkpt lat="44.60698" lon="6.88843">
        <ele>2080</ele>
        <time>2011-07-15T06:11:52Z</time>
      </trkpt>
      <trkpt lat="44.60701" lon="6.88847">
        <ele>2080</ele>
        <time>2011-07-15T06:11:57Z</time>
      </trkpt>
      <trkpt lat="44.60705" lon="6.8885">
        <ele>2080</ele>
        <time>2011-07-15T06:12:04Z</time>
      </trkpt>
      <trkpt lat="44.60705" lon="6.88854">
        <ele>2080</ele>
        <time>2011-07-15T06:12:09Z</time>
      </trkpt>
      <trkpt lat="44.60706" lon="6.88859">
        <ele>2080</ele>
        <time>2011-07-15T06:12:16Z</time>
      </trkpt>
      <trkpt lat="44.60707" lon="6.88866">
        <ele>2080.4367675781</ele>
        <time>2011-07-15T06:12:23Z</time>
      </trkpt>
      <trkpt lat="44.60707" lon="6.88873">
        <ele>2081.1003417969</ele>
        <time>2011-07-15T06:12:30Z</time>
      </trkpt>
      <trkpt lat="44.60709" lon="6.88878">
        <ele>2081.46875</ele>
        <time>2011-07-15T06:12:36Z</time>
      </trkpt>
      <trkpt lat="44.6071" lon="6.88881">
        <ele>2081.5205078125</ele>
        <time>2011-07-15T06:12:41Z</time>
      </trkpt>
      <trkpt lat="44.60714" lon="6.88884">
        <ele>2081.2062988281</ele>
        <time>2011-07-15T06:12:47Z</time>
      </trkpt>
      <trkpt lat="44.60718" lon="6.88891">
        <ele>2081.2768554688</ele>
        <time>2011-07-15T06:12:55Z</time>
      </trkpt>
      <trkpt lat="44.60721" lon="6.88894">
        <ele>2081.6020507812</ele>
        <time>2011-07-15T06:13:01Z</time>
      </trkpt>
      <trkpt lat="44.60726" lon="6.88901">
        <ele>2082.5559082031</ele>
        <time>2011-07-15T06:13:08Z</time>
      </trkpt>
      <trkpt lat="44.6073" lon="6.88907">
        <ele>2083.1677246094</ele>
        <time>2011-07-15T06:13:14Z</time>
      </trkpt>
      <trkpt lat="44.60738" lon="6.88909">
        <ele>2082.2880859375</ele>
        <time>2011-07-15T06:13:20Z</time>
      </trkpt>
      <trkpt lat="44.60747" lon="6.88917">
        <ele>2080.7250976562</ele>
        <time>2011-07-15T06:13:28Z</time>
      </trkpt>
      <trkpt lat="44.60752" lon="6.8892">
        <ele>2081.0207519531</ele>
        <time>2011-07-15T06:13:32Z</time>
      </trkpt>
      <trkpt lat="44.60756" lon="6.88921">
        <ele>2081.32421875</ele>
        <time>2011-07-15T06:13:38Z</time>
      </trkpt>
      <trkpt lat="44.6076" lon="6.88928">
        <ele>2082.5576171875</ele>
        <time>2011-07-15T06:13:44Z</time>
      </trkpt>
      <trkpt lat="44.60762" lon="6.88931">
        <ele>2082.8342285156</ele>
        <time>2011-07-15T06:13:51Z</time>
      </trkpt>
      <trkpt lat="44.60767" lon="6.88936">
        <ele>2082.5764160156</ele>
        <time>2011-07-15T06:13:59Z</time>
      </trkpt>
      <trkpt lat="44.60773" lon="6.88939">
        <ele>2081.4462890625</ele>
        <time>2011-07-15T06:14:04Z</time>
      </trkpt>
      <trkpt lat="44.60777" lon="6.88943">
        <ele>2080.4365234375</ele>
        <time>2011-07-15T06:14:09Z</time>
      </trkpt>
      <trkpt lat="44.6078" lon="6.88949">
        <ele>2081.837890625</ele>
        <time>2011-07-15T06:14:15Z</time>
      </trkpt>
      <trkpt lat="44.6078" lon="6.88952">
        <ele>2083.205078125</ele>
        <time>2011-07-15T06:14:22Z</time>
      </trkpt>
      <trkpt lat="44.60781" lon="6.88955">
        <ele>2084.0856933594</ele>
        <time>2011-07-15T06:14:29Z</time>
      </trkpt>
      <trkpt lat="44.60782" lon="6.88959">
        <ele>2085.3032226562</ele>
        <time>2011-07-15T06:14:36Z</time>
      </trkpt>
      <trkpt lat="44.60782" lon="6.88964">
        <ele>2087.1369628906</ele>
        <time>2011-07-15T06:14:43Z</time>
      </trkpt>
      <trkpt lat="44.60783" lon="6.88967">
        <ele>2087.822265625</ele>
        <time>2011-07-15T06:14:52Z</time>
      </trkpt>
      <trkpt lat="44.60785" lon="6.8897">
        <ele>2088.3073730469</ele>
        <time>2011-07-15T06:15:00Z</time>
      </trkpt>
      <trkpt lat="44.60786" lon="6.88974">
        <ele>2089.2509765625</ele>
        <time>2011-07-15T06:15:07Z</time>
      </trkpt>
      <trkpt lat="44.60788" lon="6.88979">
        <ele>2090.1962890625</ele>
        <time>2011-07-15T06:15:14Z</time>
      </trkpt>
      <trkpt lat="44.6079" lon="6.88984">
        <ele>2091.2658691406</ele>
        <time>2011-07-15T06:15:22Z</time>
      </trkpt>
      <trkpt lat="44.60789" lon="6.88985">
        <ele>2092.4091796875</ele>
        <time>2011-07-15T06:15:27Z</time>
      </trkpt>
      <trkpt lat="44.60786" lon="6.88985">
        <ele>2093.5170898438</ele>
        <time>2011-07-15T06:15:33Z</time>
      </trkpt>
      <trkpt lat="44.60783" lon="6.88984">
        <ele>2094.3598632812</ele>
        <time>2011-07-15T06:15:40Z</time>
      </trkpt>
      <trkpt lat="44.60786" lon="6.88988">
        <ele>2094.830078125</ele>
        <time>2011-07-15T06:15:48Z</time>
      </trkpt>
      <trkpt lat="44.60789" lon="6.88992">
        <ele>2095.0888671875</ele>
        <time>2011-07-15T06:15:55Z</time>
      </trkpt>
      <trkpt lat="44.60791" lon="6.88996">
        <ele>2095.6162109375</ele>
        <time>2011-07-15T06:16:02Z</time>
      </trkpt>
      <trkpt lat="44.60788" lon="6.88999">
        <ele>2098.1477050781</ele>
        <time>2011-07-15T06:16:09Z</time>
      </trkpt>
      <trkpt lat="44.60785" lon="6.88998">
        <ele>2099.7016601562</ele>
        <time>2011-07-15T06:16:15Z</time>
      </trkpt>
      <trkpt lat="44.60781" lon="6.88996">
        <ele>2100.7666015625</ele>
        <time>2011-07-15T06:16:20Z</time>
      </trkpt>
      <trkpt lat="44.60777" lon="6.88995">
        <ele>2102.2795410156</ele>
        <time>2011-07-15T06:16:27Z</time>
      </trkpt>
      <trkpt lat="44.60774" lon="6.88995">
        <ele>2103.013671875</ele>
        <time>2011-07-15T06:16:33Z</time>
      </trkpt>
      <trkpt lat="44.60773" lon="6.88998">
        <ele>2104.4128417969</ele>
        <time>2011-07-15T06:16:40Z</time>
      </trkpt>
      <trkpt lat="44.60775" lon="6.89002">
        <ele>2105.7568359375</ele>
        <time>2011-07-15T06:16:46Z</time>
      </trkpt>
      <trkpt lat="44.60778" lon="6.89007">
        <ele>2107.1096191406</ele>
        <time>2011-07-15T06:16:52Z</time>
      </trkpt>
      <trkpt lat="44.60781" lon="6.89012">
        <ele>2107.6809082031</ele>
        <time>2011-07-15T06:16:59Z</time>
      </trkpt>
      <trkpt lat="44.60786" lon="6.89016">
        <ele>2106.5261230469</ele>
        <time>2011-07-15T06:17:08Z</time>
      </trkpt>
      <trkpt lat="44.60789" lon="6.89023">
        <ele>2108.0229492188</ele>
        <time>2011-07-15T06:17:17Z</time>
      </trkpt>
      <trkpt lat="44.60791" lon="6.89032">
        <ele>2110.701171875</ele>
        <time>2011-07-15T06:17:25Z</time>
      </trkpt>
      <trkpt lat="44.60795" lon="6.8904">
        <ele>2111.9226074219</ele>
        <time>2011-07-15T06:17:32Z</time>
      </trkpt>
      <trkpt lat="44.60795" lon="6.89046">
        <ele>2114.1162109375</ele>
        <time>2011-07-15T06:17:37Z</time>
      </trkpt>
      <trkpt lat="44.60797" lon="6.89053">
        <ele>2115.9057617188</ele>
        <time>2011-07-15T06:17:44Z</time>
      </trkpt>
      <trkpt lat="44.60797" lon="6.89058">
        <ele>2117.8930664062</ele>
        <time>2011-07-15T06:17:51Z</time>
      </trkpt>
      <trkpt lat="44.60797" lon="6.89062">
        <ele>2119.1994628906</ele>
        <time>2011-07-15T06:17:57Z</time>
      </trkpt>
      <trkpt lat="44.60801" lon="6.89069">
        <ele>2119.68359375</ele>
        <time>2011-07-15T06:18:03Z</time>
      </trkpt>
      <trkpt lat="44.60804" lon="6.89076">
        <ele>2120.4096679688</ele>
        <time>2011-07-15T06:18:09Z</time>
      </trkpt>
      <trkpt lat="44.60806" lon="6.89082">
        <ele>2121.0393066406</ele>
        <time>2011-07-15T06:18:14Z</time>
      </trkpt>
      <trkpt lat="44.60811" lon="6.89091">
        <ele>2121.6184082031</ele>
        <time>2011-07-15T06:18:21Z</time>
      </trkpt>
      <trkpt lat="44.60815" lon="6.891">
        <ele>2122.8732910156</ele>
        <time>2011-07-15T06:18:29Z</time>
      </trkpt>
      <trkpt lat="44.60821" lon="6.89106">
        <ele>2122.9465332031</ele>
        <time>2011-07-15T06:18:35Z</time>
      </trkpt>
      <trkpt lat="44.60823" lon="6.8911">
        <ele>2123.7060546875</ele>
        <time>2011-07-15T06:18:38Z</time>
      </trkpt>
      <trkpt lat="44.60828" lon="6.89112">
        <ele>2122.7158203125</ele>
        <time>2011-07-15T06:18:43Z</time>
      </trkpt>
      <trkpt lat="44.6083" lon="6.89114">
        <ele>2122.5588378906</ele>
        <time>2011-07-15T06:18:45Z</time>
      </trkpt>
      <trkpt lat="44.60836" lon="6.89121">
        <ele>2124.0544433594</ele>
        <time>2011-07-15T06:18:52Z</time>
      </trkpt>
      <trkpt lat="44.60839" lon="6.89125">
        <ele>2124.91796875</ele>
        <time>2011-07-15T06:18:56Z</time>
      </trkpt>
      <trkpt lat="44.60847" lon="6.89124">
        <ele>2122.3635253906</ele>
        <time>2011-07-15T06:19:03Z</time>
      </trkpt>
      <trkpt lat="44.60852" lon="6.89126">
        <ele>2121.6083984375</ele>
        <time>2011-07-15T06:19:09Z</time>
      </trkpt>
      <trkpt lat="44.60855" lon="6.89131">
        <ele>2123.16015625</ele>
        <time>2011-07-15T06:19:16Z</time>
      </trkpt>
      <trkpt lat="44.60858" lon="6.89135">
        <ele>2124.22265625</ele>
        <time>2011-07-15T06:19:22Z</time>
      </trkpt>
      <trkpt lat="44.60863" lon="6.89141">
        <ele>2125.7683105469</ele>
        <time>2011-07-15T06:19:31Z</time>
      </trkpt>
      <trkpt lat="44.60863" lon="6.89148">
        <ele>2129.3361816406</ele>
        <time>2011-07-15T06:19:40Z</time>
      </trkpt>
      <trkpt lat="44.60865" lon="6.8915">
        <ele>2130.2077636719</ele>
        <time>2011-07-15T06:19:45Z</time>
      </trkpt>
      <trkpt lat="44.60868" lon="6.89151">
        <ele>2130.4753417969</ele>
        <time>2011-07-15T06:19:52Z</time>
      </trkpt>
      <trkpt lat="44.60873" lon="6.89154">
        <ele>2131.2424316406</ele>
        <time>2011-07-15T06:19:58Z</time>
      </trkpt>
      <trkpt lat="44.6088" lon="6.89156">
        <ele>2131.2729492188</ele>
        <time>2011-07-15T06:20:05Z</time>
      </trkpt>
      <trkpt lat="44.60887" lon="6.89151">
        <ele>2127.0988769531</ele>
        <time>2011-07-15T06:20:13Z</time>
      </trkpt>
      <trkpt lat="44.60892" lon="6.89152">
        <ele>2128.0222167969</ele>
        <time>2011-07-15T06:20:19Z</time>
      </trkpt>
      <trkpt lat="44.60894" lon="6.89155">
        <ele>2130.4494628906</ele>
        <time>2011-07-15T06:20:26Z</time>
      </trkpt>
      <trkpt lat="44.60896" lon="6.8916">
        <ele>2133.0883789062</ele>
        <time>2011-07-15T06:20:33Z</time>
      </trkpt>
      <trkpt lat="44.60899" lon="6.89167">
        <ele>2136.1489257812</ele>
        <time>2011-07-15T06:20:42Z</time>
      </trkpt>
      <trkpt lat="44.60903" lon="6.89172">
        <ele>2138.0026855469</ele>
        <time>2011-07-15T06:20:49Z</time>
      </trkpt>
      <trkpt lat="44.60907" lon="6.89176">
        <ele>2139.0502929688</ele>
        <time>2011-07-15T06:20:55Z</time>
      </trkpt>
      <trkpt lat="44.60912" lon="6.8918">
        <ele>2139.5095214844</ele>
        <time>2011-07-15T06:21:00Z</time>
      </trkpt>
      <trkpt lat="44.6092" lon="6.89183">
        <ele>2139.5270996094</ele>
        <time>2011-07-15T06:21:08Z</time>
      </trkpt>
      <trkpt lat="44.60926" lon="6.89184">
        <ele>2139.8684082031</ele>
        <time>2011-07-15T06:21:15Z</time>
      </trkpt>
      <trkpt lat="44.60929" lon="6.89187">
        <ele>2140.1696777344</ele>
        <time>2011-07-15T06:21:20Z</time>
      </trkpt>
      <trkpt lat="44.60932" lon="6.89191">
        <ele>2140.5405273438</ele>
        <time>2011-07-15T06:21:25Z</time>
      </trkpt>
      <trkpt lat="44.60932" lon="6.89195">
        <ele>2141.2336425781</ele>
        <time>2011-07-15T06:21:31Z</time>
      </trkpt>
      <trkpt lat="44.60936" lon="6.89197">
        <ele>2141.9089355469</ele>
        <time>2011-07-15T06:21:38Z</time>
      </trkpt>
      <trkpt lat="44.60938" lon="6.89202">
        <ele>2143.6491699219</ele>
        <time>2011-07-15T06:21:45Z</time>
      </trkpt>
      <trkpt lat="44.60939" lon="6.89204">
        <ele>2144.5478515625</ele>
        <time>2011-07-15T06:21:50Z</time>
      </trkpt>
      <trkpt lat="44.60944" lon="6.89208">
        <ele>2145.6164550781</ele>
        <time>2011-07-15T06:21:57Z</time>
      </trkpt>
      <trkpt lat="44.60951" lon="6.89215">
        <ele>2149.2795410156</ele>
        <time>2011-07-15T06:22:07Z</time>
      </trkpt>
      <trkpt lat="44.60957" lon="6.89221">
        <ele>2152.0529785156</ele>
        <time>2011-07-15T06:22:15Z</time>
      </trkpt>
      <trkpt lat="44.60961" lon="6.89225">
        <ele>2153.9826660156</ele>
        <time>2011-07-15T06:22:21Z</time>
      </trkpt>
      <trkpt lat="44.60968" lon="6.89223">
        <ele>2153.994140625</ele>
        <time>2011-07-15T06:22:28Z</time>
      </trkpt>
      <trkpt lat="44.6097" lon="6.89223">
        <ele>2154.1179199219</ele>
        <time>2011-07-15T06:22:30Z</time>
      </trkpt>
      <trkpt lat="44.60974" lon="6.89224">
        <ele>2155.1101074219</ele>
        <time>2011-07-15T06:22:34Z</time>
      </trkpt>
      <trkpt lat="44.60979" lon="6.89228">
        <ele>2157.0412597656</ele>
        <time>2011-07-15T06:22:41Z</time>
      </trkpt>
      <trkpt lat="44.60981" lon="6.89231">
        <ele>2158.1684570312</ele>
        <time>2011-07-15T06:22:46Z</time>
      </trkpt>
      <trkpt lat="44.60983" lon="6.89235">
        <ele>2159.1572265625</ele>
        <time>2011-07-15T06:22:52Z</time>
      </trkpt>
      <trkpt lat="44.60986" lon="6.89237">
        <ele>2159.7883300781</ele>
        <time>2011-07-15T06:22:57Z</time>
      </trkpt>
      <trkpt lat="44.60988" lon="6.89237">
        <ele>2159.7255859375</ele>
        <time>2011-07-15T06:23:01Z</time>
      </trkpt>
      <trkpt lat="44.60996" lon="6.89239">
        <ele>2159.7709960938</ele>
        <time>2011-07-15T06:23:09Z</time>
      </trkpt>
      <trkpt lat="44.61001" lon="6.89244">
        <ele>2159.8010253906</ele>
        <time>2011-07-15T06:23:16Z</time>
      </trkpt>
      <trkpt lat="44.61004" lon="6.89247">
        <ele>2159.9213867188</ele>
        <time>2011-07-15T06:23:21Z</time>
      </trkpt>
      <trkpt lat="44.61008" lon="6.89247">
        <ele>2159.9294433594</ele>
        <time>2011-07-15T06:23:24Z</time>
      </trkpt>
      <trkpt lat="44.61019" lon="6.89251">
        <ele>2160.2392578125</ele>
        <time>2011-07-15T06:23:30Z</time>
      </trkpt>
      <trkpt lat="44.61024" lon="6.89253">
        <ele>2160.7829589844</ele>
        <time>2011-07-15T06:23:35Z</time>
      </trkpt>
      <trkpt lat="44.6103" lon="6.89255">
        <ele>2160.9296875</ele>
        <time>2011-07-15T06:23:40Z</time>
      </trkpt>
      <trkpt lat="44.61035" lon="6.89257">
        <ele>2161.1853027344</ele>
        <time>2011-07-15T06:23:46Z</time>
      </trkpt>
      <trkpt lat="44.61043" lon="6.89258">
        <ele>2161.1520996094</ele>
        <time>2011-07-15T06:23:54Z</time>
      </trkpt>
      <trkpt lat="44.61045" lon="6.89259">
        <ele>2161.072265625</ele>
        <time>2011-07-15T06:23:56Z</time>
      </trkpt>
      <trkpt lat="44.61047" lon="6.89258">
        <ele>2160.9052734375</ele>
        <time>2011-07-15T06:23:58Z</time>
      </trkpt>
      <trkpt lat="44.61056" lon="6.89257">
        <ele>2160.5239257812</ele>
        <time>2011-07-15T06:24:04Z</time>
      </trkpt>
      <trkpt lat="44.61063" lon="6.89257">
        <ele>2160.3764648438</ele>
        <time>2011-07-15T06:24:09Z</time>
      </trkpt>
      <trkpt lat="44.61069" lon="6.89256">
        <ele>2160.2336425781</ele>
        <time>2011-07-15T06:24:14Z</time>
      </trkpt>
      <trkpt lat="44.61073" lon="6.89256">
        <ele>2160.1560058594</ele>
        <time>2011-07-15T06:24:17Z</time>
      </trkpt>
      <trkpt lat="44.61084" lon="6.89257">
        <ele>2160.4113769531</ele>
        <time>2011-07-15T06:24:23Z</time>
      </trkpt>
      <trkpt lat="44.61095" lon="6.89267">
        <ele>2162.3918457031</ele>
        <time>2011-07-15T06:24:28Z</time>
      </trkpt>
      <trkpt lat="44.611" lon="6.89271">
        <ele>2162.23046875</ele>
        <time>2011-07-15T06:24:31Z</time>
      </trkpt>
      <trkpt lat="44.61101" lon="6.89272">
        <ele>2161.9604492188</ele>
        <time>2011-07-15T06:24:37Z</time>
      </trkpt>
      <trkpt lat="44.61104" lon="6.89277">
        <ele>2160.4973144531</ele>
        <time>2011-07-15T06:24:43Z</time>
      </trkpt>
      <trkpt lat="44.6111" lon="6.89287">
        <ele>2160.0502929688</ele>
        <time>2011-07-15T06:24:50Z</time>
      </trkpt>
      <trkpt lat="44.61113" lon="6.89299">
        <ele>2160.9377441406</ele>
        <time>2011-07-15T06:24:57Z</time>
      </trkpt>
      <trkpt lat="44.61114" lon="6.89302">
        <ele>2161.2316894531</ele>
        <time>2011-07-15T06:25:00Z</time>
      </trkpt>
      <trkpt lat="44.61113" lon="6.89307">
        <ele>2160.9375</ele>
        <time>2011-07-15T06:25:05Z</time>
      </trkpt>
      <trkpt lat="44.61115" lon="6.89314">
        <ele>2162.3559570312</ele>
        <time>2011-07-15T06:25:09Z</time>
      </trkpt>
      <trkpt lat="44.61119" lon="6.89326">
        <ele>2164.5336914062</ele>
        <time>2011-07-15T06:25:16Z</time>
      </trkpt>
      <trkpt lat="44.61119" lon="6.89334">
        <ele>2165.4416503906</ele>
        <time>2011-07-15T06:25:21Z</time>
      </trkpt>
      <trkpt lat="44.61119" lon="6.89337">
        <ele>2165.6687011719</ele>
        <time>2011-07-15T06:25:23Z</time>
      </trkpt>
      <trkpt lat="44.6112" lon="6.89344">
        <ele>2167.2094726562</ele>
        <time>2011-07-15T06:25:29Z</time>
      </trkpt>
      <trkpt lat="44.61124" lon="6.89354">
        <ele>2169.7165527344</ele>
        <time>2011-07-15T06:25:36Z</time>
      </trkpt>
      <trkpt lat="44.61127" lon="6.89364">
        <ele>2172.0190429688</ele>
        <time>2011-07-15T06:25:43Z</time>
      </trkpt>
      <trkpt lat="44.61128" lon="6.89366">
        <ele>2172.3869628906</ele>
        <time>2011-07-15T06:25:44Z</time>
      </trkpt>
      <trkpt lat="44.61129" lon="6.89372">
        <ele>2173.1362304688</ele>
        <time>2011-07-15T06:25:48Z</time>
      </trkpt>
      <trkpt lat="44.61135" lon="6.89378">
        <ele>2174.74609375</ele>
        <time>2011-07-15T06:25:56Z</time>
      </trkpt>
      <trkpt lat="44.61138" lon="6.8938">
        <ele>2175.544921875</ele>
        <time>2011-07-15T06:26:02Z</time>
      </trkpt>
      <trkpt lat="44.61147" lon="6.89384">
        <ele>2176.7451171875</ele>
        <time>2011-07-15T06:26:10Z</time>
      </trkpt>
      <trkpt lat="44.6115" lon="6.89389">
        <ele>2177.2512207031</ele>
        <time>2011-07-15T06:26:14Z</time>
      </trkpt>
      <trkpt lat="44.61153" lon="6.89393">
        <ele>2177.5615234375</ele>
        <time>2011-07-15T06:26:16Z</time>
      </trkpt>
      <trkpt lat="44.61156" lon="6.89401">
        <ele>2178.0251464844</ele>
        <time>2011-07-15T06:26:20Z</time>
      </trkpt>
      <trkpt lat="44.61164" lon="6.89415">
        <ele>2178.8366699219</ele>
        <time>2011-07-15T06:26:28Z</time>
      </trkpt>
      <trkpt lat="44.61171" lon="6.89423">
        <ele>2179.333984375</ele>
        <time>2011-07-15T06:26:34Z</time>
      </trkpt>
      <trkpt lat="44.61172" lon="6.89424">
        <ele>2179.4077148438</ele>
        <time>2011-07-15T06:26:35Z</time>
      </trkpt>
      <trkpt lat="44.61177" lon="6.89425">
        <ele>2179.55859375</ele>
        <time>2011-07-15T06:26:39Z</time>
      </trkpt>
      <trkpt lat="44.61182" lon="6.89431">
        <ele>2179.7834472656</ele>
        <time>2011-07-15T06:26:45Z</time>
      </trkpt>
      <trkpt lat="44.61185" lon="6.89432">
        <ele>2179.8547363281</ele>
        <time>2011-07-15T06:26:47Z</time>
      </trkpt>
      <trkpt lat="44.61192" lon="6.89443">
        <ele>2179.9968261719</ele>
        <time>2011-07-15T06:26:55Z</time>
      </trkpt>
      <trkpt lat="44.61195" lon="6.89448">
        <ele>2180.0104980469</ele>
        <time>2011-07-15T06:26:58Z</time>
      </trkpt>
      <trkpt lat="44.61196" lon="6.89455">
        <ele>2180.0769042969</ele>
        <time>2011-07-15T06:27:02Z</time>
      </trkpt>
      <trkpt lat="44.61197" lon="6.8946">
        <ele>2180.0891113281</ele>
        <time>2011-07-15T06:27:05Z</time>
      </trkpt>
      <trkpt lat="44.61206" lon="6.89468">
        <ele>2180.1311035156</ele>
        <time>2011-07-15T06:27:12Z</time>
      </trkpt>
      <trkpt lat="44.61208" lon="6.89479">
        <ele>2180</ele>
        <time>2011-07-15T06:27:19Z</time>
      </trkpt>
      <trkpt lat="44.61211" lon="6.89483">
        <ele>2180</ele>
        <time>2011-07-15T06:27:23Z</time>
      </trkpt>
      <trkpt lat="44.61214" lon="6.89497">
        <ele>2180</ele>
        <time>2011-07-15T06:27:31Z</time>
      </trkpt>
      <trkpt lat="44.61214" lon="6.89499">
        <ele>2180</ele>
        <time>2011-07-15T06:27:32Z</time>
      </trkpt>
      <trkpt lat="44.61214" lon="6.89502">
        <ele>2180</ele>
        <time>2011-07-15T06:27:34Z</time>
      </trkpt>
      <trkpt lat="44.61214" lon="6.8951">
        <ele>2180</ele>
        <time>2011-07-15T06:27:39Z</time>
      </trkpt>
      <trkpt lat="44.61215" lon="6.89513">
        <ele>2180</ele>
        <time>2011-07-15T06:27:41Z</time>
      </trkpt>
      <trkpt lat="44.61216" lon="6.8952">
        <ele>2180</ele>
        <time>2011-07-15T06:27:45Z</time>
      </trkpt>
      <trkpt lat="44.61217" lon="6.89533">
        <ele>2180</ele>
        <time>2011-07-15T06:27:52Z</time>
      </trkpt>
      <trkpt lat="44.61222" lon="6.89543">
        <ele>2180.0036621094</ele>
        <time>2011-07-15T06:27:59Z</time>
      </trkpt>
      <trkpt lat="44.6123" lon="6.89554">
        <ele>2180.0139160156</ele>
        <time>2011-07-15T06:28:07Z</time>
      </trkpt>
      <trkpt lat="44.61235" lon="6.89558">
        <ele>2180</ele>
        <time>2011-07-15T06:28:13Z</time>
      </trkpt>
      <trkpt lat="44.6124" lon="6.89565">
        <ele>2180</ele>
        <time>2011-07-15T06:28:19Z</time>
      </trkpt>
      <trkpt lat="44.61243" lon="6.89569">
        <ele>2180</ele>
        <time>2011-07-15T06:28:23Z</time>
      </trkpt>
      <trkpt lat="44.6125" lon="6.89573">
        <ele>2180</ele>
        <time>2011-07-15T06:28:30Z</time>
      </trkpt>
      <trkpt lat="44.61256" lon="6.89581">
        <ele>2180.0893554688</ele>
        <time>2011-07-15T06:28:37Z</time>
      </trkpt>
      <trkpt lat="44.61261" lon="6.8959">
        <ele>2180</ele>
        <time>2011-07-15T06:28:44Z</time>
      </trkpt>
      <trkpt lat="44.61263" lon="6.89597">
        <ele>2180</ele>
        <time>2011-07-15T06:28:50Z</time>
      </trkpt>
      <trkpt lat="44.61267" lon="6.89606">
        <ele>2180</ele>
        <time>2011-07-15T06:28:56Z</time>
      </trkpt>
      <trkpt lat="44.6127" lon="6.89616">
        <ele>2180.052734375</ele>
        <time>2011-07-15T06:29:03Z</time>
      </trkpt>
      <trkpt lat="44.61272" lon="6.89623">
        <ele>2180.0842285156</ele>
        <time>2011-07-15T06:29:09Z</time>
      </trkpt>
      <trkpt lat="44.61274" lon="6.89631">
        <ele>2180.1003417969</ele>
        <time>2011-07-15T06:29:15Z</time>
      </trkpt>
      <trkpt lat="44.61282" lon="6.89643">
        <ele>2180.130859375</ele>
        <time>2011-07-15T06:29:26Z</time>
      </trkpt>
      <trkpt lat="44.61288" lon="6.89655">
        <ele>2180.3679199219</ele>
        <time>2011-07-15T06:29:35Z</time>
      </trkpt>
      <trkpt lat="44.61289" lon="6.89663">
        <ele>2180.5131835938</ele>
        <time>2011-07-15T06:29:42Z</time>
      </trkpt>
      <trkpt lat="44.61294" lon="6.89673">
        <ele>2180.7346191406</ele>
        <time>2011-07-15T06:29:50Z</time>
      </trkpt>
      <trkpt lat="44.61297" lon="6.89686">
        <ele>2180.9140625</ele>
        <time>2011-07-15T06:29:58Z</time>
      </trkpt>
      <trkpt lat="44.61303" lon="6.89697">
        <ele>2180.4790039062</ele>
        <time>2011-07-15T06:30:05Z</time>
      </trkpt>
      <trkpt lat="44.61307" lon="6.89707">
        <ele>2180.4323730469</ele>
        <time>2011-07-15T06:30:11Z</time>
      </trkpt>
      <trkpt lat="44.61312" lon="6.89715">
        <ele>2180.5812988281</ele>
        <time>2011-07-15T06:30:17Z</time>
      </trkpt>
      <trkpt lat="44.61317" lon="6.89724">
        <ele>2180.6811523438</ele>
        <time>2011-07-15T06:30:24Z</time>
      </trkpt>
      <trkpt lat="44.61322" lon="6.89734">
        <ele>2180.7172851562</ele>
        <time>2011-07-15T06:30:31Z</time>
      </trkpt>
      <trkpt lat="44.61328" lon="6.89747">
        <ele>2180.5187988281</ele>
        <time>2011-07-15T06:30:39Z</time>
      </trkpt>
      <trkpt lat="44.61335" lon="6.89763">
        <ele>2180.4587402344</ele>
        <time>2011-07-15T06:30:48Z</time>
      </trkpt>
      <trkpt lat="44.61338" lon="6.89774">
        <ele>2180.6967773438</ele>
        <time>2011-07-15T06:30:54Z</time>
      </trkpt>
      <trkpt lat="44.61341" lon="6.89782">
        <ele>2180.9223632812</ele>
        <time>2011-07-15T06:31:00Z</time>
      </trkpt>
      <trkpt lat="44.61342" lon="6.89791">
        <ele>2181.3134765625</ele>
        <time>2011-07-15T06:31:06Z</time>
      </trkpt>
      <trkpt lat="44.61343" lon="6.89794">
        <ele>2181.4479980469</ele>
        <time>2011-07-15T06:31:08Z</time>
      </trkpt>
      <trkpt lat="44.61345" lon="6.89797">
        <ele>2181.5593261719</ele>
        <time>2011-07-15T06:31:11Z</time>
      </trkpt>
      <trkpt lat="44.61347" lon="6.89802">
        <ele>2181.8068847656</ele>
        <time>2011-07-15T06:31:15Z</time>
      </trkpt>
      <trkpt lat="44.61353" lon="6.89817">
        <ele>2182.9494628906</ele>
        <time>2011-07-15T06:31:24Z</time>
      </trkpt>
      <trkpt lat="44.61358" lon="6.8983">
        <ele>2183.8347167969</ele>
        <time>2011-07-15T06:31:31Z</time>
      </trkpt>
      <trkpt lat="44.61364" lon="6.89842">
        <ele>2185.43359375</ele>
        <time>2011-07-15T06:31:39Z</time>
      </trkpt>
      <trkpt lat="44.61368" lon="6.89853">
        <ele>2187.6669921875</ele>
        <time>2011-07-15T06:31:46Z</time>
      </trkpt>
      <trkpt lat="44.6137" lon="6.89866">
        <ele>2189.2993164062</ele>
        <time>2011-07-15T06:31:54Z</time>
      </trkpt>
      <trkpt lat="44.61372" lon="6.89878">
        <ele>2190.6027832031</ele>
        <time>2011-07-15T06:32:01Z</time>
      </trkpt>
      <trkpt lat="44.61373" lon="6.89888">
        <ele>2191.3090820312</ele>
        <time>2011-07-15T06:32:08Z</time>
      </trkpt>
      <trkpt lat="44.61373" lon="6.8989">
        <ele>2191.4008789062</ele>
        <time>2011-07-15T06:32:09Z</time>
      </trkpt>
      <trkpt lat="44.61376" lon="6.89907">
        <ele>2193.3649902344</ele>
        <time>2011-07-15T06:32:18Z</time>
      </trkpt>
      <trkpt lat="44.6138" lon="6.89918">
        <ele>2195.1555175781</ele>
        <time>2011-07-15T06:32:24Z</time>
      </trkpt>
      <trkpt lat="44.61383" lon="6.8993">
        <ele>2196.2023925781</ele>
        <time>2011-07-15T06:32:31Z</time>
      </trkpt>
      <trkpt lat="44.61386" lon="6.89937">
        <ele>2197.1442871094</ele>
        <time>2011-07-15T06:32:36Z</time>
      </trkpt>
      <trkpt lat="44.61391" lon="6.8995">
        <ele>2198.1843261719</ele>
        <time>2011-07-15T06:32:44Z</time>
      </trkpt>
      <trkpt lat="44.61399" lon="6.89964">
        <ele>2198.7336425781</ele>
        <time>2011-07-15T06:32:53Z</time>
      </trkpt>
      <trkpt lat="44.61405" lon="6.89975">
        <ele>2199.1730957031</ele>
        <time>2011-07-15T06:33:01Z</time>
      </trkpt>
      <trkpt lat="44.61412" lon="6.89984">
        <ele>2199.6674804688</ele>
        <time>2011-07-15T06:33:08Z</time>
      </trkpt>
      <trkpt lat="44.6142" lon="6.89992">
        <ele>2200</ele>
        <time>2011-07-15T06:33:15Z</time>
      </trkpt>
      <trkpt lat="44.61426" lon="6.89998">
        <ele>2200</ele>
        <time>2011-07-15T06:33:20Z</time>
      </trkpt>
      <trkpt lat="44.61435" lon="6.90006">
        <ele>2200</ele>
        <time>2011-07-15T06:33:28Z</time>
      </trkpt>
      <trkpt lat="44.6144" lon="6.90012">
        <ele>2200</ele>
        <time>2011-07-15T06:33:33Z</time>
      </trkpt>
      <trkpt lat="44.61449" lon="6.90021">
        <ele>2200</ele>
        <time>2011-07-15T06:33:41Z</time>
      </trkpt>
      <trkpt lat="44.61456" lon="6.90029">
        <ele>2200</ele>
        <time>2011-07-15T06:33:48Z</time>
      </trkpt>
      <trkpt lat="44.61465" lon="6.9004">
        <ele>2200</ele>
        <time>2011-07-15T06:33:56Z</time>
      </trkpt>
      <trkpt lat="44.61472" lon="6.90045">
        <ele>2200</ele>
        <time>2011-07-15T06:34:03Z</time>
      </trkpt>
      <trkpt lat="44.6148" lon="6.90048">
        <ele>2200</ele>
        <time>2011-07-15T06:34:10Z</time>
      </trkpt>
      <trkpt lat="44.61489" lon="6.90051">
        <ele>2200</ele>
        <time>2011-07-15T06:34:17Z</time>
      </trkpt>
      <trkpt lat="44.61497" lon="6.90055">
        <ele>2200</ele>
        <time>2011-07-15T06:34:24Z</time>
      </trkpt>
      <trkpt lat="44.61503" lon="6.9006">
        <ele>2200</ele>
        <time>2011-07-15T06:34:30Z</time>
      </trkpt>
      <trkpt lat="44.61511" lon="6.90064">
        <ele>2200</ele>
        <time>2011-07-15T06:34:37Z</time>
      </trkpt>
      <trkpt lat="44.61522" lon="6.90066">
        <ele>2200</ele>
        <time>2011-07-15T06:34:46Z</time>
      </trkpt>
      <trkpt lat="44.61532" lon="6.90069">
        <ele>2200</ele>
        <time>2011-07-15T06:34:54Z</time>
      </trkpt>
      <trkpt lat="44.61539" lon="6.90078">
        <ele>2200</ele>
        <time>2011-07-15T06:35:02Z</time>
      </trkpt>
      <trkpt lat="44.61541" lon="6.9009">
        <ele>2200</ele>
        <time>2011-07-15T06:35:09Z</time>
      </trkpt>
      <trkpt lat="44.61541" lon="6.90092">
        <ele>2200</ele>
        <time>2011-07-15T06:35:15Z</time>
      </trkpt>
      <trkpt lat="44.61544" lon="6.90097">
        <ele>2200</ele>
        <time>2011-07-15T06:35:24Z</time>
      </trkpt>
      <trkpt lat="44.61546" lon="6.901">
        <ele>2200</ele>
        <time>2011-07-15T06:35:27Z</time>
      </trkpt>
      <trkpt lat="44.6155" lon="6.9011">
        <ele>2200</ele>
        <time>2011-07-15T06:35:34Z</time>
      </trkpt>
      <trkpt lat="44.61556" lon="6.90115">
        <ele>2200</ele>
        <time>2011-07-15T06:35:41Z</time>
      </trkpt>
      <trkpt lat="44.61558" lon="6.90116">
        <ele>2200</ele>
        <time>2011-07-15T06:35:47Z</time>
      </trkpt>
      <trkpt lat="44.61561" lon="6.90119">
        <ele>2200</ele>
        <time>2011-07-15T06:35:52Z</time>
      </trkpt>
      <trkpt lat="44.61563" lon="6.90122">
        <ele>2200</ele>
        <time>2011-07-15T06:35:56Z</time>
      </trkpt>
      <trkpt lat="44.61567" lon="6.90123">
        <ele>2200</ele>
        <time>2011-07-15T06:36:01Z</time>
      </trkpt>
      <trkpt lat="44.61573" lon="6.90126">
        <ele>2200</ele>
        <time>2011-07-15T06:36:08Z</time>
      </trkpt>
      <trkpt lat="44.61577" lon="6.90126">
        <ele>2200</ele>
        <time>2011-07-15T06:36:12Z</time>
      </trkpt>
      <trkpt lat="44.61583" lon="6.90126">
        <ele>2200</ele>
        <time>2011-07-15T06:36:16Z</time>
      </trkpt>
      <trkpt lat="44.61588" lon="6.90123">
        <ele>2200</ele>
        <time>2011-07-15T06:36:21Z</time>
      </trkpt>
      <trkpt lat="44.6159" lon="6.90123">
        <ele>2200</ele>
        <time>2011-07-15T06:36:23Z</time>
      </trkpt>
      <trkpt lat="44.61598" lon="6.90122">
        <ele>2200</ele>
        <time>2011-07-15T06:36:29Z</time>
      </trkpt>
      <trkpt lat="44.61599" lon="6.90122">
        <ele>2200</ele>
        <time>2011-07-15T06:36:30Z</time>
      </trkpt>
      <trkpt lat="44.61607" lon="6.90123">
        <ele>2200</ele>
        <time>2011-07-15T06:36:35Z</time>
      </trkpt>
      <trkpt lat="44.61615" lon="6.90125">
        <ele>2200</ele>
        <time>2011-07-15T06:36:41Z</time>
      </trkpt>
      <trkpt lat="44.61616" lon="6.90129">
        <ele>2200</ele>
        <time>2011-07-15T06:36:45Z</time>
      </trkpt>
      <trkpt lat="44.61617" lon="6.90133">
        <ele>2200</ele>
        <time>2011-07-15T06:36:53Z</time>
      </trkpt>
      <trkpt lat="44.61617" lon="6.9014">
        <ele>2200</ele>
        <time>2011-07-15T06:36:59Z</time>
      </trkpt>
      <trkpt lat="44.6162" lon="6.90144">
        <ele>2200</ele>
        <time>2011-07-15T06:37:03Z</time>
      </trkpt>
      <trkpt lat="44.61631" lon="6.90148">
        <ele>2200</ele>
        <time>2011-07-15T06:37:12Z</time>
      </trkpt>
      <trkpt lat="44.61634" lon="6.90149">
        <ele>2200</ele>
        <time>2011-07-15T06:37:15Z</time>
      </trkpt>
      <trkpt lat="44.61641" lon="6.9016">
        <ele>2200</ele>
        <time>2011-07-15T06:37:23Z</time>
      </trkpt>
      <trkpt lat="44.61646" lon="6.90168">
        <ele>2200</ele>
        <time>2011-07-15T06:37:28Z</time>
      </trkpt>
      <trkpt lat="44.61656" lon="6.90179">
        <ele>2200</ele>
        <time>2011-07-15T06:37:37Z</time>
      </trkpt>
      <trkpt lat="44.61663" lon="6.90187">
        <ele>2200</ele>
        <time>2011-07-15T06:37:43Z</time>
      </trkpt>
      <trkpt lat="44.6167" lon="6.90198">
        <ele>2200</ele>
        <time>2011-07-15T06:37:50Z</time>
      </trkpt>
      <trkpt lat="44.61674" lon="6.90209">
        <ele>2200</ele>
        <time>2011-07-15T06:37:56Z</time>
      </trkpt>
      <trkpt lat="44.61679" lon="6.9022">
        <ele>2200</ele>
        <time>2011-07-15T06:38:03Z</time>
      </trkpt>
      <trkpt lat="44.61683" lon="6.90231">
        <ele>2200.677734375</ele>
        <time>2011-07-15T06:38:09Z</time>
      </trkpt>
      <trkpt lat="44.61686" lon="6.90239">
        <ele>2200.9372558594</ele>
        <time>2011-07-15T06:38:14Z</time>
      </trkpt>
      <trkpt lat="44.61691" lon="6.90248">
        <ele>2200.5983886719</ele>
        <time>2011-07-15T06:38:20Z</time>
      </trkpt>
      <trkpt lat="44.61693" lon="6.90256">
        <ele>2200.4147949219</ele>
        <time>2011-07-15T06:39:29Z</time>
      </trkpt>
      <trkpt lat="44.61695" lon="6.90256">
        <ele>2200</ele>
        <time>2011-07-15T06:39:40Z</time>
      </trkpt>
      <trkpt lat="44.61695" lon="6.90258">
        <ele>2200</ele>
        <time>2011-07-15T06:39:44Z</time>
      </trkpt>
      <trkpt lat="44.61695" lon="6.90258">
        <ele>2200</ele>
        <time>2011-07-15T06:39:45Z</time>
      </trkpt>
      <trkpt lat="44.61696" lon="6.90258">
        <ele>2200</ele>
        <time>2011-07-15T06:39:52Z</time>
      </trkpt>
      <trkpt lat="44.61696" lon="6.90259">
        <ele>2200</ele>
        <time>2011-07-15T06:39:58Z</time>
      </trkpt>
      <trkpt lat="44.61697" lon="6.9026">
        <ele>2200</ele>
        <time>2011-07-15T06:40:32Z</time>
      </trkpt>
      <trkpt lat="44.61699" lon="6.90261">
        <ele>2200</ele>
        <time>2011-07-15T06:40:38Z</time>
      </trkpt>
      <trkpt lat="44.617" lon="6.90262">
        <ele>2200</ele>
        <time>2011-07-15T06:40:48Z</time>
      </trkpt>
      <trkpt lat="44.617" lon="6.90263">
        <ele>2200</ele>
        <time>2011-07-15T06:41:15Z</time>
      </trkpt>
      <trkpt lat="44.61698" lon="6.90261">
        <ele>2200</ele>
        <time>2011-07-15T06:41:24Z</time>
      </trkpt>
      <trkpt lat="44.61698" lon="6.9026">
        <ele>2200</ele>
        <time>2011-07-15T06:41:30Z</time>
      </trkpt>
      <trkpt lat="44.61697" lon="6.9026">
        <ele>2200</ele>
        <time>2011-07-15T06:41:37Z</time>
      </trkpt>
      <trkpt lat="44.61697" lon="6.90258">
        <ele>2200</ele>
        <time>2011-07-15T06:41:46Z</time>
      </trkpt>
      <trkpt lat="44.61695" lon="6.90259">
        <ele>2200</ele>
        <time>2011-07-15T06:42:07Z</time>
      </trkpt>
      <trkpt lat="44.61695" lon="6.90258">
        <ele>2200</ele>
        <time>2011-07-15T06:42:10Z</time>
      </trkpt>
      <trkpt lat="44.61694" lon="6.90259">
        <ele>2200.0314941406</ele>
        <time>2011-07-15T06:42:18Z</time>
      </trkpt>
      <trkpt lat="44.61693" lon="6.90256">
        <ele>2200.3232421875</ele>
        <time>2011-07-15T06:42:30Z</time>
      </trkpt>
      <trkpt lat="44.61692" lon="6.90254">
        <ele>2200.5461425781</ele>
        <time>2011-07-15T06:43:01Z</time>
      </trkpt>
      <trkpt lat="44.61697" lon="6.9026">
        <ele>2200</ele>
        <time>2011-07-15T06:43:07Z</time>
      </trkpt>
      <trkpt lat="44.61699" lon="6.90262">
        <ele>2200</ele>
        <time>2011-07-15T06:43:09Z</time>
      </trkpt>
      <trkpt lat="44.61704" lon="6.90272">
        <ele>2200</ele>
        <time>2011-07-15T06:43:17Z</time>
      </trkpt>
      <trkpt lat="44.61707" lon="6.90277">
        <ele>2200</ele>
        <time>2011-07-15T06:43:22Z</time>
      </trkpt>
      <trkpt lat="44.61712" lon="6.90284">
        <ele>2200.1826171875</ele>
        <time>2011-07-15T06:43:29Z</time>
      </trkpt>
      <trkpt lat="44.61714" lon="6.9029">
        <ele>2200.2514648438</ele>
        <time>2011-07-15T06:43:35Z</time>
      </trkpt>
      <trkpt lat="44.61716" lon="6.90294">
        <ele>2200.2397460938</ele>
        <time>2011-07-15T06:43:39Z</time>
      </trkpt>
      <trkpt lat="44.61722" lon="6.90302">
        <ele>2200.0258789062</ele>
        <time>2011-07-15T06:43:47Z</time>
      </trkpt>
      <trkpt lat="44.61726" lon="6.90304">
        <ele>2200</ele>
        <time>2011-07-15T06:43:51Z</time>
      </trkpt>
      <trkpt lat="44.61732" lon="6.9031">
        <ele>2200.2854003906</ele>
        <time>2011-07-15T06:43:58Z</time>
      </trkpt>
      <trkpt lat="44.61739" lon="6.90323">
        <ele>2200.7653808594</ele>
        <time>2011-07-15T06:44:09Z</time>
      </trkpt>
      <trkpt lat="44.61744" lon="6.90333">
        <ele>2200.6101074219</ele>
        <time>2011-07-15T06:44:17Z</time>
      </trkpt>
      <trkpt lat="44.61749" lon="6.9034">
        <ele>2200.5991210938</ele>
        <time>2011-07-15T06:44:24Z</time>
      </trkpt>
      <trkpt lat="44.6175" lon="6.90344">
        <ele>2200.912109375</ele>
        <time>2011-07-15T06:44:28Z</time>
      </trkpt>
      <trkpt lat="44.61752" lon="6.90352">
        <ele>2201.8586425781</ele>
        <time>2011-07-15T06:44:35Z</time>
      </trkpt>
      <trkpt lat="44.61756" lon="6.90361">
        <ele>2203.7116699219</ele>
        <time>2011-07-15T06:44:44Z</time>
      </trkpt>
      <trkpt lat="44.61759" lon="6.90365">
        <ele>2205.8256835938</ele>
        <time>2011-07-15T06:44:49Z</time>
      </trkpt>
      <trkpt lat="44.61762" lon="6.90368">
        <ele>2207.4299316406</ele>
        <time>2011-07-15T06:44:53Z</time>
      </trkpt>
      <trkpt lat="44.61767" lon="6.90372">
        <ele>2209.4260253906</ele>
        <time>2011-07-15T06:44:59Z</time>
      </trkpt>
      <trkpt lat="44.61773" lon="6.90376">
        <ele>2211.0954589844</ele>
        <time>2011-07-15T06:45:07Z</time>
      </trkpt>
      <trkpt lat="44.61777" lon="6.90384">
        <ele>2212.4421386719</ele>
        <time>2011-07-15T06:45:15Z</time>
      </trkpt>
      <trkpt lat="44.6178" lon="6.90391">
        <ele>2213.7644042969</ele>
        <time>2011-07-15T06:45:21Z</time>
      </trkpt>
      <trkpt lat="44.61782" lon="6.90399">
        <ele>2215.0078125</ele>
        <time>2011-07-15T06:45:28Z</time>
      </trkpt>
      <trkpt lat="44.61785" lon="6.90408">
        <ele>2216.1013183594</ele>
        <time>2011-07-15T06:45:35Z</time>
      </trkpt>
      <trkpt lat="44.61789" lon="6.90417">
        <ele>2217.1755371094</ele>
        <time>2011-07-15T06:45:42Z</time>
      </trkpt>
      <trkpt lat="44.61792" lon="6.90427">
        <ele>2218.1157226562</ele>
        <time>2011-07-15T06:45:49Z</time>
      </trkpt>
      <trkpt lat="44.61796" lon="6.90437">
        <ele>2218.9375</ele>
        <time>2011-07-15T06:45:56Z</time>
      </trkpt>
      <trkpt lat="44.61802" lon="6.9045">
        <ele>2219.8840332031</ele>
        <time>2011-07-15T06:46:05Z</time>
      </trkpt>
      <trkpt lat="44.61805" lon="6.90455">
        <ele>2220.001953125</ele>
        <time>2011-07-15T06:46:10Z</time>
      </trkpt>
      <trkpt lat="44.6181" lon="6.90465">
        <ele>2220</ele>
        <time>2011-07-15T06:46:19Z</time>
      </trkpt>
      <trkpt lat="44.61814" lon="6.90472">
        <ele>2220</ele>
        <time>2011-07-15T06:46:25Z</time>
      </trkpt>
      <trkpt lat="44.61818" lon="6.90478">
        <ele>2221.1071777344</ele>
        <time>2011-07-15T06:46:32Z</time>
      </trkpt>
      <trkpt lat="44.61822" lon="6.90484">
        <ele>2222.0598144531</ele>
        <time>2011-07-15T06:46:39Z</time>
      </trkpt>
      <trkpt lat="44.61826" lon="6.90487">
        <ele>2222.6435546875</ele>
        <time>2011-07-15T06:46:46Z</time>
      </trkpt>
      <trkpt lat="44.6183" lon="6.90492">
        <ele>2223.5017089844</ele>
        <time>2011-07-15T06:46:55Z</time>
      </trkpt>
      <trkpt lat="44.61833" lon="6.90495">
        <ele>2224.0339355469</ele>
        <time>2011-07-15T06:47:01Z</time>
      </trkpt>
      <trkpt lat="44.61837" lon="6.90498">
        <ele>2224.4536132812</ele>
        <time>2011-07-15T06:47:10Z</time>
      </trkpt>
      <trkpt lat="44.6184" lon="6.905">
        <ele>2224.7370605469</ele>
        <time>2011-07-15T06:47:17Z</time>
      </trkpt>
      <trkpt lat="44.61843" lon="6.90503">
        <ele>2225.6574707031</ele>
        <time>2011-07-15T06:47:25Z</time>
      </trkpt>
      <trkpt lat="44.61847" lon="6.90506">
        <ele>2226.8356933594</ele>
        <time>2011-07-15T06:47:34Z</time>
      </trkpt>
      <trkpt lat="44.61852" lon="6.90509">
        <ele>2227.9157714844</ele>
        <time>2011-07-15T06:47:42Z</time>
      </trkpt>
      <trkpt lat="44.61855" lon="6.90511">
        <ele>2228.8005371094</ele>
        <time>2011-07-15T06:47:47Z</time>
      </trkpt>
      <trkpt lat="44.6186" lon="6.90513">
        <ele>2229.765625</ele>
        <time>2011-07-15T06:47:53Z</time>
      </trkpt>
      <trkpt lat="44.61864" lon="6.90516">
        <ele>2231.1826171875</ele>
        <time>2011-07-15T06:48:02Z</time>
      </trkpt>
      <trkpt lat="44.61868" lon="6.90518">
        <ele>2232.201171875</ele>
        <time>2011-07-15T06:48:09Z</time>
      </trkpt>
      <trkpt lat="44.61871" lon="6.9052">
        <ele>2233.3569335938</ele>
        <time>2011-07-15T06:48:13Z</time>
      </trkpt>
      <trkpt lat="44.61874" lon="6.90522">
        <ele>2234.6794433594</ele>
        <time>2011-07-15T06:48:20Z</time>
      </trkpt>
      <trkpt lat="44.61879" lon="6.90524">
        <ele>2235.5969238281</ele>
        <time>2011-07-15T06:48:27Z</time>
      </trkpt>
      <trkpt lat="44.61883" lon="6.90524">
        <ele>2235.8737792969</ele>
        <time>2011-07-15T06:48:33Z</time>
      </trkpt>
      <trkpt lat="44.61886" lon="6.90525">
        <ele>2236.8913574219</ele>
        <time>2011-07-15T06:48:38Z</time>
      </trkpt>
      <trkpt lat="44.61889" lon="6.90529">
        <ele>2238.4279785156</ele>
        <time>2011-07-15T06:48:45Z</time>
      </trkpt>
      <trkpt lat="44.61892" lon="6.90533">
        <ele>2239.7973632812</ele>
        <time>2011-07-15T06:48:51Z</time>
      </trkpt>
      <trkpt lat="44.61895" lon="6.90537">
        <ele>2241.4130859375</ele>
        <time>2011-07-15T06:48:58Z</time>
      </trkpt>
      <trkpt lat="44.61898" lon="6.90537">
        <ele>2241.8122558594</ele>
        <time>2011-07-15T06:49:04Z</time>
      </trkpt>
      <trkpt lat="44.61902" lon="6.90537">
        <ele>2241.9545898438</ele>
        <time>2011-07-15T06:49:10Z</time>
      </trkpt>
      <trkpt lat="44.61906" lon="6.90539">
        <ele>2243.1965332031</ele>
        <time>2011-07-15T06:49:18Z</time>
      </trkpt>
      <trkpt lat="44.6191" lon="6.9054">
        <ele>2243.8291015625</ele>
        <time>2011-07-15T06:49:25Z</time>
      </trkpt>
      <trkpt lat="44.61915" lon="6.90541">
        <ele>2244.7426757812</ele>
        <time>2011-07-15T06:49:32Z</time>
      </trkpt>
      <trkpt lat="44.6192" lon="6.90543">
        <ele>2245.3024902344</ele>
        <time>2011-07-15T06:49:38Z</time>
      </trkpt>
      <trkpt lat="44.61928" lon="6.90545">
        <ele>2246.2983398438</ele>
        <time>2011-07-15T06:49:46Z</time>
      </trkpt>
      <trkpt lat="44.61933" lon="6.9055">
        <ele>2248.1179199219</ele>
        <time>2011-07-15T06:49:53Z</time>
      </trkpt>
      <trkpt lat="44.61938" lon="6.90556">
        <ele>2250.2807617188</ele>
        <time>2011-07-15T06:50:00Z</time>
      </trkpt>
      <trkpt lat="44.61944" lon="6.90563">
        <ele>2252.5295410156</ele>
        <time>2011-07-15T06:50:07Z</time>
      </trkpt>
      <trkpt lat="44.61947" lon="6.90565">
        <ele>2253.1040039062</ele>
        <time>2011-07-15T06:50:11Z</time>
      </trkpt>
      <trkpt lat="44.61953" lon="6.90568">
        <ele>2253.3957519531</ele>
        <time>2011-07-15T06:50:18Z</time>
      </trkpt>
      <trkpt lat="44.61957" lon="6.90573">
        <ele>2254.3227539062</ele>
        <time>2011-07-15T06:50:24Z</time>
      </trkpt>
      <trkpt lat="44.6196" lon="6.90576">
        <ele>2255.1845703125</ele>
        <time>2011-07-15T06:50:30Z</time>
      </trkpt>
      <trkpt lat="44.61963" lon="6.90583">
        <ele>2257.2685546875</ele>
        <time>2011-07-15T06:50:38Z</time>
      </trkpt>
      <trkpt lat="44.61966" lon="6.9059">
        <ele>2258.625</ele>
        <time>2011-07-15T06:50:45Z</time>
      </trkpt>
      <trkpt lat="44.61968" lon="6.90596">
        <ele>2259.5915527344</ele>
        <time>2011-07-15T06:50:51Z</time>
      </trkpt>
      <trkpt lat="44.61971" lon="6.90601">
        <ele>2260.6818847656</ele>
        <time>2011-07-15T06:50:57Z</time>
      </trkpt>
      <trkpt lat="44.61974" lon="6.90607">
        <ele>2261.8186035156</ele>
        <time>2011-07-15T06:51:05Z</time>
      </trkpt>
      <trkpt lat="44.61978" lon="6.90611">
        <ele>2262.5422363281</ele>
        <time>2011-07-15T06:51:10Z</time>
      </trkpt>
      <trkpt lat="44.61982" lon="6.90618">
        <ele>2263.9829101562</ele>
        <time>2011-07-15T06:51:17Z</time>
      </trkpt>
      <trkpt lat="44.61985" lon="6.90622">
        <ele>2264.6196289062</ele>
        <time>2011-07-15T06:51:21Z</time>
      </trkpt>
      <trkpt lat="44.61994" lon="6.90632">
        <ele>2266.0170898438</ele>
        <time>2011-07-15T06:51:32Z</time>
      </trkpt>
      <trkpt lat="44.62003" lon="6.9064">
        <ele>2266.7414550781</ele>
        <time>2011-07-15T06:51:41Z</time>
      </trkpt>
      <trkpt lat="44.62003" lon="6.90646">
        <ele>2267.6616210938</ele>
        <time>2011-07-15T06:51:45Z</time>
      </trkpt>
      <trkpt lat="44.61997" lon="6.90652">
        <ele>2269.3234863281</ele>
        <time>2011-07-15T06:51:53Z</time>
      </trkpt>
      <trkpt lat="44.61987" lon="6.90652">
        <ele>2270.5419921875</ele>
        <time>2011-07-15T06:52:02Z</time>
      </trkpt>
      <trkpt lat="44.61985" lon="6.90652">
        <ele>2270.8303222656</ele>
        <time>2011-07-15T06:52:05Z</time>
      </trkpt>
      <trkpt lat="44.61975" lon="6.90653">
        <ele>2272.0935058594</ele>
        <time>2011-07-15T06:52:14Z</time>
      </trkpt>
      <trkpt lat="44.61965" lon="6.90657">
        <ele>2273.7080078125</ele>
        <time>2011-07-15T06:52:23Z</time>
      </trkpt>
      <trkpt lat="44.61953" lon="6.90659">
        <ele>2275.0383300781</ele>
        <time>2011-07-15T06:52:32Z</time>
      </trkpt>
      <trkpt lat="44.61945" lon="6.90658">
        <ele>2275.3146972656</ele>
        <time>2011-07-15T06:52:39Z</time>
      </trkpt>
      <trkpt lat="44.61937" lon="6.90656">
        <ele>2275.5556640625</ele>
        <time>2011-07-15T06:52:47Z</time>
      </trkpt>
      <trkpt lat="44.61929" lon="6.90655">
        <ele>2276.0327148438</ele>
        <time>2011-07-15T06:52:55Z</time>
      </trkpt>
      <trkpt lat="44.61923" lon="6.90656">
        <ele>2276.7023925781</ele>
        <time>2011-07-15T06:53:02Z</time>
      </trkpt>
      <trkpt lat="44.61914" lon="6.90654">
        <ele>2277.2600097656</ele>
        <time>2011-07-15T06:53:13Z</time>
      </trkpt>
      <trkpt lat="44.61905" lon="6.90655">
        <ele>2278.5881347656</ele>
        <time>2011-07-15T06:53:22Z</time>
      </trkpt>
      <trkpt lat="44.61902" lon="6.90656">
        <ele>2279.1501464844</ele>
        <time>2011-07-15T06:53:25Z</time>
      </trkpt>
      <trkpt lat="44.61892" lon="6.90662">
        <ele>2282.1025390625</ele>
        <time>2011-07-15T06:53:35Z</time>
      </trkpt>
      <trkpt lat="44.61885" lon="6.90669">
        <ele>2284.9975585938</ele>
        <time>2011-07-15T06:53:43Z</time>
      </trkpt>
      <trkpt lat="44.61877" lon="6.9067">
        <ele>2285.8630371094</ele>
        <time>2011-07-15T06:53:50Z</time>
      </trkpt>
      <trkpt lat="44.61867" lon="6.9067">
        <ele>2286.986328125</ele>
        <time>2011-07-15T06:53:58Z</time>
      </trkpt>
      <trkpt lat="44.61853" lon="6.90671">
        <ele>2288.0307617188</ele>
        <time>2011-07-15T06:54:10Z</time>
      </trkpt>
      <trkpt lat="44.61842" lon="6.90672">
        <ele>2288.7087402344</ele>
        <time>2011-07-15T06:54:19Z</time>
      </trkpt>
      <trkpt lat="44.61829" lon="6.90675">
        <ele>2289.7473144531</ele>
        <time>2011-07-15T06:54:29Z</time>
      </trkpt>
      <trkpt lat="44.61817" lon="6.90675">
        <ele>2290.720703125</ele>
        <time>2011-07-15T06:54:38Z</time>
      </trkpt>
      <trkpt lat="44.61805" lon="6.90673">
        <ele>2291.1516113281</ele>
        <time>2011-07-15T06:54:47Z</time>
      </trkpt>
      <trkpt lat="44.61794" lon="6.90663">
        <ele>2290.1452636719</ele>
        <time>2011-07-15T06:54:56Z</time>
      </trkpt>
      <trkpt lat="44.61785" lon="6.90654">
        <ele>2288.9228515625</ele>
        <time>2011-07-15T06:55:04Z</time>
      </trkpt>
      <trkpt lat="44.61778" lon="6.90647">
        <ele>2287.75390625</ele>
        <time>2011-07-15T06:55:11Z</time>
      </trkpt>
      <trkpt lat="44.61771" lon="6.90639">
        <ele>2287.5810546875</ele>
        <time>2011-07-15T06:55:18Z</time>
      </trkpt>
      <trkpt lat="44.61761" lon="6.90637">
        <ele>2288.9946289062</ele>
        <time>2011-07-15T06:55:26Z</time>
      </trkpt>
      <trkpt lat="44.61749" lon="6.90638">
        <ele>2291.6396484375</ele>
        <time>2011-07-15T06:55:36Z</time>
      </trkpt>
      <trkpt lat="44.6174" lon="6.9064">
        <ele>2292.9323730469</ele>
        <time>2011-07-15T06:55:45Z</time>
      </trkpt>
      <trkpt lat="44.61731" lon="6.9064">
        <ele>2293.6584472656</ele>
        <time>2011-07-15T06:55:54Z</time>
      </trkpt>
      <trkpt lat="44.61723" lon="6.90636">
        <ele>2292.640625</ele>
        <time>2011-07-15T06:56:02Z</time>
      </trkpt>
      <trkpt lat="44.61715" lon="6.90629">
        <ele>2293.4084472656</ele>
        <time>2011-07-15T06:56:11Z</time>
      </trkpt>
      <trkpt lat="44.61707" lon="6.90623">
        <ele>2294.9287109375</ele>
        <time>2011-07-15T06:56:20Z</time>
      </trkpt>
      <trkpt lat="44.617" lon="6.90618">
        <ele>2296.5241699219</ele>
        <time>2011-07-15T06:56:28Z</time>
      </trkpt>
      <trkpt lat="44.61691" lon="6.9061">
        <ele>2298.8464355469</ele>
        <time>2011-07-15T06:56:38Z</time>
      </trkpt>
      <trkpt lat="44.61685" lon="6.90604">
        <ele>2300.9663085938</ele>
        <time>2011-07-15T06:56:45Z</time>
      </trkpt>
      <trkpt lat="44.61678" lon="6.906">
        <ele>2304.2004394531</ele>
        <time>2011-07-15T06:56:54Z</time>
      </trkpt>
      <trkpt lat="44.61673" lon="6.90593">
        <ele>2305.6853027344</ele>
        <time>2011-07-15T06:57:01Z</time>
      </trkpt>
      <trkpt lat="44.61668" lon="6.90583">
        <ele>2306.11328125</ele>
        <time>2011-07-15T06:57:11Z</time>
      </trkpt>
      <trkpt lat="44.61663" lon="6.90576">
        <ele>2307.0427246094</ele>
        <time>2011-07-15T06:57:19Z</time>
      </trkpt>
      <trkpt lat="44.61658" lon="6.90569">
        <ele>2308.1013183594</ele>
        <time>2011-07-15T06:57:27Z</time>
      </trkpt>
      <trkpt lat="44.61655" lon="6.90564">
        <ele>2308.1765136719</ele>
        <time>2011-07-15T06:57:31Z</time>
      </trkpt>
      <trkpt lat="44.61651" lon="6.90559">
        <ele>2309.6867675781</ele>
        <time>2011-07-15T06:57:38Z</time>
      </trkpt>
      <trkpt lat="44.61647" lon="6.90555">
        <ele>2311.4738769531</ele>
        <time>2011-07-15T06:57:46Z</time>
      </trkpt>
      <trkpt lat="44.61641" lon="6.9055">
        <ele>2312.7585449219</ele>
        <time>2011-07-15T06:57:54Z</time>
      </trkpt>
      <trkpt lat="44.61637" lon="6.90546">
        <ele>2313.8637695312</ele>
        <time>2011-07-15T06:58:00Z</time>
      </trkpt>
      <trkpt lat="44.61629" lon="6.90542">
        <ele>2315.9660644531</ele>
        <time>2011-07-15T06:58:11Z</time>
      </trkpt>
      <trkpt lat="44.61622" lon="6.90543">
        <ele>2319.2106933594</ele>
        <time>2011-07-15T06:58:21Z</time>
      </trkpt>
      <trkpt lat="44.61619" lon="6.90547">
        <ele>2321.8115234375</ele>
        <time>2011-07-15T06:58:29Z</time>
      </trkpt>
      <trkpt lat="44.61614" lon="6.90552">
        <ele>2324.9865722656</ele>
        <time>2011-07-15T06:58:39Z</time>
      </trkpt>
      <trkpt lat="44.61611" lon="6.90557">
        <ele>2327.2514648438</ele>
        <time>2011-07-15T06:58:47Z</time>
      </trkpt>
      <trkpt lat="44.61606" lon="6.90562">
        <ele>2327.1459960938</ele>
        <time>2011-07-15T06:58:55Z</time>
      </trkpt>
      <trkpt lat="44.61602" lon="6.90567">
        <ele>2327.2797851562</ele>
        <time>2011-07-15T06:59:03Z</time>
      </trkpt>
      <trkpt lat="44.616" lon="6.90574">
        <ele>2328.2634277344</ele>
        <time>2011-07-15T06:59:10Z</time>
      </trkpt>
      <trkpt lat="44.61594" lon="6.90582">
        <ele>2329.1694335938</ele>
        <time>2011-07-15T06:59:21Z</time>
      </trkpt>
      <trkpt lat="44.61589" lon="6.90589">
        <ele>2330.6669921875</ele>
        <time>2011-07-15T06:59:32Z</time>
      </trkpt>
      <trkpt lat="44.61584" lon="6.90594">
        <ele>2331.8583984375</ele>
        <time>2011-07-15T06:59:40Z</time>
      </trkpt>
      <trkpt lat="44.61577" lon="6.90603">
        <ele>2331.4318847656</ele>
        <time>2011-07-15T06:59:51Z</time>
      </trkpt>
      <trkpt lat="44.61573" lon="6.90612">
        <ele>2333.9719238281</ele>
        <time>2011-07-15T07:00:00Z</time>
      </trkpt>
      <trkpt lat="44.61568" lon="6.90621">
        <ele>2336.7702636719</ele>
        <time>2011-07-15T07:00:09Z</time>
      </trkpt>
      <trkpt lat="44.61562" lon="6.90629">
        <ele>2338.7709960938</ele>
        <time>2011-07-15T07:00:19Z</time>
      </trkpt>
      <trkpt lat="44.61558" lon="6.90635">
        <ele>2340.857421875</ele>
        <time>2011-07-15T07:00:28Z</time>
      </trkpt>
      <trkpt lat="44.61552" lon="6.90644">
        <ele>2341.8776855469</ele>
        <time>2011-07-15T07:00:37Z</time>
      </trkpt>
      <trkpt lat="44.61547" lon="6.9065">
        <ele>2342.244140625</ele>
        <time>2011-07-15T07:00:44Z</time>
      </trkpt>
      <trkpt lat="44.61541" lon="6.90657">
        <ele>2342.2846679688</ele>
        <time>2011-07-15T07:00:52Z</time>
      </trkpt>
      <trkpt lat="44.61536" lon="6.90662">
        <ele>2341.8796386719</ele>
        <time>2011-07-15T07:00:59Z</time>
      </trkpt>
      <trkpt lat="44.61527" lon="6.90666">
        <ele>2340.7412109375</ele>
        <time>2011-07-15T07:01:08Z</time>
      </trkpt>
      <trkpt lat="44.6152" lon="6.90668">
        <ele>2342.8420410156</ele>
        <time>2011-07-15T07:01:16Z</time>
      </trkpt>
      <trkpt lat="44.61514" lon="6.9067">
        <ele>2344.623046875</ele>
        <time>2011-07-15T07:01:24Z</time>
      </trkpt>
      <trkpt lat="44.61508" lon="6.90672">
        <ele>2346.0283203125</ele>
        <time>2011-07-15T07:01:31Z</time>
      </trkpt>
      <trkpt lat="44.615" lon="6.90675">
        <ele>2347.9702148438</ele>
        <time>2011-07-15T07:01:40Z</time>
      </trkpt>
      <trkpt lat="44.61493" lon="6.90678">
        <ele>2350.2153320312</ele>
        <time>2011-07-15T07:01:49Z</time>
      </trkpt>
      <trkpt lat="44.61485" lon="6.90682">
        <ele>2352.9567871094</ele>
        <time>2011-07-15T07:01:58Z</time>
      </trkpt>
      <trkpt lat="44.61477" lon="6.90685">
        <ele>2355.4091796875</ele>
        <time>2011-07-15T07:02:07Z</time>
      </trkpt>
      <trkpt lat="44.6147" lon="6.90689">
        <ele>2358.140625</ele>
        <time>2011-07-15T07:02:18Z</time>
      </trkpt>
      <trkpt lat="44.61463" lon="6.90693">
        <ele>2359.4982910156</ele>
        <time>2011-07-15T07:02:27Z</time>
      </trkpt>
      <trkpt lat="44.61454" lon="6.90697">
        <ele>2360.6345214844</ele>
        <time>2011-07-15T07:02:36Z</time>
      </trkpt>
      <trkpt lat="44.61449" lon="6.90704">
        <ele>2363.0161132812</ele>
        <time>2011-07-15T07:02:44Z</time>
      </trkpt>
      <trkpt lat="44.61446" lon="6.90709">
        <ele>2364.5581054688</ele>
        <time>2011-07-15T07:02:48Z</time>
      </trkpt>
      <trkpt lat="44.6144" lon="6.90718">
        <ele>2366.1811523438</ele>
        <time>2011-07-15T07:02:56Z</time>
      </trkpt>
      <trkpt lat="44.61432" lon="6.90728">
        <ele>2367.2683105469</ele>
        <time>2011-07-15T07:03:07Z</time>
      </trkpt>
      <trkpt lat="44.61427" lon="6.90736">
        <ele>2368.6716308594</ele>
        <time>2011-07-15T07:03:15Z</time>
      </trkpt>
      <trkpt lat="44.61424" lon="6.90741">
        <ele>2369.4265136719</ele>
        <time>2011-07-15T07:03:21Z</time>
      </trkpt>
      <trkpt lat="44.61421" lon="6.90749">
        <ele>2371.0847167969</ele>
        <time>2011-07-15T07:03:29Z</time>
      </trkpt>
      <trkpt lat="44.61421" lon="6.90749">
        <ele>2371.3813476562</ele>
        <time>2011-07-15T07:03:38Z</time>
      </trkpt>
      <trkpt lat="44.61419" lon="6.90756">
        <ele>2372.5649414062</ele>
        <time>2011-07-15T07:03:46Z</time>
      </trkpt>
      <trkpt lat="44.61415" lon="6.90767">
        <ele>2374.208984375</ele>
        <time>2011-07-15T07:03:56Z</time>
      </trkpt>
      <trkpt lat="44.6141" lon="6.90774">
        <ele>2374.634765625</ele>
        <time>2011-07-15T07:04:03Z</time>
      </trkpt>
      <trkpt lat="44.61407" lon="6.90781">
        <ele>2375.5783691406</ele>
        <time>2011-07-15T07:04:10Z</time>
      </trkpt>
      <trkpt lat="44.61404" lon="6.90789">
        <ele>2377.2770996094</ele>
        <time>2011-07-15T07:04:19Z</time>
      </trkpt>
      <trkpt lat="44.614" lon="6.90796">
        <ele>2377.9372558594</ele>
        <time>2011-07-15T07:04:26Z</time>
      </trkpt>
      <trkpt lat="44.61396" lon="6.90803">
        <ele>2378.5954589844</ele>
        <time>2011-07-15T07:04:33Z</time>
      </trkpt>
      <trkpt lat="44.61391" lon="6.90812">
        <ele>2379.4951171875</ele>
        <time>2011-07-15T07:04:42Z</time>
      </trkpt>
      <trkpt lat="44.61388" lon="6.90817">
        <ele>2380.2875976562</ele>
        <time>2011-07-15T07:04:50Z</time>
      </trkpt>
      <trkpt lat="44.61384" lon="6.9082">
        <ele>2380.2329101562</ele>
        <time>2011-07-15T07:04:56Z</time>
      </trkpt>
      <trkpt lat="44.61382" lon="6.90826">
        <ele>2381.5083007812</ele>
        <time>2011-07-15T07:05:04Z</time>
      </trkpt>
      <trkpt lat="44.61377" lon="6.90831">
        <ele>2381.3483886719</ele>
        <time>2011-07-15T07:05:13Z</time>
      </trkpt>
      <trkpt lat="44.61373" lon="6.90834">
        <ele>2381.1564941406</ele>
        <time>2011-07-15T07:05:22Z</time>
      </trkpt>
      <trkpt lat="44.61369" lon="6.90838">
        <ele>2381.2346191406</ele>
        <time>2011-07-15T07:05:28Z</time>
      </trkpt>
      <trkpt lat="44.61365" lon="6.90844">
        <ele>2382.1994628906</ele>
        <time>2011-07-15T07:05:37Z</time>
      </trkpt>
      <trkpt lat="44.61361" lon="6.90849">
        <ele>2382.7939453125</ele>
        <time>2011-07-15T07:05:46Z</time>
      </trkpt>
      <trkpt lat="44.61357" lon="6.90854">
        <ele>2384.4912109375</ele>
        <time>2011-07-15T07:05:56Z</time>
      </trkpt>
      <trkpt lat="44.61353" lon="6.90856">
        <ele>2384.5297851562</ele>
        <time>2011-07-15T07:06:02Z</time>
      </trkpt>
      <trkpt lat="44.61353" lon="6.90862">
        <ele>2387.0910644531</ele>
        <time>2011-07-15T07:06:10Z</time>
      </trkpt>
      <trkpt lat="44.61357" lon="6.90866">
        <ele>2389.294921875</ele>
        <time>2011-07-15T07:06:17Z</time>
      </trkpt>
      <trkpt lat="44.61363" lon="6.90869">
        <ele>2391.970703125</ele>
        <time>2011-07-15T07:06:25Z</time>
      </trkpt>
      <trkpt lat="44.61368" lon="6.90874">
        <ele>2396.01171875</ele>
        <time>2011-07-15T07:06:34Z</time>
      </trkpt>
      <trkpt lat="44.61372" lon="6.90879">
        <ele>2399.9633789062</ele>
        <time>2011-07-15T07:06:42Z</time>
      </trkpt>
      <trkpt lat="44.61375" lon="6.90883">
        <ele>2403.0498046875</ele>
        <time>2011-07-15T07:06:49Z</time>
      </trkpt>
      <trkpt lat="44.61378" lon="6.90888">
        <ele>2406.005859375</ele>
        <time>2011-07-15T07:06:55Z</time>
      </trkpt>
      <trkpt lat="44.6138" lon="6.90893">
        <ele>2409.0563964844</ele>
        <time>2011-07-15T07:07:04Z</time>
      </trkpt>
      <trkpt lat="44.61383" lon="6.90899">
        <ele>2412.2956542969</ele>
        <time>2011-07-15T07:07:13Z</time>
      </trkpt>
      <trkpt lat="44.61382" lon="6.90907">
        <ele>2414.3830566406</ele>
        <time>2011-07-15T07:07:21Z</time>
      </trkpt>
      <trkpt lat="44.61385" lon="6.90914">
        <ele>2417.830078125</ele>
        <time>2011-07-15T07:07:30Z</time>
      </trkpt>
      <trkpt lat="44.61385" lon="6.90919">
        <ele>2419.5986328125</ele>
        <time>2011-07-15T07:07:37Z</time>
      </trkpt>
      <trkpt lat="44.61387" lon="6.90925">
        <ele>2421.7475585938</ele>
        <time>2011-07-15T07:07:45Z</time>
      </trkpt>
      <trkpt lat="44.61389" lon="6.9093">
        <ele>2423.9094238281</ele>
        <time>2011-07-15T07:07:53Z</time>
      </trkpt>
      <trkpt lat="44.61391" lon="6.90934">
        <ele>2424.8310546875</ele>
        <time>2011-07-15T07:08:00Z</time>
      </trkpt>
      <trkpt lat="44.61393" lon="6.90938">
        <ele>2425.6655273438</ele>
        <time>2011-07-15T07:08:08Z</time>
      </trkpt>
      <trkpt lat="44.61395" lon="6.90942">
        <ele>2426.5603027344</ele>
        <time>2011-07-15T07:08:16Z</time>
      </trkpt>
      <trkpt lat="44.61398" lon="6.90948">
        <ele>2427.8547363281</ele>
        <time>2011-07-15T07:08:27Z</time>
      </trkpt>
      <trkpt lat="44.61401" lon="6.90953">
        <ele>2428.9201660156</ele>
        <time>2011-07-15T07:08:36Z</time>
      </trkpt>
      <trkpt lat="44.61403" lon="6.9096">
        <ele>2430.5358886719</ele>
        <time>2011-07-15T07:08:45Z</time>
      </trkpt>
      <trkpt lat="44.61399" lon="6.90964">
        <ele>2431.6315917969</ele>
        <time>2011-07-15T07:08:53Z</time>
      </trkpt>
      <trkpt lat="44.61397" lon="6.90968">
        <ele>2432.6921386719</ele>
        <time>2011-07-15T07:09:02Z</time>
      </trkpt>
      <trkpt lat="44.61401" lon="6.90969">
        <ele>2432.8908691406</ele>
        <time>2011-07-15T07:09:09Z</time>
      </trkpt>
      <trkpt lat="44.61407" lon="6.9097">
        <ele>2432.8552246094</ele>
        <time>2011-07-15T07:09:16Z</time>
      </trkpt>
      <trkpt lat="44.61412" lon="6.90969">
        <ele>2432.5334472656</ele>
        <time>2011-07-15T07:09:23Z</time>
      </trkpt>
      <trkpt lat="44.61414" lon="6.90974">
        <ele>2433.3151855469</ele>
        <time>2011-07-15T07:09:30Z</time>
      </trkpt>
      <trkpt lat="44.61416" lon="6.90976">
        <ele>2433.5495605469</ele>
        <time>2011-07-15T07:09:37Z</time>
      </trkpt>
      <trkpt lat="44.61418" lon="6.90979">
        <ele>2434.4057617188</ele>
        <time>2011-07-15T07:09:44Z</time>
      </trkpt>
      <trkpt lat="44.61421" lon="6.90982">
        <ele>2435.607421875</ele>
        <time>2011-07-15T07:09:51Z</time>
      </trkpt>
      <trkpt lat="44.61423" lon="6.90988">
        <ele>2436.8845214844</ele>
        <time>2011-07-15T07:09:58Z</time>
      </trkpt>
      <trkpt lat="44.61424" lon="6.90995">
        <ele>2438.0517578125</ele>
        <time>2011-07-15T07:10:05Z</time>
      </trkpt>
      <trkpt lat="44.61428" lon="6.91002">
        <ele>2440.0751953125</ele>
        <time>2011-07-15T07:10:13Z</time>
      </trkpt>
      <trkpt lat="44.6143" lon="6.91008">
        <ele>2441.5788574219</ele>
        <time>2011-07-15T07:10:20Z</time>
      </trkpt>
      <trkpt lat="44.61433" lon="6.91015">
        <ele>2443.5646972656</ele>
        <time>2011-07-15T07:10:29Z</time>
      </trkpt>
      <trkpt lat="44.61437" lon="6.91019">
        <ele>2445.0388183594</ele>
        <time>2011-07-15T07:10:37Z</time>
      </trkpt>
      <trkpt lat="44.61436" lon="6.91026">
        <ele>2445.9750976562</ele>
        <time>2011-07-15T07:10:44Z</time>
      </trkpt>
      <trkpt lat="44.61433" lon="6.91028">
        <ele>2445.6337890625</ele>
        <time>2011-07-15T07:10:51Z</time>
      </trkpt>
      <trkpt lat="44.61428" lon="6.9103">
        <ele>2444.8530273438</ele>
        <time>2011-07-15T07:11:00Z</time>
      </trkpt>
      <trkpt lat="44.61425" lon="6.91033">
        <ele>2444.6359863281</ele>
        <time>2011-07-15T07:11:07Z</time>
      </trkpt>
      <trkpt lat="44.61421" lon="6.91036">
        <ele>2444.4672851562</ele>
        <time>2011-07-15T07:11:15Z</time>
      </trkpt>
      <trkpt lat="44.61414" lon="6.91037">
        <ele>2443.8037109375</ele>
        <time>2011-07-15T07:11:25Z</time>
      </trkpt>
      <trkpt lat="44.6141" lon="6.91042">
        <ele>2444.9658203125</ele>
        <time>2011-07-15T07:11:33Z</time>
      </trkpt>
      <trkpt lat="44.61407" lon="6.91043">
        <ele>2445.251953125</ele>
        <time>2011-07-15T07:11:39Z</time>
      </trkpt>
      <trkpt lat="44.61405" lon="6.91046">
        <ele>2445.8671875</ele>
        <time>2011-07-15T07:11:44Z</time>
      </trkpt>
      <trkpt lat="44.61403" lon="6.91048">
        <ele>2446.19921875</ele>
        <time>2011-07-15T07:11:46Z</time>
      </trkpt>
      <trkpt lat="44.614" lon="6.9105">
        <ele>2446.7275390625</ele>
        <time>2011-07-15T07:11:52Z</time>
      </trkpt>
      <trkpt lat="44.61399" lon="6.9105">
        <ele>2446.783203125</ele>
        <time>2011-07-15T07:11:57Z</time>
      </trkpt>
      <trkpt lat="44.61399" lon="6.9105">
        <ele>2446.8354492188</ele>
        <time>2011-07-15T07:12:00Z</time>
      </trkpt>
      <trkpt lat="44.61396" lon="6.91055">
        <ele>2447.7319335938</ele>
        <time>2011-07-15T07:12:05Z</time>
      </trkpt>
      <trkpt lat="44.61395" lon="6.91058">
        <ele>2448.2319335938</ele>
        <time>2011-07-15T07:12:07Z</time>
      </trkpt>
      <trkpt lat="44.61394" lon="6.91058">
        <ele>2448.2890625</ele>
        <time>2011-07-15T07:12:14Z</time>
      </trkpt>
      <trkpt lat="44.61391" lon="6.91063">
        <ele>2449.3576660156</ele>
        <time>2011-07-15T07:12:21Z</time>
      </trkpt>
      <trkpt lat="44.61382" lon="6.91074">
        <ele>2449.8913574219</ele>
        <time>2011-07-15T07:12:31Z</time>
      </trkpt>
      <trkpt lat="44.61379" lon="6.91077">
        <ele>2449.7856445312</ele>
        <time>2011-07-15T07:12:37Z</time>
      </trkpt>
      <trkpt lat="44.61375" lon="6.91081">
        <ele>2450.0124511719</ele>
        <time>2011-07-15T07:12:43Z</time>
      </trkpt>
      <trkpt lat="44.61374" lon="6.91081">
        <ele>2449.8972167969</ele>
        <time>2011-07-15T07:12:48Z</time>
      </trkpt>
      <trkpt lat="44.6137" lon="6.91081">
        <ele>2449.0249023438</ele>
        <time>2011-07-15T07:12:55Z</time>
      </trkpt>
      <trkpt lat="44.61367" lon="6.91079">
        <ele>2448.0927734375</ele>
        <time>2011-07-15T07:13:26Z</time>
      </trkpt>
      <trkpt lat="44.61367" lon="6.9108">
        <ele>2448.1555175781</ele>
        <time>2011-07-15T07:13:57Z</time>
      </trkpt>
      <trkpt lat="44.61367" lon="6.9108">
        <ele>2448.2939453125</ele>
        <time>2011-07-15T07:14:30Z</time>
      </trkpt>
      <trkpt lat="44.61365" lon="6.91084">
        <ele>2448.9309082031</ele>
        <time>2011-07-15T07:14:35Z</time>
      </trkpt>
      <trkpt lat="44.61363" lon="6.91095">
        <ele>2451.1088867188</ele>
        <time>2011-07-15T07:14:43Z</time>
      </trkpt>
      <trkpt lat="44.61362" lon="6.91097">
        <ele>2451.4978027344</ele>
        <time>2011-07-15T07:14:45Z</time>
      </trkpt>
      <trkpt lat="44.61355" lon="6.91112">
        <ele>2451.1433105469</ele>
        <time>2011-07-15T07:14:54Z</time>
      </trkpt>
      <trkpt lat="44.61349" lon="6.91126">
        <ele>2449.5065917969</ele>
        <time>2011-07-15T07:15:02Z</time>
      </trkpt>
      <trkpt lat="44.61341" lon="6.91144">
        <ele>2446.5610351562</ele>
        <time>2011-07-15T07:15:12Z</time>
      </trkpt>
      <trkpt lat="44.61334" lon="6.91154">
        <ele>2442.5373535156</ele>
        <time>2011-07-15T07:15:19Z</time>
      </trkpt>
      <trkpt lat="44.61325" lon="6.91162">
        <ele>2438.84375</ele>
        <time>2011-07-15T07:15:27Z</time>
      </trkpt>
      <trkpt lat="44.61318" lon="6.91174">
        <ele>2437.9382324219</ele>
        <time>2011-07-15T07:15:35Z</time>
      </trkpt>
      <trkpt lat="44.61312" lon="6.91186">
        <ele>2438.0056152344</ele>
        <time>2011-07-15T07:15:44Z</time>
      </trkpt>
      <trkpt lat="44.61308" lon="6.91199">
        <ele>2438.7224121094</ele>
        <time>2011-07-15T07:15:53Z</time>
      </trkpt>
      <trkpt lat="44.61303" lon="6.91211">
        <ele>2438.2829589844</ele>
        <time>2011-07-15T07:16:00Z</time>
      </trkpt>
      <trkpt lat="44.61295" lon="6.91226">
        <ele>2438.0141601562</ele>
        <time>2011-07-15T07:16:09Z</time>
      </trkpt>
      <trkpt lat="44.61288" lon="6.91236">
        <ele>2437.53125</ele>
        <time>2011-07-15T07:16:16Z</time>
      </trkpt>
      <trkpt lat="44.61283" lon="6.91252">
        <ele>2438.5119628906</ele>
        <time>2011-07-15T07:16:25Z</time>
      </trkpt>
      <trkpt lat="44.61282" lon="6.91264">
        <ele>2439.4584960938</ele>
        <time>2011-07-15T07:16:32Z</time>
      </trkpt>
      <trkpt lat="44.6128" lon="6.91265">
        <ele>2439.2905273438</ele>
        <time>2011-07-15T07:16:37Z</time>
      </trkpt>
      <trkpt lat="44.61279" lon="6.91272">
        <ele>2439.72265625</ele>
        <time>2011-07-15T07:16:46Z</time>
      </trkpt>
      <trkpt lat="44.61278" lon="6.9128">
        <ele>2439.9965820312</ele>
        <time>2011-07-15T07:16:51Z</time>
      </trkpt>
      <trkpt lat="44.61274" lon="6.91286">
        <ele>2438.37109375</ele>
        <time>2011-07-15T07:16:58Z</time>
      </trkpt>
      <trkpt lat="44.61272" lon="6.91294">
        <ele>2437.4782714844</ele>
        <time>2011-07-15T07:17:05Z</time>
      </trkpt>
      <trkpt lat="44.61272" lon="6.913">
        <ele>2437.603515625</ele>
        <time>2011-07-15T07:17:10Z</time>
      </trkpt>
      <trkpt lat="44.6127" lon="6.91305">
        <ele>2436.8022460938</ele>
        <time>2011-07-15T07:17:14Z</time>
      </trkpt>
      <trkpt lat="44.61269" lon="6.91309">
        <ele>2436.8505859375</ele>
        <time>2011-07-15T07:17:17Z</time>
      </trkpt>
      <trkpt lat="44.61264" lon="6.91314">
        <ele>2435.9099121094</ele>
        <time>2011-07-15T07:17:22Z</time>
      </trkpt>
      <trkpt lat="44.61261" lon="6.91319">
        <ele>2435.3056640625</ele>
        <time>2011-07-15T07:17:30Z</time>
      </trkpt>
      <trkpt lat="44.61258" lon="6.91322">
        <ele>2434.4404296875</ele>
        <time>2011-07-15T07:17:36Z</time>
      </trkpt>
      <trkpt lat="44.61258" lon="6.91325">
        <ele>2435.0034179688</ele>
        <time>2011-07-15T07:17:43Z</time>
      </trkpt>
      <trkpt lat="44.61257" lon="6.91332">
        <ele>2435.4497070312</ele>
        <time>2011-07-15T07:17:48Z</time>
      </trkpt>
      <trkpt lat="44.61253" lon="6.91338">
        <ele>2434.6684570312</ele>
        <time>2011-07-15T07:17:55Z</time>
      </trkpt>
      <trkpt lat="44.6125" lon="6.91343">
        <ele>2434.0161132812</ele>
        <time>2011-07-15T07:18:01Z</time>
      </trkpt>
      <trkpt lat="44.61245" lon="6.91345">
        <ele>2434.8759765625</ele>
        <time>2011-07-15T07:18:08Z</time>
      </trkpt>
      <trkpt lat="44.61244" lon="6.91345">
        <ele>2435.046875</ele>
        <time>2011-07-15T07:18:17Z</time>
      </trkpt>
      <trkpt lat="44.61239" lon="6.91345">
        <ele>2435.7736816406</ele>
        <time>2011-07-15T07:18:23Z</time>
      </trkpt>
      <trkpt lat="44.61234" lon="6.91343">
        <ele>2436.3247070312</ele>
        <time>2011-07-15T07:18:28Z</time>
      </trkpt>
      <trkpt lat="44.61231" lon="6.91342">
        <ele>2436.6743164062</ele>
        <time>2011-07-15T07:18:31Z</time>
      </trkpt>
      <trkpt lat="44.61226" lon="6.91341">
        <ele>2437.4484863281</ele>
        <time>2011-07-15T07:18:38Z</time>
      </trkpt>
      <trkpt lat="44.61225" lon="6.91341">
        <ele>2437.6171875</ele>
        <time>2011-07-15T07:18:40Z</time>
      </trkpt>
      <trkpt lat="44.6122" lon="6.91341">
        <ele>2438.9411621094</ele>
        <time>2011-07-15T07:18:46Z</time>
      </trkpt>
      <trkpt lat="44.61216" lon="6.91346">
        <ele>2440.6489257812</ele>
        <time>2011-07-15T07:18:53Z</time>
      </trkpt>
      <trkpt lat="44.61212" lon="6.9135">
        <ele>2442.4946289062</ele>
        <time>2011-07-15T07:19:00Z</time>
      </trkpt>
      <trkpt lat="44.61209" lon="6.91352">
        <ele>2443.6447753906</ele>
        <time>2011-07-15T07:19:06Z</time>
      </trkpt>
      <trkpt lat="44.61208" lon="6.91356">
        <ele>2444.4223632812</ele>
        <time>2011-07-15T07:19:12Z</time>
      </trkpt>
      <trkpt lat="44.61204" lon="6.91359">
        <ele>2446.0249023438</ele>
        <time>2011-07-15T07:19:19Z</time>
      </trkpt>
      <trkpt lat="44.612" lon="6.91363">
        <ele>2447.4125976562</ele>
        <time>2011-07-15T07:19:26Z</time>
      </trkpt>
      <trkpt lat="44.61196" lon="6.91367">
        <ele>2448.466796875</ele>
        <time>2011-07-15T07:19:32Z</time>
      </trkpt>
      <trkpt lat="44.61192" lon="6.9137">
        <ele>2449.6801757812</ele>
        <time>2011-07-15T07:19:39Z</time>
      </trkpt>
      <trkpt lat="44.61189" lon="6.91373">
        <ele>2450.6745605469</ele>
        <time>2011-07-15T07:19:46Z</time>
      </trkpt>
      <trkpt lat="44.61185" lon="6.91375">
        <ele>2452.0241699219</ele>
        <time>2011-07-15T07:19:53Z</time>
      </trkpt>
      <trkpt lat="44.61182" lon="6.91377">
        <ele>2453.2397460938</ele>
        <time>2011-07-15T07:20:00Z</time>
      </trkpt>
      <trkpt lat="44.61178" lon="6.91381">
        <ele>2454.8427734375</ele>
        <time>2011-07-15T07:20:08Z</time>
      </trkpt>
      <trkpt lat="44.61173" lon="6.91385">
        <ele>2457.0227050781</ele>
        <time>2011-07-15T07:20:16Z</time>
      </trkpt>
      <trkpt lat="44.61169" lon="6.91388">
        <ele>2458.7541503906</ele>
        <time>2011-07-15T07:20:22Z</time>
      </trkpt>
      <trkpt lat="44.61165" lon="6.91394">
        <ele>2459.5954589844</ele>
        <time>2011-07-15T07:20:30Z</time>
      </trkpt>
      <trkpt lat="44.61161" lon="6.91396">
        <ele>2460.5151367188</ele>
        <time>2011-07-15T07:20:38Z</time>
      </trkpt>
      <trkpt lat="44.61156" lon="6.91396">
        <ele>2461.8981933594</ele>
        <time>2011-07-15T07:20:46Z</time>
      </trkpt>
      <trkpt lat="44.61154" lon="6.91396">
        <ele>2462.5952148438</ele>
        <time>2011-07-15T07:20:54Z</time>
      </trkpt>
      <trkpt lat="44.6115" lon="6.91399">
        <ele>2463.2902832031</ele>
        <time>2011-07-15T07:21:00Z</time>
      </trkpt>
      <trkpt lat="44.61148" lon="6.914">
        <ele>2464.0612792969</ele>
        <time>2011-07-15T07:21:07Z</time>
      </trkpt>
      <trkpt lat="44.61145" lon="6.91404">
        <ele>2464.3435058594</ele>
        <time>2011-07-15T07:21:15Z</time>
      </trkpt>
      <trkpt lat="44.61142" lon="6.91409">
        <ele>2464.5991210938</ele>
        <time>2011-07-15T07:21:23Z</time>
      </trkpt>
      <trkpt lat="44.61141" lon="6.9141">
        <ele>2465.0712890625</ele>
        <time>2011-07-15T07:21:29Z</time>
      </trkpt>
      <trkpt lat="44.61138" lon="6.91415">
        <ele>2465.6184082031</ele>
        <time>2011-07-15T07:21:37Z</time>
      </trkpt>
      <trkpt lat="44.61134" lon="6.91421">
        <ele>2466.67578125</ele>
        <time>2011-07-15T07:21:44Z</time>
      </trkpt>
      <trkpt lat="44.61133" lon="6.91423">
        <ele>2466.7038574219</ele>
        <time>2011-07-15T07:21:46Z</time>
      </trkpt>
      <trkpt lat="44.61129" lon="6.91428">
        <ele>2467.4606933594</ele>
        <time>2011-07-15T07:21:52Z</time>
      </trkpt>
      <trkpt lat="44.61124" lon="6.91434">
        <ele>2469.1171875</ele>
        <time>2011-07-15T07:22:00Z</time>
      </trkpt>
      <trkpt lat="44.61121" lon="6.9144">
        <ele>2470.3923339844</ele>
        <time>2011-07-15T07:22:07Z</time>
      </trkpt>
      <trkpt lat="44.61119" lon="6.9144">
        <ele>2470.9045410156</ele>
        <time>2011-07-15T07:22:12Z</time>
      </trkpt>
      <trkpt lat="44.61119" lon="6.91445">
        <ele>2470.6977539062</ele>
        <time>2011-07-15T07:22:19Z</time>
      </trkpt>
      <trkpt lat="44.61117" lon="6.91447">
        <ele>2471.7158203125</ele>
        <time>2011-07-15T07:22:25Z</time>
      </trkpt>
      <trkpt lat="44.61115" lon="6.91448">
        <ele>2472.9079589844</ele>
        <time>2011-07-15T07:22:31Z</time>
      </trkpt>
      <trkpt lat="44.61113" lon="6.91448">
        <ele>2473.9013671875</ele>
        <time>2011-07-15T07:22:39Z</time>
      </trkpt>
      <trkpt lat="44.61111" lon="6.91452">
        <ele>2474.7641601562</ele>
        <time>2011-07-15T07:22:46Z</time>
      </trkpt>
      <trkpt lat="44.61109" lon="6.91455">
        <ele>2475.7802734375</ele>
        <time>2011-07-15T07:22:54Z</time>
      </trkpt>
      <trkpt lat="44.61107" lon="6.91457">
        <ele>2476.8056640625</ele>
        <time>2011-07-15T07:23:00Z</time>
      </trkpt>
      <trkpt lat="44.61105" lon="6.91457">
        <ele>2477.8962402344</ele>
        <time>2011-07-15T07:23:07Z</time>
      </trkpt>
      <trkpt lat="44.61103" lon="6.9146">
        <ele>2478.8076171875</ele>
        <time>2011-07-15T07:23:14Z</time>
      </trkpt>
      <trkpt lat="44.611" lon="6.91462">
        <ele>2480.4372558594</ele>
        <time>2011-07-15T07:23:22Z</time>
      </trkpt>
      <trkpt lat="44.61098" lon="6.91464">
        <ele>2481.8447265625</ele>
        <time>2011-07-15T07:23:30Z</time>
      </trkpt>
      <trkpt lat="44.61094" lon="6.91468">
        <ele>2483.4074707031</ele>
        <time>2011-07-15T07:23:37Z</time>
      </trkpt>
      <trkpt lat="44.6109" lon="6.91471">
        <ele>2485.7048339844</ele>
        <time>2011-07-15T07:23:45Z</time>
      </trkpt>
      <trkpt lat="44.61087" lon="6.91472">
        <ele>2487.0451660156</ele>
        <time>2011-07-15T07:23:52Z</time>
      </trkpt>
      <trkpt lat="44.61084" lon="6.91473">
        <ele>2488.8244628906</ele>
        <time>2011-07-15T07:24:01Z</time>
      </trkpt>
      <trkpt lat="44.61081" lon="6.91474">
        <ele>2490.2509765625</ele>
        <time>2011-07-15T07:24:06Z</time>
      </trkpt>
      <trkpt lat="44.61078" lon="6.91478">
        <ele>2492.3349609375</ele>
        <time>2011-07-15T07:24:15Z</time>
      </trkpt>
      <trkpt lat="44.61076" lon="6.91479">
        <ele>2493.263671875</ele>
        <time>2011-07-15T07:24:22Z</time>
      </trkpt>
      <trkpt lat="44.61074" lon="6.91482">
        <ele>2494.9047851562</ele>
        <time>2011-07-15T07:24:31Z</time>
      </trkpt>
      <trkpt lat="44.6107" lon="6.91485">
        <ele>2497.0041503906</ele>
        <time>2011-07-15T07:24:40Z</time>
      </trkpt>
      <trkpt lat="44.61069" lon="6.91489">
        <ele>2497.6220703125</ele>
        <time>2011-07-15T07:24:46Z</time>
      </trkpt>
      <trkpt lat="44.61068" lon="6.91492">
        <ele>2498.2385253906</ele>
        <time>2011-07-15T07:24:52Z</time>
      </trkpt>
      <trkpt lat="44.61065" lon="6.91496">
        <ele>2499.8383789062</ele>
        <time>2011-07-15T07:24:59Z</time>
      </trkpt>
      <trkpt lat="44.61062" lon="6.91498">
        <ele>2501.9721679688</ele>
        <time>2011-07-15T07:25:07Z</time>
      </trkpt>
      <trkpt lat="44.6106" lon="6.91504">
        <ele>2502.3032226562</ele>
        <time>2011-07-15T07:25:15Z</time>
      </trkpt>
      <trkpt lat="44.61058" lon="6.91508">
        <ele>2502.8251953125</ele>
        <time>2011-07-15T07:25:21Z</time>
      </trkpt>
      <trkpt lat="44.61056" lon="6.91511">
        <ele>2503.4248046875</ele>
        <time>2011-07-15T07:25:27Z</time>
      </trkpt>
      <trkpt lat="44.61053" lon="6.91517">
        <ele>2503.7209472656</ele>
        <time>2011-07-15T07:25:34Z</time>
      </trkpt>
      <trkpt lat="44.61053" lon="6.91523">
        <ele>2502.6953125</ele>
        <time>2011-07-15T07:25:41Z</time>
      </trkpt>
      <trkpt lat="44.61052" lon="6.91525">
        <ele>2503.0693359375</ele>
        <time>2011-07-15T07:25:46Z</time>
      </trkpt>
      <trkpt lat="44.6105" lon="6.91531">
        <ele>2503.7912597656</ele>
        <time>2011-07-15T07:25:55Z</time>
      </trkpt>
      <trkpt lat="44.61049" lon="6.91535">
        <ele>2504.3322753906</ele>
        <time>2011-07-15T07:26:01Z</time>
      </trkpt>
      <trkpt lat="44.61045" lon="6.91544">
        <ele>2506.0788574219</ele>
        <time>2011-07-15T07:26:08Z</time>
      </trkpt>
      <trkpt lat="44.61044" lon="6.9155">
        <ele>2506.7905273438</ele>
        <time>2011-07-15T07:26:15Z</time>
      </trkpt>
      <trkpt lat="44.61042" lon="6.91557">
        <ele>2507.5258789062</ele>
        <time>2011-07-15T07:26:25Z</time>
      </trkpt>
      <trkpt lat="44.6104" lon="6.91561">
        <ele>2509.0952148438</ele>
        <time>2011-07-15T07:26:31Z</time>
      </trkpt>
      <trkpt lat="44.61039" lon="6.91566">
        <ele>2510.900390625</ele>
        <time>2011-07-15T07:26:37Z</time>
      </trkpt>
      <trkpt lat="44.61037" lon="6.91573">
        <ele>2512.4016113281</ele>
        <time>2011-07-15T07:26:43Z</time>
      </trkpt>
      <trkpt lat="44.61036" lon="6.91579">
        <ele>2514.009765625</ele>
        <time>2011-07-15T07:26:50Z</time>
      </trkpt>
      <trkpt lat="44.61033" lon="6.91584">
        <ele>2515.40234375</ele>
        <time>2011-07-15T07:26:59Z</time>
      </trkpt>
      <trkpt lat="44.61031" lon="6.91589">
        <ele>2516.4897460938</ele>
        <time>2011-07-15T07:27:07Z</time>
      </trkpt>
      <trkpt lat="44.6103" lon="6.91593">
        <ele>2516.9162597656</ele>
        <time>2011-07-15T07:27:12Z</time>
      </trkpt>
      <trkpt lat="44.61031" lon="6.916">
        <ele>2517.2624511719</ele>
        <time>2011-07-15T07:27:18Z</time>
      </trkpt>
      <trkpt lat="44.6103" lon="6.9161">
        <ele>2517.92578125</ele>
        <time>2011-07-15T07:27:26Z</time>
      </trkpt>
      <trkpt lat="44.61028" lon="6.91618">
        <ele>2518.271484375</ele>
        <time>2011-07-15T07:27:33Z</time>
      </trkpt>
      <trkpt lat="44.61026" lon="6.91625">
        <ele>2519.4641113281</ele>
        <time>2011-07-15T07:27:39Z</time>
      </trkpt>
      <trkpt lat="44.61024" lon="6.91627">
        <ele>2521.4436035156</ele>
        <time>2011-07-15T07:27:46Z</time>
      </trkpt>
      <trkpt lat="44.61022" lon="6.91629">
        <ele>2522.8754882812</ele>
        <time>2011-07-15T07:27:51Z</time>
      </trkpt>
      <trkpt lat="44.6102" lon="6.91629">
        <ele>2524.5012207031</ele>
        <time>2011-07-15T07:27:57Z</time>
      </trkpt>
      <trkpt lat="44.61018" lon="6.91632">
        <ele>2525.4396972656</ele>
        <time>2011-07-15T07:28:04Z</time>
      </trkpt>
      <trkpt lat="44.61018" lon="6.91638">
        <ele>2526.2778320312</ele>
        <time>2011-07-15T07:28:09Z</time>
      </trkpt>
      <trkpt lat="44.61013" lon="6.91641">
        <ele>2529.3015136719</ele>
        <time>2011-07-15T07:28:17Z</time>
      </trkpt>
      <trkpt lat="44.61011" lon="6.91646">
        <ele>2530.7199707031</ele>
        <time>2011-07-15T07:28:24Z</time>
      </trkpt>
      <trkpt lat="44.61012" lon="6.91654">
        <ele>2529.9833984375</ele>
        <time>2011-07-15T07:28:30Z</time>
      </trkpt>
      <trkpt lat="44.61012" lon="6.9166">
        <ele>2529.9934082031</ele>
        <time>2011-07-15T07:28:36Z</time>
      </trkpt>
      <trkpt lat="44.61011" lon="6.91667">
        <ele>2529.9951171875</ele>
        <time>2011-07-15T07:28:45Z</time>
      </trkpt>
      <trkpt lat="44.6101" lon="6.91676">
        <ele>2531.1708984375</ele>
        <time>2011-07-15T07:28:54Z</time>
      </trkpt>
      <trkpt lat="44.61008" lon="6.91684">
        <ele>2532.0305175781</ele>
        <time>2011-07-15T07:29:01Z</time>
      </trkpt>
      <trkpt lat="44.61008" lon="6.91693">
        <ele>2532.2175292969</ele>
        <time>2011-07-15T07:29:07Z</time>
      </trkpt>
      <trkpt lat="44.61008" lon="6.917">
        <ele>2532.837890625</ele>
        <time>2011-07-15T07:29:14Z</time>
      </trkpt>
      <trkpt lat="44.61008" lon="6.91708">
        <ele>2533.8972167969</ele>
        <time>2011-07-15T07:29:21Z</time>
      </trkpt>
      <trkpt lat="44.61006" lon="6.91715">
        <ele>2534.8959960938</ele>
        <time>2011-07-15T07:29:27Z</time>
      </trkpt>
      <trkpt lat="44.61006" lon="6.91724">
        <ele>2535.6352539062</ele>
        <time>2011-07-15T07:29:33Z</time>
      </trkpt>
      <trkpt lat="44.61007" lon="6.91727">
        <ele>2535.7583007812</ele>
        <time>2011-07-15T07:29:35Z</time>
      </trkpt>
      <trkpt lat="44.61003" lon="6.91732">
        <ele>2536.0166015625</ele>
        <time>2011-07-15T07:29:41Z</time>
      </trkpt>
      <trkpt lat="44.61001" lon="6.91739">
        <ele>2536.0498046875</ele>
        <time>2011-07-15T07:29:47Z</time>
      </trkpt>
      <trkpt lat="44.60999" lon="6.91748">
        <ele>2536.3947753906</ele>
        <time>2011-07-15T07:29:54Z</time>
      </trkpt>
      <trkpt lat="44.60994" lon="6.91756">
        <ele>2538.3146972656</ele>
        <time>2011-07-15T07:30:02Z</time>
      </trkpt>
      <trkpt lat="44.60992" lon="6.91763">
        <ele>2539.3688964844</ele>
        <time>2011-07-15T07:30:08Z</time>
      </trkpt>
      <trkpt lat="44.60987" lon="6.91772">
        <ele>2540.6647949219</ele>
        <time>2011-07-15T07:30:16Z</time>
      </trkpt>
      <trkpt lat="44.60984" lon="6.91781">
        <ele>2541.3327636719</ele>
        <time>2011-07-15T07:30:25Z</time>
      </trkpt>
      <trkpt lat="44.60981" lon="6.9179">
        <ele>2541.8386230469</ele>
        <time>2011-07-15T07:30:33Z</time>
      </trkpt>
      <trkpt lat="44.60977" lon="6.91797">
        <ele>2542.1018066406</ele>
        <time>2011-07-15T07:30:40Z</time>
      </trkpt>
      <trkpt lat="44.60973" lon="6.91803">
        <ele>2542.1201171875</ele>
        <time>2011-07-15T07:30:46Z</time>
      </trkpt>
      <trkpt lat="44.6097" lon="6.91813">
        <ele>2543.4470214844</ele>
        <time>2011-07-15T07:30:54Z</time>
      </trkpt>
      <trkpt lat="44.6097" lon="6.91815">
        <ele>2543.71484375</ele>
        <time>2011-07-15T07:30:55Z</time>
      </trkpt>
      <trkpt lat="44.60966" lon="6.91824">
        <ele>2545.6733398438</ele>
        <time>2011-07-15T07:31:03Z</time>
      </trkpt>
      <trkpt lat="44.60966" lon="6.91826">
        <ele>2545.8000488281</ele>
        <time>2011-07-15T07:31:04Z</time>
      </trkpt>
      <trkpt lat="44.60966" lon="6.91831">
        <ele>2546.4802246094</ele>
        <time>2011-07-15T07:31:08Z</time>
      </trkpt>
      <trkpt lat="44.60962" lon="6.91838">
        <ele>2548.1337890625</ele>
        <time>2011-07-15T07:31:13Z</time>
      </trkpt>
      <trkpt lat="44.60961" lon="6.91843">
        <ele>2549.1340332031</ele>
        <time>2011-07-15T07:31:17Z</time>
      </trkpt>
      <trkpt lat="44.60958" lon="6.91853">
        <ele>2550.9594726562</ele>
        <time>2011-07-15T07:31:25Z</time>
      </trkpt>
      <trkpt lat="44.60956" lon="6.9186">
        <ele>2552.1130371094</ele>
        <time>2011-07-15T07:31:32Z</time>
      </trkpt>
      <trkpt lat="44.60954" lon="6.91867">
        <ele>2553.1127929688</ele>
        <time>2011-07-15T07:31:37Z</time>
      </trkpt>
      <trkpt lat="44.6095" lon="6.91873">
        <ele>2553.900390625</ele>
        <time>2011-07-15T07:31:44Z</time>
      </trkpt>
      <trkpt lat="44.60945" lon="6.91879">
        <ele>2554.298828125</ele>
        <time>2011-07-15T07:31:51Z</time>
      </trkpt>
      <trkpt lat="44.60942" lon="6.91886">
        <ele>2555.1948242188</ele>
        <time>2011-07-15T07:31:57Z</time>
      </trkpt>
      <trkpt lat="44.60939" lon="6.91892">
        <ele>2556.263671875</ele>
        <time>2011-07-15T07:32:03Z</time>
      </trkpt>
      <trkpt lat="44.60936" lon="6.91897">
        <ele>2557.1618652344</ele>
        <time>2011-07-15T07:32:09Z</time>
      </trkpt>
      <trkpt lat="44.60933" lon="6.91907">
        <ele>2557.9755859375</ele>
        <time>2011-07-15T07:32:17Z</time>
      </trkpt>
      <trkpt lat="44.60933" lon="6.91914">
        <ele>2558.2290039062</ele>
        <time>2011-07-15T07:32:23Z</time>
      </trkpt>
      <trkpt lat="44.60933" lon="6.91921">
        <ele>2558.505859375</ele>
        <time>2011-07-15T07:32:29Z</time>
      </trkpt>
      <trkpt lat="44.60934" lon="6.91929">
        <ele>2558.7854003906</ele>
        <time>2011-07-15T07:32:37Z</time>
      </trkpt>
      <trkpt lat="44.60936" lon="6.91937">
        <ele>2558.8349609375</ele>
        <time>2011-07-15T07:32:45Z</time>
      </trkpt>
      <trkpt lat="44.60939" lon="6.91947">
        <ele>2559.0749511719</ele>
        <time>2011-07-15T07:32:53Z</time>
      </trkpt>
      <trkpt lat="44.60941" lon="6.91955">
        <ele>2559.3842773438</ele>
        <time>2011-07-15T07:33:01Z</time>
      </trkpt>
      <trkpt lat="44.60945" lon="6.91963">
        <ele>2559.3708496094</ele>
        <time>2011-07-15T07:33:11Z</time>
      </trkpt>
      <trkpt lat="44.60946" lon="6.91967">
        <ele>2559.6979980469</ele>
        <time>2011-07-15T07:33:17Z</time>
      </trkpt>
      <trkpt lat="44.60944" lon="6.91972">
        <ele>2560.0129394531</ele>
        <time>2011-07-15T07:33:25Z</time>
      </trkpt>
      <trkpt lat="44.60947" lon="6.91976">
        <ele>2560.5385742188</ele>
        <time>2011-07-15T07:33:33Z</time>
      </trkpt>
      <trkpt lat="44.60946" lon="6.91984">
        <ele>2561.6030273438</ele>
        <time>2011-07-15T07:33:39Z</time>
      </trkpt>
      <trkpt lat="44.60945" lon="6.91997">
        <ele>2563.5559082031</ele>
        <time>2011-07-15T07:33:47Z</time>
      </trkpt>
      <trkpt lat="44.60945" lon="6.92008">
        <ele>2565.1159667969</ele>
        <time>2011-07-15T07:33:54Z</time>
      </trkpt>
      <trkpt lat="44.60944" lon="6.92017">
        <ele>2566.4018554688</ele>
        <time>2011-07-15T07:34:00Z</time>
      </trkpt>
      <trkpt lat="44.60944" lon="6.92018">
        <ele>2566.6147460938</ele>
        <time>2011-07-15T07:34:01Z</time>
      </trkpt>
      <trkpt lat="44.60946" lon="6.92025">
        <ele>2567.4418945312</ele>
        <time>2011-07-15T07:34:08Z</time>
      </trkpt>
      <trkpt lat="44.60944" lon="6.92031">
        <ele>2568.5749511719</ele>
        <time>2011-07-15T07:34:16Z</time>
      </trkpt>
      <trkpt lat="44.60941" lon="6.92036">
        <ele>2569.6711425781</ele>
        <time>2011-07-15T07:34:22Z</time>
      </trkpt>
      <trkpt lat="44.60939" lon="6.92041">
        <ele>2570.5517578125</ele>
        <time>2011-07-15T07:34:30Z</time>
      </trkpt>
      <trkpt lat="44.60936" lon="6.92044">
        <ele>2571.3842773438</ele>
        <time>2011-07-15T07:34:35Z</time>
      </trkpt>
      <trkpt lat="44.60933" lon="6.92049">
        <ele>2572.45703125</ele>
        <time>2011-07-15T07:34:42Z</time>
      </trkpt>
      <trkpt lat="44.60932" lon="6.92056">
        <ele>2573.3889160156</ele>
        <time>2011-07-15T07:34:48Z</time>
      </trkpt>
      <trkpt lat="44.60929" lon="6.92066">
        <ele>2574.7795410156</ele>
        <time>2011-07-15T07:34:58Z</time>
      </trkpt>
      <trkpt lat="44.60927" lon="6.92079">
        <ele>2576.4221191406</ele>
        <time>2011-07-15T07:35:10Z</time>
      </trkpt>
      <trkpt lat="44.60925" lon="6.92089">
        <ele>2577.736328125</ele>
        <time>2011-07-15T07:35:18Z</time>
      </trkpt>
      <trkpt lat="44.60925" lon="6.92094">
        <ele>2578.3803710938</ele>
        <time>2011-07-15T07:35:21Z</time>
      </trkpt>
      <trkpt lat="44.60925" lon="6.921">
        <ele>2579.0869140625</ele>
        <time>2011-07-15T07:35:25Z</time>
      </trkpt>
      <trkpt lat="44.60922" lon="6.92111">
        <ele>2580.6047363281</ele>
        <time>2011-07-15T07:35:34Z</time>
      </trkpt>
      <trkpt lat="44.60921" lon="6.92119">
        <ele>2581.7971191406</ele>
        <time>2011-07-15T07:35:41Z</time>
      </trkpt>
      <trkpt lat="44.6092" lon="6.92128">
        <ele>2583.0749511719</ele>
        <time>2011-07-15T07:35:49Z</time>
      </trkpt>
      <trkpt lat="44.60917" lon="6.92139">
        <ele>2584.9216308594</ele>
        <time>2011-07-15T07:35:58Z</time>
      </trkpt>
      <trkpt lat="44.60915" lon="6.92148">
        <ele>2584.9675292969</ele>
        <time>2011-07-15T07:36:07Z</time>
      </trkpt>
      <trkpt lat="44.60912" lon="6.92156">
        <ele>2585.169921875</ele>
        <time>2011-07-15T07:36:14Z</time>
      </trkpt>
      <trkpt lat="44.60908" lon="6.92164">
        <ele>2585.6970214844</ele>
        <time>2011-07-15T07:36:23Z</time>
      </trkpt>
      <trkpt lat="44.60904" lon="6.92173">
        <ele>2586.2443847656</ele>
        <time>2011-07-15T07:36:31Z</time>
      </trkpt>
      <trkpt lat="44.609" lon="6.92181">
        <ele>2586.8400878906</ele>
        <time>2011-07-15T07:36:39Z</time>
      </trkpt>
      <trkpt lat="44.60896" lon="6.9219">
        <ele>2587.5231933594</ele>
        <time>2011-07-15T07:36:48Z</time>
      </trkpt>
      <trkpt lat="44.60892" lon="6.922">
        <ele>2588.9582519531</ele>
        <time>2011-07-15T07:36:57Z</time>
      </trkpt>
      <trkpt lat="44.6089" lon="6.92209">
        <ele>2590.3247070312</ele>
        <time>2011-07-15T07:37:04Z</time>
      </trkpt>
      <trkpt lat="44.60888" lon="6.92215">
        <ele>2591.5063476562</ele>
        <time>2011-07-15T07:37:10Z</time>
      </trkpt>
      <trkpt lat="44.60886" lon="6.92223">
        <ele>2593.0947265625</ele>
        <time>2011-07-15T07:37:17Z</time>
      </trkpt>
      <trkpt lat="44.60883" lon="6.92231">
        <ele>2595.4106445312</ele>
        <time>2011-07-15T07:37:25Z</time>
      </trkpt>
      <trkpt lat="44.60879" lon="6.92237">
        <ele>2597.4567871094</ele>
        <time>2011-07-15T07:37:32Z</time>
      </trkpt>
      <trkpt lat="44.60876" lon="6.92243">
        <ele>2599.1818847656</ele>
        <time>2011-07-15T07:37:38Z</time>
      </trkpt>
      <trkpt lat="44.60871" lon="6.92252">
        <ele>2601.2800292969</ele>
        <time>2011-07-15T07:37:47Z</time>
      </trkpt>
      <trkpt lat="44.60865" lon="6.92259">
        <ele>2602.6708984375</ele>
        <time>2011-07-15T07:37:57Z</time>
      </trkpt>
      <trkpt lat="44.60862" lon="6.92265">
        <ele>2603.48046875</ele>
        <time>2011-07-15T07:38:05Z</time>
      </trkpt>
      <trkpt lat="44.60861" lon="6.92271">
        <ele>2603.7551269531</ele>
        <time>2011-07-15T07:38:08Z</time>
      </trkpt>
      <trkpt lat="44.60858" lon="6.92278">
        <ele>2604.7614746094</ele>
        <time>2011-07-15T07:38:16Z</time>
      </trkpt>
      <trkpt lat="44.60853" lon="6.92281">
        <ele>2605.935546875</ele>
        <time>2011-07-15T07:38:22Z</time>
      </trkpt>
      <trkpt lat="44.60849" lon="6.92285">
        <ele>2607.0581054688</ele>
        <time>2011-07-15T07:38:30Z</time>
      </trkpt>
      <trkpt lat="44.60846" lon="6.9229">
        <ele>2608.1706542969</ele>
        <time>2011-07-15T07:38:37Z</time>
      </trkpt>
      <trkpt lat="44.60841" lon="6.92296">
        <ele>2609.591796875</ele>
        <time>2011-07-15T07:38:45Z</time>
      </trkpt>
      <trkpt lat="44.60838" lon="6.92304">
        <ele>2610.96875</ele>
        <time>2011-07-15T07:38:54Z</time>
      </trkpt>
      <trkpt lat="44.60835" lon="6.92314">
        <ele>2612.1564941406</ele>
        <time>2011-07-15T07:39:03Z</time>
      </trkpt>
      <trkpt lat="44.60833" lon="6.92323">
        <ele>2613.2448730469</ele>
        <time>2011-07-15T07:39:10Z</time>
      </trkpt>
      <trkpt lat="44.60832" lon="6.92336">
        <ele>2614.3291015625</ele>
        <time>2011-07-15T07:39:18Z</time>
      </trkpt>
      <trkpt lat="44.60831" lon="6.92342">
        <ele>2614.6010742188</ele>
        <time>2011-07-15T07:39:22Z</time>
      </trkpt>
      <trkpt lat="44.60832" lon="6.92356">
        <ele>2614.3681640625</ele>
        <time>2011-07-15T07:39:31Z</time>
      </trkpt>
      <trkpt lat="44.60832" lon="6.92366">
        <ele>2614.5573730469</ele>
        <time>2011-07-15T07:39:38Z</time>
      </trkpt>
      <trkpt lat="44.60831" lon="6.9238">
        <ele>2615.1984863281</ele>
        <time>2011-07-15T07:39:47Z</time>
      </trkpt>
      <trkpt lat="44.60831" lon="6.92382">
        <ele>2615.2644042969</ele>
        <time>2011-07-15T07:39:48Z</time>
      </trkpt>
      <trkpt lat="44.60828" lon="6.92391">
        <ele>2616.529296875</ele>
        <time>2011-07-15T07:39:56Z</time>
      </trkpt>
      <trkpt lat="44.60827" lon="6.92401">
        <ele>2617.2810058594</ele>
        <time>2011-07-15T07:40:04Z</time>
      </trkpt>
      <trkpt lat="44.60823" lon="6.92408">
        <ele>2618.8891601562</ele>
        <time>2011-07-15T07:40:10Z</time>
      </trkpt>
      <trkpt lat="44.60818" lon="6.92415">
        <ele>2620.73046875</ele>
        <time>2011-07-15T07:40:16Z</time>
      </trkpt>
      <trkpt lat="44.60819" lon="6.92421">
        <ele>2620.6477050781</ele>
        <time>2011-07-15T07:40:20Z</time>
      </trkpt>
      <trkpt lat="44.60819" lon="6.92426">
        <ele>2620.7314453125</ele>
        <time>2011-07-15T07:40:23Z</time>
      </trkpt>
      <trkpt lat="44.60818" lon="6.92434">
        <ele>2621.2131347656</ele>
        <time>2011-07-15T07:40:29Z</time>
      </trkpt>
      <trkpt lat="44.60818" lon="6.92442">
        <ele>2621.4523925781</ele>
        <time>2011-07-15T07:40:36Z</time>
      </trkpt>
      <trkpt lat="44.60817" lon="6.92451">
        <ele>2622.0583496094</ele>
        <time>2011-07-15T07:40:42Z</time>
      </trkpt>
      <trkpt lat="44.60818" lon="6.92452">
        <ele>2622.0515136719</ele>
        <time>2011-07-15T07:40:43Z</time>
      </trkpt>
      <trkpt lat="44.60823" lon="6.9246">
        <ele>2620.9907226562</ele>
        <time>2011-07-15T07:40:51Z</time>
      </trkpt>
      <trkpt lat="44.60827" lon="6.92468">
        <ele>2620.4653320312</ele>
        <time>2011-07-15T07:40:58Z</time>
      </trkpt>
      <trkpt lat="44.60828" lon="6.92476">
        <ele>2620.7233886719</ele>
        <time>2011-07-15T07:41:04Z</time>
      </trkpt>
      <trkpt lat="44.60828" lon="6.92488">
        <ele>2621.6579589844</ele>
        <time>2011-07-15T07:41:14Z</time>
      </trkpt>
      <trkpt lat="44.60827" lon="6.92499">
        <ele>2622.9833984375</ele>
        <time>2011-07-15T07:41:22Z</time>
      </trkpt>
      <trkpt lat="44.60828" lon="6.92506">
        <ele>2623.5969238281</ele>
        <time>2011-07-15T07:41:28Z</time>
      </trkpt>
      <trkpt lat="44.6083" lon="6.9251">
        <ele>2623.5419921875</ele>
        <time>2011-07-15T07:41:31Z</time>
      </trkpt>
      <trkpt lat="44.60831" lon="6.92515">
        <ele>2623.9677734375</ele>
        <time>2011-07-15T07:41:34Z</time>
      </trkpt>
      <trkpt lat="44.6083" lon="6.92519">
        <ele>2625.0319824219</ele>
        <time>2011-07-15T07:41:38Z</time>
      </trkpt>
      <trkpt lat="44.60826" lon="6.92531">
        <ele>2627.7028808594</ele>
        <time>2011-07-15T07:41:47Z</time>
      </trkpt>
      <trkpt lat="44.60828" lon="6.92539">
        <ele>2628.5280761719</ele>
        <time>2011-07-15T07:41:53Z</time>
      </trkpt>
      <trkpt lat="44.60826" lon="6.92547">
        <ele>2630.2563476562</ele>
        <time>2011-07-15T07:41:59Z</time>
      </trkpt>
      <trkpt lat="44.60826" lon="6.92548">
        <ele>2630.5534667969</ele>
        <time>2011-07-15T07:42:00Z</time>
      </trkpt>
      <trkpt lat="44.60827" lon="6.92559">
        <ele>2632.1875</ele>
        <time>2011-07-15T07:42:08Z</time>
      </trkpt>
      <trkpt lat="44.60826" lon="6.9257">
        <ele>2634.6130371094</ele>
        <time>2011-07-15T07:42:17Z</time>
      </trkpt>
      <trkpt lat="44.60828" lon="6.92579">
        <ele>2635.6279296875</ele>
        <time>2011-07-15T07:42:24Z</time>
      </trkpt>
      <trkpt lat="44.60831" lon="6.92587">
        <ele>2636.3505859375</ele>
        <time>2011-07-15T07:42:31Z</time>
      </trkpt>
      <trkpt lat="44.60831" lon="6.92596">
        <ele>2637.3278808594</ele>
        <time>2011-07-15T07:42:38Z</time>
      </trkpt>
      <trkpt lat="44.60834" lon="6.92602">
        <ele>2637.5473632812</ele>
        <time>2011-07-15T07:42:44Z</time>
      </trkpt>
      <trkpt lat="44.60833" lon="6.92609">
        <ele>2638.943359375</ele>
        <time>2011-07-15T07:42:51Z</time>
      </trkpt>
      <trkpt lat="44.60835" lon="6.92618">
        <ele>2638.9753417969</ele>
        <time>2011-07-15T07:42:59Z</time>
      </trkpt>
      <trkpt lat="44.60837" lon="6.92626">
        <ele>2638.9738769531</ele>
        <time>2011-07-15T07:43:06Z</time>
      </trkpt>
      <trkpt lat="44.60839" lon="6.92633">
        <ele>2638.9401855469</ele>
        <time>2011-07-15T07:43:13Z</time>
      </trkpt>
      <trkpt lat="44.60838" lon="6.92639">
        <ele>2639.8161621094</ele>
        <time>2011-07-15T07:43:19Z</time>
      </trkpt>
      <trkpt lat="44.6084" lon="6.92645">
        <ele>2639.9614257812</ele>
        <time>2011-07-15T07:43:26Z</time>
      </trkpt>
      <trkpt lat="44.6084" lon="6.92646">
        <ele>2639.9711914062</ele>
        <time>2011-07-15T07:43:32Z</time>
      </trkpt>
      <trkpt lat="44.60841" lon="6.92656">
        <ele>2640.6643066406</ele>
        <time>2011-07-15T07:43:40Z</time>
      </trkpt>
      <trkpt lat="44.60843" lon="6.92663">
        <ele>2640.5327148438</ele>
        <time>2011-07-15T07:43:46Z</time>
      </trkpt>
      <trkpt lat="44.60843" lon="6.9267">
        <ele>2641.7644042969</ele>
        <time>2011-07-15T07:43:53Z</time>
      </trkpt>
      <trkpt lat="44.60842" lon="6.92676">
        <ele>2643.0021972656</ele>
        <time>2011-07-15T07:44:01Z</time>
      </trkpt>
      <trkpt lat="44.60841" lon="6.92683">
        <ele>2644.1801757812</ele>
        <time>2011-07-15T07:44:08Z</time>
      </trkpt>
      <trkpt lat="44.60839" lon="6.92691">
        <ele>2646.6618652344</ele>
        <time>2011-07-15T07:44:16Z</time>
      </trkpt>
      <trkpt lat="44.60835" lon="6.92701">
        <ele>2649.6306152344</ele>
        <time>2011-07-15T07:44:25Z</time>
      </trkpt>
      <trkpt lat="44.60833" lon="6.92711">
        <ele>2650.5817871094</ele>
        <time>2011-07-15T07:44:33Z</time>
      </trkpt>
      <trkpt lat="44.6083" lon="6.9272">
        <ele>2652.6301269531</ele>
        <time>2011-07-15T07:44:41Z</time>
      </trkpt>
      <trkpt lat="44.6083" lon="6.92725">
        <ele>2652.2995605469</ele>
        <time>2011-07-15T07:44:44Z</time>
      </trkpt>
      <trkpt lat="44.60833" lon="6.9274">
        <ele>2649.5378417969</ele>
        <time>2011-07-15T07:44:53Z</time>
      </trkpt>
      <trkpt lat="44.60834" lon="6.92752">
        <ele>2648.2238769531</ele>
        <time>2011-07-15T07:45:02Z</time>
      </trkpt>
      <trkpt lat="44.60832" lon="6.9276">
        <ele>2650.4990234375</ele>
        <time>2011-07-15T07:45:08Z</time>
      </trkpt>
      <trkpt lat="44.60831" lon="6.92763">
        <ele>2652.154296875</ele>
        <time>2011-07-15T07:45:13Z</time>
      </trkpt>
      <trkpt lat="44.60828" lon="6.92769">
        <ele>2655.1706542969</ele>
        <time>2011-07-15T07:45:21Z</time>
      </trkpt>
      <trkpt lat="44.60825" lon="6.92775">
        <ele>2657.6806640625</ele>
        <time>2011-07-15T07:45:28Z</time>
      </trkpt>
      <trkpt lat="44.60824" lon="6.92782">
        <ele>2659.7722167969</ele>
        <time>2011-07-15T07:45:35Z</time>
      </trkpt>
      <trkpt lat="44.60824" lon="6.92792">
        <ele>2660.8508300781</ele>
        <time>2011-07-15T07:45:44Z</time>
      </trkpt>
      <trkpt lat="44.60825" lon="6.92799">
        <ele>2661.5280761719</ele>
        <time>2011-07-15T07:45:50Z</time>
      </trkpt>
      <trkpt lat="44.60824" lon="6.92808">
        <ele>2663.1762695312</ele>
        <time>2011-07-15T07:45:57Z</time>
      </trkpt>
      <trkpt lat="44.60825" lon="6.92817">
        <ele>2663.8239746094</ele>
        <time>2011-07-15T07:46:04Z</time>
      </trkpt>
      <trkpt lat="44.60825" lon="6.92824">
        <ele>2665.0373535156</ele>
        <time>2011-07-15T07:46:11Z</time>
      </trkpt>
      <trkpt lat="44.60827" lon="6.9283">
        <ele>2665.1633300781</ele>
        <time>2011-07-15T07:46:18Z</time>
      </trkpt>
      <trkpt lat="44.60828" lon="6.92835">
        <ele>2665.2834472656</ele>
        <time>2011-07-15T07:46:24Z</time>
      </trkpt>
      <trkpt lat="44.60832" lon="6.92842">
        <ele>2664.2526855469</ele>
        <time>2011-07-15T07:46:31Z</time>
      </trkpt>
      <trkpt lat="44.60834" lon="6.9285">
        <ele>2665.0915527344</ele>
        <time>2011-07-15T07:46:38Z</time>
      </trkpt>
      <trkpt lat="44.60835" lon="6.92857">
        <ele>2666.2729492188</ele>
        <time>2011-07-15T07:46:45Z</time>
      </trkpt>
      <trkpt lat="44.60838" lon="6.92866">
        <ele>2667.9384765625</ele>
        <time>2011-07-15T07:46:52Z</time>
      </trkpt>
      <trkpt lat="44.60839" lon="6.92869">
        <ele>2668.5244140625</ele>
        <time>2011-07-15T07:46:55Z</time>
      </trkpt>
      <trkpt lat="44.60842" lon="6.92878">
        <ele>2670.1149902344</ele>
        <time>2011-07-15T07:47:03Z</time>
      </trkpt>
      <trkpt lat="44.60843" lon="6.92886">
        <ele>2671.4221191406</ele>
        <time>2011-07-15T07:47:12Z</time>
      </trkpt>
      <trkpt lat="44.60847" lon="6.92892">
        <ele>2671.9841308594</ele>
        <time>2011-07-15T07:47:19Z</time>
      </trkpt>
      <trkpt lat="44.60849" lon="6.929">
        <ele>2672.7373046875</ele>
        <time>2011-07-15T07:47:25Z</time>
      </trkpt>
      <trkpt lat="44.6085" lon="6.92908">
        <ele>2673.7919921875</ele>
        <time>2011-07-15T07:47:33Z</time>
      </trkpt>
      <trkpt lat="44.60851" lon="6.92915">
        <ele>2674.6525878906</ele>
        <time>2011-07-15T07:47:39Z</time>
      </trkpt>
      <trkpt lat="44.60852" lon="6.92922">
        <ele>2675.7185058594</ele>
        <time>2011-07-15T07:47:46Z</time>
      </trkpt>
      <trkpt lat="44.60852" lon="6.92929">
        <ele>2676.9509277344</ele>
        <time>2011-07-15T07:47:53Z</time>
      </trkpt>
      <trkpt lat="44.60851" lon="6.92938">
        <ele>2678.5930175781</ele>
        <time>2011-07-15T07:48:01Z</time>
      </trkpt>
      <trkpt lat="44.6085" lon="6.92944">
        <ele>2680.0405273438</ele>
        <time>2011-07-15T07:48:09Z</time>
      </trkpt>
      <trkpt lat="44.6085" lon="6.92951">
        <ele>2681.3334960938</ele>
        <time>2011-07-15T07:48:18Z</time>
      </trkpt>
      <trkpt lat="44.60851" lon="6.92958">
        <ele>2682.2126464844</ele>
        <time>2011-07-15T07:48:25Z</time>
      </trkpt>
      <trkpt lat="44.60852" lon="6.92965">
        <ele>2682.8525390625</ele>
        <time>2011-07-15T07:48:33Z</time>
      </trkpt>
      <trkpt lat="44.60855" lon="6.92972">
        <ele>2682.7163085938</ele>
        <time>2011-07-15T07:48:41Z</time>
      </trkpt>
      <trkpt lat="44.6086" lon="6.92974">
        <ele>2681.8840332031</ele>
        <time>2011-07-15T07:48:47Z</time>
      </trkpt>
      <trkpt lat="44.60861" lon="6.92981">
        <ele>2682.8940429688</ele>
        <time>2011-07-15T07:48:53Z</time>
      </trkpt>
      <trkpt lat="44.60859" lon="6.92986">
        <ele>2684.4519042969</ele>
        <time>2011-07-15T07:48:59Z</time>
      </trkpt>
      <trkpt lat="44.60861" lon="6.92992">
        <ele>2685.3000488281</ele>
        <time>2011-07-15T07:49:05Z</time>
      </trkpt>
      <trkpt lat="44.60863" lon="6.93001">
        <ele>2687.5239257812</ele>
        <time>2011-07-15T07:49:14Z</time>
      </trkpt>
      <trkpt lat="44.60866" lon="6.93008">
        <ele>2689.1965332031</ele>
        <time>2011-07-15T07:49:23Z</time>
      </trkpt>
      <trkpt lat="44.6087" lon="6.93017">
        <ele>2690.9645996094</ele>
        <time>2011-07-15T07:49:31Z</time>
      </trkpt>
      <trkpt lat="44.60872" lon="6.93024">
        <ele>2692.2958984375</ele>
        <time>2011-07-15T07:49:38Z</time>
      </trkpt>
      <trkpt lat="44.60874" lon="6.93032">
        <ele>2693.8432617188</ele>
        <time>2011-07-15T07:49:46Z</time>
      </trkpt>
      <trkpt lat="44.60875" lon="6.9304">
        <ele>2695.4372558594</ele>
        <time>2011-07-15T07:49:54Z</time>
      </trkpt>
      <trkpt lat="44.60877" lon="6.93047">
        <ele>2696.6376953125</ele>
        <time>2011-07-15T07:50:00Z</time>
      </trkpt>
      <trkpt lat="44.60879" lon="6.93054">
        <ele>2697.8212890625</ele>
        <time>2011-07-15T07:50:07Z</time>
      </trkpt>
      <trkpt lat="44.60879" lon="6.9306">
        <ele>2698.7512207031</ele>
        <time>2011-07-15T07:50:13Z</time>
      </trkpt>
      <trkpt lat="44.60878" lon="6.93066">
        <ele>2699.5903320312</ele>
        <time>2011-07-15T07:50:19Z</time>
      </trkpt>
      <trkpt lat="44.6088" lon="6.93073">
        <ele>2700.3371582031</ele>
        <time>2011-07-15T07:50:26Z</time>
      </trkpt>
      <trkpt lat="44.60882" lon="6.93083">
        <ele>2701.2932128906</ele>
        <time>2011-07-15T07:50:35Z</time>
      </trkpt>
      <trkpt lat="44.60883" lon="6.93093">
        <ele>2702.8234863281</ele>
        <time>2011-07-15T07:50:44Z</time>
      </trkpt>
      <trkpt lat="44.60881" lon="6.93098">
        <ele>2704.1474609375</ele>
        <time>2011-07-15T07:50:50Z</time>
      </trkpt>
      <trkpt lat="44.60877" lon="6.93101">
        <ele>2705.6188964844</ele>
        <time>2011-07-15T07:50:59Z</time>
      </trkpt>
      <trkpt lat="44.60876" lon="6.93104">
        <ele>2706.3679199219</ele>
        <time>2011-07-15T07:51:05Z</time>
      </trkpt>
      <trkpt lat="44.60875" lon="6.93108">
        <ele>2707.2663574219</ele>
        <time>2011-07-15T07:51:11Z</time>
      </trkpt>
      <trkpt lat="44.60876" lon="6.93115">
        <ele>2708.3879394531</ele>
        <time>2011-07-15T07:51:18Z</time>
      </trkpt>
      <trkpt lat="44.60877" lon="6.9312">
        <ele>2709.0334472656</ele>
        <time>2011-07-15T07:51:24Z</time>
      </trkpt>
      <trkpt lat="44.60876" lon="6.93122">
        <ele>2709.701171875</ele>
        <time>2011-07-15T07:51:30Z</time>
      </trkpt>
      <trkpt lat="44.60876" lon="6.93126">
        <ele>2710.4050292969</ele>
        <time>2011-07-15T07:51:37Z</time>
      </trkpt>
      <trkpt lat="44.60874" lon="6.9313">
        <ele>2711.6323242188</ele>
        <time>2011-07-15T07:51:44Z</time>
      </trkpt>
      <trkpt lat="44.60874" lon="6.93135">
        <ele>2712.5302734375</ele>
        <time>2011-07-15T07:51:53Z</time>
      </trkpt>
      <trkpt lat="44.60873" lon="6.9314">
        <ele>2713.486328125</ele>
        <time>2011-07-15T07:52:01Z</time>
      </trkpt>
      <trkpt lat="44.60873" lon="6.93144">
        <ele>2714.5883789062</ele>
        <time>2011-07-15T07:52:09Z</time>
      </trkpt>
      <trkpt lat="44.60872" lon="6.93149">
        <ele>2715.7829589844</ele>
        <time>2011-07-15T07:52:17Z</time>
      </trkpt>
      <trkpt lat="44.6087" lon="6.93152">
        <ele>2717.0498046875</ele>
        <time>2011-07-15T07:52:24Z</time>
      </trkpt>
      <trkpt lat="44.6087" lon="6.93157">
        <ele>2718.0593261719</ele>
        <time>2011-07-15T07:52:31Z</time>
      </trkpt>
      <trkpt lat="44.60869" lon="6.93163">
        <ele>2719.4909667969</ele>
        <time>2011-07-15T07:52:40Z</time>
      </trkpt>
      <trkpt lat="44.6087" lon="6.93169">
        <ele>2720.5285644531</ele>
        <time>2011-07-15T07:52:48Z</time>
      </trkpt>
      <trkpt lat="44.60869" lon="6.93172">
        <ele>2720.9096679688</ele>
        <time>2011-07-15T07:52:54Z</time>
      </trkpt>
      <trkpt lat="44.6087" lon="6.93178">
        <ele>2721.576171875</ele>
        <time>2011-07-15T07:53:01Z</time>
      </trkpt>
      <trkpt lat="44.6087" lon="6.93184">
        <ele>2722.4440917969</ele>
        <time>2011-07-15T07:53:09Z</time>
      </trkpt>
      <trkpt lat="44.60871" lon="6.93193">
        <ele>2723.4038085938</ele>
        <time>2011-07-15T07:53:18Z</time>
      </trkpt>
      <trkpt lat="44.60873" lon="6.93202">
        <ele>2724.0517578125</ele>
        <time>2011-07-15T07:53:26Z</time>
      </trkpt>
      <trkpt lat="44.60876" lon="6.9321">
        <ele>2724.58203125</ele>
        <time>2011-07-15T07:53:33Z</time>
      </trkpt>
      <trkpt lat="44.60878" lon="6.9322">
        <ele>2725.3991699219</ele>
        <time>2011-07-15T07:53:41Z</time>
      </trkpt>
      <trkpt lat="44.6088" lon="6.93234">
        <ele>2726.6108398438</ele>
        <time>2011-07-15T07:53:52Z</time>
      </trkpt>
      <trkpt lat="44.60883" lon="6.93245">
        <ele>2727.5102539062</ele>
        <time>2011-07-15T07:54:01Z</time>
      </trkpt>
      <trkpt lat="44.60884" lon="6.93252">
        <ele>2728.2458496094</ele>
        <time>2011-07-15T07:54:07Z</time>
      </trkpt>
      <trkpt lat="44.60886" lon="6.93262">
        <ele>2729.2072753906</ele>
        <time>2011-07-15T07:54:14Z</time>
      </trkpt>
      <trkpt lat="44.60891" lon="6.93274">
        <ele>2730.7883300781</ele>
        <time>2011-07-15T07:54:23Z</time>
      </trkpt>
      <trkpt lat="44.60896" lon="6.93287">
        <ele>2733.2697753906</ele>
        <time>2011-07-15T07:54:32Z</time>
      </trkpt>
      <trkpt lat="44.60901" lon="6.93295">
        <ele>2735.1552734375</ele>
        <time>2011-07-15T07:54:39Z</time>
      </trkpt>
      <trkpt lat="44.60907" lon="6.93307">
        <ele>2737.9318847656</ele>
        <time>2011-07-15T07:54:48Z</time>
      </trkpt>
      <trkpt lat="44.60913" lon="6.93319">
        <ele>2740.310546875</ele>
        <time>2011-07-15T07:54:57Z</time>
      </trkpt>
      <trkpt lat="44.60918" lon="6.9333">
        <ele>2741.658203125</ele>
        <time>2011-07-15T07:55:06Z</time>
      </trkpt>
      <trkpt lat="44.6092" lon="6.93338">
        <ele>2742.2438964844</ele>
        <time>2011-07-15T07:55:12Z</time>
      </trkpt>
      <trkpt lat="44.60922" lon="6.93346">
        <ele>2742.84375</ele>
        <time>2011-07-15T07:55:18Z</time>
      </trkpt>
      <trkpt lat="44.60925" lon="6.93352">
        <ele>2743.2626953125</ele>
        <time>2011-07-15T07:55:23Z</time>
      </trkpt>
      <trkpt lat="44.60927" lon="6.93359">
        <ele>2743.6850585938</ele>
        <time>2011-07-15T07:55:28Z</time>
      </trkpt>
      <trkpt lat="44.60932" lon="6.93366">
        <ele>2743.8706054688</ele>
        <time>2011-07-15T07:55:36Z</time>
      </trkpt>
      <trkpt lat="44.60932" lon="6.9337">
        <ele>2744.2670898438</ele>
        <time>2011-07-15T07:55:49Z</time>
      </trkpt>
      <trkpt lat="44.60931" lon="6.93369">
        <ele>2744.3854980469</ele>
        <time>2011-07-15T07:56:05Z</time>
      </trkpt>
      <trkpt lat="44.6093" lon="6.93368">
        <ele>2744.349609375</ele>
        <time>2011-07-15T07:56:10Z</time>
      </trkpt>
      <trkpt lat="44.60931" lon="6.93368">
        <ele>2744.2465820312</ele>
        <time>2011-07-15T07:56:37Z</time>
      </trkpt>
      <trkpt lat="44.6093" lon="6.93368">
        <ele>2744.3391113281</ele>
        <time>2011-07-15T07:56:49Z</time>
      </trkpt>
      <trkpt lat="44.60931" lon="6.93371">
        <ele>2744.4936523438</ele>
        <time>2011-07-15T07:56:55Z</time>
      </trkpt>
      <trkpt lat="44.60931" lon="6.93371">
        <ele>2744.4885253906</ele>
        <time>2011-07-15T07:57:27Z</time>
      </trkpt>
      <trkpt lat="44.6093" lon="6.9337">
        <ele>2744.4523925781</ele>
        <time>2011-07-15T07:57:36Z</time>
      </trkpt>
      <trkpt lat="44.6093" lon="6.93369">
        <ele>2744.4318847656</ele>
        <time>2011-07-15T07:57:42Z</time>
      </trkpt>
      <trkpt lat="44.6093" lon="6.93368">
        <ele>2744.3649902344</ele>
        <time>2011-07-15T07:57:50Z</time>
      </trkpt>
      <trkpt lat="44.60929" lon="6.93369">
        <ele>2744.462890625</ele>
        <time>2011-07-15T07:57:55Z</time>
      </trkpt>
      <trkpt lat="44.60929" lon="6.93369">
        <ele>2744.4731445312</ele>
        <time>2011-07-15T07:57:58Z</time>
      </trkpt>
      <trkpt lat="44.60929" lon="6.93369">
        <ele>2744.4987792969</ele>
        <time>2011-07-15T07:58:04Z</time>
      </trkpt>
      <trkpt lat="44.60932" lon="6.93372">
        <ele>2744.5349121094</ele>
        <time>2011-07-15T07:58:09Z</time>
      </trkpt>
      <trkpt lat="44.60934" lon="6.93374">
        <ele>2744.576171875</ele>
        <time>2011-07-15T07:58:12Z</time>
      </trkpt>
      <trkpt lat="44.60938" lon="6.9338">
        <ele>2744.7150878906</ele>
        <time>2011-07-15T07:58:18Z</time>
      </trkpt>
      <trkpt lat="44.6094" lon="6.93383">
        <ele>2744.8129882812</ele>
        <time>2011-07-15T07:58:20Z</time>
      </trkpt>
      <trkpt lat="44.60943" lon="6.93389">
        <ele>2745.0910644531</ele>
        <time>2011-07-15T07:58:26Z</time>
      </trkpt>
      <trkpt lat="44.60944" lon="6.93388">
        <ele>2744.9108886719</ele>
        <time>2011-07-15T07:58:47Z</time>
      </trkpt>
      <trkpt lat="44.60944" lon="6.9339">
        <ele>2745.0805664062</ele>
        <time>2011-07-15T07:59:01Z</time>
      </trkpt>
      <trkpt lat="44.60947" lon="6.93399">
        <ele>2746.0983886719</ele>
        <time>2011-07-15T07:59:07Z</time>
      </trkpt>
      <trkpt lat="44.6095" lon="6.93409">
        <ele>2747.3757324219</ele>
        <time>2011-07-15T07:59:14Z</time>
      </trkpt>
      <trkpt lat="44.60954" lon="6.93417">
        <ele>2748.6499023438</ele>
        <time>2011-07-15T07:59:20Z</time>
      </trkpt>
      <trkpt lat="44.60957" lon="6.93422">
        <ele>2749.6650390625</ele>
        <time>2011-07-15T07:59:25Z</time>
      </trkpt>
      <trkpt lat="44.6096" lon="6.9343">
        <ele>2751.0053710938</ele>
        <time>2011-07-15T07:59:32Z</time>
      </trkpt>
      <trkpt lat="44.60964" lon="6.93437">
        <ele>2752.2517089844</ele>
        <time>2011-07-15T07:59:39Z</time>
      </trkpt>
      <trkpt lat="44.60964" lon="6.93444">
        <ele>2752.7229003906</ele>
        <time>2011-07-15T07:59:45Z</time>
      </trkpt>
      <trkpt lat="44.60963" lon="6.9345">
        <ele>2753.1162109375</ele>
        <time>2011-07-15T07:59:53Z</time>
      </trkpt>
      <trkpt lat="44.60963" lon="6.93455">
        <ele>2753.4782714844</ele>
        <time>2011-07-15T07:59:59Z</time>
      </trkpt>
      <trkpt lat="44.60965" lon="6.9346">
        <ele>2754.2358398438</ele>
        <time>2011-07-15T08:00:07Z</time>
      </trkpt>
      <trkpt lat="44.60966" lon="6.93466">
        <ele>2754.8537597656</ele>
        <time>2011-07-15T08:00:13Z</time>
      </trkpt>
      <trkpt lat="44.60967" lon="6.93473">
        <ele>2755.5095214844</ele>
        <time>2011-07-15T08:00:20Z</time>
      </trkpt>
      <trkpt lat="44.60967" lon="6.93481">
        <ele>2756.0830078125</ele>
        <time>2011-07-15T08:00:28Z</time>
      </trkpt>
      <trkpt lat="44.60968" lon="6.93488">
        <ele>2756.6115722656</ele>
        <time>2011-07-15T08:00:35Z</time>
      </trkpt>
      <trkpt lat="44.6097" lon="6.93493">
        <ele>2757.2673339844</ele>
        <time>2011-07-15T08:00:42Z</time>
      </trkpt>
      <trkpt lat="44.60973" lon="6.93498">
        <ele>2757.8657226562</ele>
        <time>2011-07-15T08:00:48Z</time>
      </trkpt>
      <trkpt lat="44.60976" lon="6.93503">
        <ele>2758.4533691406</ele>
        <time>2011-07-15T08:00:55Z</time>
      </trkpt>
      <trkpt lat="44.60979" lon="6.93509">
        <ele>2759.1628417969</ele>
        <time>2011-07-15T08:01:02Z</time>
      </trkpt>
      <trkpt lat="44.60981" lon="6.93515">
        <ele>2759.7270507812</ele>
        <time>2011-07-15T08:01:09Z</time>
      </trkpt>
      <trkpt lat="44.60983" lon="6.9352">
        <ele>2760.26953125</ele>
        <time>2011-07-15T08:01:15Z</time>
      </trkpt>
      <trkpt lat="44.60983" lon="6.93527">
        <ele>2760.9252929688</ele>
        <time>2011-07-15T08:01:21Z</time>
      </trkpt>
      <trkpt lat="44.60982" lon="6.93534">
        <ele>2761.5959472656</ele>
        <time>2011-07-15T08:01:27Z</time>
      </trkpt>
      <trkpt lat="44.60982" lon="6.93542">
        <ele>2762.3835449219</ele>
        <time>2011-07-15T08:01:34Z</time>
      </trkpt>
      <trkpt lat="44.60983" lon="6.93549">
        <ele>2762.9846191406</ele>
        <time>2011-07-15T08:01:40Z</time>
      </trkpt>
      <trkpt lat="44.60983" lon="6.93556">
        <ele>2763.6967773438</ele>
        <time>2011-07-15T08:01:46Z</time>
      </trkpt>
      <trkpt lat="44.60983" lon="6.93562">
        <ele>2764.42578125</ele>
        <time>2011-07-15T08:01:51Z</time>
      </trkpt>
      <trkpt lat="44.60983" lon="6.93571">
        <ele>2765.7028808594</ele>
        <time>2011-07-15T08:01:59Z</time>
      </trkpt>
      <trkpt lat="44.60986" lon="6.93584">
        <ele>2767.0971679688</ele>
        <time>2011-07-15T08:02:09Z</time>
      </trkpt>
      <trkpt lat="44.60987" lon="6.93595">
        <ele>2768.1787109375</ele>
        <time>2011-07-15T08:02:17Z</time>
      </trkpt>
      <trkpt lat="44.60987" lon="6.93603">
        <ele>2769.1313476562</ele>
        <time>2011-07-15T08:02:24Z</time>
      </trkpt>
      <trkpt lat="44.60987" lon="6.93613">
        <ele>2770.1774902344</ele>
        <time>2011-07-15T08:02:30Z</time>
      </trkpt>
      <trkpt lat="44.60991" lon="6.93623">
        <ele>2771.0925292969</ele>
        <time>2011-07-15T08:02:37Z</time>
      </trkpt>
      <trkpt lat="44.60994" lon="6.93632">
        <ele>2771.8903808594</ele>
        <time>2011-07-15T08:02:43Z</time>
      </trkpt>
      <trkpt lat="44.60994" lon="6.93633">
        <ele>2771.9084472656</ele>
        <time>2011-07-15T08:02:44Z</time>
      </trkpt>
      <trkpt lat="44.60997" lon="6.93639">
        <ele>2772.240234375</ele>
        <time>2011-07-15T08:02:50Z</time>
      </trkpt>
      <trkpt lat="44.60998" lon="6.93645">
        <ele>2772.8439941406</ele>
        <time>2011-07-15T08:02:56Z</time>
      </trkpt>
      <trkpt lat="44.61" lon="6.93652">
        <ele>2773.3598632812</ele>
        <time>2011-07-15T08:03:02Z</time>
      </trkpt>
      <trkpt lat="44.61003" lon="6.93662">
        <ele>2773.9177246094</ele>
        <time>2011-07-15T08:03:11Z</time>
      </trkpt>
      <trkpt lat="44.61007" lon="6.93671">
        <ele>2774.1818847656</ele>
        <time>2011-07-15T08:03:20Z</time>
      </trkpt>
      <trkpt lat="44.61012" lon="6.93678">
        <ele>2774.1374511719</ele>
        <time>2011-07-15T08:03:27Z</time>
      </trkpt>
      <trkpt lat="44.61015" lon="6.93684">
        <ele>2774.1889648438</ele>
        <time>2011-07-15T08:03:33Z</time>
      </trkpt>
      <trkpt lat="44.61017" lon="6.93692">
        <ele>2774.6850585938</ele>
        <time>2011-07-15T08:03:39Z</time>
      </trkpt>
      <trkpt lat="44.61017" lon="6.93698">
        <ele>2775.3645019531</ele>
        <time>2011-07-15T08:03:45Z</time>
      </trkpt>
      <trkpt lat="44.61019" lon="6.93705">
        <ele>2775.8579101562</ele>
        <time>2011-07-15T08:03:52Z</time>
      </trkpt>
      <trkpt lat="44.6102" lon="6.93712">
        <ele>2776.3879394531</ele>
        <time>2011-07-15T08:03:58Z</time>
      </trkpt>
      <trkpt lat="44.6102" lon="6.93718">
        <ele>2777.2373046875</ele>
        <time>2011-07-15T08:04:05Z</time>
      </trkpt>
      <trkpt lat="44.6102" lon="6.93729">
        <ele>2778.904296875</ele>
        <time>2011-07-15T08:04:14Z</time>
      </trkpt>
      <trkpt lat="44.61023" lon="6.93736">
        <ele>2779.73046875</ele>
        <time>2011-07-15T08:04:21Z</time>
      </trkpt>
      <trkpt lat="44.61025" lon="6.93744">
        <ele>2780.5998535156</ele>
        <time>2011-07-15T08:04:28Z</time>
      </trkpt>
      <trkpt lat="44.61028" lon="6.93753">
        <ele>2781.5419921875</ele>
        <time>2011-07-15T08:04:35Z</time>
      </trkpt>
      <trkpt lat="44.61031" lon="6.9376">
        <ele>2782.8193359375</ele>
        <time>2011-07-15T08:04:43Z</time>
      </trkpt>
      <trkpt lat="44.61034" lon="6.93767">
        <ele>2783.8596191406</ele>
        <time>2011-07-15T08:04:50Z</time>
      </trkpt>
      <trkpt lat="44.61039" lon="6.93774">
        <ele>2784.9719238281</ele>
        <time>2011-07-15T08:04:57Z</time>
      </trkpt>
      <trkpt lat="44.61043" lon="6.93779">
        <ele>2785.732421875</ele>
        <time>2011-07-15T08:05:03Z</time>
      </trkpt>
      <trkpt lat="44.61045" lon="6.93786">
        <ele>2786.9755859375</ele>
        <time>2011-07-15T08:05:10Z</time>
      </trkpt>
      <trkpt lat="44.6105" lon="6.93791">
        <ele>2787.7893066406</ele>
        <time>2011-07-15T08:05:17Z</time>
      </trkpt>
      <trkpt lat="44.61057" lon="6.93797">
        <ele>2788.7912597656</ele>
        <time>2011-07-15T08:05:26Z</time>
      </trkpt>
      <trkpt lat="44.61062" lon="6.93802">
        <ele>2790.0224609375</ele>
        <time>2011-07-15T08:05:34Z</time>
      </trkpt>
      <trkpt lat="44.61066" lon="6.93806">
        <ele>2791.1809082031</ele>
        <time>2011-07-15T08:05:41Z</time>
      </trkpt>
      <trkpt lat="44.6107" lon="6.93813">
        <ele>2792.646484375</ele>
        <time>2011-07-15T08:05:48Z</time>
      </trkpt>
      <trkpt lat="44.61075" lon="6.93819">
        <ele>2793.9912109375</ele>
        <time>2011-07-15T08:05:56Z</time>
      </trkpt>
      <trkpt lat="44.61079" lon="6.93824">
        <ele>2795.0791015625</ele>
        <time>2011-07-15T08:06:03Z</time>
      </trkpt>
      <trkpt lat="44.61082" lon="6.93828">
        <ele>2795.8764648438</ele>
        <time>2011-07-15T08:06:09Z</time>
      </trkpt>
      <trkpt lat="44.61086" lon="6.93834">
        <ele>2797.0112304688</ele>
        <time>2011-07-15T08:06:17Z</time>
      </trkpt>
      <trkpt lat="44.6109" lon="6.9384">
        <ele>2798.8188476562</ele>
        <time>2011-07-15T08:06:25Z</time>
      </trkpt>
      <trkpt lat="44.61095" lon="6.93847">
        <ele>2800.2504882812</ele>
        <time>2011-07-15T08:06:33Z</time>
      </trkpt>
      <trkpt lat="44.61099" lon="6.93853">
        <ele>2801.0314941406</ele>
        <time>2011-07-15T08:06:39Z</time>
      </trkpt>
      <trkpt lat="44.61104" lon="6.9386">
        <ele>2801.7016601562</ele>
        <time>2011-07-15T08:06:47Z</time>
      </trkpt>
      <trkpt lat="44.61107" lon="6.93872">
        <ele>2802.857421875</ele>
        <time>2011-07-15T08:06:57Z</time>
      </trkpt>
      <trkpt lat="44.6111" lon="6.93882">
        <ele>2803.6430664062</ele>
        <time>2011-07-15T08:07:06Z</time>
      </trkpt>
      <trkpt lat="44.6111" lon="6.93891">
        <ele>2804.8825683594</ele>
        <time>2011-07-15T08:07:14Z</time>
      </trkpt>
      <trkpt lat="44.61109" lon="6.93898">
        <ele>2806.171875</ele>
        <time>2011-07-15T08:07:20Z</time>
      </trkpt>
      <trkpt lat="44.61112" lon="6.93907">
        <ele>2806.5180664062</ele>
        <time>2011-07-15T08:07:27Z</time>
      </trkpt>
      <trkpt lat="44.61114" lon="6.93915">
        <ele>2807.6306152344</ele>
        <time>2011-07-15T08:07:34Z</time>
      </trkpt>
      <trkpt lat="44.61114" lon="6.93923">
        <ele>2808.6767578125</ele>
        <time>2011-07-15T08:07:40Z</time>
      </trkpt>
      <trkpt lat="44.61115" lon="6.93933">
        <ele>2809.9267578125</ele>
        <time>2011-07-15T08:07:48Z</time>
      </trkpt>
      <trkpt lat="44.61115" lon="6.93943">
        <ele>2811.3676757812</ele>
        <time>2011-07-15T08:07:56Z</time>
      </trkpt>
      <trkpt lat="44.61116" lon="6.93952">
        <ele>2812.8818359375</ele>
        <time>2011-07-15T08:08:03Z</time>
      </trkpt>
      <trkpt lat="44.61116" lon="6.93961">
        <ele>2814.34375</ele>
        <time>2011-07-15T08:08:10Z</time>
      </trkpt>
      <trkpt lat="44.61118" lon="6.9397">
        <ele>2815.7258300781</ele>
        <time>2011-07-15T08:08:17Z</time>
      </trkpt>
      <trkpt lat="44.61119" lon="6.93978">
        <ele>2816.6218261719</ele>
        <time>2011-07-15T08:08:23Z</time>
      </trkpt>
      <trkpt lat="44.61121" lon="6.93986">
        <ele>2817.3337402344</ele>
        <time>2011-07-15T08:08:30Z</time>
      </trkpt>
      <trkpt lat="44.61122" lon="6.93994">
        <ele>2818.17578125</ele>
        <time>2011-07-15T08:08:36Z</time>
      </trkpt>
      <trkpt lat="44.61123" lon="6.94003">
        <ele>2819.1533203125</ele>
        <time>2011-07-15T08:08:43Z</time>
      </trkpt>
      <trkpt lat="44.61124" lon="6.9401">
        <ele>2819.95703125</ele>
        <time>2011-07-15T08:08:48Z</time>
      </trkpt>
      <trkpt lat="44.61124" lon="6.94018">
        <ele>2820.8806152344</ele>
        <time>2011-07-15T08:08:54Z</time>
      </trkpt>
      <trkpt lat="44.61126" lon="6.94025">
        <ele>2821.5415039062</ele>
        <time>2011-07-15T08:09:00Z</time>
      </trkpt>
      <trkpt lat="44.61127" lon="6.94032">
        <ele>2822.333984375</ele>
        <time>2011-07-15T08:09:07Z</time>
      </trkpt>
      <trkpt lat="44.61127" lon="6.94037">
        <ele>2823.2541503906</ele>
        <time>2011-07-15T08:09:13Z</time>
      </trkpt>
      <trkpt lat="44.61128" lon="6.94042">
        <ele>2823.900390625</ele>
        <time>2011-07-15T08:09:20Z</time>
      </trkpt>
      <trkpt lat="44.61129" lon="6.9405">
        <ele>2825.0959472656</ele>
        <time>2011-07-15T08:09:29Z</time>
      </trkpt>
      <trkpt lat="44.6113" lon="6.94055">
        <ele>2825.888671875</ele>
        <time>2011-07-15T08:09:35Z</time>
      </trkpt>
      <trkpt lat="44.61133" lon="6.94062">
        <ele>2826.9853515625</ele>
        <time>2011-07-15T08:09:43Z</time>
      </trkpt>
      <trkpt lat="44.61138" lon="6.94067">
        <ele>2827.64453125</ele>
        <time>2011-07-15T08:09:51Z</time>
      </trkpt>
      <trkpt lat="44.61143" lon="6.94071">
        <ele>2828.4750976562</ele>
        <time>2011-07-15T08:09:58Z</time>
      </trkpt>
      <trkpt lat="44.61148" lon="6.94076">
        <ele>2829.59375</ele>
        <time>2011-07-15T08:10:06Z</time>
      </trkpt>
      <trkpt lat="44.61149" lon="6.94081">
        <ele>2830.5302734375</ele>
        <time>2011-07-15T08:10:12Z</time>
      </trkpt>
      <trkpt lat="44.61149" lon="6.94087">
        <ele>2831.5551757812</ele>
        <time>2011-07-15T08:10:19Z</time>
      </trkpt>
      <trkpt lat="44.61148" lon="6.94094">
        <ele>2832.6096191406</ele>
        <time>2011-07-15T08:10:26Z</time>
      </trkpt>
      <trkpt lat="44.61149" lon="6.941">
        <ele>2833.50390625</ele>
        <time>2011-07-15T08:10:33Z</time>
      </trkpt>
      <trkpt lat="44.61148" lon="6.94107">
        <ele>2834.646484375</ele>
        <time>2011-07-15T08:10:41Z</time>
      </trkpt>
      <trkpt lat="44.61147" lon="6.94114">
        <ele>2835.8701171875</ele>
        <time>2011-07-15T08:10:49Z</time>
      </trkpt>
      <trkpt lat="44.61148" lon="6.94121">
        <ele>2836.9497070312</ele>
        <time>2011-07-15T08:10:56Z</time>
      </trkpt>
      <trkpt lat="44.61148" lon="6.94128">
        <ele>2838.1760253906</ele>
        <time>2011-07-15T08:11:03Z</time>
      </trkpt>
      <trkpt lat="44.61148" lon="6.94135">
        <ele>2839.37890625</ele>
        <time>2011-07-15T08:11:11Z</time>
      </trkpt>
      <trkpt lat="44.61148" lon="6.94142">
        <ele>2840.5617675781</ele>
        <time>2011-07-15T08:11:18Z</time>
      </trkpt>
      <trkpt lat="44.61147" lon="6.9415">
        <ele>2841.9645996094</ele>
        <time>2011-07-15T08:11:25Z</time>
      </trkpt>
      <trkpt lat="44.61147" lon="6.94158">
        <ele>2843.3474121094</ele>
        <time>2011-07-15T08:11:33Z</time>
      </trkpt>
      <trkpt lat="44.61145" lon="6.94165">
        <ele>2844.9323730469</ele>
        <time>2011-07-15T08:11:41Z</time>
      </trkpt>
      <trkpt lat="44.61142" lon="6.94173">
        <ele>2846.8266601562</ele>
        <time>2011-07-15T08:11:49Z</time>
      </trkpt>
      <trkpt lat="44.6114" lon="6.94181">
        <ele>2848.4143066406</ele>
        <time>2011-07-15T08:11:57Z</time>
      </trkpt>
      <trkpt lat="44.61137" lon="6.94188">
        <ele>2850.16015625</ele>
        <time>2011-07-15T08:12:05Z</time>
      </trkpt>
      <trkpt lat="44.61135" lon="6.94197">
        <ele>2851.9523925781</ele>
        <time>2011-07-15T08:12:13Z</time>
      </trkpt>
      <trkpt lat="44.61134" lon="6.94208">
        <ele>2853.7375488281</ele>
        <time>2011-07-15T08:12:23Z</time>
      </trkpt>
      <trkpt lat="44.61132" lon="6.94218">
        <ele>2855.4924316406</ele>
        <time>2011-07-15T08:12:31Z</time>
      </trkpt>
      <trkpt lat="44.61132" lon="6.94226">
        <ele>2856.8198242188</ele>
        <time>2011-07-15T08:12:38Z</time>
      </trkpt>
      <trkpt lat="44.61131" lon="6.94232">
        <ele>2857.9343261719</ele>
        <time>2011-07-15T08:12:45Z</time>
      </trkpt>
      <trkpt lat="44.6113" lon="6.94241">
        <ele>2859.4116210938</ele>
        <time>2011-07-15T08:12:53Z</time>
      </trkpt>
      <trkpt lat="44.61129" lon="6.94248">
        <ele>2860.4475097656</ele>
        <time>2011-07-15T08:13:00Z</time>
      </trkpt>
      <trkpt lat="44.61128" lon="6.94257">
        <ele>2861.7309570312</ele>
        <time>2011-07-15T08:13:08Z</time>
      </trkpt>
      <trkpt lat="44.61127" lon="6.94264">
        <ele>2862.7058105469</ele>
        <time>2011-07-15T08:13:15Z</time>
      </trkpt>
      <trkpt lat="44.61128" lon="6.94272">
        <ele>2863.8620605469</ele>
        <time>2011-07-15T08:13:24Z</time>
      </trkpt>
      <trkpt lat="44.61127" lon="6.9428">
        <ele>2864.9426269531</ele>
        <time>2011-07-15T08:13:33Z</time>
      </trkpt>
      <trkpt lat="44.61126" lon="6.94289">
        <ele>2866.0092773438</ele>
        <time>2011-07-15T08:13:42Z</time>
      </trkpt>
      <trkpt lat="44.61127" lon="6.94296">
        <ele>2867.0739746094</ele>
        <time>2011-07-15T08:13:50Z</time>
      </trkpt>
      <trkpt lat="44.61127" lon="6.94305">
        <ele>2868.298828125</ele>
        <time>2011-07-15T08:13:59Z</time>
      </trkpt>
      <trkpt lat="44.61126" lon="6.94315">
        <ele>2869.7468261719</ele>
        <time>2011-07-15T08:14:09Z</time>
      </trkpt>
      <trkpt lat="44.61126" lon="6.94322">
        <ele>2870.9582519531</ele>
        <time>2011-07-15T08:14:15Z</time>
      </trkpt>
      <trkpt lat="44.61126" lon="6.9433">
        <ele>2872.0207519531</ele>
        <time>2011-07-15T08:14:21Z</time>
      </trkpt>
      <trkpt lat="44.61126" lon="6.94341">
        <ele>2873.7092285156</ele>
        <time>2011-07-15T08:14:30Z</time>
      </trkpt>
      <trkpt lat="44.61129" lon="6.94352">
        <ele>2875.5808105469</ele>
        <time>2011-07-15T08:14:38Z</time>
      </trkpt>
      <trkpt lat="44.61134" lon="6.94361">
        <ele>2878.2292480469</ele>
        <time>2011-07-15T08:14:47Z</time>
      </trkpt>
      <trkpt lat="44.61137" lon="6.94363">
        <ele>2879.4587402344</ele>
        <time>2011-07-15T08:14:50Z</time>
      </trkpt>
      <trkpt lat="44.61147" lon="6.94369">
        <ele>2880.3825683594</ele>
        <time>2011-07-15T08:14:59Z</time>
      </trkpt>
      <trkpt lat="44.61154" lon="6.94376">
        <ele>2880.7993164062</ele>
        <time>2011-07-15T08:15:05Z</time>
      </trkpt>
      <trkpt lat="44.61159" lon="6.94382">
        <ele>2881.2763671875</ele>
        <time>2011-07-15T08:15:11Z</time>
      </trkpt>
      <trkpt lat="44.61163" lon="6.94387">
        <ele>2881.7653808594</ele>
        <time>2011-07-15T08:15:16Z</time>
      </trkpt>
      <trkpt lat="44.61166" lon="6.94401">
        <ele>2882.8276367188</ele>
        <time>2011-07-15T08:15:25Z</time>
      </trkpt>
      <trkpt lat="44.61166" lon="6.94411">
        <ele>2883.5383300781</ele>
        <time>2011-07-15T08:15:32Z</time>
      </trkpt>
      <trkpt lat="44.61168" lon="6.94422">
        <ele>2884.62890625</ele>
        <time>2011-07-15T08:15:40Z</time>
      </trkpt>
      <trkpt lat="44.61169" lon="6.9443">
        <ele>2885.6682128906</ele>
        <time>2011-07-15T08:15:46Z</time>
      </trkpt>
      <trkpt lat="44.61169" lon="6.94433">
        <ele>2885.9885253906</ele>
        <time>2011-07-15T08:15:48Z</time>
      </trkpt>
      <trkpt lat="44.61171" lon="6.94446">
        <ele>2887.5305175781</ele>
        <time>2011-07-15T08:15:57Z</time>
      </trkpt>
      <trkpt lat="44.61171" lon="6.94454">
        <ele>2888.2136230469</ele>
        <time>2011-07-15T08:16:03Z</time>
      </trkpt>
      <trkpt lat="44.61173" lon="6.94465">
        <ele>2889.2817382812</ele>
        <time>2011-07-15T08:16:11Z</time>
      </trkpt>
      <trkpt lat="44.61175" lon="6.94476">
        <ele>2890.5173339844</ele>
        <time>2011-07-15T08:16:20Z</time>
      </trkpt>
      <trkpt lat="44.61176" lon="6.94487">
        <ele>2891.6760253906</ele>
        <time>2011-07-15T08:16:28Z</time>
      </trkpt>
      <trkpt lat="44.61177" lon="6.94497">
        <ele>2892.5874023438</ele>
        <time>2011-07-15T08:16:35Z</time>
      </trkpt>
      <trkpt lat="44.61178" lon="6.94504">
        <ele>2893.6188964844</ele>
        <time>2011-07-15T08:16:41Z</time>
      </trkpt>
      <trkpt lat="44.61179" lon="6.94514">
        <ele>2894.9130859375</ele>
        <time>2011-07-15T08:16:48Z</time>
      </trkpt>
      <trkpt lat="44.61178" lon="6.94523">
        <ele>2895.8544921875</ele>
        <time>2011-07-15T08:16:55Z</time>
      </trkpt>
      <trkpt lat="44.61178" lon="6.94532">
        <ele>2896.8403320312</ele>
        <time>2011-07-15T08:17:02Z</time>
      </trkpt>
      <trkpt lat="44.61179" lon="6.9454">
        <ele>2897.8356933594</ele>
        <time>2011-07-15T08:17:09Z</time>
      </trkpt>
      <trkpt lat="44.61181" lon="6.9455">
        <ele>2899.0434570312</ele>
        <time>2011-07-15T08:17:16Z</time>
      </trkpt>
      <trkpt lat="44.61183" lon="6.94558">
        <ele>2900.4375</ele>
        <time>2011-07-15T08:17:22Z</time>
      </trkpt>
      <trkpt lat="44.61187" lon="6.94568">
        <ele>2902.322265625</ele>
        <time>2011-07-15T08:17:30Z</time>
      </trkpt>
      <trkpt lat="44.61186" lon="6.94578">
        <ele>2903.2475585938</ele>
        <time>2011-07-15T08:17:38Z</time>
      </trkpt>
      <trkpt lat="44.61185" lon="6.94586">
        <ele>2904.1586914062</ele>
        <time>2011-07-15T08:17:45Z</time>
      </trkpt>
      <trkpt lat="44.61185" lon="6.94597">
        <ele>2905.5456542969</ele>
        <time>2011-07-15T08:17:53Z</time>
      </trkpt>
      <trkpt lat="44.61186" lon="6.94605">
        <ele>2906.9670410156</ele>
        <time>2011-07-15T08:18:00Z</time>
      </trkpt>
      <trkpt lat="44.61188" lon="6.94614">
        <ele>2908.8518066406</ele>
        <time>2011-07-15T08:18:08Z</time>
      </trkpt>
      <trkpt lat="44.61191" lon="6.94621">
        <ele>2910.357421875</ele>
        <time>2011-07-15T08:18:16Z</time>
      </trkpt>
      <trkpt lat="44.61193" lon="6.94625">
        <ele>2911.361328125</ele>
        <time>2011-07-15T08:18:21Z</time>
      </trkpt>
      <trkpt lat="44.61197" lon="6.94633">
        <ele>2912.4819335938</ele>
        <time>2011-07-15T08:18:29Z</time>
      </trkpt>
      <trkpt lat="44.61198" lon="6.94641">
        <ele>2913.4853515625</ele>
        <time>2011-07-15T08:18:37Z</time>
      </trkpt>
      <trkpt lat="44.61202" lon="6.94646">
        <ele>2914.1811523438</ele>
        <time>2011-07-15T08:18:44Z</time>
      </trkpt>
      <trkpt lat="44.61206" lon="6.9465">
        <ele>2914.8916015625</ele>
        <time>2011-07-15T08:18:51Z</time>
      </trkpt>
      <trkpt lat="44.61209" lon="6.94656">
        <ele>2915.701171875</ele>
        <time>2011-07-15T08:18:58Z</time>
      </trkpt>
      <trkpt lat="44.61211" lon="6.94663">
        <ele>2916.5583496094</ele>
        <time>2011-07-15T08:19:05Z</time>
      </trkpt>
      <trkpt lat="44.61216" lon="6.94667">
        <ele>2917.0124511719</ele>
        <time>2011-07-15T08:19:13Z</time>
      </trkpt>
      <trkpt lat="44.61219" lon="6.9467">
        <ele>2917.3942871094</ele>
        <time>2011-07-15T08:19:20Z</time>
      </trkpt>
      <trkpt lat="44.61223" lon="6.94672">
        <ele>2917.6928710938</ele>
        <time>2011-07-15T08:19:28Z</time>
      </trkpt>
      <trkpt lat="44.61224" lon="6.94677">
        <ele>2918.3959960938</ele>
        <time>2011-07-15T08:19:36Z</time>
      </trkpt>
      <trkpt lat="44.61223" lon="6.9468">
        <ele>2918.6411132812</ele>
        <time>2011-07-15T08:19:43Z</time>
      </trkpt>
      <trkpt lat="44.61227" lon="6.94681">
        <ele>2919.3903808594</ele>
        <time>2011-07-15T08:19:50Z</time>
      </trkpt>
      <trkpt lat="44.61229" lon="6.94683">
        <ele>2920.1640625</ele>
        <time>2011-07-15T08:19:58Z</time>
      </trkpt>
      <trkpt lat="44.61232" lon="6.94687">
        <ele>2921.3376464844</ele>
        <time>2011-07-15T08:20:07Z</time>
      </trkpt>
      <trkpt lat="44.61235" lon="6.9469">
        <ele>2922.4377441406</ele>
        <time>2011-07-15T08:20:16Z</time>
      </trkpt>
      <trkpt lat="44.61235" lon="6.94694">
        <ele>2923.1726074219</ele>
        <time>2011-07-15T08:20:23Z</time>
      </trkpt>
      <trkpt lat="44.61233" lon="6.94696">
        <ele>2923.2106933594</ele>
        <time>2011-07-15T08:20:32Z</time>
      </trkpt>
      <trkpt lat="44.61233" lon="6.947">
        <ele>2924.3649902344</ele>
        <time>2011-07-15T08:20:40Z</time>
      </trkpt>
      <trkpt lat="44.61235" lon="6.94702">
        <ele>2925.4780273438</ele>
        <time>2011-07-15T08:20:48Z</time>
      </trkpt>
      <trkpt lat="44.61236" lon="6.94705">
        <ele>2926.8393554688</ele>
        <time>2011-07-15T08:20:56Z</time>
      </trkpt>
      <trkpt lat="44.61237" lon="6.94709">
        <ele>2928.2729492188</ele>
        <time>2011-07-15T08:21:04Z</time>
      </trkpt>
      <trkpt lat="44.61237" lon="6.94714">
        <ele>2929.7390136719</ele>
        <time>2011-07-15T08:21:13Z</time>
      </trkpt>
      <trkpt lat="44.61239" lon="6.94717">
        <ele>2931.1938476562</ele>
        <time>2011-07-15T08:21:21Z</time>
      </trkpt>
      <trkpt lat="44.6124" lon="6.94721">
        <ele>2932.3422851562</ele>
        <time>2011-07-15T08:21:27Z</time>
      </trkpt>
      <trkpt lat="44.6124" lon="6.94726">
        <ele>2933.8088378906</ele>
        <time>2011-07-15T08:21:36Z</time>
      </trkpt>
      <trkpt lat="44.6124" lon="6.94729">
        <ele>2934.7497558594</ele>
        <time>2011-07-15T08:21:42Z</time>
      </trkpt>
      <trkpt lat="44.6124" lon="6.94733">
        <ele>2935.6713867188</ele>
        <time>2011-07-15T08:21:50Z</time>
      </trkpt>
      <trkpt lat="44.61238" lon="6.94736">
        <ele>2936.4633789062</ele>
        <time>2011-07-15T08:21:57Z</time>
      </trkpt>
      <trkpt lat="44.61238" lon="6.9474">
        <ele>2937.3955078125</ele>
        <time>2011-07-15T08:22:04Z</time>
      </trkpt>
      <trkpt lat="44.61238" lon="6.94745">
        <ele>2938.9438476562</ele>
        <time>2011-07-15T08:22:13Z</time>
      </trkpt>
      <trkpt lat="44.61239" lon="6.9475">
        <ele>2940.5358886719</ele>
        <time>2011-07-15T08:22:21Z</time>
      </trkpt>
      <trkpt lat="44.61241" lon="6.94753">
        <ele>2941.5556640625</ele>
        <time>2011-07-15T08:22:27Z</time>
      </trkpt>
      <trkpt lat="44.61239" lon="6.94757">
        <ele>2942.6462402344</ele>
        <time>2011-07-15T08:22:34Z</time>
      </trkpt>
      <trkpt lat="44.61242" lon="6.94759">
        <ele>2943.6535644531</ele>
        <time>2011-07-15T08:22:41Z</time>
      </trkpt>
      <trkpt lat="44.61244" lon="6.94763">
        <ele>2945.3061523438</ele>
        <time>2011-07-15T08:22:49Z</time>
      </trkpt>
      <trkpt lat="44.61243" lon="6.94768">
        <ele>2946.5834960938</ele>
        <time>2011-07-15T08:22:57Z</time>
      </trkpt>
      <trkpt lat="44.61244" lon="6.94771">
        <ele>2947.8525390625</ele>
        <time>2011-07-15T08:23:04Z</time>
      </trkpt>
      <trkpt lat="44.61245" lon="6.94775">
        <ele>2949.1323242188</ele>
        <time>2011-07-15T08:23:11Z</time>
      </trkpt>
      <trkpt lat="44.61243" lon="6.94779">
        <ele>2949.9899902344</ele>
        <time>2011-07-15T08:23:18Z</time>
      </trkpt>
      <trkpt lat="44.6124" lon="6.94782">
        <ele>2950.2097167969</ele>
        <time>2011-07-15T08:23:26Z</time>
      </trkpt>
      <trkpt lat="44.61238" lon="6.94787">
        <ele>2951.1640625</ele>
        <time>2011-07-15T08:23:33Z</time>
      </trkpt>
      <trkpt lat="44.61237" lon="6.94792">
        <ele>2952.3486328125</ele>
        <time>2011-07-15T08:23:42Z</time>
      </trkpt>
      <trkpt lat="44.61239" lon="6.94797">
        <ele>2953.8369140625</ele>
        <time>2011-07-15T08:23:52Z</time>
      </trkpt>
      <trkpt lat="44.61241" lon="6.94801">
        <ele>2955.0932617188</ele>
        <time>2011-07-15T08:24:00Z</time>
      </trkpt>
      <trkpt lat="44.61242" lon="6.94804">
        <ele>2956.1164550781</ele>
        <time>2011-07-15T08:24:08Z</time>
      </trkpt>
      <trkpt lat="44.61243" lon="6.94807">
        <ele>2957.4020996094</ele>
        <time>2011-07-15T08:24:17Z</time>
      </trkpt>
      <trkpt lat="44.61244" lon="6.9481">
        <ele>2958.9008789062</ele>
        <time>2011-07-15T08:24:25Z</time>
      </trkpt>
      <trkpt lat="44.61243" lon="6.94814">
        <ele>2960.1135253906</ele>
        <time>2011-07-15T08:24:33Z</time>
      </trkpt>
      <trkpt lat="44.61242" lon="6.94817">
        <ele>2961.1384277344</ele>
        <time>2011-07-15T08:24:40Z</time>
      </trkpt>
      <trkpt lat="44.61243" lon="6.94821">
        <ele>2962.7214355469</ele>
        <time>2011-07-15T08:24:48Z</time>
      </trkpt>
      <trkpt lat="44.6124" lon="6.94824">
        <ele>2963.0991210938</ele>
        <time>2011-07-15T08:24:56Z</time>
      </trkpt>
      <trkpt lat="44.6124" lon="6.94828">
        <ele>2964.3681640625</ele>
        <time>2011-07-15T08:25:05Z</time>
      </trkpt>
      <trkpt lat="44.6124" lon="6.94831">
        <ele>2965.646484375</ele>
        <time>2011-07-15T08:25:13Z</time>
      </trkpt>
      <trkpt lat="44.61239" lon="6.94835">
        <ele>2966.728515625</ele>
        <time>2011-07-15T08:25:21Z</time>
      </trkpt>
      <trkpt lat="44.61238" lon="6.94838">
        <ele>2967.8957519531</ele>
        <time>2011-07-15T08:25:29Z</time>
      </trkpt>
      <trkpt lat="44.61238" lon="6.94842">
        <ele>2969.7016601562</ele>
        <time>2011-07-15T08:25:37Z</time>
      </trkpt>
      <trkpt lat="44.61241" lon="6.94844">
        <ele>2971.123046875</ele>
        <time>2011-07-15T08:25:45Z</time>
      </trkpt>
      <trkpt lat="44.61243" lon="6.94844">
        <ele>2972.3933105469</ele>
        <time>2011-07-15T08:25:52Z</time>
      </trkpt>
      <trkpt lat="44.61246" lon="6.94846">
        <ele>2974.0756835938</ele>
        <time>2011-07-15T08:25:59Z</time>
      </trkpt>
      <trkpt lat="44.61248" lon="6.94848">
        <ele>2975.7648925781</ele>
        <time>2011-07-15T08:26:07Z</time>
      </trkpt>
      <trkpt lat="44.61251" lon="6.9485">
        <ele>2977.3510742188</ele>
        <time>2011-07-15T08:26:15Z</time>
      </trkpt>
      <trkpt lat="44.61253" lon="6.94851">
        <ele>2978.7172851562</ele>
        <time>2011-07-15T08:26:22Z</time>
      </trkpt>
      <trkpt lat="44.61254" lon="6.94854">
        <ele>2980.2761230469</ele>
        <time>2011-07-15T08:26:30Z</time>
      </trkpt>
      <trkpt lat="44.61257" lon="6.94856">
        <ele>2982.0407714844</ele>
        <time>2011-07-15T08:26:38Z</time>
      </trkpt>
      <trkpt lat="44.61257" lon="6.94859">
        <ele>2983.66796875</ele>
        <time>2011-07-15T08:26:45Z</time>
      </trkpt>
      <trkpt lat="44.61257" lon="6.94862">
        <ele>2985.0395507812</ele>
        <time>2011-07-15T08:26:52Z</time>
      </trkpt>
      <trkpt lat="44.6126" lon="6.94864">
        <ele>2986.6525878906</ele>
        <time>2011-07-15T08:26:59Z</time>
      </trkpt>
      <trkpt lat="44.61263" lon="6.94865">
        <ele>2988.5849609375</ele>
        <time>2011-07-15T08:27:07Z</time>
      </trkpt>
      <trkpt lat="44.61265" lon="6.94868">
        <ele>2990.2824707031</ele>
        <time>2011-07-15T08:27:15Z</time>
      </trkpt>
      <trkpt lat="44.61266" lon="6.94871">
        <ele>2992.1845703125</ele>
        <time>2011-07-15T08:27:23Z</time>
      </trkpt>
      <trkpt lat="44.61266" lon="6.94874">
        <ele>2993.5891113281</ele>
        <time>2011-07-15T08:27:30Z</time>
      </trkpt>
      <trkpt lat="44.61269" lon="6.94875">
        <ele>2995.2253417969</ele>
        <time>2011-07-15T08:27:38Z</time>
      </trkpt>
      <trkpt lat="44.61272" lon="6.94878">
        <ele>2997.3759765625</ele>
        <time>2011-07-15T08:27:47Z</time>
      </trkpt>
      <trkpt lat="44.61275" lon="6.94877">
        <ele>2998.1635742188</ele>
        <time>2011-07-15T08:27:54Z</time>
      </trkpt>
      <trkpt lat="44.61277" lon="6.94876">
        <ele>2998.8444824219</ele>
        <time>2011-07-15T08:28:01Z</time>
      </trkpt>
      <trkpt lat="44.61281" lon="6.94876">
        <ele>2999.9699707031</ele>
        <time>2011-07-15T08:28:09Z</time>
      </trkpt>
      <trkpt lat="44.61281" lon="6.94878">
        <ele>3001.0012207031</ele>
        <time>2011-07-15T08:28:15Z</time>
      </trkpt>
      <trkpt lat="44.61284" lon="6.94879">
        <ele>3002.5756835938</ele>
        <time>2011-07-15T08:28:23Z</time>
      </trkpt>
      <trkpt lat="44.61288" lon="6.9488">
        <ele>3004.5</ele>
        <time>2011-07-15T08:28:33Z</time>
      </trkpt>
      <trkpt lat="44.6129" lon="6.94883">
        <ele>3006.3427734375</ele>
        <time>2011-07-15T08:28:40Z</time>
      </trkpt>
      <trkpt lat="44.61289" lon="6.94887">
        <ele>3007.990234375</ele>
        <time>2011-07-15T08:28:48Z</time>
      </trkpt>
      <trkpt lat="44.6129" lon="6.9489">
        <ele>3009.4353027344</ele>
        <time>2011-07-15T08:28:55Z</time>
      </trkpt>
      <trkpt lat="44.61293" lon="6.94892">
        <ele>3011.0419921875</ele>
        <time>2011-07-15T08:29:03Z</time>
      </trkpt>
      <trkpt lat="44.61293" lon="6.94897">
        <ele>3012.6459960938</ele>
        <time>2011-07-15T08:29:10Z</time>
      </trkpt>
      <trkpt lat="44.61294" lon="6.94899">
        <ele>3013.6340332031</ele>
        <time>2011-07-15T08:29:17Z</time>
      </trkpt>
      <trkpt lat="44.61297" lon="6.94899">
        <ele>3014.9106445312</ele>
        <time>2011-07-15T08:29:26Z</time>
      </trkpt>
      <trkpt lat="44.61298" lon="6.94902">
        <ele>3016.1066894531</ele>
        <time>2011-07-15T08:29:34Z</time>
      </trkpt>
      <trkpt lat="44.61298" lon="6.94904">
        <ele>3017.0048828125</ele>
        <time>2011-07-15T08:29:41Z</time>
      </trkpt>
      <trkpt lat="44.61301" lon="6.94905">
        <ele>3018.0759277344</ele>
        <time>2011-07-15T08:29:49Z</time>
      </trkpt>
      <trkpt lat="44.61301" lon="6.94908">
        <ele>3019.1381835938</ele>
        <time>2011-07-15T08:29:56Z</time>
      </trkpt>
      <trkpt lat="44.61301" lon="6.94912">
        <ele>3020.5715332031</ele>
        <time>2011-07-15T08:30:05Z</time>
      </trkpt>
      <trkpt lat="44.61304" lon="6.94912">
        <ele>3021.4982910156</ele>
        <time>2011-07-15T08:30:12Z</time>
      </trkpt>
      <trkpt lat="44.61306" lon="6.94913">
        <ele>3022.8728027344</ele>
        <time>2011-07-15T08:30:19Z</time>
      </trkpt>
      <trkpt lat="44.61305" lon="6.94917">
        <ele>3023.8376464844</ele>
        <time>2011-07-15T08:30:26Z</time>
      </trkpt>
      <trkpt lat="44.61305" lon="6.94918">
        <ele>3024.4729003906</ele>
        <time>2011-07-15T08:30:31Z</time>
      </trkpt>
      <trkpt lat="44.61308" lon="6.94918">
        <ele>3025.7692871094</ele>
        <time>2011-07-15T08:30:39Z</time>
      </trkpt>
      <trkpt lat="44.61311" lon="6.94916">
        <ele>3027.0131835938</ele>
        <time>2011-07-15T08:30:48Z</time>
      </trkpt>
      <trkpt lat="44.61314" lon="6.94918">
        <ele>3029.2111816406</ele>
        <time>2011-07-15T08:30:56Z</time>
      </trkpt>
      <trkpt lat="44.61314" lon="6.94921">
        <ele>3030.0476074219</ele>
        <time>2011-07-15T08:31:03Z</time>
      </trkpt>
      <trkpt lat="44.61315" lon="6.94922">
        <ele>3031.0451660156</ele>
        <time>2011-07-15T08:31:09Z</time>
      </trkpt>
      <trkpt lat="44.61318" lon="6.9492">
        <ele>3031.9396972656</ele>
        <time>2011-07-15T08:31:16Z</time>
      </trkpt>
      <trkpt lat="44.6132" lon="6.94916">
        <ele>3032.3347167969</ele>
        <time>2011-07-15T08:31:23Z</time>
      </trkpt>
      <trkpt lat="44.61324" lon="6.94913">
        <ele>3033.1140136719</ele>
        <time>2011-07-15T08:31:30Z</time>
      </trkpt>
      <trkpt lat="44.61328" lon="6.94912">
        <ele>3035.2700195312</ele>
        <time>2011-07-15T08:31:39Z</time>
      </trkpt>
      <trkpt lat="44.61332" lon="6.94911">
        <ele>3037.0383300781</ele>
        <time>2011-07-15T08:31:48Z</time>
      </trkpt>
      <trkpt lat="44.61336" lon="6.94912">
        <ele>3039.021484375</ele>
        <time>2011-07-15T08:31:56Z</time>
      </trkpt>
      <trkpt lat="44.61336" lon="6.94916">
        <ele>3040.7209472656</ele>
        <time>2011-07-15T08:32:03Z</time>
      </trkpt>
      <trkpt lat="44.61335" lon="6.94922">
        <ele>3041.6630859375</ele>
        <time>2011-07-15T08:32:11Z</time>
      </trkpt>
      <trkpt lat="44.61333" lon="6.9493">
        <ele>3042.5161132812</ele>
        <time>2011-07-15T08:32:21Z</time>
      </trkpt>
      <trkpt lat="44.61332" lon="6.94936">
        <ele>3043.0930175781</ele>
        <time>2011-07-15T08:32:29Z</time>
      </trkpt>
      <trkpt lat="44.61333" lon="6.94941">
        <ele>3044.1945800781</ele>
        <time>2011-07-15T08:32:38Z</time>
      </trkpt>
      <trkpt lat="44.61335" lon="6.94942">
        <ele>3045.6101074219</ele>
        <time>2011-07-15T08:32:46Z</time>
      </trkpt>
      <trkpt lat="44.61338" lon="6.94944">
        <ele>3047.3896484375</ele>
        <time>2011-07-15T08:32:54Z</time>
      </trkpt>
      <trkpt lat="44.61339" lon="6.94948">
        <ele>3048.7824707031</ele>
        <time>2011-07-15T08:33:02Z</time>
      </trkpt>
      <trkpt lat="44.61338" lon="6.94952">
        <ele>3049.7355957031</ele>
        <time>2011-07-15T08:33:10Z</time>
      </trkpt>
      <trkpt lat="44.6134" lon="6.94955">
        <ele>3050.8190917969</ele>
        <time>2011-07-15T08:33:19Z</time>
      </trkpt>
      <trkpt lat="44.61342" lon="6.94955">
        <ele>3052.0102539062</ele>
        <time>2011-07-15T08:33:26Z</time>
      </trkpt>
      <trkpt lat="44.61344" lon="6.94957">
        <ele>3053.4030761719</ele>
        <time>2011-07-15T08:33:34Z</time>
      </trkpt>
      <trkpt lat="44.61347" lon="6.94958">
        <ele>3054.8815917969</ele>
        <time>2011-07-15T08:33:43Z</time>
      </trkpt>
      <trkpt lat="44.61348" lon="6.94962">
        <ele>3056.04296875</ele>
        <time>2011-07-15T08:33:51Z</time>
      </trkpt>
      <trkpt lat="44.61348" lon="6.94965">
        <ele>3056.5358886719</ele>
        <time>2011-07-15T08:33:58Z</time>
      </trkpt>
      <trkpt lat="44.61351" lon="6.94968">
        <ele>3058.0258789062</ele>
        <time>2011-07-15T08:34:06Z</time>
      </trkpt>
      <trkpt lat="44.61352" lon="6.94972">
        <ele>3058.88671875</ele>
        <time>2011-07-15T08:34:13Z</time>
      </trkpt>
      <trkpt lat="44.61352" lon="6.94976">
        <ele>3060.2368164062</ele>
        <time>2011-07-15T08:34:21Z</time>
      </trkpt>
      <trkpt lat="44.61354" lon="6.94978">
        <ele>3061.8269042969</ele>
        <time>2011-07-15T08:34:28Z</time>
      </trkpt>
      <trkpt lat="44.61356" lon="6.9498">
        <ele>3062.9987792969</ele>
        <time>2011-07-15T08:34:35Z</time>
      </trkpt>
      <trkpt lat="44.61357" lon="6.94983">
        <ele>3064.9011230469</ele>
        <time>2011-07-15T08:34:43Z</time>
      </trkpt>
      <trkpt lat="44.6136" lon="6.94985">
        <ele>3066.7829589844</ele>
        <time>2011-07-15T08:34:52Z</time>
      </trkpt>
      <trkpt lat="44.61362" lon="6.94987">
        <ele>3068.4011230469</ele>
        <time>2011-07-15T08:34:59Z</time>
      </trkpt>
      <trkpt lat="44.61366" lon="6.94989">
        <ele>3070.1240234375</ele>
        <time>2011-07-15T08:35:08Z</time>
      </trkpt>
      <trkpt lat="44.61366" lon="6.94995">
        <ele>3072.5244140625</ele>
        <time>2011-07-15T08:35:16Z</time>
      </trkpt>
      <trkpt lat="44.61367" lon="6.94999">
        <ele>3074.4604492188</ele>
        <time>2011-07-15T08:35:24Z</time>
      </trkpt>
      <trkpt lat="44.61366" lon="6.95">
        <ele>3074.41015625</ele>
        <time>2011-07-15T08:35:34Z</time>
      </trkpt>
      <trkpt lat="44.61367" lon="6.94997">
        <ele>3073.8100585938</ele>
        <time>2011-07-15T08:35:39Z</time>
      </trkpt>
      <trkpt lat="44.61367" lon="6.94997">
        <ele>3073.7272949219</ele>
        <time>2011-07-15T08:35:50Z</time>
      </trkpt>
      <trkpt lat="44.61367" lon="6.94998">
        <ele>3073.8466796875</ele>
        <time>2011-07-15T08:35:53Z</time>
      </trkpt>
      <trkpt lat="44.61366" lon="6.95002">
        <ele>3074.849609375</ele>
        <time>2011-07-15T08:35:58Z</time>
      </trkpt>
      <trkpt lat="44.61366" lon="6.95002">
        <ele>3075.0034179688</ele>
        <time>2011-07-15T08:36:33Z</time>
      </trkpt>
      <trkpt lat="44.61367" lon="6.95002">
        <ele>3075.2844238281</ele>
        <time>2011-07-15T08:36:41Z</time>
      </trkpt>
      <trkpt lat="44.61368" lon="6.95">
        <ele>3075.146484375</ele>
        <time>2011-07-15T08:37:22Z</time>
      </trkpt>
      <trkpt lat="44.61368" lon="6.95">
        <ele>3074.9794921875</ele>
        <time>2011-07-15T08:37:32Z</time>
      </trkpt>
      <trkpt lat="44.61368" lon="6.95001">
        <ele>3075.1811523438</ele>
        <time>2011-07-15T08:37:42Z</time>
      </trkpt>
      <trkpt lat="44.61368" lon="6.95001">
        <ele>3075.1811523438</ele>
        <time>2011-07-15T08:37:50Z</time>
      </trkpt>
      <trkpt lat="44.6137" lon="6.95">
        <ele>3075.4929199219</ele>
        <time>2011-07-15T08:37:59Z</time>
      </trkpt>
      <trkpt lat="44.61375" lon="6.94997">
        <ele>3075.9724121094</ele>
        <time>2011-07-15T08:38:05Z</time>
      </trkpt>
      <trkpt lat="44.61379" lon="6.94993">
        <ele>3076.3703613281</ele>
        <time>2011-07-15T08:38:12Z</time>
      </trkpt>
      <trkpt lat="44.61381" lon="6.94992">
        <ele>3076.544921875</ele>
        <time>2011-07-15T08:38:24Z</time>
      </trkpt>
      <trkpt lat="44.61388" lon="6.94985">
        <ele>3077.4995117188</ele>
        <time>2011-07-15T08:38:32Z</time>
      </trkpt>
      <trkpt lat="44.61389" lon="6.94984">
        <ele>3077.5747070312</ele>
        <time>2011-07-15T08:38:33Z</time>
      </trkpt>
      <trkpt lat="44.61391" lon="6.94981">
        <ele>3077.5856933594</ele>
        <time>2011-07-15T08:38:36Z</time>
      </trkpt>
      <trkpt lat="44.61398" lon="6.94977">
        <ele>3078.478515625</ele>
        <time>2011-07-15T08:38:44Z</time>
      </trkpt>
      <trkpt lat="44.61403" lon="6.94972">
        <ele>3078.921875</ele>
        <time>2011-07-15T08:38:51Z</time>
      </trkpt>
      <trkpt lat="44.61406" lon="6.94973">
        <ele>3080.1262207031</ele>
        <time>2011-07-15T08:38:57Z</time>
      </trkpt>
      <trkpt lat="44.61411" lon="6.94971">
        <ele>3081.0979003906</ele>
        <time>2011-07-15T08:39:03Z</time>
      </trkpt>
      <trkpt lat="44.61414" lon="6.94969">
        <ele>3081.6569824219</ele>
        <time>2011-07-15T08:39:09Z</time>
      </trkpt>
      <trkpt lat="44.61416" lon="6.94966">
        <ele>3082.1840820312</ele>
        <time>2011-07-15T08:39:22Z</time>
      </trkpt>
      <trkpt lat="44.61423" lon="6.94959">
        <ele>3083.4921875</ele>
        <time>2011-07-15T08:39:30Z</time>
      </trkpt>
      <trkpt lat="44.6143" lon="6.94949">
        <ele>3084.697265625</ele>
        <time>2011-07-15T08:39:38Z</time>
      </trkpt>
      <trkpt lat="44.61434" lon="6.94942">
        <ele>3085.3366699219</ele>
        <time>2011-07-15T08:39:45Z</time>
      </trkpt>
      <trkpt lat="44.61435" lon="6.94934">
        <ele>3085.1232910156</ele>
        <time>2011-07-15T08:39:50Z</time>
      </trkpt>
      <trkpt lat="44.61441" lon="6.94928">
        <ele>3085.7778320312</ele>
        <time>2011-07-15T08:39:57Z</time>
      </trkpt>
      <trkpt lat="44.61442" lon="6.94927">
        <ele>3085.8793945312</ele>
        <time>2011-07-15T08:40:04Z</time>
      </trkpt>
      <trkpt lat="44.61444" lon="6.94923">
        <ele>3085.9423828125</ele>
        <time>2011-07-15T08:40:18Z</time>
      </trkpt>
      <trkpt lat="44.61445" lon="6.94923">
        <ele>3086.0483398438</ele>
        <time>2011-07-15T08:40:24Z</time>
      </trkpt>
      <trkpt lat="44.61448" lon="6.94918">
        <ele>3085.9597167969</ele>
        <time>2011-07-15T08:40:31Z</time>
      </trkpt>
      <trkpt lat="44.61452" lon="6.94913">
        <ele>3085.8159179688</ele>
        <time>2011-07-15T08:40:37Z</time>
      </trkpt>
      <trkpt lat="44.61455" lon="6.94912">
        <ele>3086.1975097656</ele>
        <time>2011-07-15T08:40:42Z</time>
      </trkpt>
      <trkpt lat="44.61455" lon="6.94913">
        <ele>3086.400390625</ele>
        <time>2011-07-15T08:40:52Z</time>
      </trkpt>
      <trkpt lat="44.61457" lon="6.94909">
        <ele>3085.9079589844</ele>
        <time>2011-07-15T08:40:59Z</time>
      </trkpt>
      <trkpt lat="44.61459" lon="6.94908">
        <ele>3085.9013671875</ele>
        <time>2011-07-15T08:41:02Z</time>
      </trkpt>
      <trkpt lat="44.61465" lon="6.94909">
        <ele>3086.9577636719</ele>
        <time>2011-07-15T08:41:09Z</time>
      </trkpt>
      <trkpt lat="44.61469" lon="6.94908">
        <ele>3087.2612304688</ele>
        <time>2011-07-15T08:41:16Z</time>
      </trkpt>
      <trkpt lat="44.61475" lon="6.9491">
        <ele>3089.5180664062</ele>
        <time>2011-07-15T08:41:23Z</time>
      </trkpt>
      <trkpt lat="44.6148" lon="6.94911">
        <ele>3091.4333496094</ele>
        <time>2011-07-15T08:41:30Z</time>
      </trkpt>
      <trkpt lat="44.61483" lon="6.94914">
        <ele>3093.4641113281</ele>
        <time>2011-07-15T08:41:35Z</time>
      </trkpt>
      <trkpt lat="44.61486" lon="6.94915">
        <ele>3095.1264648438</ele>
        <time>2011-07-15T08:41:41Z</time>
      </trkpt>
      <trkpt lat="44.6149" lon="6.94915">
        <ele>3096.6083984375</ele>
        <time>2011-07-15T08:41:48Z</time>
      </trkpt>
      <trkpt lat="44.61495" lon="6.94917">
        <ele>3099.2077636719</ele>
        <time>2011-07-15T08:41:56Z</time>
      </trkpt>
      <trkpt lat="44.61499" lon="6.94918">
        <ele>3100.8540039062</ele>
        <time>2011-07-15T08:42:04Z</time>
      </trkpt>
      <trkpt lat="44.61503" lon="6.94919">
        <ele>3101.9633789062</ele>
        <time>2011-07-15T08:42:12Z</time>
      </trkpt>
      <trkpt lat="44.61504" lon="6.94915">
        <ele>3101.0217285156</ele>
        <time>2011-07-15T08:42:20Z</time>
      </trkpt>
      <trkpt lat="44.61504" lon="6.94911">
        <ele>3098.8884277344</ele>
        <time>2011-07-15T08:42:26Z</time>
      </trkpt>
      <trkpt lat="44.61509" lon="6.9491">
        <ele>3100.1923828125</ele>
        <time>2011-07-15T08:42:34Z</time>
      </trkpt>
      <trkpt lat="44.61512" lon="6.94913">
        <ele>3102.2473144531</ele>
        <time>2011-07-15T08:42:41Z</time>
      </trkpt>
      <trkpt lat="44.61515" lon="6.94913">
        <ele>3103.7375488281</ele>
        <time>2011-07-15T08:42:48Z</time>
      </trkpt>
      <trkpt lat="44.6152" lon="6.94916">
        <ele>3106.6196289062</ele>
        <time>2011-07-15T08:42:56Z</time>
      </trkpt>
      <trkpt lat="44.61528" lon="6.94921">
        <ele>3108.5380859375</ele>
        <time>2011-07-15T08:43:05Z</time>
      </trkpt>
      <trkpt lat="44.61535" lon="6.94923">
        <ele>3112.4636230469</ele>
        <time>2011-07-15T08:43:13Z</time>
      </trkpt>
      <trkpt lat="44.61541" lon="6.94922">
        <ele>3115.8203125</ele>
        <time>2011-07-15T08:43:19Z</time>
      </trkpt>
      <trkpt lat="44.61546" lon="6.94923">
        <ele>3118.4777832031</ele>
        <time>2011-07-15T08:43:26Z</time>
      </trkpt>
      <trkpt lat="44.61552" lon="6.94924">
        <ele>3121.2783203125</ele>
        <time>2011-07-15T08:43:33Z</time>
      </trkpt>
      <trkpt lat="44.61555" lon="6.94923">
        <ele>3123.740234375</ele>
        <time>2011-07-15T08:43:39Z</time>
      </trkpt>
      <trkpt lat="44.61561" lon="6.94922">
        <ele>3125.552734375</ele>
        <time>2011-07-15T08:43:49Z</time>
      </trkpt>
      <trkpt lat="44.61565" lon="6.9492">
        <ele>3127.1206054688</ele>
        <time>2011-07-15T08:43:55Z</time>
      </trkpt>
      <trkpt lat="44.61571" lon="6.9492">
        <ele>3128.7360839844</ele>
        <time>2011-07-15T08:44:03Z</time>
      </trkpt>
      <trkpt lat="44.61575" lon="6.94916">
        <ele>3130.8127441406</ele>
        <time>2011-07-15T08:44:09Z</time>
      </trkpt>
      <trkpt lat="44.61578" lon="6.9491">
        <ele>3130.4616699219</ele>
        <time>2011-07-15T08:44:16Z</time>
      </trkpt>
      <trkpt lat="44.61581" lon="6.9491">
        <ele>3131.1481933594</ele>
        <time>2011-07-15T08:44:22Z</time>
      </trkpt>
      <trkpt lat="44.61584" lon="6.94908">
        <ele>3132.1584472656</ele>
        <time>2011-07-15T08:44:29Z</time>
      </trkpt>
      <trkpt lat="44.6159" lon="6.94908">
        <ele>3134.0895996094</ele>
        <time>2011-07-15T08:44:37Z</time>
      </trkpt>
      <trkpt lat="44.61596" lon="6.9491">
        <ele>3136.0461425781</ele>
        <time>2011-07-15T08:44:46Z</time>
      </trkpt>
      <trkpt lat="44.61598" lon="6.94912">
        <ele>3136.7600097656</ele>
        <time>2011-07-15T08:44:51Z</time>
      </trkpt>
      <trkpt lat="44.61602" lon="6.94909">
        <ele>3138.5200195312</ele>
        <time>2011-07-15T08:45:00Z</time>
      </trkpt>
      <trkpt lat="44.61607" lon="6.94908">
        <ele>3140.4382324219</ele>
        <time>2011-07-15T08:45:08Z</time>
      </trkpt>
      <trkpt lat="44.61612" lon="6.94907">
        <ele>3142.3195800781</ele>
        <time>2011-07-15T08:45:16Z</time>
      </trkpt>
      <trkpt lat="44.61615" lon="6.94903">
        <ele>3144.4040527344</ele>
        <time>2011-07-15T08:45:24Z</time>
      </trkpt>
      <trkpt lat="44.61619" lon="6.94902">
        <ele>3145.62890625</ele>
        <time>2011-07-15T08:45:31Z</time>
      </trkpt>
      <trkpt lat="44.61622" lon="6.949">
        <ele>3146.9775390625</ele>
        <time>2011-07-15T08:45:38Z</time>
      </trkpt>
      <trkpt lat="44.61625" lon="6.94897">
        <ele>3148.7155761719</ele>
        <time>2011-07-15T08:45:44Z</time>
      </trkpt>
      <trkpt lat="44.61629" lon="6.94897">
        <ele>3149.7185058594</ele>
        <time>2011-07-15T08:45:50Z</time>
      </trkpt>
      <trkpt lat="44.61634" lon="6.94897">
        <ele>3150.8566894531</ele>
        <time>2011-07-15T08:45:58Z</time>
      </trkpt>
      <trkpt lat="44.61639" lon="6.94897">
        <ele>3152.1750488281</ele>
        <time>2011-07-15T08:46:05Z</time>
      </trkpt>
      <trkpt lat="44.61646" lon="6.949">
        <ele>3153.53125</ele>
        <time>2011-07-15T08:46:13Z</time>
      </trkpt>
      <trkpt lat="44.61651" lon="6.94898">
        <ele>3155.486328125</ele>
        <time>2011-07-15T08:46:20Z</time>
      </trkpt>
      <trkpt lat="44.61654" lon="6.94897">
        <ele>3156.7875976562</ele>
        <time>2011-07-15T08:46:26Z</time>
      </trkpt>
      <trkpt lat="44.61658" lon="6.94896">
        <ele>3158.5075683594</ele>
        <time>2011-07-15T08:46:32Z</time>
      </trkpt>
      <trkpt lat="44.61662" lon="6.94897">
        <ele>3159.4226074219</ele>
        <time>2011-07-15T08:46:39Z</time>
      </trkpt>
      <trkpt lat="44.61666" lon="6.94899">
        <ele>3160.3857421875</ele>
        <time>2011-07-15T08:46:46Z</time>
      </trkpt>
      <trkpt lat="44.61668" lon="6.94895">
        <ele>3161.8544921875</ele>
        <time>2011-07-15T08:46:56Z</time>
      </trkpt>
      <trkpt lat="44.61668" lon="6.94894">
        <ele>3161.9953613281</ele>
        <time>2011-07-15T08:47:03Z</time>
      </trkpt>
      <trkpt lat="44.6167" lon="6.9489">
        <ele>3163.7858886719</ele>
        <time>2011-07-15T08:47:11Z</time>
      </trkpt>
      <trkpt lat="44.61674" lon="6.9489">
        <ele>3164.9084472656</ele>
        <time>2011-07-15T08:47:19Z</time>
      </trkpt>
      <trkpt lat="44.61676" lon="6.94891">
        <ele>3165.2312011719</ele>
        <time>2011-07-15T08:47:25Z</time>
      </trkpt>
      <trkpt lat="44.61679" lon="6.9489">
        <ele>3166.3503417969</ele>
        <time>2011-07-15T08:47:32Z</time>
      </trkpt>
      <trkpt lat="44.61681" lon="6.94893">
        <ele>3166.2131347656</ele>
        <time>2011-07-15T08:47:38Z</time>
      </trkpt>
      <trkpt lat="44.61683" lon="6.94892">
        <ele>3167.0764160156</ele>
        <time>2011-07-15T08:47:50Z</time>
      </trkpt>
      <trkpt lat="44.61685" lon="6.94889">
        <ele>3168.318359375</ele>
        <time>2011-07-15T08:47:56Z</time>
      </trkpt>
      <trkpt lat="44.61687" lon="6.94889">
        <ele>3168.8498535156</ele>
        <time>2011-07-15T08:48:03Z</time>
      </trkpt>
      <trkpt lat="44.61689" lon="6.9489">
        <ele>3169.2531738281</ele>
        <time>2011-07-15T08:48:09Z</time>
      </trkpt>
      <trkpt lat="44.61689" lon="6.94887">
        <ele>3170.0847167969</ele>
        <time>2011-07-15T08:48:15Z</time>
      </trkpt>
      <trkpt lat="44.6169" lon="6.94886">
        <ele>3170.6271972656</ele>
        <time>2011-07-15T08:48:22Z</time>
      </trkpt>
      <trkpt lat="44.61687" lon="6.94884">
        <ele>3170.4624023438</ele>
        <time>2011-07-15T08:48:27Z</time>
      </trkpt>
      <trkpt lat="44.61687" lon="6.9488">
        <ele>3171.9919433594</ele>
        <time>2011-07-15T08:48:35Z</time>
      </trkpt>
      <trkpt lat="44.61691" lon="6.9488">
        <ele>3172.8571777344</ele>
        <time>2011-07-15T08:48:43Z</time>
      </trkpt>
      <trkpt lat="44.61694" lon="6.9488">
        <ele>3173.6896972656</ele>
        <time>2011-07-15T08:48:52Z</time>
      </trkpt>
      <trkpt lat="44.61696" lon="6.94878">
        <ele>3175.5466308594</ele>
        <time>2011-07-15T08:49:00Z</time>
      </trkpt>
      <trkpt lat="44.61698" lon="6.94877">
        <ele>3177.5209960938</ele>
        <time>2011-07-15T08:49:08Z</time>
      </trkpt>
      <trkpt lat="44.617" lon="6.94876">
        <ele>3179.029296875</ele>
        <time>2011-07-15T08:49:15Z</time>
      </trkpt>
      <trkpt lat="44.61702" lon="6.94877">
        <ele>3180.0947265625</ele>
        <time>2011-07-15T08:49:23Z</time>
      </trkpt>
      <trkpt lat="44.61705" lon="6.94879">
        <ele>3181.1743164062</ele>
        <time>2011-07-15T08:49:31Z</time>
      </trkpt>
      <trkpt lat="44.61707" lon="6.94876">
        <ele>3183.7575683594</ele>
        <time>2011-07-15T08:49:39Z</time>
      </trkpt>
      <trkpt lat="44.61706" lon="6.94871">
        <ele>3184.9104003906</ele>
        <time>2011-07-15T08:49:47Z</time>
      </trkpt>
      <trkpt lat="44.61708" lon="6.9487">
        <ele>3186.6928710938</ele>
        <time>2011-07-15T08:49:53Z</time>
      </trkpt>
      <trkpt lat="44.61711" lon="6.9487">
        <ele>3188.5014648438</ele>
        <time>2011-07-15T08:50:01Z</time>
      </trkpt>
      <trkpt lat="44.61713" lon="6.9487">
        <ele>3190.4748535156</ele>
        <time>2011-07-15T08:50:07Z</time>
      </trkpt>
      <trkpt lat="44.61718" lon="6.94872">
        <ele>3193.4958496094</ele>
        <time>2011-07-15T08:50:17Z</time>
      </trkpt>
      <trkpt lat="44.61721" lon="6.94872">
        <ele>3194.9079589844</ele>
        <time>2011-07-15T08:50:23Z</time>
      </trkpt>
      <trkpt lat="44.61724" lon="6.94878">
        <ele>3194.48046875</ele>
        <time>2011-07-15T08:50:40Z</time>
      </trkpt>
      <trkpt lat="44.61728" lon="6.94882">
        <ele>3194.525390625</ele>
        <time>2011-07-15T08:50:48Z</time>
      </trkpt>
      <trkpt lat="44.61733" lon="6.94883">
        <ele>3195.9138183594</ele>
        <time>2011-07-15T08:50:56Z</time>
      </trkpt>
      <trkpt lat="44.61737" lon="6.94883">
        <ele>3196.8552246094</ele>
        <time>2011-07-15T08:51:01Z</time>
      </trkpt>
      <trkpt lat="44.6174" lon="6.94887">
        <ele>3196.4799804688</ele>
        <time>2011-07-15T08:51:06Z</time>
      </trkpt>
      <trkpt lat="44.61741" lon="6.94888">
        <ele>3196.4692382812</ele>
        <time>2011-07-15T08:51:11Z</time>
      </trkpt>
      <trkpt lat="44.61743" lon="6.94888">
        <ele>3196.9055175781</ele>
        <time>2011-07-15T08:51:17Z</time>
      </trkpt>
      <trkpt lat="44.61744" lon="6.9489">
        <ele>3196.7507324219</ele>
        <time>2011-07-15T08:51:23Z</time>
      </trkpt>
      <trkpt lat="44.61747" lon="6.94891">
        <ele>3197.2866210938</ele>
        <time>2011-07-15T08:51:30Z</time>
      </trkpt>
      <trkpt lat="44.6175" lon="6.94891">
        <ele>3198.1743164062</ele>
        <time>2011-07-15T08:51:37Z</time>
      </trkpt>
      <trkpt lat="44.61752" lon="6.94893">
        <ele>3198.8898925781</ele>
        <time>2011-07-15T08:51:44Z</time>
      </trkpt>
      <trkpt lat="44.61754" lon="6.94893">
        <ele>3199.9885253906</ele>
        <time>2011-07-15T08:51:51Z</time>
      </trkpt>
      <trkpt lat="44.61757" lon="6.94895">
        <ele>3200.9775390625</ele>
        <time>2011-07-15T08:51:57Z</time>
      </trkpt>
      <trkpt lat="44.61759" lon="6.94899">
        <ele>3200.66015625</ele>
        <time>2011-07-15T08:52:03Z</time>
      </trkpt>
      <trkpt lat="44.61762" lon="6.94903">
        <ele>3200.9526367188</ele>
        <time>2011-07-15T08:52:11Z</time>
      </trkpt>
      <trkpt lat="44.61765" lon="6.94903">
        <ele>3202.3344726562</ele>
        <time>2011-07-15T08:52:18Z</time>
      </trkpt>
      <trkpt lat="44.61768" lon="6.94905">
        <ele>3203.5959472656</ele>
        <time>2011-07-15T08:52:26Z</time>
      </trkpt>
      <trkpt lat="44.61771" lon="6.94906">
        <ele>3204.5363769531</ele>
        <time>2011-07-15T08:52:34Z</time>
      </trkpt>
      <trkpt lat="44.61773" lon="6.94907">
        <ele>3205.2231445312</ele>
        <time>2011-07-15T08:52:42Z</time>
      </trkpt>
      <trkpt lat="44.61776" lon="6.94911">
        <ele>3205.4016113281</ele>
        <time>2011-07-15T08:52:50Z</time>
      </trkpt>
      <trkpt lat="44.61779" lon="6.94912">
        <ele>3206.0612792969</ele>
        <time>2011-07-15T08:52:57Z</time>
      </trkpt>
      <trkpt lat="44.61781" lon="6.94916">
        <ele>3206.3703613281</ele>
        <time>2011-07-15T08:53:05Z</time>
      </trkpt>
      <trkpt lat="44.61784" lon="6.9492">
        <ele>3206.8266601562</ele>
        <time>2011-07-15T08:53:12Z</time>
      </trkpt>
      <trkpt lat="44.61786" lon="6.94921">
        <ele>3207.5219726562</ele>
        <time>2011-07-15T08:53:19Z</time>
      </trkpt>
      <trkpt lat="44.61788" lon="6.94922">
        <ele>3209.0825195312</ele>
        <time>2011-07-15T08:53:26Z</time>
      </trkpt>
      <trkpt lat="44.61789" lon="6.94923">
        <ele>3209.2060546875</ele>
        <time>2011-07-15T08:53:33Z</time>
      </trkpt>
      <trkpt lat="44.6179" lon="6.94923">
        <ele>3209.8393554688</ele>
        <time>2011-07-15T08:53:43Z</time>
      </trkpt>
      <trkpt lat="44.61793" lon="6.94927">
        <ele>3210.2412109375</ele>
        <time>2011-07-15T08:53:51Z</time>
      </trkpt>
      <trkpt lat="44.61796" lon="6.9493">
        <ele>3211.5388183594</ele>
        <time>2011-07-15T08:53:59Z</time>
      </trkpt>
      <trkpt lat="44.61799" lon="6.94934">
        <ele>3211.9714355469</ele>
        <time>2011-07-15T08:54:07Z</time>
      </trkpt>
      <trkpt lat="44.61803" lon="6.94938">
        <ele>3213.3774414062</ele>
        <time>2011-07-15T08:54:17Z</time>
      </trkpt>
      <trkpt lat="44.61805" lon="6.9494">
        <ele>3213.9182128906</ele>
        <time>2011-07-15T08:54:24Z</time>
      </trkpt>
      <trkpt lat="44.61806" lon="6.94943">
        <ele>3213.7915039062</ele>
        <time>2011-07-15T08:54:31Z</time>
      </trkpt>
      <trkpt lat="44.61808" lon="6.94947">
        <ele>3214.3879394531</ele>
        <time>2011-07-15T08:54:38Z</time>
      </trkpt>
      <trkpt lat="44.61811" lon="6.94949">
        <ele>3215.5654296875</ele>
        <time>2011-07-15T08:54:45Z</time>
      </trkpt>
      <trkpt lat="44.61813" lon="6.9495">
        <ele>3217.1794433594</ele>
        <time>2011-07-15T08:54:53Z</time>
      </trkpt>
      <trkpt lat="44.61816" lon="6.94951">
        <ele>3219.1682128906</ele>
        <time>2011-07-15T08:55:02Z</time>
      </trkpt>
      <trkpt lat="44.61816" lon="6.94951">
        <ele>3219.1240234375</ele>
        <time>2011-07-15T08:55:08Z</time>
      </trkpt>
      <trkpt lat="44.61818" lon="6.9495">
        <ele>3220.205078125</ele>
        <time>2011-07-15T08:55:18Z</time>
      </trkpt>
      <trkpt lat="44.6182" lon="6.94953">
        <ele>3221.3720703125</ele>
        <time>2011-07-15T08:55:25Z</time>
      </trkpt>
      <trkpt lat="44.61824" lon="6.94956">
        <ele>3223.61328125</ele>
        <time>2011-07-15T08:55:33Z</time>
      </trkpt>
      <trkpt lat="44.61827" lon="6.94957">
        <ele>3225.7229003906</ele>
        <time>2011-07-15T08:55:41Z</time>
      </trkpt>
      <trkpt lat="44.6183" lon="6.94961">
        <ele>3226.7697753906</ele>
        <time>2011-07-15T08:55:48Z</time>
      </trkpt>
      <trkpt lat="44.61832" lon="6.94966">
        <ele>3227.1838378906</ele>
        <time>2011-07-15T08:55:56Z</time>
      </trkpt>
      <trkpt lat="44.61835" lon="6.9497">
        <ele>3228.7775878906</ele>
        <time>2011-07-15T08:56:03Z</time>
      </trkpt>
      <trkpt lat="44.61836" lon="6.9497">
        <ele>3229.5930175781</ele>
        <time>2011-07-15T08:56:11Z</time>
      </trkpt>
      <trkpt lat="44.61837" lon="6.94968">
        <ele>3231.4221191406</ele>
        <time>2011-07-15T08:56:18Z</time>
      </trkpt>
      <trkpt lat="44.6184" lon="6.9497">
        <ele>3233.0734863281</ele>
        <time>2011-07-15T08:56:24Z</time>
      </trkpt>
      <trkpt lat="44.61841" lon="6.94972">
        <ele>3233.9587402344</ele>
        <time>2011-07-15T08:56:30Z</time>
      </trkpt>
      <trkpt lat="44.61844" lon="6.94974">
        <ele>3236.4926757812</ele>
        <time>2011-07-15T08:56:37Z</time>
      </trkpt>
      <trkpt lat="44.61847" lon="6.94973">
        <ele>3239.0051269531</ele>
        <time>2011-07-15T08:56:44Z</time>
      </trkpt>
      <trkpt lat="44.61848" lon="6.94974">
        <ele>3240.5017089844</ele>
        <time>2011-07-15T08:56:48Z</time>
      </trkpt>
      <trkpt lat="44.6185" lon="6.94977">
        <ele>3240.7355957031</ele>
        <time>2011-07-15T08:56:53Z</time>
      </trkpt>
      <trkpt lat="44.61851" lon="6.94978">
        <ele>3241.6201171875</ele>
        <time>2011-07-15T08:56:59Z</time>
      </trkpt>
      <trkpt lat="44.61852" lon="6.94977">
        <ele>3243.6337890625</ele>
        <time>2011-07-15T08:57:16Z</time>
      </trkpt>
      <trkpt lat="44.61854" lon="6.94976">
        <ele>3245.8774414062</ele>
        <time>2011-07-15T08:57:28Z</time>
      </trkpt>
      <trkpt lat="44.61856" lon="6.94978">
        <ele>3247.0725097656</ele>
        <time>2011-07-15T08:57:34Z</time>
      </trkpt>
      <trkpt lat="44.61858" lon="6.94979">
        <ele>3248.6748046875</ele>
        <time>2011-07-15T08:57:44Z</time>
      </trkpt>
      <trkpt lat="44.61859" lon="6.9498">
        <ele>3248.8159179688</ele>
        <time>2011-07-15T08:57:53Z</time>
      </trkpt>
      <trkpt lat="44.61859" lon="6.9498">
        <ele>3248.849609375</ele>
        <time>2011-07-15T08:57:58Z</time>
      </trkpt>
      <trkpt lat="44.61859" lon="6.94976">
        <ele>3250.3344726562</ele>
        <time>2011-07-15T08:58:07Z</time>
      </trkpt>
      <trkpt lat="44.6186" lon="6.94974">
        <ele>3252.1750488281</ele>
        <time>2011-07-15T08:58:16Z</time>
      </trkpt>
      <trkpt lat="44.61859" lon="6.94971">
        <ele>3252.4584960938</ele>
        <time>2011-07-15T08:58:23Z</time>
      </trkpt>
      <trkpt lat="44.61862" lon="6.9497">
        <ele>3255.7619628906</ele>
        <time>2011-07-15T08:58:30Z</time>
      </trkpt>
      <trkpt lat="44.61864" lon="6.94972">
        <ele>3258.2133789062</ele>
        <time>2011-07-15T08:58:38Z</time>
      </trkpt>
      <trkpt lat="44.61868" lon="6.94974">
        <ele>3261.822265625</ele>
        <time>2011-07-15T08:58:44Z</time>
      </trkpt>
      <trkpt lat="44.61869" lon="6.94976">
        <ele>3262.8266601562</ele>
        <time>2011-07-15T08:58:51Z</time>
      </trkpt>
      <trkpt lat="44.61871" lon="6.94977">
        <ele>3265.0710449219</ele>
        <time>2011-07-15T08:58:57Z</time>
      </trkpt>
      <trkpt lat="44.61872" lon="6.94974">
        <ele>3266.7502441406</ele>
        <time>2011-07-15T08:59:04Z</time>
      </trkpt>
      <trkpt lat="44.61873" lon="6.94974">
        <ele>3268.1430664062</ele>
        <time>2011-07-15T08:59:10Z</time>
      </trkpt>
      <trkpt lat="44.61874" lon="6.94976">
        <ele>3268.6801757812</ele>
        <time>2011-07-15T08:59:32Z</time>
      </trkpt>
      <trkpt lat="44.61876" lon="6.94978">
        <ele>3269.7028808594</ele>
        <time>2011-07-15T08:59:39Z</time>
      </trkpt>
      <trkpt lat="44.61877" lon="6.94979">
        <ele>3270.6279296875</ele>
        <time>2011-07-15T08:59:47Z</time>
      </trkpt>
      <trkpt lat="44.61878" lon="6.94981">
        <ele>3271.1564941406</ele>
        <time>2011-07-15T08:59:53Z</time>
      </trkpt>
      <trkpt lat="44.6188" lon="6.9498">
        <ele>3273.6909179688</ele>
        <time>2011-07-15T09:00:00Z</time>
      </trkpt>
      <trkpt lat="44.6188" lon="6.94982">
        <ele>3274.13671875</ele>
        <time>2011-07-15T09:00:04Z</time>
      </trkpt>
      <trkpt lat="44.61881" lon="6.94985">
        <ele>3273.5329589844</ele>
        <time>2011-07-15T09:00:11Z</time>
      </trkpt>
      <trkpt lat="44.61882" lon="6.94986">
        <ele>3273.8862304688</ele>
        <time>2011-07-15T09:00:16Z</time>
      </trkpt>
      <trkpt lat="44.61882" lon="6.94984">
        <ele>3275.416015625</ele>
        <time>2011-07-15T09:00:22Z</time>
      </trkpt>
      <trkpt lat="44.61883" lon="6.94983">
        <ele>3276.2119140625</ele>
        <time>2011-07-15T09:00:27Z</time>
      </trkpt>
      <trkpt lat="44.61882" lon="6.94981">
        <ele>3276.5151367188</ele>
        <time>2011-07-15T09:00:35Z</time>
      </trkpt>
      <trkpt lat="44.61884" lon="6.94979">
        <ele>3278.9475097656</ele>
        <time>2011-07-15T09:00:41Z</time>
      </trkpt>
      <trkpt lat="44.61886" lon="6.94979">
        <ele>3281.9814453125</ele>
        <time>2011-07-15T09:00:51Z</time>
      </trkpt>
      <trkpt lat="44.61886" lon="6.94976">
        <ele>3283.9685058594</ele>
        <time>2011-07-15T09:00:56Z</time>
      </trkpt>
      <trkpt lat="44.61889" lon="6.94971">
        <ele>3288.8518066406</ele>
        <time>2011-07-15T09:01:04Z</time>
      </trkpt>
      <trkpt lat="44.6189" lon="6.94974">
        <ele>3289.6484375</ele>
        <time>2011-07-15T09:01:11Z</time>
      </trkpt>
      <trkpt lat="44.61892" lon="6.94976">
        <ele>3290.4294433594</ele>
        <time>2011-07-15T09:01:20Z</time>
      </trkpt>
      <trkpt lat="44.61895" lon="6.9498">
        <ele>3290.9362792969</ele>
        <time>2011-07-15T09:01:29Z</time>
      </trkpt>
      <trkpt lat="44.61897" lon="6.94981">
        <ele>3292.5017089844</ele>
        <time>2011-07-15T09:01:37Z</time>
      </trkpt>
      <trkpt lat="44.61899" lon="6.94984">
        <ele>3293.5471191406</ele>
        <time>2011-07-15T09:01:45Z</time>
      </trkpt>
      <trkpt lat="44.61901" lon="6.94983">
        <ele>3295.6538085938</ele>
        <time>2011-07-15T09:01:53Z</time>
      </trkpt>
      <trkpt lat="44.61901" lon="6.9498">
        <ele>3297.8823242188</ele>
        <time>2011-07-15T09:02:01Z</time>
      </trkpt>
      <trkpt lat="44.61903" lon="6.94979">
        <ele>3299.3908691406</ele>
        <time>2011-07-15T09:02:07Z</time>
      </trkpt>
      <trkpt lat="44.61911" lon="6.94983">
        <ele>3306.6040039062</ele>
        <time>2011-07-15T09:02:41Z</time>
      </trkpt>
      <trkpt lat="44.61914" lon="6.94985">
        <ele>3308.279296875</ele>
        <time>2011-07-15T09:02:47Z</time>
      </trkpt>
      <trkpt lat="44.61916" lon="6.94988">
        <ele>3309.5466308594</ele>
        <time>2011-07-15T09:02:57Z</time>
      </trkpt>
      <trkpt lat="44.61919" lon="6.94988">
        <ele>3312.2368164062</ele>
        <time>2011-07-15T09:03:04Z</time>
      </trkpt>
      <trkpt lat="44.61921" lon="6.94987">
        <ele>3314.3723144531</ele>
        <time>2011-07-15T09:03:09Z</time>
      </trkpt>
      <trkpt lat="44.61922" lon="6.9499">
        <ele>3314.7966308594</ele>
        <time>2011-07-15T09:03:20Z</time>
      </trkpt>
      <trkpt lat="44.61924" lon="6.94992">
        <ele>3315.7309570312</ele>
        <time>2011-07-15T09:03:24Z</time>
      </trkpt>
      <trkpt lat="44.61928" lon="6.94989">
        <ele>3320.5424804688</ele>
        <time>2011-07-15T09:03:32Z</time>
      </trkpt>
      <trkpt lat="44.61931" lon="6.94989">
        <ele>3323.201171875</ele>
        <time>2011-07-15T09:03:38Z</time>
      </trkpt>
      <trkpt lat="44.61935" lon="6.94988">
        <ele>3326.4653320312</ele>
        <time>2011-07-15T09:03:46Z</time>
      </trkpt>
      <trkpt lat="44.61937" lon="6.94989">
        <ele>3328.4072265625</ele>
        <time>2011-07-15T09:03:52Z</time>
      </trkpt>
      <trkpt lat="44.6194" lon="6.94993">
        <ele>3329.4826660156</ele>
        <time>2011-07-15T09:04:02Z</time>
      </trkpt>
      <trkpt lat="44.61941" lon="6.94996">
        <ele>3329.9797363281</ele>
        <time>2011-07-15T09:04:10Z</time>
      </trkpt>
      <trkpt lat="44.61946" lon="6.94998">
        <ele>3332.3181152344</ele>
        <time>2011-07-15T09:04:22Z</time>
      </trkpt>
      <trkpt lat="44.61948" lon="6.95">
        <ele>3331.416015625</ele>
        <time>2011-07-15T09:04:29Z</time>
      </trkpt>
      <trkpt lat="44.61949" lon="6.95">
        <ele>3331.357421875</ele>
        <time>2011-07-15T09:04:51Z</time>
      </trkpt>
      <trkpt lat="44.61949" lon="6.95">
        <ele>3331.2751464844</ele>
        <time>2011-07-15T09:04:57Z</time>
      </trkpt>
      <trkpt lat="44.6195" lon="6.94996">
        <ele>3332.1162109375</ele>
        <time>2011-07-15T09:05:02Z</time>
      </trkpt>
      <trkpt lat="44.6195" lon="6.94994">
        <ele>3332.716796875</ele>
        <time>2011-07-15T09:05:08Z</time>
      </trkpt>
      <trkpt lat="44.61948" lon="6.94996">
        <ele>3332.5126953125</ele>
        <time>2011-07-15T09:05:34Z</time>
      </trkpt>
      <trkpt lat="44.6195" lon="6.94995">
        <ele>3332.5163574219</ele>
        <time>2011-07-15T09:05:40Z</time>
      </trkpt>
      <trkpt lat="44.6195" lon="6.94991">
        <ele>3333.4226074219</ele>
        <time>2011-07-15T09:05:48Z</time>
      </trkpt>
      <trkpt lat="44.61951" lon="6.94988">
        <ele>3334.0317382812</ele>
        <time>2011-07-15T09:05:55Z</time>
      </trkpt>
      <trkpt lat="44.61954" lon="6.9499">
        <ele>3332.9306640625</ele>
        <time>2011-07-15T09:06:01Z</time>
      </trkpt>
      <trkpt lat="44.61956" lon="6.9499">
        <ele>3332.388671875</ele>
        <time>2011-07-15T09:06:06Z</time>
      </trkpt>
      <trkpt lat="44.61958" lon="6.9499">
        <ele>3332.0444335938</ele>
        <time>2011-07-15T09:06:12Z</time>
      </trkpt>
      <trkpt lat="44.61959" lon="6.94986">
        <ele>3332.8876953125</ele>
        <time>2011-07-15T09:06:22Z</time>
      </trkpt>
      <trkpt lat="44.61959" lon="6.94985">
        <ele>3333.22265625</ele>
        <time>2011-07-15T09:06:28Z</time>
      </trkpt>
      <trkpt lat="44.6196" lon="6.94984">
        <ele>3333.2204589844</ele>
        <time>2011-07-15T09:06:34Z</time>
      </trkpt>
      <trkpt lat="44.6196" lon="6.94981">
        <ele>3334.0012207031</ele>
        <time>2011-07-15T09:06:54Z</time>
      </trkpt>
      <trkpt lat="44.6196" lon="6.94979">
        <ele>3334.3732910156</ele>
        <time>2011-07-15T09:07:00Z</time>
      </trkpt>
      <trkpt lat="44.6196" lon="6.94976">
        <ele>3335.2670898438</ele>
        <time>2011-07-15T09:07:07Z</time>
      </trkpt>
      <trkpt lat="44.61961" lon="6.94974">
        <ele>3335.4338378906</ele>
        <time>2011-07-15T09:07:13Z</time>
      </trkpt>
      <trkpt lat="44.61961" lon="6.94973">
        <ele>3335.6450195312</ele>
        <time>2011-07-15T09:07:19Z</time>
      </trkpt>
      <trkpt lat="44.61961" lon="6.94972">
        <ele>3335.8034667969</ele>
        <time>2011-07-15T09:07:23Z</time>
      </trkpt>
      <trkpt lat="44.61961" lon="6.94972">
        <ele>3335.734375</ele>
        <time>2011-07-15T09:07:29Z</time>
      </trkpt>
      <trkpt lat="44.61962" lon="6.94971">
        <ele>3335.3828125</ele>
        <time>2011-07-15T09:07:37Z</time>
      </trkpt>
      <trkpt lat="44.61961" lon="6.9497">
        <ele>3334.8620605469</ele>
        <time>2011-07-15T09:07:42Z</time>
      </trkpt>
      <trkpt lat="44.61961" lon="6.94968">
        <ele>3334.5727539062</ele>
        <time>2011-07-15T09:07:45Z</time>
      </trkpt>
      <trkpt lat="44.61961" lon="6.94969">
        <ele>3334.7600097656</ele>
        <time>2011-07-15T09:07:54Z</time>
      </trkpt>
      <trkpt lat="44.6196" lon="6.94968">
        <ele>3334.6115722656</ele>
        <time>2011-07-15T09:07:59Z</time>
      </trkpt>
      <trkpt lat="44.61961" lon="6.94967">
        <ele>3334.3698730469</ele>
        <time>2011-07-15T09:08:05Z</time>
      </trkpt>
      <trkpt lat="44.61962" lon="6.94968">
        <ele>3334.3762207031</ele>
        <time>2011-07-15T09:08:10Z</time>
      </trkpt>
      <trkpt lat="44.61962" lon="6.9497">
        <ele>3334.8195800781</ele>
        <time>2011-07-15T09:08:20Z</time>
      </trkpt>
      <trkpt lat="44.61963" lon="6.9497">
        <ele>3334.8642578125</ele>
        <time>2011-07-15T09:08:26Z</time>
      </trkpt>
      <trkpt lat="44.61963" lon="6.94971">
        <ele>3334.9692382812</ele>
        <time>2011-07-15T09:08:34Z</time>
      </trkpt>
      <trkpt lat="44.61963" lon="6.94971">
        <ele>3334.8322753906</ele>
        <time>2011-07-15T09:08:45Z</time>
      </trkpt>
      <trkpt lat="44.61963" lon="6.9497">
        <ele>3334.6682128906</ele>
        <time>2011-07-15T09:08:53Z</time>
      </trkpt>
      <trkpt lat="44.61963" lon="6.9497">
        <ele>3334.6533203125</ele>
        <time>2011-07-15T09:08:54Z</time>
      </trkpt>
      <trkpt lat="44.61963" lon="6.94968">
        <ele>3333.9714355469</ele>
        <time>2011-07-15T09:09:23Z</time>
      </trkpt>
      <trkpt lat="44.61963" lon="6.94968">
        <ele>3333.9567871094</ele>
        <time>2011-07-15T09:09:35Z</time>
      </trkpt>
      <trkpt lat="44.61961" lon="6.94967">
        <ele>3334.1513671875</ele>
        <time>2011-07-15T09:09:39Z</time>
      </trkpt>
      <trkpt lat="44.61958" lon="6.94962">
        <ele>3332.8857421875</ele>
        <time>2011-07-15T09:09:45Z</time>
      </trkpt>
      <trkpt lat="44.61957" lon="6.94961">
        <ele>3332.8122558594</ele>
        <time>2011-07-15T09:09:50Z</time>
      </trkpt>
      <trkpt lat="44.61958" lon="6.94962">
        <ele>3333.0256347656</ele>
        <time>2011-07-15T09:10:02Z</time>
      </trkpt>
      <trkpt lat="44.61956" lon="6.94962">
        <ele>3333.4216308594</ele>
        <time>2011-07-15T09:10:08Z</time>
      </trkpt>
      <trkpt lat="44.61955" lon="6.94964">
        <ele>3334.349609375</ele>
        <time>2011-07-15T09:10:14Z</time>
      </trkpt>
      <trkpt lat="44.61953" lon="6.94964">
        <ele>3334.7055664062</ele>
        <time>2011-07-15T09:10:17Z</time>
      </trkpt>
      <trkpt lat="44.61953" lon="6.94965">
        <ele>3335.1650390625</ele>
        <time>2011-07-15T09:10:23Z</time>
      </trkpt>
      <trkpt lat="44.61953" lon="6.94964">
        <ele>3334.9118652344</ele>
        <time>2011-07-15T09:10:29Z</time>
      </trkpt>
      <trkpt lat="44.61955" lon="6.94964">
        <ele>3334.1357421875</ele>
        <time>2011-07-15T09:10:37Z</time>
      </trkpt>
      <trkpt lat="44.61959" lon="6.94962">
        <ele>3332.9387207031</ele>
        <time>2011-07-15T09:10:42Z</time>
      </trkpt>
      <trkpt lat="44.6196" lon="6.94967">
        <ele>3334.3483886719</ele>
        <time>2011-07-15T09:10:47Z</time>
      </trkpt>
      <trkpt lat="44.61959" lon="6.94968">
        <ele>3334.91015625</ele>
        <time>2011-07-15T09:10:51Z</time>
      </trkpt>
      <trkpt lat="44.6196" lon="6.94968">
        <ele>3334.6428222656</ele>
        <time>2011-07-15T09:11:02Z</time>
      </trkpt>
      <trkpt lat="44.61959" lon="6.94968">
        <ele>3334.8623046875</ele>
        <time>2011-07-15T09:11:27Z</time>
      </trkpt>
      <trkpt lat="44.6196" lon="6.94968">
        <ele>3334.6652832031</ele>
        <time>2011-07-15T09:11:29Z</time>
      </trkpt>
      <trkpt lat="44.6196" lon="6.94968">
        <ele>3334.6428222656</ele>
        <time>2011-07-15T09:11:30Z</time>
      </trkpt>
      <trkpt lat="44.6196" lon="6.94969">
        <ele>3335.1564941406</ele>
        <time>2011-07-15T09:11:32Z</time>
      </trkpt>
      <trkpt lat="44.6196" lon="6.94969">
        <ele>3334.9731445312</ele>
        <time>2011-07-15T09:11:42Z</time>
      </trkpt>
      <trkpt lat="44.6196" lon="6.94969">
        <ele>3334.9887695312</ele>
        <time>2011-07-15T09:11:43Z</time>
      </trkpt>
      <trkpt lat="44.6196" lon="6.94969">
        <ele>3335.1564941406</ele>
        <time>2011-07-15T09:11:50Z</time>
      </trkpt>
      <trkpt lat="44.6196" lon="6.9497">
        <ele>3335.2197265625</ele>
        <time>2011-07-15T09:11:55Z</time>
      </trkpt>
      <trkpt lat="44.6196" lon="6.94969">
        <ele>3335.0139160156</ele>
        <time>2011-07-15T09:12:06Z</time>
      </trkpt>
      <trkpt lat="44.61961" lon="6.94967">
        <ele>3334.1044921875</ele>
        <time>2011-07-15T09:12:13Z</time>
      </trkpt>
      <trkpt lat="44.61961" lon="6.94967">
        <ele>3334.0576171875</ele>
        <time>2011-07-15T09:12:25Z</time>
      </trkpt>
      <trkpt lat="44.6196" lon="6.94966">
        <ele>3334.0925292969</ele>
        <time>2011-07-15T09:12:37Z</time>
      </trkpt>
      <trkpt lat="44.6196" lon="6.94968">
        <ele>3334.6115722656</ele>
        <time>2011-07-15T09:12:43Z</time>
      </trkpt>
      <trkpt lat="44.6196" lon="6.94969">
        <ele>3334.8315429688</ele>
        <time>2011-07-15T09:12:49Z</time>
      </trkpt>
      <trkpt lat="44.61961" lon="6.94969">
        <ele>3334.7287597656</ele>
        <time>2011-07-15T09:12:59Z</time>
      </trkpt>
      <trkpt lat="44.61961" lon="6.94968">
        <ele>3334.5883789062</ele>
        <time>2011-07-15T09:13:19Z</time>
      </trkpt>
      <trkpt lat="44.61961" lon="6.94969">
        <ele>3334.6162109375</ele>
        <time>2011-07-15T09:13:52Z</time>
      </trkpt>
      <trkpt lat="44.61961" lon="6.94969">
        <ele>3334.6469726562</ele>
        <time>2011-07-15T09:13:55Z</time>
      </trkpt>
      <trkpt lat="44.61961" lon="6.94969">
        <ele>3334.7346191406</ele>
        <time>2011-07-15T09:14:03Z</time>
      </trkpt>
      <trkpt lat="44.61961" lon="6.94968">
        <ele>3334.4162597656</ele>
        <time>2011-07-15T09:14:29Z</time>
      </trkpt>
      <trkpt lat="44.61961" lon="6.94968">
        <ele>3334.4558105469</ele>
        <time>2011-07-15T09:14:38Z</time>
      </trkpt>
      <trkpt lat="44.61961" lon="6.94968">
        <ele>3334.5178222656</ele>
        <time>2011-07-15T09:14:42Z</time>
      </trkpt>
      <trkpt lat="44.61961" lon="6.94968">
        <ele>3334.5883789062</ele>
        <time>2011-07-15T09:14:45Z</time>
      </trkpt>
      <trkpt lat="44.6196" lon="6.94967">
        <ele>3334.2497558594</ele>
        <time>2011-07-15T09:14:53Z</time>
      </trkpt>
      <trkpt lat="44.61959" lon="6.94963">
        <ele>3333.0834960938</ele>
        <time>2011-07-15T09:14:59Z</time>
      </trkpt>
      <trkpt lat="44.61958" lon="6.94963">
        <ele>3333.3732910156</ele>
        <time>2011-07-15T09:15:03Z</time>
      </trkpt>
      <trkpt lat="44.61957" lon="6.94963">
        <ele>3333.4956054688</ele>
        <time>2011-07-15T09:15:16Z</time>
      </trkpt>
      <trkpt lat="44.61957" lon="6.94963">
        <ele>3333.5456542969</ele>
        <time>2011-07-15T09:15:21Z</time>
      </trkpt>
      <trkpt lat="44.61957" lon="6.94963">
        <ele>3333.595703125</ele>
        <time>2011-07-15T09:15:26Z</time>
      </trkpt>
      <trkpt lat="44.61955" lon="6.94964">
        <ele>3334.3083496094</ele>
        <time>2011-07-15T09:15:44Z</time>
      </trkpt>
      <trkpt lat="44.61955" lon="6.94965">
        <ele>3334.6708984375</ele>
        <time>2011-07-15T09:15:50Z</time>
      </trkpt>
      <trkpt lat="44.61956" lon="6.94966">
        <ele>3334.7810058594</ele>
        <time>2011-07-15T09:15:56Z</time>
      </trkpt>
      <trkpt lat="44.61955" lon="6.94965">
        <ele>3334.7744140625</ele>
        <time>2011-07-15T09:16:10Z</time>
      </trkpt>
      <trkpt lat="44.61955" lon="6.94965">
        <ele>3334.7666015625</ele>
        <time>2011-07-15T09:16:23Z</time>
      </trkpt>
      <trkpt lat="44.61955" lon="6.94965">
        <ele>3334.7839355469</ele>
        <time>2011-07-15T09:16:34Z</time>
      </trkpt>
      <trkpt lat="44.61955" lon="6.94966">
        <ele>3335.1540527344</ele>
        <time>2011-07-15T09:16:50Z</time>
      </trkpt>
      <trkpt lat="44.61955" lon="6.94964">
        <ele>3334.4291992188</ele>
        <time>2011-07-15T09:17:22Z</time>
      </trkpt>
      <trkpt lat="44.61958" lon="6.94963">
        <ele>3333.326171875</ele>
        <time>2011-07-15T09:17:28Z</time>
      </trkpt>
      <trkpt lat="44.61961" lon="6.94968">
        <ele>3334.5571289062</ele>
        <time>2011-07-15T09:17:33Z</time>
      </trkpt>
      <trkpt lat="44.61963" lon="6.94971">
        <ele>3334.9470214844</ele>
        <time>2011-07-15T09:17:39Z</time>
      </trkpt>
      <trkpt lat="44.61963" lon="6.94973">
        <ele>3335.3195800781</ele>
        <time>2011-07-15T09:17:44Z</time>
      </trkpt>
      <trkpt lat="44.61962" lon="6.94973">
        <ele>3335.4992675781</ele>
        <time>2011-07-15T09:17:50Z</time>
      </trkpt>
      <trkpt lat="44.61961" lon="6.94974">
        <ele>3335.29296875</ele>
        <time>2011-07-15T09:17:56Z</time>
      </trkpt>
      <trkpt lat="44.61961" lon="6.94974">
        <ele>3335.2919921875</ele>
        <time>2011-07-15T09:18:01Z</time>
      </trkpt>
      <trkpt lat="44.61961" lon="6.94974">
        <ele>3335.5275878906</ele>
        <time>2011-07-15T09:18:06Z</time>
      </trkpt>
      <trkpt lat="44.61961" lon="6.94976">
        <ele>3334.7565917969</ele>
        <time>2011-07-15T09:18:14Z</time>
      </trkpt>
      <trkpt lat="44.61962" lon="6.9498">
        <ele>3333.8642578125</ele>
        <time>2011-07-15T09:18:21Z</time>
      </trkpt>
      <trkpt lat="44.61961" lon="6.94984">
        <ele>3332.9201660156</ele>
        <time>2011-07-15T09:18:30Z</time>
      </trkpt>
      <trkpt lat="44.61961" lon="6.94986">
        <ele>3332.4631347656</ele>
        <time>2011-07-15T09:18:35Z</time>
      </trkpt>
      <trkpt lat="44.61961" lon="6.94988">
        <ele>3332.1359863281</ele>
        <time>2011-07-15T09:18:41Z</time>
      </trkpt>
      <trkpt lat="44.61961" lon="6.94989">
        <ele>3331.7956542969</ele>
        <time>2011-07-15T09:18:45Z</time>
      </trkpt>
      <trkpt lat="44.61958" lon="6.94989">
        <ele>3332.2727050781</ele>
        <time>2011-07-15T09:18:52Z</time>
      </trkpt>
      <trkpt lat="44.61955" lon="6.94987">
        <ele>3333.5610351562</ele>
        <time>2011-07-15T09:19:00Z</time>
      </trkpt>
      <trkpt lat="44.61951" lon="6.94987">
        <ele>3334.3779296875</ele>
        <time>2011-07-15T09:19:07Z</time>
      </trkpt>
      <trkpt lat="44.61951" lon="6.94987">
        <ele>3334.2319335938</ele>
        <time>2011-07-15T09:19:16Z</time>
      </trkpt>
      <trkpt lat="44.61952" lon="6.94987">
        <ele>3334.2145996094</ele>
        <time>2011-07-15T09:19:22Z</time>
      </trkpt>
      <trkpt lat="44.61953" lon="6.94988">
        <ele>3333.6650390625</ele>
        <time>2011-07-15T09:19:26Z</time>
      </trkpt>
      <trkpt lat="44.61952" lon="6.94992">
        <ele>3332.9323730469</ele>
        <time>2011-07-15T09:19:57Z</time>
      </trkpt>
      <trkpt lat="44.6195" lon="6.94996">
        <ele>3332.1345214844</ele>
        <time>2011-07-15T09:20:03Z</time>
      </trkpt>
      <trkpt lat="44.61951" lon="6.94996">
        <ele>3331.9060058594</ele>
        <time>2011-07-15T09:20:07Z</time>
      </trkpt>
      <trkpt lat="44.61951" lon="6.94996">
        <ele>3331.9968261719</ele>
        <time>2011-07-15T09:20:15Z</time>
      </trkpt>
      <trkpt lat="44.6195" lon="6.94998">
        <ele>3331.5417480469</ele>
        <time>2011-07-15T09:20:19Z</time>
      </trkpt>
      <trkpt lat="44.61949" lon="6.94998">
        <ele>3331.7355957031</ele>
        <time>2011-07-15T09:20:27Z</time>
      </trkpt>
      <trkpt lat="44.61949" lon="6.94998">
        <ele>3331.7534179688</ele>
        <time>2011-07-15T09:20:34Z</time>
      </trkpt>
      <trkpt lat="44.61948" lon="6.94998">
        <ele>3331.7578125</ele>
        <time>2011-07-15T09:20:45Z</time>
      </trkpt>
      <trkpt lat="44.61948" lon="6.94999">
        <ele>3331.7749023438</ele>
        <time>2011-07-15T09:20:48Z</time>
      </trkpt>
      <trkpt lat="44.61948" lon="6.94998">
        <ele>3331.8850097656</ele>
        <time>2011-07-15T09:20:49Z</time>
      </trkpt>
      <trkpt lat="44.61947" lon="6.94998">
        <ele>3332.1196289062</ele>
        <time>2011-07-15T09:20:52Z</time>
      </trkpt>
      <trkpt lat="44.61946" lon="6.94997">
        <ele>3332.6845703125</ele>
        <time>2011-07-15T09:20:56Z</time>
      </trkpt>
      <trkpt lat="44.61945" lon="6.94996">
        <ele>3332.9375</ele>
        <time>2011-07-15T09:20:57Z</time>
      </trkpt>
      <trkpt lat="44.61942" lon="6.94992">
        <ele>3332.3840332031</ele>
        <time>2011-07-15T09:21:05Z</time>
      </trkpt>
      <trkpt lat="44.61939" lon="6.94989">
        <ele>3330.4692382812</ele>
        <time>2011-07-15T09:21:11Z</time>
      </trkpt>
      <trkpt lat="44.61936" lon="6.94987">
        <ele>3327.9462890625</ele>
        <time>2011-07-15T09:21:18Z</time>
      </trkpt>
      <trkpt lat="44.6193" lon="6.94987">
        <ele>3322.7211914062</ele>
        <time>2011-07-15T09:21:24Z</time>
      </trkpt>
      <trkpt lat="44.61926" lon="6.9499">
        <ele>3318.3823242188</ele>
        <time>2011-07-15T09:21:31Z</time>
      </trkpt>
      <trkpt lat="44.61923" lon="6.9499">
        <ele>3315.193359375</ele>
        <time>2011-07-15T09:21:36Z</time>
      </trkpt>
      <trkpt lat="44.6192" lon="6.94989">
        <ele>3313.2814941406</ele>
        <time>2011-07-15T09:21:42Z</time>
      </trkpt>
      <trkpt lat="44.61917" lon="6.94985">
        <ele>3311.4562988281</ele>
        <time>2011-07-15T09:21:49Z</time>
      </trkpt>
      <trkpt lat="44.61912" lon="6.94979">
        <ele>3309.1989746094</ele>
        <time>2011-07-15T09:21:56Z</time>
      </trkpt>
      <trkpt lat="44.61909" lon="6.94975">
        <ele>3308.0126953125</ele>
        <time>2011-07-15T09:22:02Z</time>
      </trkpt>
      <trkpt lat="44.61905" lon="6.94978">
        <ele>3302.7001953125</ele>
        <time>2011-07-15T09:22:08Z</time>
      </trkpt>
      <trkpt lat="44.61901" lon="6.94982">
        <ele>3296.71875</ele>
        <time>2011-07-15T09:22:14Z</time>
      </trkpt>
      <trkpt lat="44.61898" lon="6.9498">
        <ele>3293.9797363281</ele>
        <time>2011-07-15T09:22:18Z</time>
      </trkpt>
      <trkpt lat="44.61896" lon="6.94979">
        <ele>3292.8801269531</ele>
        <time>2011-07-15T09:22:20Z</time>
      </trkpt>
      <trkpt lat="44.6189" lon="6.9497">
        <ele>3290.5520019531</ele>
        <time>2011-07-15T09:22:29Z</time>
      </trkpt>
      <trkpt lat="44.61885" lon="6.94972">
        <ele>3284.7978515625</ele>
        <time>2011-07-15T09:22:34Z</time>
      </trkpt>
      <trkpt lat="44.61882" lon="6.94969">
        <ele>3282.263671875</ele>
        <time>2011-07-15T09:22:39Z</time>
      </trkpt>
      <trkpt lat="44.61878" lon="6.94967">
        <ele>3277.5212402344</ele>
        <time>2011-07-15T09:22:46Z</time>
      </trkpt>
      <trkpt lat="44.61873" lon="6.94964">
        <ele>3271.8117675781</ele>
        <time>2011-07-15T09:22:53Z</time>
      </trkpt>
      <trkpt lat="44.61868" lon="6.94958">
        <ele>3268.1096191406</ele>
        <time>2011-07-15T09:22:59Z</time>
      </trkpt>
      <trkpt lat="44.61866" lon="6.94957">
        <ele>3266.2321777344</ele>
        <time>2011-07-15T09:23:05Z</time>
      </trkpt>
      <trkpt lat="44.61867" lon="6.94958">
        <ele>3266.4926757812</ele>
        <time>2011-07-15T09:23:11Z</time>
      </trkpt>
      <trkpt lat="44.61867" lon="6.94958">
        <ele>3266.4750976562</ele>
        <time>2011-07-15T09:23:13Z</time>
      </trkpt>
      <trkpt lat="44.61864" lon="6.94954">
        <ele>3263.9582519531</ele>
        <time>2011-07-15T09:23:30Z</time>
      </trkpt>
      <trkpt lat="44.61859" lon="6.9495">
        <ele>3259.5815429688</ele>
        <time>2011-07-15T09:23:36Z</time>
      </trkpt>
      <trkpt lat="44.61855" lon="6.94949">
        <ele>3255.9077148438</ele>
        <time>2011-07-15T09:23:42Z</time>
      </trkpt>
      <trkpt lat="44.61852" lon="6.94946">
        <ele>3253.3977050781</ele>
        <time>2011-07-15T09:23:46Z</time>
      </trkpt>
      <trkpt lat="44.61848" lon="6.94937">
        <ele>3251.92578125</ele>
        <time>2011-07-15T09:23:53Z</time>
      </trkpt>
      <trkpt lat="44.61846" lon="6.94935">
        <ele>3250.3176269531</ele>
        <time>2011-07-15T09:23:55Z</time>
      </trkpt>
      <trkpt lat="44.6184" lon="6.94932">
        <ele>3244.6435546875</ele>
        <time>2011-07-15T09:24:01Z</time>
      </trkpt>
      <trkpt lat="44.61835" lon="6.94928">
        <ele>3240.8073730469</ele>
        <time>2011-07-15T09:24:07Z</time>
      </trkpt>
      <trkpt lat="44.6183" lon="6.94925">
        <ele>3237.287109375</ele>
        <time>2011-07-15T09:24:13Z</time>
      </trkpt>
      <trkpt lat="44.61828" lon="6.94922">
        <ele>3236.599609375</ele>
        <time>2011-07-15T09:24:18Z</time>
      </trkpt>
      <trkpt lat="44.61824" lon="6.94918">
        <ele>3235.2485351562</ele>
        <time>2011-07-15T09:24:23Z</time>
      </trkpt>
      <trkpt lat="44.61821" lon="6.94914">
        <ele>3234.3349609375</ele>
        <time>2011-07-15T09:24:28Z</time>
      </trkpt>
      <trkpt lat="44.61818" lon="6.94909">
        <ele>3233.5869140625</ele>
        <time>2011-07-15T09:24:33Z</time>
      </trkpt>
      <trkpt lat="44.61811" lon="6.94905">
        <ele>3229.8740234375</ele>
        <time>2011-07-15T09:24:40Z</time>
      </trkpt>
      <trkpt lat="44.61809" lon="6.94903">
        <ele>3228.7690429688</ele>
        <time>2011-07-15T09:24:43Z</time>
      </trkpt>
      <trkpt lat="44.61805" lon="6.94895">
        <ele>3228.5187988281</ele>
        <time>2011-07-15T09:24:49Z</time>
      </trkpt>
      <trkpt lat="44.61802" lon="6.94893">
        <ele>3227.7854003906</ele>
        <time>2011-07-15T09:24:52Z</time>
      </trkpt>
      <trkpt lat="44.61798" lon="6.94892">
        <ele>3225.30859375</ele>
        <time>2011-07-15T09:24:56Z</time>
      </trkpt>
      <trkpt lat="44.61794" lon="6.94888">
        <ele>3224.2243652344</ele>
        <time>2011-07-15T09:25:00Z</time>
      </trkpt>
      <trkpt lat="44.61791" lon="6.94889">
        <ele>3222.0031738281</ele>
        <time>2011-07-15T09:25:18Z</time>
      </trkpt>
      <trkpt lat="44.61789" lon="6.94893">
        <ele>3219.5881347656</ele>
        <time>2011-07-15T09:25:22Z</time>
      </trkpt>
      <trkpt lat="44.61789" lon="6.94897">
        <ele>3218.3706054688</ele>
        <time>2011-07-15T09:25:56Z</time>
      </trkpt>
      <trkpt lat="44.61786" lon="6.94895">
        <ele>3216.9680175781</ele>
        <time>2011-07-15T09:26:06Z</time>
      </trkpt>
      <trkpt lat="44.61784" lon="6.94893">
        <ele>3216.2397460938</ele>
        <time>2011-07-15T09:26:15Z</time>
      </trkpt>
      <trkpt lat="44.61781" lon="6.94891">
        <ele>3215.2849121094</ele>
        <time>2011-07-15T09:26:19Z</time>
      </trkpt>
      <trkpt lat="44.61776" lon="6.94887">
        <ele>3213.4162597656</ele>
        <time>2011-07-15T09:26:25Z</time>
      </trkpt>
      <trkpt lat="44.61771" lon="6.94882">
        <ele>3212.9467773438</ele>
        <time>2011-07-15T09:26:32Z</time>
      </trkpt>
      <trkpt lat="44.61766" lon="6.94881">
        <ele>3210.6826171875</ele>
        <time>2011-07-15T09:26:39Z</time>
      </trkpt>
      <trkpt lat="44.61761" lon="6.94879">
        <ele>3208.6977539062</ele>
        <time>2011-07-15T09:26:45Z</time>
      </trkpt>
      <trkpt lat="44.61757" lon="6.94873">
        <ele>3208.8483886719</ele>
        <time>2011-07-15T09:26:50Z</time>
      </trkpt>
      <trkpt lat="44.61751" lon="6.94871">
        <ele>3206.8798828125</ele>
        <time>2011-07-15T09:26:56Z</time>
      </trkpt>
      <trkpt lat="44.61745" lon="6.94868">
        <ele>3205.3959960938</ele>
        <time>2011-07-15T09:27:02Z</time>
      </trkpt>
      <trkpt lat="44.6174" lon="6.94868">
        <ele>3204.0290527344</ele>
        <time>2011-07-15T09:27:08Z</time>
      </trkpt>
      <trkpt lat="44.6174" lon="6.94868">
        <ele>3203.8583984375</ele>
        <time>2011-07-15T09:27:16Z</time>
      </trkpt>
      <trkpt lat="44.61739" lon="6.94868">
        <ele>3203.5903320312</ele>
        <time>2011-07-15T09:27:22Z</time>
      </trkpt>
      <trkpt lat="44.61738" lon="6.94868">
        <ele>3203.2248535156</ele>
        <time>2011-07-15T09:27:28Z</time>
      </trkpt>
      <trkpt lat="44.61737" lon="6.94868">
        <ele>3202.5693359375</ele>
        <time>2011-07-15T09:27:36Z</time>
      </trkpt>
      <trkpt lat="44.61736" lon="6.9487">
        <ele>3201.5625</ele>
        <time>2011-07-15T09:27:40Z</time>
      </trkpt>
      <trkpt lat="44.61736" lon="6.94871">
        <ele>3201.255859375</ele>
        <time>2011-07-15T09:27:46Z</time>
      </trkpt>
      <trkpt lat="44.61736" lon="6.94873">
        <ele>3200.4030761719</ele>
        <time>2011-07-15T09:28:14Z</time>
      </trkpt>
      <trkpt lat="44.61737" lon="6.94874">
        <ele>3200.3813476562</ele>
        <time>2011-07-15T09:28:19Z</time>
      </trkpt>
      <trkpt lat="44.61736" lon="6.94876">
        <ele>3199.4704589844</ele>
        <time>2011-07-15T09:28:23Z</time>
      </trkpt>
      <trkpt lat="44.61735" lon="6.94876">
        <ele>3198.9904785156</ele>
        <time>2011-07-15T09:28:28Z</time>
      </trkpt>
      <trkpt lat="44.61734" lon="6.94877">
        <ele>3198.421875</ele>
        <time>2011-07-15T09:28:35Z</time>
      </trkpt>
      <trkpt lat="44.61732" lon="6.94877">
        <ele>3197.6135253906</ele>
        <time>2011-07-15T09:28:41Z</time>
      </trkpt>
      <trkpt lat="44.6173" lon="6.94878">
        <ele>3196.7368164062</ele>
        <time>2011-07-15T09:28:45Z</time>
      </trkpt>
      <trkpt lat="44.61729" lon="6.94881">
        <ele>3195.2941894531</ele>
        <time>2011-07-15T09:28:50Z</time>
      </trkpt>
      <trkpt lat="44.61729" lon="6.94882">
        <ele>3194.7487792969</ele>
        <time>2011-07-15T09:28:51Z</time>
      </trkpt>
      <trkpt lat="44.6173" lon="6.94888">
        <ele>3193.0107421875</ele>
        <time>2011-07-15T09:28:57Z</time>
      </trkpt>
      <trkpt lat="44.61731" lon="6.94893">
        <ele>3191.42578125</ele>
        <time>2011-07-15T09:29:04Z</time>
      </trkpt>
      <trkpt lat="44.6173" lon="6.94896">
        <ele>3190.1557617188</ele>
        <time>2011-07-15T09:29:08Z</time>
      </trkpt>
      <trkpt lat="44.61728" lon="6.949">
        <ele>3188.5766601562</ele>
        <time>2011-07-15T09:29:14Z</time>
      </trkpt>
      <trkpt lat="44.61726" lon="6.94901">
        <ele>3187.5979003906</ele>
        <time>2011-07-15T09:29:20Z</time>
      </trkpt>
      <trkpt lat="44.61723" lon="6.94904">
        <ele>3185.4704589844</ele>
        <time>2011-07-15T09:29:28Z</time>
      </trkpt>
      <trkpt lat="44.61721" lon="6.94905">
        <ele>3183.9909667969</ele>
        <time>2011-07-15T09:29:33Z</time>
      </trkpt>
      <trkpt lat="44.61719" lon="6.94906">
        <ele>3182.28125</ele>
        <time>2011-07-15T09:29:40Z</time>
      </trkpt>
      <trkpt lat="44.61715" lon="6.94906">
        <ele>3180.0400390625</ele>
        <time>2011-07-15T09:29:47Z</time>
      </trkpt>
      <trkpt lat="44.6171" lon="6.94906">
        <ele>3176.9519042969</ele>
        <time>2011-07-15T09:29:53Z</time>
      </trkpt>
      <trkpt lat="44.61706" lon="6.94909">
        <ele>3173.2683105469</ele>
        <time>2011-07-15T09:29:59Z</time>
      </trkpt>
      <trkpt lat="44.61701" lon="6.94906">
        <ele>3170.8444824219</ele>
        <time>2011-07-15T09:30:06Z</time>
      </trkpt>
      <trkpt lat="44.61697" lon="6.94907">
        <ele>3167.7272949219</ele>
        <time>2011-07-15T09:30:12Z</time>
      </trkpt>
      <trkpt lat="44.61691" lon="6.94909">
        <ele>3165.0458984375</ele>
        <time>2011-07-15T09:30:19Z</time>
      </trkpt>
      <trkpt lat="44.61689" lon="6.94909">
        <ele>3164.3642578125</ele>
        <time>2011-07-15T09:30:33Z</time>
      </trkpt>
      <trkpt lat="44.61688" lon="6.94909">
        <ele>3163.9968261719</ele>
        <time>2011-07-15T09:30:43Z</time>
      </trkpt>
      <trkpt lat="44.61686" lon="6.94909">
        <ele>3163.4475097656</ele>
        <time>2011-07-15T09:30:49Z</time>
      </trkpt>
      <trkpt lat="44.61681" lon="6.9491">
        <ele>3161.8991699219</ele>
        <time>2011-07-15T09:30:55Z</time>
      </trkpt>
      <trkpt lat="44.61679" lon="6.94912">
        <ele>3160.6530761719</ele>
        <time>2011-07-15T09:31:01Z</time>
      </trkpt>
      <trkpt lat="44.61678" lon="6.94916">
        <ele>3159.4118652344</ele>
        <time>2011-07-15T09:31:06Z</time>
      </trkpt>
      <trkpt lat="44.61676" lon="6.94919">
        <ele>3158.0668945312</ele>
        <time>2011-07-15T09:31:12Z</time>
      </trkpt>
      <trkpt lat="44.61676" lon="6.94923">
        <ele>3157.0556640625</ele>
        <time>2011-07-15T09:31:17Z</time>
      </trkpt>
      <trkpt lat="44.61676" lon="6.94928">
        <ele>3155.4196777344</ele>
        <time>2011-07-15T09:31:22Z</time>
      </trkpt>
      <trkpt lat="44.61672" lon="6.9493">
        <ele>3153.6206054688</ele>
        <time>2011-07-15T09:31:29Z</time>
      </trkpt>
      <trkpt lat="44.61669" lon="6.94936">
        <ele>3151.0278320312</ele>
        <time>2011-07-15T09:31:35Z</time>
      </trkpt>
      <trkpt lat="44.61668" lon="6.94943">
        <ele>3149.0959472656</ele>
        <time>2011-07-15T09:31:40Z</time>
      </trkpt>
      <trkpt lat="44.61666" lon="6.94948">
        <ele>3146.7209472656</ele>
        <time>2011-07-15T09:31:46Z</time>
      </trkpt>
      <trkpt lat="44.61666" lon="6.94959">
        <ele>3144.0766601562</ele>
        <time>2011-07-15T09:31:54Z</time>
      </trkpt>
      <trkpt lat="44.61666" lon="6.94959">
        <ele>3144.0747070312</ele>
        <time>2011-07-15T09:31:59Z</time>
      </trkpt>
      <trkpt lat="44.61666" lon="6.94959">
        <ele>3144.0402832031</ele>
        <time>2011-07-15T09:32:11Z</time>
      </trkpt>
      <trkpt lat="44.61665" lon="6.94964">
        <ele>3142.3972167969</ele>
        <time>2011-07-15T09:32:17Z</time>
      </trkpt>
      <trkpt lat="44.61661" lon="6.94966">
        <ele>3140.4714355469</ele>
        <time>2011-07-15T09:32:21Z</time>
      </trkpt>
      <trkpt lat="44.6166" lon="6.94967">
        <ele>3139.8193359375</ele>
        <time>2011-07-15T09:32:23Z</time>
      </trkpt>
      <trkpt lat="44.61655" lon="6.94969">
        <ele>3137.6547851562</ele>
        <time>2011-07-15T09:32:28Z</time>
      </trkpt>
      <trkpt lat="44.61654" lon="6.94971">
        <ele>3136.6455078125</ele>
        <time>2011-07-15T09:32:33Z</time>
      </trkpt>
      <trkpt lat="44.6165" lon="6.94974">
        <ele>3134.5725097656</ele>
        <time>2011-07-15T09:32:37Z</time>
      </trkpt>
      <trkpt lat="44.61646" lon="6.94979">
        <ele>3131.9252929688</ele>
        <time>2011-07-15T09:32:43Z</time>
      </trkpt>
      <trkpt lat="44.61642" lon="6.94985">
        <ele>3128.8115234375</ele>
        <time>2011-07-15T09:32:50Z</time>
      </trkpt>
      <trkpt lat="44.61639" lon="6.9499">
        <ele>3126.7138671875</ele>
        <time>2011-07-15T09:32:54Z</time>
      </trkpt>
      <trkpt lat="44.61634" lon="6.94999">
        <ele>3122.208984375</ele>
        <time>2011-07-15T09:33:01Z</time>
      </trkpt>
      <trkpt lat="44.61631" lon="6.95001">
        <ele>3120.5798339844</ele>
        <time>2011-07-15T09:33:07Z</time>
      </trkpt>
      <trkpt lat="44.61632" lon="6.95001">
        <ele>3121.1286621094</ele>
        <time>2011-07-15T09:33:23Z</time>
      </trkpt>
      <trkpt lat="44.6163" lon="6.95004">
        <ele>3119.0656738281</ele>
        <time>2011-07-15T09:33:28Z</time>
      </trkpt>
      <trkpt lat="44.61627" lon="6.95011">
        <ele>3115.2954101562</ele>
        <time>2011-07-15T09:33:35Z</time>
      </trkpt>
      <trkpt lat="44.61622" lon="6.95015">
        <ele>3111.75</ele>
        <time>2011-07-15T09:33:40Z</time>
      </trkpt>
      <trkpt lat="44.6162" lon="6.95015">
        <ele>3110.7014160156</ele>
        <time>2011-07-15T09:33:42Z</time>
      </trkpt>
      <trkpt lat="44.61617" lon="6.95019">
        <ele>3108.1953125</ele>
        <time>2011-07-15T09:33:49Z</time>
      </trkpt>
      <trkpt lat="44.61617" lon="6.95019">
        <ele>3108.1225585938</ele>
        <time>2011-07-15T09:33:54Z</time>
      </trkpt>
      <trkpt lat="44.61617" lon="6.95019">
        <ele>3108.140625</ele>
        <time>2011-07-15T09:33:57Z</time>
      </trkpt>
      <trkpt lat="44.61617" lon="6.95021">
        <ele>3106.9875488281</ele>
        <time>2011-07-15T09:34:04Z</time>
      </trkpt>
      <trkpt lat="44.61616" lon="6.95021">
        <ele>3106.998046875</ele>
        <time>2011-07-15T09:34:12Z</time>
      </trkpt>
      <trkpt lat="44.61611" lon="6.9502">
        <ele>3105.1433105469</ele>
        <time>2011-07-15T09:34:18Z</time>
      </trkpt>
      <trkpt lat="44.61607" lon="6.95019">
        <ele>3103.0590820312</ele>
        <time>2011-07-15T09:34:24Z</time>
      </trkpt>
      <trkpt lat="44.61604" lon="6.95018">
        <ele>3101.705078125</ele>
        <time>2011-07-15T09:34:29Z</time>
      </trkpt>
      <trkpt lat="44.61601" lon="6.9502">
        <ele>3099.55859375</ele>
        <time>2011-07-15T09:34:34Z</time>
      </trkpt>
      <trkpt lat="44.61597" lon="6.9502">
        <ele>3096.7712402344</ele>
        <time>2011-07-15T09:34:41Z</time>
      </trkpt>
      <trkpt lat="44.61594" lon="6.95019">
        <ele>3095.7971191406</ele>
        <time>2011-07-15T09:34:44Z</time>
      </trkpt>
      <trkpt lat="44.61591" lon="6.95017">
        <ele>3094.9729003906</ele>
        <time>2011-07-15T09:34:47Z</time>
      </trkpt>
      <trkpt lat="44.6159" lon="6.95018">
        <ele>3094.0063476562</ele>
        <time>2011-07-15T09:34:58Z</time>
      </trkpt>
      <trkpt lat="44.61591" lon="6.95018">
        <ele>3094.1203613281</ele>
        <time>2011-07-15T09:34:59Z</time>
      </trkpt>
      <trkpt lat="44.61589" lon="6.95018">
        <ele>3093.2802734375</ele>
        <time>2011-07-15T09:35:06Z</time>
      </trkpt>
      <trkpt lat="44.61588" lon="6.95017">
        <ele>3093.6416015625</ele>
        <time>2011-07-15T09:35:12Z</time>
      </trkpt>
      <trkpt lat="44.61589" lon="6.95018">
        <ele>3093.4299316406</ele>
        <time>2011-07-15T09:35:23Z</time>
      </trkpt>
      <trkpt lat="44.61589" lon="6.95018">
        <ele>3093.2397460938</ele>
        <time>2011-07-15T09:36:07Z</time>
      </trkpt>
      <trkpt lat="44.6159" lon="6.95017">
        <ele>3094.3088378906</ele>
        <time>2011-07-15T09:36:58Z</time>
      </trkpt>
      <trkpt lat="44.61591" lon="6.95016">
        <ele>3095.4829101562</ele>
        <time>2011-07-15T09:38:27Z</time>
      </trkpt>
      <trkpt lat="44.61591" lon="6.95016">
        <ele>3095.0676269531</ele>
        <time>2011-07-15T09:38:53Z</time>
      </trkpt>
      <trkpt lat="44.6159" lon="6.95016">
        <ele>3094.7729492188</ele>
        <time>2011-07-15T09:38:56Z</time>
      </trkpt>
      <trkpt lat="44.61589" lon="6.95016">
        <ele>3094.3041992188</ele>
        <time>2011-07-15T09:39:02Z</time>
      </trkpt>
      <trkpt lat="44.61589" lon="6.95016">
        <ele>3094.3649902344</ele>
        <time>2011-07-15T09:39:06Z</time>
      </trkpt>
      <trkpt lat="44.61589" lon="6.95016">
        <ele>3094.3041992188</ele>
        <time>2011-07-15T09:39:17Z</time>
      </trkpt>
      <trkpt lat="44.61589" lon="6.95018">
        <ele>3093.3208007812</ele>
        <time>2011-07-15T09:39:38Z</time>
      </trkpt>
      <trkpt lat="44.61589" lon="6.95018">
        <ele>3093.4624023438</ele>
        <time>2011-07-15T09:39:40Z</time>
      </trkpt>
      <trkpt lat="44.61591" lon="6.95019">
        <ele>3094.0397949219</ele>
        <time>2011-07-15T09:39:44Z</time>
      </trkpt>
      <trkpt lat="44.6159" lon="6.95019">
        <ele>3093.8044433594</ele>
        <time>2011-07-15T09:39:51Z</time>
      </trkpt>
      <trkpt lat="44.61591" lon="6.95019">
        <ele>3093.9995117188</ele>
        <time>2011-07-15T09:39:58Z</time>
      </trkpt>
      <trkpt lat="44.61591" lon="6.95018">
        <ele>3094.5708007812</ele>
        <time>2011-07-15T09:40:34Z</time>
      </trkpt>
      <trkpt lat="44.61591" lon="6.95018">
        <ele>3094.416015625</ele>
        <time>2011-07-15T09:40:42Z</time>
      </trkpt>
      <trkpt lat="44.61592" lon="6.95017">
        <ele>3095.2275390625</ele>
        <time>2011-07-15T09:40:49Z</time>
      </trkpt>
      <trkpt lat="44.61592" lon="6.95017">
        <ele>3095.4685058594</ele>
        <time>2011-07-15T09:41:10Z</time>
      </trkpt>
      <trkpt lat="44.61592" lon="6.95016">
        <ele>3095.6494140625</ele>
        <time>2011-07-15T09:41:22Z</time>
      </trkpt>
      <trkpt lat="44.6159" lon="6.95018">
        <ele>3093.7912597656</ele>
        <time>2011-07-15T09:46:22Z</time>
      </trkpt>
      <trkpt lat="44.61591" lon="6.95017">
        <ele>3094.5437011719</ele>
        <time>2011-07-15T09:46:30Z</time>
      </trkpt>
      <trkpt lat="44.61591" lon="6.95017">
        <ele>3095.173828125</ele>
        <time>2011-07-15T09:47:20Z</time>
      </trkpt>
      <trkpt lat="44.61592" lon="6.95016">
        <ele>3095.8701171875</ele>
        <time>2011-07-15T09:48:18Z</time>
      </trkpt>
      <trkpt lat="44.61592" lon="6.95016">
        <ele>3095.5891113281</ele>
        <time>2011-07-15T09:48:48Z</time>
      </trkpt>
      <trkpt lat="44.61592" lon="6.95017">
        <ele>3095.4887695312</ele>
        <time>2011-07-15T09:49:14Z</time>
      </trkpt>
      <trkpt lat="44.61592" lon="6.95017">
        <ele>3095.5825195312</ele>
        <time>2011-07-15T09:49:32Z</time>
      </trkpt>
      <trkpt lat="44.61592" lon="6.95017">
        <ele>3095.4621582031</ele>
        <time>2011-07-15T09:49:41Z</time>
      </trkpt>
      <trkpt lat="44.61592" lon="6.95017">
        <ele>3095.7568359375</ele>
        <time>2011-07-15T09:49:51Z</time>
      </trkpt>
      <trkpt lat="44.61592" lon="6.95017">
        <ele>3095.9372558594</ele>
        <time>2011-07-15T09:50:07Z</time>
      </trkpt>
      <trkpt lat="44.61592" lon="6.95018">
        <ele>3095.2160644531</ele>
        <time>2011-07-15T09:50:54Z</time>
      </trkpt>
      <trkpt lat="44.61592" lon="6.95018">
        <ele>3095.2014160156</ele>
        <time>2011-07-15T09:51:02Z</time>
      </trkpt>
      <trkpt lat="44.61592" lon="6.95019">
        <ele>3094.9206542969</ele>
        <time>2011-07-15T09:51:11Z</time>
      </trkpt>
      <trkpt lat="44.61592" lon="6.95018">
        <ele>3095.3017578125</ele>
        <time>2011-07-15T09:51:25Z</time>
      </trkpt>
      <trkpt lat="44.61592" lon="6.95018">
        <ele>3095.4765625</ele>
        <time>2011-07-15T09:51:32Z</time>
      </trkpt>
      <trkpt lat="44.61591" lon="6.95018">
        <ele>3094.8923339844</ele>
        <time>2011-07-15T09:52:01Z</time>
      </trkpt>
      <trkpt lat="44.61591" lon="6.95018">
        <ele>3094.7717285156</ele>
        <time>2011-07-15T09:52:07Z</time>
      </trkpt>
      <trkpt lat="44.61592" lon="6.95013">
        <ele>3097.2272949219</ele>
        <time>2011-07-15T10:00:01Z</time>
      </trkpt>
      <trkpt lat="44.61592" lon="6.95013">
        <ele>3097.1872558594</ele>
        <time>2011-07-15T10:00:02Z</time>
      </trkpt>
      <trkpt lat="44.61592" lon="6.95013">
        <ele>3096.9145507812</ele>
        <time>2011-07-15T10:00:03Z</time>
      </trkpt>
      <trkpt lat="44.61592" lon="6.95013">
        <ele>3096.8542480469</ele>
        <time>2011-07-15T10:00:04Z</time>
      </trkpt>
      <trkpt lat="44.61592" lon="6.95014">
        <ele>3096.7739257812</ele>
        <time>2011-07-15T10:00:05Z</time>
      </trkpt>
      <trkpt lat="44.61592" lon="6.95014">
        <ele>3096.7136230469</ele>
        <time>2011-07-15T10:00:06Z</time>
      </trkpt>
      <trkpt lat="44.61592" lon="6.95016">
        <ele>3095.6494140625</ele>
        <time>2011-07-15T10:00:34Z</time>
      </trkpt>
      <trkpt lat="44.61591" lon="6.95016">
        <ele>3095.4226074219</ele>
        <time>2011-07-15T10:00:45Z</time>
      </trkpt>
      <trkpt lat="44.6159" lon="6.95016">
        <ele>3094.7607421875</ele>
        <time>2011-07-15T10:00:52Z</time>
      </trkpt>
      <trkpt lat="44.61591" lon="6.95018">
        <ele>3094.416015625</ele>
        <time>2011-07-15T10:01:23Z</time>
      </trkpt>
      <trkpt lat="44.61591" lon="6.95019">
        <ele>3094.21484375</ele>
        <time>2011-07-15T10:01:33Z</time>
      </trkpt>
      <trkpt lat="44.61592" lon="6.95019">
        <ele>3094.4445800781</ele>
        <time>2011-07-15T10:01:45Z</time>
      </trkpt>
      <trkpt lat="44.61591" lon="6.95019">
        <ele>3094.2290039062</ele>
        <time>2011-07-15T10:02:00Z</time>
      </trkpt>
      <trkpt lat="44.61591" lon="6.9502">
        <ele>3094.0681152344</ele>
        <time>2011-07-15T10:02:20Z</time>
      </trkpt>
      <trkpt lat="44.61591" lon="6.9502">
        <ele>3094.0078125</ele>
        <time>2011-07-15T10:02:21Z</time>
      </trkpt>
      <trkpt lat="44.6159" lon="6.95018">
        <ele>3093.8852539062</ele>
        <time>2011-07-15T10:02:28Z</time>
      </trkpt>
      <trkpt lat="44.61591" lon="6.95017">
        <ele>3095.1206054688</ele>
        <time>2011-07-15T10:02:39Z</time>
      </trkpt>
      <trkpt lat="44.61594" lon="6.95021">
        <ele>3094.8630371094</ele>
        <time>2011-07-15T10:05:33Z</time>
      </trkpt>
      <trkpt lat="44.61594" lon="6.9502">
        <ele>3095.2587890625</ele>
        <time>2011-07-15T10:05:42Z</time>
      </trkpt>
      <trkpt lat="44.61594" lon="6.95019">
        <ele>3095.8969726562</ele>
        <time>2011-07-15T10:05:57Z</time>
      </trkpt>
      <trkpt lat="44.61594" lon="6.95019">
        <ele>3096.2316894531</ele>
        <time>2011-07-15T10:06:13Z</time>
      </trkpt>
      <trkpt lat="44.61595" lon="6.95019">
        <ele>3096.2082519531</ele>
        <time>2011-07-15T10:06:26Z</time>
      </trkpt>
      <trkpt lat="44.61594" lon="6.95019">
        <ele>3095.8532714844</ele>
        <time>2011-07-15T10:06:45Z</time>
      </trkpt>
      <trkpt lat="44.61593" lon="6.9502">
        <ele>3094.9865722656</ele>
        <time>2011-07-15T10:06:56Z</time>
      </trkpt>
      <trkpt lat="44.61593" lon="6.9502">
        <ele>3094.6706542969</ele>
        <time>2011-07-15T10:07:04Z</time>
      </trkpt>
      <trkpt lat="44.61592" lon="6.9502">
        <ele>3094.4348144531</ele>
        <time>2011-07-15T10:07:11Z</time>
      </trkpt>
      <trkpt lat="44.61592" lon="6.95019">
        <ele>3095.0356445312</ele>
        <time>2011-07-15T10:07:16Z</time>
      </trkpt>
      <trkpt lat="44.61592" lon="6.95019">
        <ele>3094.6252441406</ele>
        <time>2011-07-15T10:07:20Z</time>
      </trkpt>
      <trkpt lat="44.61592" lon="6.95018">
        <ele>3095.0610351562</ele>
        <time>2011-07-15T10:07:27Z</time>
      </trkpt>
      <trkpt lat="44.61594" lon="6.95018">
        <ele>3096.0961914062</ele>
        <time>2011-07-15T10:07:33Z</time>
      </trkpt>
      <trkpt lat="44.61596" lon="6.95022">
        <ele>3095.8623046875</ele>
        <time>2011-07-15T10:07:40Z</time>
      </trkpt>
      <trkpt lat="44.61597" lon="6.95023">
        <ele>3095.6440429688</ele>
        <time>2011-07-15T10:07:47Z</time>
      </trkpt>
      <trkpt lat="44.61597" lon="6.95024">
        <ele>3095.7041015625</ele>
        <time>2011-07-15T10:07:58Z</time>
      </trkpt>
      <trkpt lat="44.61598" lon="6.95027">
        <ele>3094.958984375</ele>
        <time>2011-07-15T10:08:03Z</time>
      </trkpt>
      <trkpt lat="44.616" lon="6.95029">
        <ele>3095.0739746094</ele>
        <time>2011-07-15T10:08:08Z</time>
      </trkpt>
      <trkpt lat="44.61601" lon="6.95033">
        <ele>3094.8217773438</ele>
        <time>2011-07-15T10:08:13Z</time>
      </trkpt>
      <trkpt lat="44.61601" lon="6.95037">
        <ele>3094.1176757812</ele>
        <time>2011-07-15T10:08:19Z</time>
      </trkpt>
      <trkpt lat="44.61602" lon="6.95049">
        <ele>3091.5324707031</ele>
        <time>2011-07-15T10:08:28Z</time>
      </trkpt>
      <trkpt lat="44.61605" lon="6.95057">
        <ele>3090.6555175781</ele>
        <time>2011-07-15T10:08:35Z</time>
      </trkpt>
      <trkpt lat="44.61609" lon="6.95061">
        <ele>3090.3569335938</ele>
        <time>2011-07-15T10:08:41Z</time>
      </trkpt>
      <trkpt lat="44.61613" lon="6.95067">
        <ele>3089.77734375</ele>
        <time>2011-07-15T10:08:46Z</time>
      </trkpt>
      <trkpt lat="44.61616" lon="6.95071">
        <ele>3090.0725097656</ele>
        <time>2011-07-15T10:08:51Z</time>
      </trkpt>
      <trkpt lat="44.61621" lon="6.95078">
        <ele>3091.005859375</ele>
        <time>2011-07-15T10:08:58Z</time>
      </trkpt>
      <trkpt lat="44.61627" lon="6.95084">
        <ele>3092.5046386719</ele>
        <time>2011-07-15T10:09:06Z</time>
      </trkpt>
      <trkpt lat="44.6163" lon="6.95088">
        <ele>3094.0856933594</ele>
        <time>2011-07-15T10:09:10Z</time>
      </trkpt>
      <trkpt lat="44.61635" lon="6.95095">
        <ele>3095.9458007812</ele>
        <time>2011-07-15T10:09:17Z</time>
      </trkpt>
      <trkpt lat="44.61637" lon="6.95103">
        <ele>3095.8544921875</ele>
        <time>2011-07-15T10:09:23Z</time>
      </trkpt>
      <trkpt lat="44.6164" lon="6.95111">
        <ele>3095.4914550781</ele>
        <time>2011-07-15T10:09:30Z</time>
      </trkpt>
      <trkpt lat="44.61642" lon="6.95113">
        <ele>3095.5546875</ele>
        <time>2011-07-15T10:09:32Z</time>
      </trkpt>
      <trkpt lat="44.61644" lon="6.95124">
        <ele>3093.9631347656</ele>
        <time>2011-07-15T10:09:39Z</time>
      </trkpt>
      <trkpt lat="44.61644" lon="6.9513">
        <ele>3092.3916015625</ele>
        <time>2011-07-15T10:09:43Z</time>
      </trkpt>
      <trkpt lat="44.61644" lon="6.95134">
        <ele>3091.6396484375</ele>
        <time>2011-07-15T10:09:45Z</time>
      </trkpt>
      <trkpt lat="44.61644" lon="6.95138">
        <ele>3090.623046875</ele>
        <time>2011-07-15T10:09:51Z</time>
      </trkpt>
      <trkpt lat="44.61645" lon="6.95144">
        <ele>3090.390625</ele>
        <time>2011-07-15T10:09:55Z</time>
      </trkpt>
      <trkpt lat="44.61649" lon="6.95157">
        <ele>3090.1674804688</ele>
        <time>2011-07-15T10:10:03Z</time>
      </trkpt>
      <trkpt lat="44.61649" lon="6.95159">
        <ele>3089.96484375</ele>
        <time>2011-07-15T10:10:04Z</time>
      </trkpt>
      <trkpt lat="44.61649" lon="6.95167">
        <ele>3089.0234375</ele>
        <time>2011-07-15T10:10:09Z</time>
      </trkpt>
      <trkpt lat="44.6165" lon="6.95171">
        <ele>3089.248046875</ele>
        <time>2011-07-15T10:10:17Z</time>
      </trkpt>
      <trkpt lat="44.6165" lon="6.95173">
        <ele>3089.3022460938</ele>
        <time>2011-07-15T10:10:18Z</time>
      </trkpt>
      <trkpt lat="44.6165" lon="6.95189">
        <ele>3089.8481445312</ele>
        <time>2011-07-15T10:10:27Z</time>
      </trkpt>
      <trkpt lat="44.6165" lon="6.95201">
        <ele>3090.1901855469</ele>
        <time>2011-07-15T10:10:34Z</time>
      </trkpt>
      <trkpt lat="44.61652" lon="6.95214">
        <ele>3090.7346191406</ele>
        <time>2011-07-15T10:10:42Z</time>
      </trkpt>
      <trkpt lat="44.61654" lon="6.95228">
        <ele>3091.2668457031</ele>
        <time>2011-07-15T10:10:50Z</time>
      </trkpt>
      <trkpt lat="44.61657" lon="6.95243">
        <ele>3091.6052246094</ele>
        <time>2011-07-15T10:10:59Z</time>
      </trkpt>
      <trkpt lat="44.61662" lon="6.95257">
        <ele>3091.2014160156</ele>
        <time>2011-07-15T10:11:09Z</time>
      </trkpt>
      <trkpt lat="44.61665" lon="6.95269">
        <ele>3090.5815429688</ele>
        <time>2011-07-15T10:11:16Z</time>
      </trkpt>
      <trkpt lat="44.61665" lon="6.95272">
        <ele>3090.3811035156</ele>
        <time>2011-07-15T10:11:18Z</time>
      </trkpt>
      <trkpt lat="44.61665" lon="6.95281">
        <ele>3090.1401367188</ele>
        <time>2011-07-15T10:11:25Z</time>
      </trkpt>
      <trkpt lat="44.61665" lon="6.95291">
        <ele>3089.9396972656</ele>
        <time>2011-07-15T10:11:33Z</time>
      </trkpt>
      <trkpt lat="44.61663" lon="6.95302">
        <ele>3089.9069824219</ele>
        <time>2011-07-15T10:11:41Z</time>
      </trkpt>
      <trkpt lat="44.61665" lon="6.95314">
        <ele>3089.1931152344</ele>
        <time>2011-07-15T10:11:49Z</time>
      </trkpt>
      <trkpt lat="44.61667" lon="6.95325">
        <ele>3088.3635253906</ele>
        <time>2011-07-15T10:11:56Z</time>
      </trkpt>
      <trkpt lat="44.61672" lon="6.95336">
        <ele>3088.3444824219</ele>
        <time>2011-07-15T10:12:04Z</time>
      </trkpt>
      <trkpt lat="44.61676" lon="6.95346">
        <ele>3088.080078125</ele>
        <time>2011-07-15T10:12:11Z</time>
      </trkpt>
      <trkpt lat="44.61681" lon="6.95357">
        <ele>3087.9013671875</ele>
        <time>2011-07-15T10:12:19Z</time>
      </trkpt>
      <trkpt lat="44.61687" lon="6.95366">
        <ele>3088.072265625</ele>
        <time>2011-07-15T10:12:27Z</time>
      </trkpt>
      <trkpt lat="44.61693" lon="6.95375">
        <ele>3088.3676757812</ele>
        <time>2011-07-15T10:12:35Z</time>
      </trkpt>
      <trkpt lat="44.61698" lon="6.95384">
        <ele>3088.6435546875</ele>
        <time>2011-07-15T10:12:43Z</time>
      </trkpt>
      <trkpt lat="44.61699" lon="6.95386">
        <ele>3088.7036132812</ele>
        <time>2011-07-15T10:12:44Z</time>
      </trkpt>
      <trkpt lat="44.61704" lon="6.95387">
        <ele>3089.4279785156</ele>
        <time>2011-07-15T10:12:49Z</time>
      </trkpt>
      <trkpt lat="44.61713" lon="6.95397">
        <ele>3091.7353515625</ele>
        <time>2011-07-15T10:12:58Z</time>
      </trkpt>
      <trkpt lat="44.61718" lon="6.95408">
        <ele>3094.6643066406</ele>
        <time>2011-07-15T10:13:05Z</time>
      </trkpt>
      <trkpt lat="44.61722" lon="6.9542">
        <ele>3098.23828125</ele>
        <time>2011-07-15T10:13:13Z</time>
      </trkpt>
      <trkpt lat="44.61729" lon="6.95433">
        <ele>3098.2119140625</ele>
        <time>2011-07-15T10:13:22Z</time>
      </trkpt>
      <trkpt lat="44.61736" lon="6.95446">
        <ele>3097.4013671875</ele>
        <time>2011-07-15T10:13:31Z</time>
      </trkpt>
      <trkpt lat="44.61742" lon="6.95456">
        <ele>3095.724609375</ele>
        <time>2011-07-15T10:13:38Z</time>
      </trkpt>
      <trkpt lat="44.61745" lon="6.95463">
        <ele>3094.8435058594</ele>
        <time>2011-07-15T10:13:43Z</time>
      </trkpt>
      <trkpt lat="44.61752" lon="6.95469">
        <ele>3094.5217285156</ele>
        <time>2011-07-15T10:13:49Z</time>
      </trkpt>
      <trkpt lat="44.61758" lon="6.95478">
        <ele>3095.6801757812</ele>
        <time>2011-07-15T10:13:56Z</time>
      </trkpt>
      <trkpt lat="44.61765" lon="6.95485">
        <ele>3097.0090332031</ele>
        <time>2011-07-15T10:14:03Z</time>
      </trkpt>
      <trkpt lat="44.61768" lon="6.95488">
        <ele>3097.76953125</ele>
        <time>2011-07-15T10:14:10Z</time>
      </trkpt>
      <trkpt lat="44.61771" lon="6.95493">
        <ele>3098.2673339844</ele>
        <time>2011-07-15T10:14:25Z</time>
      </trkpt>
      <trkpt lat="44.61776" lon="6.95502">
        <ele>3099.4416503906</ele>
        <time>2011-07-15T10:14:34Z</time>
      </trkpt>
      <trkpt lat="44.61777" lon="6.95513">
        <ele>3099.9245605469</ele>
        <time>2011-07-15T10:14:40Z</time>
      </trkpt>
      <trkpt lat="44.61779" lon="6.95526">
        <ele>3100.0288085938</ele>
        <time>2011-07-15T10:14:48Z</time>
      </trkpt>
      <trkpt lat="44.61779" lon="6.95527">
        <ele>3100.0307617188</ele>
        <time>2011-07-15T10:14:49Z</time>
      </trkpt>
      <trkpt lat="44.61781" lon="6.95538">
        <ele>3100.0708007812</ele>
        <time>2011-07-15T10:14:57Z</time>
      </trkpt>
      <trkpt lat="44.61779" lon="6.95549">
        <ele>3100.0141601562</ele>
        <time>2011-07-15T10:15:04Z</time>
      </trkpt>
      <trkpt lat="44.61779" lon="6.95553">
        <ele>3100.0026855469</ele>
        <time>2011-07-15T10:15:07Z</time>
      </trkpt>
      <trkpt lat="44.61779" lon="6.95565">
        <ele>3100.0798339844</ele>
        <time>2011-07-15T10:15:16Z</time>
      </trkpt>
      <trkpt lat="44.6178" lon="6.95571">
        <ele>3100.15625</ele>
        <time>2011-07-15T10:15:21Z</time>
      </trkpt>
      <trkpt lat="44.61782" lon="6.95578">
        <ele>3100.4565429688</ele>
        <time>2011-07-15T10:15:28Z</time>
      </trkpt>
      <trkpt lat="44.61782" lon="6.95584">
        <ele>3100.6970214844</ele>
        <time>2011-07-15T10:15:34Z</time>
      </trkpt>
      <trkpt lat="44.61783" lon="6.95591">
        <ele>3101.3647460938</ele>
        <time>2011-07-15T10:15:42Z</time>
      </trkpt>
      <trkpt lat="44.61786" lon="6.95597">
        <ele>3102.328125</ele>
        <time>2011-07-15T10:15:51Z</time>
      </trkpt>
      <trkpt lat="44.61788" lon="6.95601">
        <ele>3102.9428710938</ele>
        <time>2011-07-15T10:15:58Z</time>
      </trkpt>
      <trkpt lat="44.61791" lon="6.95605">
        <ele>3103.787109375</ele>
        <time>2011-07-15T10:16:06Z</time>
      </trkpt>
      <trkpt lat="44.61792" lon="6.9561">
        <ele>3104.4365234375</ele>
        <time>2011-07-15T10:16:13Z</time>
      </trkpt>
      <trkpt lat="44.61792" lon="6.95616">
        <ele>3105.0495605469</ele>
        <time>2011-07-15T10:16:20Z</time>
      </trkpt>
      <trkpt lat="44.61794" lon="6.95622">
        <ele>3106.0161132812</ele>
        <time>2011-07-15T10:16:27Z</time>
      </trkpt>
      <trkpt lat="44.61795" lon="6.95628">
        <ele>3106.8400878906</ele>
        <time>2011-07-15T10:16:35Z</time>
      </trkpt>
      <trkpt lat="44.61797" lon="6.95633">
        <ele>3107.8544921875</ele>
        <time>2011-07-15T10:16:43Z</time>
      </trkpt>
      <trkpt lat="44.61799" lon="6.95638">
        <ele>3108.8176269531</ele>
        <time>2011-07-15T10:16:51Z</time>
      </trkpt>
      <trkpt lat="44.61802" lon="6.95642">
        <ele>3109.8666992188</ele>
        <time>2011-07-15T10:16:57Z</time>
      </trkpt>
      <trkpt lat="44.61805" lon="6.95645">
        <ele>3110.8674316406</ele>
        <time>2011-07-15T10:17:04Z</time>
      </trkpt>
      <trkpt lat="44.61808" lon="6.95649">
        <ele>3111.6064453125</ele>
        <time>2011-07-15T10:17:09Z</time>
      </trkpt>
      <trkpt lat="44.61812" lon="6.95654">
        <ele>3112.6867675781</ele>
        <time>2011-07-15T10:17:16Z</time>
      </trkpt>
      <trkpt lat="44.61813" lon="6.9566">
        <ele>3113.6743164062</ele>
        <time>2011-07-15T10:17:22Z</time>
      </trkpt>
      <trkpt lat="44.61815" lon="6.9567">
        <ele>3115.1079101562</ele>
        <time>2011-07-15T10:17:30Z</time>
      </trkpt>
      <trkpt lat="44.61818" lon="6.95677">
        <ele>3116.3576660156</ele>
        <time>2011-07-15T10:17:38Z</time>
      </trkpt>
      <trkpt lat="44.61818" lon="6.95684">
        <ele>3117.3327636719</ele>
        <time>2011-07-15T10:17:44Z</time>
      </trkpt>
      <trkpt lat="44.61819" lon="6.95691">
        <ele>3118.4245605469</ele>
        <time>2011-07-15T10:17:51Z</time>
      </trkpt>
      <trkpt lat="44.61821" lon="6.95699">
        <ele>3119.720703125</ele>
        <time>2011-07-15T10:18:00Z</time>
      </trkpt>
      <trkpt lat="44.61825" lon="6.95705">
        <ele>3120.7487792969</ele>
        <time>2011-07-15T10:18:08Z</time>
      </trkpt>
      <trkpt lat="44.61828" lon="6.95711">
        <ele>3121.8510742188</ele>
        <time>2011-07-15T10:18:15Z</time>
      </trkpt>
      <trkpt lat="44.61831" lon="6.95718">
        <ele>3123.1040039062</ele>
        <time>2011-07-15T10:18:22Z</time>
      </trkpt>
      <trkpt lat="44.61832" lon="6.95724">
        <ele>3124.2475585938</ele>
        <time>2011-07-15T10:18:29Z</time>
      </trkpt>
      <trkpt lat="44.61835" lon="6.95728">
        <ele>3125.3068847656</ele>
        <time>2011-07-15T10:18:35Z</time>
      </trkpt>
      <trkpt lat="44.61837" lon="6.95734">
        <ele>3126.779296875</ele>
        <time>2011-07-15T10:18:43Z</time>
      </trkpt>
      <trkpt lat="44.61838" lon="6.9574">
        <ele>3127.9765625</ele>
        <time>2011-07-15T10:18:50Z</time>
      </trkpt>
      <trkpt lat="44.6184" lon="6.95746">
        <ele>3129.3068847656</ele>
        <time>2011-07-15T10:18:58Z</time>
      </trkpt>
      <trkpt lat="44.61841" lon="6.95753">
        <ele>3130.4760742188</ele>
        <time>2011-07-15T10:19:05Z</time>
      </trkpt>
      <trkpt lat="44.61842" lon="6.95757">
        <ele>3131.1833496094</ele>
        <time>2011-07-15T10:19:09Z</time>
      </trkpt>
      <trkpt lat="44.61843" lon="6.95763">
        <ele>3132.2338867188</ele>
        <time>2011-07-15T10:19:15Z</time>
      </trkpt>
      <trkpt lat="44.61843" lon="6.9577">
        <ele>3133.2570800781</ele>
        <time>2011-07-15T10:19:23Z</time>
      </trkpt>
      <trkpt lat="44.61844" lon="6.95774">
        <ele>3133.9162597656</ele>
        <time>2011-07-15T10:19:29Z</time>
      </trkpt>
      <trkpt lat="44.61845" lon="6.95777">
        <ele>3134.513671875</ele>
        <time>2011-07-15T10:19:36Z</time>
      </trkpt>
      <trkpt lat="44.61848" lon="6.95779">
        <ele>3135.2971191406</ele>
        <time>2011-07-15T10:19:43Z</time>
      </trkpt>
      <trkpt lat="44.61851" lon="6.95784">
        <ele>3136.6550292969</ele>
        <time>2011-07-15T10:19:51Z</time>
      </trkpt>
      <trkpt lat="44.61852" lon="6.95789">
        <ele>3137.7604980469</ele>
        <time>2011-07-15T10:19:59Z</time>
      </trkpt>
      <trkpt lat="44.61852" lon="6.95793">
        <ele>3138.458984375</ele>
        <time>2011-07-15T10:20:11Z</time>
      </trkpt>
      <trkpt lat="44.61853" lon="6.95798">
        <ele>3139.4958496094</ele>
        <time>2011-07-15T10:20:19Z</time>
      </trkpt>
      <trkpt lat="44.61856" lon="6.95803">
        <ele>3140.7302246094</ele>
        <time>2011-07-15T10:20:26Z</time>
      </trkpt>
      <trkpt lat="44.61856" lon="6.95808">
        <ele>3141.75390625</ele>
        <time>2011-07-15T10:20:31Z</time>
      </trkpt>
      <trkpt lat="44.61857" lon="6.95812">
        <ele>3142.818359375</ele>
        <time>2011-07-15T10:20:37Z</time>
      </trkpt>
      <trkpt lat="44.6186" lon="6.95817">
        <ele>3144.2192382812</ele>
        <time>2011-07-15T10:20:44Z</time>
      </trkpt>
      <trkpt lat="44.6186" lon="6.95823">
        <ele>3145.6826171875</ele>
        <time>2011-07-15T10:20:51Z</time>
      </trkpt>
      <trkpt lat="44.61862" lon="6.95831">
        <ele>3147.6477050781</ele>
        <time>2011-07-15T10:20:58Z</time>
      </trkpt>
      <trkpt lat="44.61861" lon="6.95838">
        <ele>3148.9099121094</ele>
        <time>2011-07-15T10:21:06Z</time>
      </trkpt>
      <trkpt lat="44.6186" lon="6.95845">
        <ele>3149.8317871094</ele>
        <time>2011-07-15T10:21:12Z</time>
      </trkpt>
      <trkpt lat="44.61861" lon="6.95847">
        <ele>3150.3784179688</ele>
        <time>2011-07-15T10:21:17Z</time>
      </trkpt>
      <trkpt lat="44.6186" lon="6.95852">
        <ele>3150.8801269531</ele>
        <time>2011-07-15T10:21:28Z</time>
      </trkpt>
      <trkpt lat="44.61858" lon="6.95858">
        <ele>3151.4172363281</ele>
        <time>2011-07-15T10:21:36Z</time>
      </trkpt>
      <trkpt lat="44.61857" lon="6.95865">
        <ele>3152.0495605469</ele>
        <time>2011-07-15T10:21:45Z</time>
      </trkpt>
      <trkpt lat="44.61858" lon="6.95872">
        <ele>3153.6767578125</ele>
        <time>2011-07-15T10:21:54Z</time>
      </trkpt>
      <trkpt lat="44.61858" lon="6.95879">
        <ele>3154.8166503906</ele>
        <time>2011-07-15T10:22:03Z</time>
      </trkpt>
      <trkpt lat="44.61857" lon="6.95886">
        <ele>3155.6262207031</ele>
        <time>2011-07-15T10:22:12Z</time>
      </trkpt>
      <trkpt lat="44.61856" lon="6.95887">
        <ele>3155.6726074219</ele>
        <time>2011-07-15T10:22:14Z</time>
      </trkpt>
      <trkpt lat="44.61856" lon="6.9589">
        <ele>3156.142578125</ele>
        <time>2011-07-15T10:22:18Z</time>
      </trkpt>
      <trkpt lat="44.61857" lon="6.9589">
        <ele>3156.4458007812</ele>
        <time>2011-07-15T10:22:19Z</time>
      </trkpt>
      <trkpt lat="44.61858" lon="6.95894">
        <ele>3157.6928710938</ele>
        <time>2011-07-15T10:22:26Z</time>
      </trkpt>
      <trkpt lat="44.61858" lon="6.95897">
        <ele>3158.896484375</ele>
        <time>2011-07-15T10:22:33Z</time>
      </trkpt>
      <trkpt lat="44.61859" lon="6.95901">
        <ele>3160.0549316406</ele>
        <time>2011-07-15T10:22:40Z</time>
      </trkpt>
      <trkpt lat="44.61858" lon="6.95907">
        <ele>3161.2084960938</ele>
        <time>2011-07-15T10:22:48Z</time>
      </trkpt>
      <trkpt lat="44.61858" lon="6.95913">
        <ele>3162.5261230469</ele>
        <time>2011-07-15T10:22:56Z</time>
      </trkpt>
      <trkpt lat="44.61859" lon="6.95917">
        <ele>3163.8415527344</ele>
        <time>2011-07-15T10:23:03Z</time>
      </trkpt>
      <trkpt lat="44.6186" lon="6.9592">
        <ele>3165.5036621094</ele>
        <time>2011-07-15T10:23:10Z</time>
      </trkpt>
      <trkpt lat="44.6186" lon="6.95924">
        <ele>3167.4543457031</ele>
        <time>2011-07-15T10:23:19Z</time>
      </trkpt>
      <trkpt lat="44.61861" lon="6.95925">
        <ele>3168.02734375</ele>
        <time>2011-07-15T10:23:21Z</time>
      </trkpt>
      <trkpt lat="44.61861" lon="6.95926">
        <ele>3168.8959960938</ele>
        <time>2011-07-15T10:23:25Z</time>
      </trkpt>
      <trkpt lat="44.61862" lon="6.95929">
        <ele>3170.1525878906</ele>
        <time>2011-07-15T10:23:32Z</time>
      </trkpt>
      <trkpt lat="44.61863" lon="6.95931">
        <ele>3171.9836425781</ele>
        <time>2011-07-15T10:23:40Z</time>
      </trkpt>
      <trkpt lat="44.61863" lon="6.95933">
        <ele>3172.4521484375</ele>
        <time>2011-07-15T10:23:43Z</time>
      </trkpt>
      <trkpt lat="44.61863" lon="6.95933">
        <ele>3172.5646972656</ele>
        <time>2011-07-15T10:23:44Z</time>
      </trkpt>
      <trkpt lat="44.61866" lon="6.95933">
        <ele>3174.0991210938</ele>
        <time>2011-07-15T10:23:52Z</time>
      </trkpt>
      <trkpt lat="44.61867" lon="6.95933">
        <ele>3174.7297363281</ele>
        <time>2011-07-15T10:23:56Z</time>
      </trkpt>
      <trkpt lat="44.61869" lon="6.95934">
        <ele>3176.1550292969</ele>
        <time>2011-07-15T10:24:03Z</time>
      </trkpt>
      <trkpt lat="44.6187" lon="6.95937">
        <ele>3177.630859375</ele>
        <time>2011-07-15T10:24:10Z</time>
      </trkpt>
      <trkpt lat="44.61871" lon="6.9594">
        <ele>3179.265625</ele>
        <time>2011-07-15T10:24:18Z</time>
      </trkpt>
      <trkpt lat="44.61872" lon="6.95944">
        <ele>3181.021484375</ele>
        <time>2011-07-15T10:24:26Z</time>
      </trkpt>
      <trkpt lat="44.61872" lon="6.95947">
        <ele>3182.7189941406</ele>
        <time>2011-07-15T10:24:35Z</time>
      </trkpt>
      <trkpt lat="44.61872" lon="6.95951">
        <ele>3183.8981933594</ele>
        <time>2011-07-15T10:24:44Z</time>
      </trkpt>
      <trkpt lat="44.61872" lon="6.95953">
        <ele>3184.7058105469</ele>
        <time>2011-07-15T10:24:50Z</time>
      </trkpt>
      <trkpt lat="44.61873" lon="6.95957">
        <ele>3186.1479492188</ele>
        <time>2011-07-15T10:24:58Z</time>
      </trkpt>
      <trkpt lat="44.61874" lon="6.9596">
        <ele>3187.501953125</ele>
        <time>2011-07-15T10:25:06Z</time>
      </trkpt>
      <trkpt lat="44.61874" lon="6.95961">
        <ele>3188.302734375</ele>
        <time>2011-07-15T10:25:12Z</time>
      </trkpt>
      <trkpt lat="44.61876" lon="6.95964">
        <ele>3190.0532226562</ele>
        <time>2011-07-15T10:25:20Z</time>
      </trkpt>
      <trkpt lat="44.61876" lon="6.95966">
        <ele>3190.9426269531</ele>
        <time>2011-07-15T10:25:28Z</time>
      </trkpt>
      <trkpt lat="44.61877" lon="6.95968">
        <ele>3192.0544433594</ele>
        <time>2011-07-15T10:25:34Z</time>
      </trkpt>
      <trkpt lat="44.61877" lon="6.95971">
        <ele>3193.5322265625</ele>
        <time>2011-07-15T10:25:42Z</time>
      </trkpt>
      <trkpt lat="44.61878" lon="6.95974">
        <ele>3194.5092773438</ele>
        <time>2011-07-15T10:25:49Z</time>
      </trkpt>
      <trkpt lat="44.6188" lon="6.95976">
        <ele>3195.9545898438</ele>
        <time>2011-07-15T10:25:56Z</time>
      </trkpt>
      <trkpt lat="44.61881" lon="6.95978">
        <ele>3196.7250976562</ele>
        <time>2011-07-15T10:26:04Z</time>
      </trkpt>
      <trkpt lat="44.61884" lon="6.95978">
        <ele>3198.240234375</ele>
        <time>2011-07-15T10:26:13Z</time>
      </trkpt>
      <trkpt lat="44.61884" lon="6.95981">
        <ele>3198.8522949219</ele>
        <time>2011-07-15T10:26:20Z</time>
      </trkpt>
      <trkpt lat="44.61885" lon="6.95984">
        <ele>3199.6164550781</ele>
        <time>2011-07-15T10:26:27Z</time>
      </trkpt>
      <trkpt lat="44.61885" lon="6.95986">
        <ele>3200.0625</ele>
        <time>2011-07-15T10:26:33Z</time>
      </trkpt>
      <trkpt lat="44.61885" lon="6.95988">
        <ele>3200.2553710938</ele>
        <time>2011-07-15T10:26:39Z</time>
      </trkpt>
      <trkpt lat="44.61887" lon="6.9599">
        <ele>3200.9738769531</ele>
        <time>2011-07-15T10:26:45Z</time>
      </trkpt>
      <trkpt lat="44.61887" lon="6.95992">
        <ele>3201.5158691406</ele>
        <time>2011-07-15T10:26:52Z</time>
      </trkpt>
      <trkpt lat="44.61888" lon="6.95994">
        <ele>3201.9538574219</ele>
        <time>2011-07-15T10:26:59Z</time>
      </trkpt>
      <trkpt lat="44.61888" lon="6.95994">
        <ele>3202.1000976562</ele>
        <time>2011-07-15T10:27:02Z</time>
      </trkpt>
      <trkpt lat="44.61889" lon="6.95995">
        <ele>3202.2670898438</ele>
        <time>2011-07-15T10:27:03Z</time>
      </trkpt>
      <trkpt lat="44.6189" lon="6.95996">
        <ele>3202.7717285156</ele>
        <time>2011-07-15T10:27:10Z</time>
      </trkpt>
      <trkpt lat="44.61892" lon="6.95998">
        <ele>3203.3586425781</ele>
        <time>2011-07-15T10:27:17Z</time>
      </trkpt>
      <trkpt lat="44.61891" lon="6.96001">
        <ele>3203.6293945312</ele>
        <time>2011-07-15T10:27:24Z</time>
      </trkpt>
      <trkpt lat="44.61892" lon="6.96003">
        <ele>3204.0986328125</ele>
        <time>2011-07-15T10:27:30Z</time>
      </trkpt>
      <trkpt lat="44.61892" lon="6.96004">
        <ele>3204.3427734375</ele>
        <time>2011-07-15T10:27:37Z</time>
      </trkpt>
      <trkpt lat="44.61892" lon="6.96006">
        <ele>3204.8464355469</ele>
        <time>2011-07-15T10:27:43Z</time>
      </trkpt>
      <trkpt lat="44.61893" lon="6.96009">
        <ele>3205.3181152344</ele>
        <time>2011-07-15T10:27:50Z</time>
      </trkpt>
      <trkpt lat="44.61893" lon="6.96011">
        <ele>3205.8811035156</ele>
        <time>2011-07-15T10:27:57Z</time>
      </trkpt>
      <trkpt lat="44.61893" lon="6.9601">
        <ele>3205.6435546875</ele>
        <time>2011-07-15T10:28:07Z</time>
      </trkpt>
      <trkpt lat="44.61893" lon="6.9601">
        <ele>3205.6459960938</ele>
        <time>2011-07-15T10:28:19Z</time>
      </trkpt>
      <trkpt lat="44.61894" lon="6.96012">
        <ele>3206.2333984375</ele>
        <time>2011-07-15T10:28:25Z</time>
      </trkpt>
      <trkpt lat="44.61895" lon="6.96016">
        <ele>3207.1164550781</ele>
        <time>2011-07-15T10:28:34Z</time>
      </trkpt>
      <trkpt lat="44.61896" lon="6.96019">
        <ele>3207.7463378906</ele>
        <time>2011-07-15T10:28:40Z</time>
      </trkpt>
      <trkpt lat="44.61897" lon="6.96021">
        <ele>3208.2900390625</ele>
        <time>2011-07-15T10:28:46Z</time>
      </trkpt>
      <trkpt lat="44.619" lon="6.96021">
        <ele>3208.8249511719</ele>
        <time>2011-07-15T10:28:54Z</time>
      </trkpt>
      <trkpt lat="44.619" lon="6.96021">
        <ele>3208.96875</ele>
        <time>2011-07-15T10:29:04Z</time>
      </trkpt>
      <trkpt lat="44.61903" lon="6.96022">
        <ele>3209.4699707031</ele>
        <time>2011-07-15T10:29:14Z</time>
      </trkpt>
      <trkpt lat="44.61906" lon="6.96021">
        <ele>3209.9833984375</ele>
        <time>2011-07-15T10:29:21Z</time>
      </trkpt>
      <trkpt lat="44.61908" lon="6.96021">
        <ele>3210.494140625</ele>
        <time>2011-07-15T10:29:29Z</time>
      </trkpt>
      <trkpt lat="44.6191" lon="6.96021">
        <ele>3210.7670898438</ele>
        <time>2011-07-15T10:29:34Z</time>
      </trkpt>
      <trkpt lat="44.61913" lon="6.96022">
        <ele>3211.3986816406</ele>
        <time>2011-07-15T10:29:42Z</time>
      </trkpt>
      <trkpt lat="44.61915" lon="6.96023">
        <ele>3211.9812011719</ele>
        <time>2011-07-15T10:29:50Z</time>
      </trkpt>
      <trkpt lat="44.61917" lon="6.96022">
        <ele>3212.2875976562</ele>
        <time>2011-07-15T10:29:58Z</time>
      </trkpt>
      <trkpt lat="44.6192" lon="6.96022">
        <ele>3212.3562011719</ele>
        <time>2011-07-15T10:30:06Z</time>
      </trkpt>
      <trkpt lat="44.61921" lon="6.96021">
        <ele>3212.3835449219</ele>
        <time>2011-07-15T10:30:12Z</time>
      </trkpt>
      <trkpt lat="44.61924" lon="6.9602">
        <ele>3212.3903808594</ele>
        <time>2011-07-15T10:30:20Z</time>
      </trkpt>
      <trkpt lat="44.61927" lon="6.9602">
        <ele>3212.5690917969</ele>
        <time>2011-07-15T10:30:30Z</time>
      </trkpt>
      <trkpt lat="44.6193" lon="6.96019">
        <ele>3212.7062988281</ele>
        <time>2011-07-15T10:30:37Z</time>
      </trkpt>
      <trkpt lat="44.61932" lon="6.9602">
        <ele>3212.9396972656</ele>
        <time>2011-07-15T10:30:45Z</time>
      </trkpt>
      <trkpt lat="44.61935" lon="6.9602">
        <ele>3213.1252441406</ele>
        <time>2011-07-15T10:30:53Z</time>
      </trkpt>
      <trkpt lat="44.61937" lon="6.96021">
        <ele>3213.4135742188</ele>
        <time>2011-07-15T10:31:01Z</time>
      </trkpt>
      <trkpt lat="44.6194" lon="6.96022">
        <ele>3213.8942871094</ele>
        <time>2011-07-15T10:31:10Z</time>
      </trkpt>
      <trkpt lat="44.61942" lon="6.96024">
        <ele>3214.2651367188</ele>
        <time>2011-07-15T10:31:17Z</time>
      </trkpt>
      <trkpt lat="44.61944" lon="6.96026">
        <ele>3214.6701660156</ele>
        <time>2011-07-15T10:31:25Z</time>
      </trkpt>
      <trkpt lat="44.61946" lon="6.96028">
        <ele>3215.3732910156</ele>
        <time>2011-07-15T10:31:33Z</time>
      </trkpt>
      <trkpt lat="44.61948" lon="6.96029">
        <ele>3215.9294433594</ele>
        <time>2011-07-15T10:31:41Z</time>
      </trkpt>
      <trkpt lat="44.61947" lon="6.96031">
        <ele>3216.2006835938</ele>
        <time>2011-07-15T10:31:49Z</time>
      </trkpt>
      <trkpt lat="44.61948" lon="6.96034">
        <ele>3216.9833984375</ele>
        <time>2011-07-15T10:32:03Z</time>
      </trkpt>
      <trkpt lat="44.6195" lon="6.96038">
        <ele>3218.154296875</ele>
        <time>2011-07-15T10:32:11Z</time>
      </trkpt>
      <trkpt lat="44.61951" lon="6.96043">
        <ele>3219.3420410156</ele>
        <time>2011-07-15T10:32:20Z</time>
      </trkpt>
      <trkpt lat="44.61951" lon="6.96048">
        <ele>3220.4614257812</ele>
        <time>2011-07-15T10:32:29Z</time>
      </trkpt>
      <trkpt lat="44.61951" lon="6.96051">
        <ele>3221.3332519531</ele>
        <time>2011-07-15T10:32:36Z</time>
      </trkpt>
      <trkpt lat="44.61951" lon="6.96055">
        <ele>3222.1677246094</ele>
        <time>2011-07-15T10:32:43Z</time>
      </trkpt>
      <trkpt lat="44.61952" lon="6.96059">
        <ele>3222.9650878906</ele>
        <time>2011-07-15T10:32:51Z</time>
      </trkpt>
      <trkpt lat="44.61953" lon="6.96061">
        <ele>3223.701171875</ele>
        <time>2011-07-15T10:32:57Z</time>
      </trkpt>
      <trkpt lat="44.61954" lon="6.96066">
        <ele>3224.7744140625</ele>
        <time>2011-07-15T10:33:06Z</time>
      </trkpt>
      <trkpt lat="44.61954" lon="6.96069">
        <ele>3225.6296386719</ele>
        <time>2011-07-15T10:33:15Z</time>
      </trkpt>
      <trkpt lat="44.61955" lon="6.96072">
        <ele>3226.3635253906</ele>
        <time>2011-07-15T10:33:22Z</time>
      </trkpt>
      <trkpt lat="44.61954" lon="6.96077">
        <ele>3227.1428222656</ele>
        <time>2011-07-15T10:33:29Z</time>
      </trkpt>
      <trkpt lat="44.61954" lon="6.96081">
        <ele>3227.9174804688</ele>
        <time>2011-07-15T10:33:36Z</time>
      </trkpt>
      <trkpt lat="44.61954" lon="6.96086">
        <ele>3228.9008789062</ele>
        <time>2011-07-15T10:33:43Z</time>
      </trkpt>
      <trkpt lat="44.61953" lon="6.9609">
        <ele>3229.7041015625</ele>
        <time>2011-07-15T10:33:50Z</time>
      </trkpt>
      <trkpt lat="44.61953" lon="6.96094">
        <ele>3230.69140625</ele>
        <time>2011-07-15T10:33:57Z</time>
      </trkpt>
      <trkpt lat="44.61954" lon="6.961">
        <ele>3232.1911621094</ele>
        <time>2011-07-15T10:34:07Z</time>
      </trkpt>
      <trkpt lat="44.61954" lon="6.96104">
        <ele>3233.2236328125</ele>
        <time>2011-07-15T10:34:15Z</time>
      </trkpt>
      <trkpt lat="44.61956" lon="6.96107">
        <ele>3234.2019042969</ele>
        <time>2011-07-15T10:34:22Z</time>
      </trkpt>
      <trkpt lat="44.61955" lon="6.96111">
        <ele>3235.0046386719</ele>
        <time>2011-07-15T10:34:30Z</time>
      </trkpt>
      <trkpt lat="44.61956" lon="6.96114">
        <ele>3235.8850097656</ele>
        <time>2011-07-15T10:34:37Z</time>
      </trkpt>
      <trkpt lat="44.61955" lon="6.96118">
        <ele>3236.5966796875</ele>
        <time>2011-07-15T10:34:44Z</time>
      </trkpt>
      <trkpt lat="44.61955" lon="6.9612">
        <ele>3237.044921875</ele>
        <time>2011-07-15T10:34:50Z</time>
      </trkpt>
      <trkpt lat="44.61955" lon="6.96124">
        <ele>3238.0048828125</ele>
        <time>2011-07-15T10:34:58Z</time>
      </trkpt>
      <trkpt lat="44.61955" lon="6.96129">
        <ele>3239.021484375</ele>
        <time>2011-07-15T10:35:07Z</time>
      </trkpt>
      <trkpt lat="44.61955" lon="6.96131">
        <ele>3239.5825195312</ele>
        <time>2011-07-15T10:35:13Z</time>
      </trkpt>
      <trkpt lat="44.61956" lon="6.96134">
        <ele>3240.4152832031</ele>
        <time>2011-07-15T10:35:20Z</time>
      </trkpt>
      <trkpt lat="44.61955" lon="6.96137">
        <ele>3240.9484863281</ele>
        <time>2011-07-15T10:35:28Z</time>
      </trkpt>
      <trkpt lat="44.61955" lon="6.96141">
        <ele>3241.9340820312</ele>
        <time>2011-07-15T10:35:35Z</time>
      </trkpt>
      <trkpt lat="44.61955" lon="6.96145">
        <ele>3243.8117675781</ele>
        <time>2011-07-15T10:35:45Z</time>
      </trkpt>
      <trkpt lat="44.61956" lon="6.96148">
        <ele>3245.3549804688</ele>
        <time>2011-07-15T10:35:52Z</time>
      </trkpt>
      <trkpt lat="44.61956" lon="6.96151">
        <ele>3246.8225097656</ele>
        <time>2011-07-15T10:35:58Z</time>
      </trkpt>
      <trkpt lat="44.61956" lon="6.96153">
        <ele>3247.9233398438</ele>
        <time>2011-07-15T10:36:04Z</time>
      </trkpt>
      <trkpt lat="44.61956" lon="6.96156">
        <ele>3249.3950195312</ele>
        <time>2011-07-15T10:36:12Z</time>
      </trkpt>
      <trkpt lat="44.61957" lon="6.9616">
        <ele>3251.3161621094</ele>
        <time>2011-07-15T10:36:22Z</time>
      </trkpt>
      <trkpt lat="44.61956" lon="6.96163">
        <ele>3252.240234375</ele>
        <time>2011-07-15T10:36:28Z</time>
      </trkpt>
      <trkpt lat="44.61957" lon="6.96165">
        <ele>3253.2255859375</ele>
        <time>2011-07-15T10:36:34Z</time>
      </trkpt>
      <trkpt lat="44.61957" lon="6.96168">
        <ele>3254.7414550781</ele>
        <time>2011-07-15T10:36:43Z</time>
      </trkpt>
      <trkpt lat="44.61957" lon="6.96172">
        <ele>3256.3386230469</ele>
        <time>2011-07-15T10:36:52Z</time>
      </trkpt>
      <trkpt lat="44.61957" lon="6.96175">
        <ele>3257.1694335938</ele>
        <time>2011-07-15T10:36:59Z</time>
      </trkpt>
      <trkpt lat="44.61958" lon="6.96178">
        <ele>3258.5646972656</ele>
        <time>2011-07-15T10:37:07Z</time>
      </trkpt>
      <trkpt lat="44.61957" lon="6.9618">
        <ele>3259.1264648438</ele>
        <time>2011-07-15T10:37:13Z</time>
      </trkpt>
      <trkpt lat="44.61958" lon="6.96182">
        <ele>3259.9743652344</ele>
        <time>2011-07-15T10:37:19Z</time>
      </trkpt>
      <trkpt lat="44.61958" lon="6.96184">
        <ele>3260.9501953125</ele>
        <time>2011-07-15T10:37:25Z</time>
      </trkpt>
      <trkpt lat="44.61956" lon="6.96188">
        <ele>3262.1030273438</ele>
        <time>2011-07-15T10:37:33Z</time>
      </trkpt>
      <trkpt lat="44.61958" lon="6.96191">
        <ele>3263.48046875</ele>
        <time>2011-07-15T10:37:40Z</time>
      </trkpt>
      <trkpt lat="44.61957" lon="6.96194">
        <ele>3264.3449707031</ele>
        <time>2011-07-15T10:37:47Z</time>
      </trkpt>
      <trkpt lat="44.61957" lon="6.96197">
        <ele>3265.677734375</ele>
        <time>2011-07-15T10:37:56Z</time>
      </trkpt>
      <trkpt lat="44.61957" lon="6.96201">
        <ele>3267.0541992188</ele>
        <time>2011-07-15T10:38:05Z</time>
      </trkpt>
      <trkpt lat="44.61956" lon="6.96205">
        <ele>3268.1735839844</ele>
        <time>2011-07-15T10:38:13Z</time>
      </trkpt>
      <trkpt lat="44.61955" lon="6.96209">
        <ele>3269.2631835938</ele>
        <time>2011-07-15T10:38:22Z</time>
      </trkpt>
      <trkpt lat="44.61954" lon="6.96211">
        <ele>3269.6418457031</ele>
        <time>2011-07-15T10:38:29Z</time>
      </trkpt>
      <trkpt lat="44.61955" lon="6.9621">
        <ele>3269.7397460938</ele>
        <time>2011-07-15T10:38:30Z</time>
      </trkpt>
      <trkpt lat="44.61954" lon="6.9621">
        <ele>3269.4958496094</ele>
        <time>2011-07-15T10:38:41Z</time>
      </trkpt>
      <trkpt lat="44.61954" lon="6.9621">
        <ele>3269.4794921875</ele>
        <time>2011-07-15T10:38:42Z</time>
      </trkpt>
      <trkpt lat="44.61954" lon="6.9621">
        <ele>3269.3498535156</ele>
        <time>2011-07-15T10:38:45Z</time>
      </trkpt>
      <trkpt lat="44.61954" lon="6.96209">
        <ele>3269.236328125</ele>
        <time>2011-07-15T10:38:48Z</time>
      </trkpt>
      <trkpt lat="44.61954" lon="6.96209">
        <ele>3269.1552734375</ele>
        <time>2011-07-15T10:38:51Z</time>
      </trkpt>
      <trkpt lat="44.61954" lon="6.96211">
        <ele>3269.6403808594</ele>
        <time>2011-07-15T10:38:57Z</time>
      </trkpt>
      <trkpt lat="44.61954" lon="6.96214">
        <ele>3270.7121582031</ele>
        <time>2011-07-15T10:39:06Z</time>
      </trkpt>
      <trkpt lat="44.61955" lon="6.96217">
        <ele>3272.0234375</ele>
        <time>2011-07-15T10:39:13Z</time>
      </trkpt>
      <trkpt lat="44.61955" lon="6.96221">
        <ele>3273.3935546875</ele>
        <time>2011-07-15T10:39:21Z</time>
      </trkpt>
      <trkpt lat="44.61955" lon="6.96221">
        <ele>3273.4262695312</ele>
        <time>2011-07-15T10:39:27Z</time>
      </trkpt>
      <trkpt lat="44.61956" lon="6.96223">
        <ele>3274.1083984375</ele>
        <time>2011-07-15T10:39:41Z</time>
      </trkpt>
      <trkpt lat="44.61958" lon="6.96231">
        <ele>3275.9479980469</ele>
        <time>2011-07-15T10:39:49Z</time>
      </trkpt>
      <trkpt lat="44.61957" lon="6.96234">
        <ele>3276.0441894531</ele>
        <time>2011-07-15T10:39:54Z</time>
      </trkpt>
      <trkpt lat="44.61956" lon="6.96235">
        <ele>3276.1789550781</ele>
        <time>2011-07-15T10:39:59Z</time>
      </trkpt>
      <trkpt lat="44.61957" lon="6.96237">
        <ele>3276.544921875</ele>
        <time>2011-07-15T10:40:15Z</time>
      </trkpt>
      <trkpt lat="44.61956" lon="6.96241">
        <ele>3277.013671875</ele>
        <time>2011-07-15T10:40:21Z</time>
      </trkpt>
      <trkpt lat="44.61956" lon="6.9624">
        <ele>3276.9111328125</ele>
        <time>2011-07-15T10:40:26Z</time>
      </trkpt>
      <trkpt lat="44.61956" lon="6.9624">
        <ele>3276.7878417969</ele>
        <time>2011-07-15T10:40:35Z</time>
      </trkpt>
      <trkpt lat="44.61956" lon="6.9624">
        <ele>3276.8220214844</ele>
        <time>2011-07-15T10:40:42Z</time>
      </trkpt>
      <trkpt lat="44.61957" lon="6.96238">
        <ele>3276.6850585938</ele>
        <time>2011-07-15T10:40:49Z</time>
      </trkpt>
      <trkpt lat="44.61958" lon="6.96239">
        <ele>3277.0422363281</ele>
        <time>2011-07-15T10:40:54Z</time>
      </trkpt>
      <trkpt lat="44.61958" lon="6.9624">
        <ele>3277.208984375</ele>
        <time>2011-07-15T10:41:01Z</time>
      </trkpt>
      <trkpt lat="44.61958" lon="6.9624">
        <ele>3277.1657714844</ele>
        <time>2011-07-15T10:41:06Z</time>
      </trkpt>
      <trkpt lat="44.61957" lon="6.9624">
        <ele>3276.9624023438</ele>
        <time>2011-07-15T10:41:16Z</time>
      </trkpt>
      <trkpt lat="44.61957" lon="6.9624">
        <ele>3277.0534667969</ele>
        <time>2011-07-15T10:41:20Z</time>
      </trkpt>
      <trkpt lat="44.61957" lon="6.9624">
        <ele>3277.0014648438</ele>
        <time>2011-07-15T10:41:22Z</time>
      </trkpt>
      <trkpt lat="44.61957" lon="6.9624">
        <ele>3277.0144042969</ele>
        <time>2011-07-15T10:41:25Z</time>
      </trkpt>
      <trkpt lat="44.61957" lon="6.9624">
        <ele>3277.0339355469</ele>
        <time>2011-07-15T10:41:26Z</time>
      </trkpt>
      <trkpt lat="44.61957" lon="6.96241">
        <ele>3277.0795898438</ele>
        <time>2011-07-15T10:41:32Z</time>
      </trkpt>
      <trkpt lat="44.61957" lon="6.9624">
        <ele>3277.0534667969</ele>
        <time>2011-07-15T10:41:39Z</time>
      </trkpt>
      <trkpt lat="44.61956" lon="6.96241">
        <ele>3276.97265625</ele>
        <time>2011-07-15T10:42:05Z</time>
      </trkpt>
      <trkpt lat="44.61957" lon="6.96241">
        <ele>3277.0456542969</ele>
        <time>2011-07-15T10:42:15Z</time>
      </trkpt>
      <trkpt lat="44.61956" lon="6.9624">
        <ele>3276.8837890625</ele>
        <time>2011-07-15T10:42:24Z</time>
      </trkpt>
      <trkpt lat="44.61957" lon="6.96239">
        <ele>3276.8386230469</ele>
        <time>2011-07-15T10:42:28Z</time>
      </trkpt>
      <trkpt lat="44.61957" lon="6.96239">
        <ele>3276.8120117188</ele>
        <time>2011-07-15T10:42:32Z</time>
      </trkpt>
      <trkpt lat="44.61956" lon="6.9624">
        <ele>3276.904296875</ele>
        <time>2011-07-15T10:42:44Z</time>
      </trkpt>
      <trkpt lat="44.61957" lon="6.96239">
        <ele>3276.8586425781</ele>
        <time>2011-07-15T10:42:53Z</time>
      </trkpt>
      <trkpt lat="44.61956" lon="6.9624">
        <ele>3276.8015136719</ele>
        <time>2011-07-15T10:43:00Z</time>
      </trkpt>
      <trkpt lat="44.61958" lon="6.96239">
        <ele>3276.9123535156</ele>
        <time>2011-07-15T10:43:09Z</time>
      </trkpt>
      <trkpt lat="44.61958" lon="6.96239">
        <ele>3277.1452636719</ele>
        <time>2011-07-15T10:43:16Z</time>
      </trkpt>
      <trkpt lat="44.61958" lon="6.96239">
        <ele>3277.0729980469</ele>
        <time>2011-07-15T10:43:24Z</time>
      </trkpt>
      <trkpt lat="44.61958" lon="6.96239">
        <ele>3276.9680175781</ele>
        <time>2011-07-15T10:43:29Z</time>
      </trkpt>
      <trkpt lat="44.61961" lon="6.96234">
        <ele>3277.2021484375</ele>
        <time>2011-07-15T10:43:37Z</time>
      </trkpt>
      <trkpt lat="44.61964" lon="6.96232">
        <ele>3277.884765625</ele>
        <time>2011-07-15T10:43:44Z</time>
      </trkpt>
      <trkpt lat="44.61966" lon="6.96231">
        <ele>3278.2194824219</ele>
        <time>2011-07-15T10:43:49Z</time>
      </trkpt>
      <trkpt lat="44.61965" lon="6.96231">
        <ele>3278.02734375</ele>
        <time>2011-07-15T10:43:58Z</time>
      </trkpt>
      <trkpt lat="44.61965" lon="6.96231">
        <ele>3278.048828125</ele>
        <time>2011-07-15T10:44:06Z</time>
      </trkpt>
      <trkpt lat="44.61964" lon="6.96231">
        <ele>3277.724609375</ele>
        <time>2011-07-15T10:44:14Z</time>
      </trkpt>
      <trkpt lat="44.61965" lon="6.96231">
        <ele>3278.0305175781</ele>
        <time>2011-07-15T10:44:21Z</time>
      </trkpt>
      <trkpt lat="44.61966" lon="6.96231">
        <ele>3278.2385253906</ele>
        <time>2011-07-15T10:44:29Z</time>
      </trkpt>
      <trkpt lat="44.61966" lon="6.96231">
        <ele>3278.1198730469</ele>
        <time>2011-07-15T10:44:32Z</time>
      </trkpt>
      <trkpt lat="44.61966" lon="6.96231">
        <ele>3278.1313476562</ele>
        <time>2011-07-15T10:44:33Z</time>
      </trkpt>
      <trkpt lat="44.61966" lon="6.96231">
        <ele>3278.2329101562</ele>
        <time>2011-07-15T10:44:42Z</time>
      </trkpt>
      <trkpt lat="44.61966" lon="6.96231">
        <ele>3278.2302246094</ele>
        <time>2011-07-15T10:44:51Z</time>
      </trkpt>
      <trkpt lat="44.61966" lon="6.9623">
        <ele>3278.099609375</ele>
        <time>2011-07-15T10:45:06Z</time>
      </trkpt>
      <trkpt lat="44.61965" lon="6.96231">
        <ele>3278.0183105469</ele>
        <time>2011-07-15T10:45:12Z</time>
      </trkpt>
      <trkpt lat="44.61966" lon="6.96231">
        <ele>3278.2465820312</ele>
        <time>2011-07-15T10:45:17Z</time>
      </trkpt>
      <trkpt lat="44.61966" lon="6.96231">
        <ele>3278.2573242188</ele>
        <time>2011-07-15T10:45:28Z</time>
      </trkpt>
      <trkpt lat="44.61966" lon="6.96231">
        <ele>3278.2629394531</ele>
        <time>2011-07-15T10:45:29Z</time>
      </trkpt>
      <trkpt lat="44.61966" lon="6.96231">
        <ele>3278.1313476562</ele>
        <time>2011-07-15T10:45:38Z</time>
      </trkpt>
      <trkpt lat="44.61966" lon="6.96231">
        <ele>3278.1228027344</ele>
        <time>2011-07-15T10:45:59Z</time>
      </trkpt>
      <trkpt lat="44.61966" lon="6.96231">
        <ele>3278.1486816406</ele>
        <time>2011-07-15T10:46:07Z</time>
      </trkpt>
      <trkpt lat="44.61964" lon="6.96232">
        <ele>3277.8645019531</ele>
        <time>2011-07-15T10:46:13Z</time>
      </trkpt>
      <trkpt lat="44.61959" lon="6.96232">
        <ele>3276.431640625</ele>
        <time>2011-07-15T10:46:19Z</time>
      </trkpt>
      <trkpt lat="44.61957" lon="6.96233">
        <ele>3276.0375976562</ele>
        <time>2011-07-15T10:46:22Z</time>
      </trkpt>
      <trkpt lat="44.61956" lon="6.96238">
        <ele>3276.4931640625</ele>
        <time>2011-07-15T10:46:29Z</time>
      </trkpt>
      <trkpt lat="44.61956" lon="6.9624">
        <ele>3276.6975097656</ele>
        <time>2011-07-15T10:46:36Z</time>
      </trkpt>
      <trkpt lat="44.61955" lon="6.96239">
        <ele>3276.4631347656</ele>
        <time>2011-07-15T10:46:45Z</time>
      </trkpt>
      <trkpt lat="44.61955" lon="6.96239">
        <ele>3276.4013671875</ele>
        <time>2011-07-15T10:47:03Z</time>
      </trkpt>
      <trkpt lat="44.61956" lon="6.96239">
        <ele>3276.525390625</ele>
        <time>2011-07-15T10:47:18Z</time>
      </trkpt>
      <trkpt lat="44.61956" lon="6.96239">
        <ele>3276.5827636719</ele>
        <time>2011-07-15T10:47:27Z</time>
      </trkpt>
      <trkpt lat="44.61956" lon="6.9624">
        <ele>3276.7548828125</ele>
        <time>2011-07-15T10:47:51Z</time>
      </trkpt>
      <trkpt lat="44.61956" lon="6.96241">
        <ele>3276.8051757812</ele>
        <time>2011-07-15T10:47:57Z</time>
      </trkpt>
      <trkpt lat="44.61956" lon="6.96241">
        <ele>3276.8195800781</ele>
        <time>2011-07-15T10:48:03Z</time>
      </trkpt>
      <trkpt lat="44.61956" lon="6.96241">
        <ele>3276.8696289062</ele>
        <time>2011-07-15T10:48:07Z</time>
      </trkpt>
      <trkpt lat="44.61956" lon="6.96241">
        <ele>3276.9978027344</ele>
        <time>2011-07-15T10:48:12Z</time>
      </trkpt>
      <trkpt lat="44.61956" lon="6.96241">
        <ele>3277.0615234375</ele>
        <time>2011-07-15T10:48:32Z</time>
      </trkpt>
      <trkpt lat="44.61956" lon="6.96241">
        <ele>3276.9697265625</ele>
        <time>2011-07-15T10:48:43Z</time>
      </trkpt>
      <trkpt lat="44.61956" lon="6.96241">
        <ele>3276.8984375</ele>
        <time>2011-07-15T10:48:50Z</time>
      </trkpt>
      <trkpt lat="44.61956" lon="6.96241">
        <ele>3276.9125976562</ele>
        <time>2011-07-15T10:49:24Z</time>
      </trkpt>
      <trkpt lat="44.61956" lon="6.96241">
        <ele>3276.8051757812</ele>
        <time>2011-07-15T10:49:36Z</time>
      </trkpt>
      <trkpt lat="44.61956" lon="6.96241">
        <ele>3276.7978515625</ele>
        <time>2011-07-15T10:49:40Z</time>
      </trkpt>
      <trkpt lat="44.61956" lon="6.96241">
        <ele>3276.8715820312</ele>
        <time>2011-07-15T10:49:43Z</time>
      </trkpt>
      <trkpt lat="44.61956" lon="6.96241">
        <ele>3276.8715820312</ele>
        <time>2011-07-15T10:49:44Z</time>
      </trkpt>
      <trkpt lat="44.61956" lon="6.96241">
        <ele>3276.8786621094</ele>
        <time>2011-07-15T10:49:45Z</time>
      </trkpt>
      <trkpt lat="44.61956" lon="6.96241">
        <ele>3276.97265625</ele>
        <time>2011-07-15T10:49:49Z</time>
      </trkpt>
      <trkpt lat="44.61956" lon="6.9624">
        <ele>3276.876953125</ele>
        <time>2011-07-15T10:49:53Z</time>
      </trkpt>
      <trkpt lat="44.61953" lon="6.96233">
        <ele>3274.9846191406</ele>
        <time>2011-07-15T10:50:01Z</time>
      </trkpt>
      <trkpt lat="44.61954" lon="6.96225">
        <ele>3273.8544921875</ele>
        <time>2011-07-15T10:50:07Z</time>
      </trkpt>
      <trkpt lat="44.61955" lon="6.96221">
        <ele>3273.5617675781</ele>
        <time>2011-07-15T10:50:11Z</time>
      </trkpt>
      <trkpt lat="44.61955" lon="6.96217">
        <ele>3272.0358886719</ele>
        <time>2011-07-15T10:50:18Z</time>
      </trkpt>
      <trkpt lat="44.61956" lon="6.96213">
        <ele>3271.0278320312</ele>
        <time>2011-07-15T10:50:24Z</time>
      </trkpt>
      <trkpt lat="44.61957" lon="6.96206">
        <ele>3268.8332519531</ele>
        <time>2011-07-15T10:50:30Z</time>
      </trkpt>
      <trkpt lat="44.61957" lon="6.96206">
        <ele>3268.81640625</ele>
        <time>2011-07-15T10:50:38Z</time>
      </trkpt>
      <trkpt lat="44.61959" lon="6.96201">
        <ele>3267.533203125</ele>
        <time>2011-07-15T10:50:46Z</time>
      </trkpt>
      <trkpt lat="44.6196" lon="6.96191">
        <ele>3263.8957519531</ele>
        <time>2011-07-15T10:50:52Z</time>
      </trkpt>
      <trkpt lat="44.61959" lon="6.96188">
        <ele>3262.6623535156</ele>
        <time>2011-07-15T10:50:54Z</time>
      </trkpt>
      <trkpt lat="44.61959" lon="6.96181">
        <ele>3260.2204589844</ele>
        <time>2011-07-15T10:51:00Z</time>
      </trkpt>
      <trkpt lat="44.61958" lon="6.96174">
        <ele>3257.1774902344</ele>
        <time>2011-07-15T10:51:07Z</time>
      </trkpt>
      <trkpt lat="44.61959" lon="6.96171">
        <ele>3256.2080078125</ele>
        <time>2011-07-15T10:51:12Z</time>
      </trkpt>
      <trkpt lat="44.61958" lon="6.96165">
        <ele>3253.7082519531</ele>
        <time>2011-07-15T10:51:19Z</time>
      </trkpt>
      <trkpt lat="44.61958" lon="6.96158">
        <ele>3250.5659179688</ele>
        <time>2011-07-15T10:51:25Z</time>
      </trkpt>
      <trkpt lat="44.61957" lon="6.96144">
        <ele>3243.97265625</ele>
        <time>2011-07-15T10:51:34Z</time>
      </trkpt>
      <trkpt lat="44.61956" lon="6.96134">
        <ele>3240.6281738281</ele>
        <time>2011-07-15T10:51:40Z</time>
      </trkpt>
      <trkpt lat="44.61956" lon="6.96123">
        <ele>3237.9528808594</ele>
        <time>2011-07-15T10:51:47Z</time>
      </trkpt>
      <trkpt lat="44.61956" lon="6.96112">
        <ele>3235.3627929688</ele>
        <time>2011-07-15T10:51:54Z</time>
      </trkpt>
      <trkpt lat="44.61954" lon="6.96101">
        <ele>3232.5573730469</ele>
        <time>2011-07-15T10:52:01Z</time>
      </trkpt>
      <trkpt lat="44.61954" lon="6.96088">
        <ele>3229.65234375</ele>
        <time>2011-07-15T10:52:09Z</time>
      </trkpt>
      <trkpt lat="44.61955" lon="6.96071">
        <ele>3226.2204589844</ele>
        <time>2011-07-15T10:52:19Z</time>
      </trkpt>
      <trkpt lat="44.61953" lon="6.9606">
        <ele>3223.3103027344</ele>
        <time>2011-07-15T10:52:26Z</time>
      </trkpt>
      <trkpt lat="44.61951" lon="6.96049">
        <ele>3220.8630371094</ele>
        <time>2011-07-15T10:52:32Z</time>
      </trkpt>
      <trkpt lat="44.61949" lon="6.96037">
        <ele>3217.8452148438</ele>
        <time>2011-07-15T10:52:40Z</time>
      </trkpt>
      <trkpt lat="44.61942" lon="6.96026">
        <ele>3214.642578125</ele>
        <time>2011-07-15T10:52:50Z</time>
      </trkpt>
      <trkpt lat="44.61936" lon="6.96023">
        <ele>3213.7431640625</ele>
        <time>2011-07-15T10:52:56Z</time>
      </trkpt>
      <trkpt lat="44.61925" lon="6.96024">
        <ele>3212.9946289062</ele>
        <time>2011-07-15T10:53:05Z</time>
      </trkpt>
      <trkpt lat="44.61915" lon="6.96026">
        <ele>3212.3513183594</ele>
        <time>2011-07-15T10:53:14Z</time>
      </trkpt>
      <trkpt lat="44.61912" lon="6.96024">
        <ele>3211.5998535156</ele>
        <time>2011-07-15T10:53:17Z</time>
      </trkpt>
      <trkpt lat="44.61904" lon="6.96023">
        <ele>3210.0241699219</ele>
        <time>2011-07-15T10:53:25Z</time>
      </trkpt>
      <trkpt lat="44.61898" lon="6.96023">
        <ele>3208.8352050781</ele>
        <time>2011-07-15T10:53:32Z</time>
      </trkpt>
      <trkpt lat="44.61895" lon="6.96021">
        <ele>3207.86328125</ele>
        <time>2011-07-15T10:53:37Z</time>
      </trkpt>
      <trkpt lat="44.61893" lon="6.96015">
        <ele>3206.6364746094</ele>
        <time>2011-07-15T10:53:43Z</time>
      </trkpt>
      <trkpt lat="44.61893" lon="6.96015">
        <ele>3206.478515625</ele>
        <time>2011-07-15T10:53:48Z</time>
      </trkpt>
      <trkpt lat="44.61891" lon="6.96009">
        <ele>3204.9272460938</ele>
        <time>2011-07-15T10:53:55Z</time>
      </trkpt>
      <trkpt lat="44.61889" lon="6.96001">
        <ele>3203.1799316406</ele>
        <time>2011-07-15T10:54:02Z</time>
      </trkpt>
      <trkpt lat="44.6189" lon="6.95998">
        <ele>3202.9670410156</ele>
        <time>2011-07-15T10:54:07Z</time>
      </trkpt>
      <trkpt lat="44.61893" lon="6.95988">
        <ele>3202.4987792969</ele>
        <time>2011-07-15T10:54:14Z</time>
      </trkpt>
      <trkpt lat="44.61893" lon="6.95987">
        <ele>3202.4836425781</ele>
        <time>2011-07-15T10:54:15Z</time>
      </trkpt>
      <trkpt lat="44.61896" lon="6.95976">
        <ele>3201.62890625</ele>
        <time>2011-07-15T10:54:23Z</time>
      </trkpt>
      <trkpt lat="44.61897" lon="6.95967">
        <ele>3199.8474121094</ele>
        <time>2011-07-15T10:54:29Z</time>
      </trkpt>
      <trkpt lat="44.61899" lon="6.95956">
        <ele>3197.2065429688</ele>
        <time>2011-07-15T10:54:37Z</time>
      </trkpt>
      <trkpt lat="44.61899" lon="6.95955">
        <ele>3197.04296875</ele>
        <time>2011-07-15T10:54:38Z</time>
      </trkpt>
      <trkpt lat="44.61902" lon="6.9595">
        <ele>3196.7294921875</ele>
        <time>2011-07-15T10:54:45Z</time>
      </trkpt>
      <trkpt lat="44.61905" lon="6.95942">
        <ele>3195.5358886719</ele>
        <time>2011-07-15T10:54:51Z</time>
      </trkpt>
      <trkpt lat="44.61908" lon="6.95937">
        <ele>3194.8972167969</ele>
        <time>2011-07-15T10:54:56Z</time>
      </trkpt>
      <trkpt lat="44.6191" lon="6.95933">
        <ele>3194.2724609375</ele>
        <time>2011-07-15T10:55:02Z</time>
      </trkpt>
      <trkpt lat="44.61914" lon="6.95925">
        <ele>3193.1394042969</ele>
        <time>2011-07-15T10:55:08Z</time>
      </trkpt>
      <trkpt lat="44.61918" lon="6.95917">
        <ele>3191.1770019531</ele>
        <time>2011-07-15T10:55:15Z</time>
      </trkpt>
      <trkpt lat="44.61921" lon="6.95909">
        <ele>3188.35546875</ele>
        <time>2011-07-15T10:55:21Z</time>
      </trkpt>
      <trkpt lat="44.61921" lon="6.95908">
        <ele>3187.9331054688</ele>
        <time>2011-07-15T10:55:22Z</time>
      </trkpt>
      <trkpt lat="44.61924" lon="6.95903">
        <ele>3185.7932128906</ele>
        <time>2011-07-15T10:55:28Z</time>
      </trkpt>
      <trkpt lat="44.61927" lon="6.95897">
        <ele>3183.5122070312</ele>
        <time>2011-07-15T10:55:34Z</time>
      </trkpt>
      <trkpt lat="44.6193" lon="6.95897">
        <ele>3183.5837402344</ele>
        <time>2011-07-15T10:55:41Z</time>
      </trkpt>
      <trkpt lat="44.61931" lon="6.95898">
        <ele>3184.1572265625</ele>
        <time>2011-07-15T10:56:11Z</time>
      </trkpt>
      <trkpt lat="44.61931" lon="6.95897">
        <ele>3183.544921875</ele>
        <time>2011-07-15T10:56:16Z</time>
      </trkpt>
      <trkpt lat="44.61929" lon="6.95894">
        <ele>3182.4677734375</ele>
        <time>2011-07-15T10:56:20Z</time>
      </trkpt>
      <trkpt lat="44.61929" lon="6.95893">
        <ele>3181.8310546875</ele>
        <time>2011-07-15T10:56:24Z</time>
      </trkpt>
      <trkpt lat="44.61931" lon="6.95891">
        <ele>3180.7797851562</ele>
        <time>2011-07-15T10:56:29Z</time>
      </trkpt>
      <trkpt lat="44.61933" lon="6.95892">
        <ele>3181.5578613281</ele>
        <time>2011-07-15T10:56:34Z</time>
      </trkpt>
      <trkpt lat="44.61934" lon="6.95893">
        <ele>3181.7331542969</ele>
        <time>2011-07-15T10:56:40Z</time>
      </trkpt>
      <trkpt lat="44.61935" lon="6.95892">
        <ele>3181.5483398438</ele>
        <time>2011-07-15T10:56:44Z</time>
      </trkpt>
      <trkpt lat="44.61938" lon="6.9589">
        <ele>3180.7163085938</ele>
        <time>2011-07-15T10:56:46Z</time>
      </trkpt>
      <trkpt lat="44.61939" lon="6.95888">
        <ele>3179.6433105469</ele>
        <time>2011-07-15T10:56:48Z</time>
      </trkpt>
      <trkpt lat="44.6194" lon="6.95887">
        <ele>3179.5615234375</ele>
        <time>2011-07-15T10:56:58Z</time>
      </trkpt>
      <trkpt lat="44.61941" lon="6.95888">
        <ele>3179.59375</ele>
        <time>2011-07-15T10:57:17Z</time>
      </trkpt>
      <trkpt lat="44.61942" lon="6.95886">
        <ele>3179.2475585938</ele>
        <time>2011-07-15T10:57:23Z</time>
      </trkpt>
      <trkpt lat="44.61947" lon="6.95883">
        <ele>3178.6899414062</ele>
        <time>2011-07-15T10:57:29Z</time>
      </trkpt>
      <trkpt lat="44.61951" lon="6.9588">
        <ele>3178.3696289062</ele>
        <time>2011-07-15T10:57:36Z</time>
      </trkpt>
      <trkpt lat="44.61956" lon="6.95876">
        <ele>3177.7255859375</ele>
        <time>2011-07-15T10:57:43Z</time>
      </trkpt>
      <trkpt lat="44.61961" lon="6.95875">
        <ele>3177.8891601562</ele>
        <time>2011-07-15T10:57:48Z</time>
      </trkpt>
      <trkpt lat="44.61967" lon="6.95875">
        <ele>3178.3137207031</ele>
        <time>2011-07-15T10:57:55Z</time>
      </trkpt>
      <trkpt lat="44.6197" lon="6.95873">
        <ele>3178.2258300781</ele>
        <time>2011-07-15T10:58:00Z</time>
      </trkpt>
      <trkpt lat="44.61976" lon="6.95873">
        <ele>3178.2119140625</ele>
        <time>2011-07-15T10:58:06Z</time>
      </trkpt>
      <trkpt lat="44.61977" lon="6.95873">
        <ele>3178.1328125</ele>
        <time>2011-07-15T10:58:12Z</time>
      </trkpt>
      <trkpt lat="44.6198" lon="6.95872">
        <ele>3177.7963867188</ele>
        <time>2011-07-15T10:58:15Z</time>
      </trkpt>
      <trkpt lat="44.61988" lon="6.95869">
        <ele>3176.4609375</ele>
        <time>2011-07-15T10:58:23Z</time>
      </trkpt>
      <trkpt lat="44.61993" lon="6.95867">
        <ele>3175.2077636719</ele>
        <time>2011-07-15T10:58:29Z</time>
      </trkpt>
      <trkpt lat="44.62001" lon="6.95862">
        <ele>3173.4658203125</ele>
        <time>2011-07-15T10:58:37Z</time>
      </trkpt>
      <trkpt lat="44.62006" lon="6.95859">
        <ele>3172.81640625</ele>
        <time>2011-07-15T10:58:44Z</time>
      </trkpt>
      <trkpt lat="44.62011" lon="6.95858">
        <ele>3172.95703125</ele>
        <time>2011-07-15T10:58:49Z</time>
      </trkpt>
      <trkpt lat="44.62016" lon="6.95859">
        <ele>3173.4716796875</ele>
        <time>2011-07-15T10:58:55Z</time>
      </trkpt>
      <trkpt lat="44.62021" lon="6.95859">
        <ele>3173.9709472656</ele>
        <time>2011-07-15T10:59:01Z</time>
      </trkpt>
      <trkpt lat="44.62027" lon="6.95859">
        <ele>3174.2177734375</ele>
        <time>2011-07-15T10:59:08Z</time>
      </trkpt>
      <trkpt lat="44.62027" lon="6.95859">
        <ele>3174.3662109375</ele>
        <time>2011-07-15T10:59:15Z</time>
      </trkpt>
      <trkpt lat="44.6203" lon="6.95859">
        <ele>3174.7751464844</ele>
        <time>2011-07-15T10:59:34Z</time>
      </trkpt>
      <trkpt lat="44.62036" lon="6.95856">
        <ele>3175.1025390625</ele>
        <time>2011-07-15T10:59:40Z</time>
      </trkpt>
      <trkpt lat="44.62041" lon="6.95854">
        <ele>3175.3161621094</ele>
        <time>2011-07-15T10:59:47Z</time>
      </trkpt>
      <trkpt lat="44.62047" lon="6.95851">
        <ele>3175.7390136719</ele>
        <time>2011-07-15T10:59:53Z</time>
      </trkpt>
      <trkpt lat="44.62052" lon="6.95847">
        <ele>3175.8034667969</ele>
        <time>2011-07-15T10:59:59Z</time>
      </trkpt>
      <trkpt lat="44.62057" lon="6.95844">
        <ele>3176.3752441406</ele>
        <time>2011-07-15T11:00:05Z</time>
      </trkpt>
      <trkpt lat="44.62062" lon="6.95842">
        <ele>3177.1489257812</ele>
        <time>2011-07-15T11:00:11Z</time>
      </trkpt>
      <trkpt lat="44.62066" lon="6.95837">
        <ele>3177.2385253906</ele>
        <time>2011-07-15T11:00:17Z</time>
      </trkpt>
      <trkpt lat="44.62071" lon="6.95832">
        <ele>3177.6154785156</ele>
        <time>2011-07-15T11:00:23Z</time>
      </trkpt>
      <trkpt lat="44.62075" lon="6.95828">
        <ele>3177.7116699219</ele>
        <time>2011-07-15T11:00:29Z</time>
      </trkpt>
      <trkpt lat="44.62076" lon="6.95824">
        <ele>3176.9975585938</ele>
        <time>2011-07-15T11:00:34Z</time>
      </trkpt>
      <trkpt lat="44.62075" lon="6.9582">
        <ele>3175.6379394531</ele>
        <time>2011-07-15T11:00:40Z</time>
      </trkpt>
      <trkpt lat="44.62078" lon="6.95815">
        <ele>3175.1711425781</ele>
        <time>2011-07-15T11:00:45Z</time>
      </trkpt>
      <trkpt lat="44.62083" lon="6.95813">
        <ele>3176.0444335938</ele>
        <time>2011-07-15T11:00:51Z</time>
      </trkpt>
      <trkpt lat="44.62084" lon="6.95813">
        <ele>3176.3388671875</ele>
        <time>2011-07-15T11:01:01Z</time>
      </trkpt>
      <trkpt lat="44.62086" lon="6.95809">
        <ele>3175.8940429688</ele>
        <time>2011-07-15T11:01:07Z</time>
      </trkpt>
      <trkpt lat="44.6209" lon="6.95805">
        <ele>3175.5747070312</ele>
        <time>2011-07-15T11:01:11Z</time>
      </trkpt>
      <trkpt lat="44.62093" lon="6.95801">
        <ele>3175.3552246094</ele>
        <time>2011-07-15T11:01:15Z</time>
      </trkpt>
      <trkpt lat="44.62095" lon="6.95797">
        <ele>3175.0959472656</ele>
        <time>2011-07-15T11:01:18Z</time>
      </trkpt>
      <trkpt lat="44.62098" lon="6.95793">
        <ele>3175.0251464844</ele>
        <time>2011-07-15T11:01:23Z</time>
      </trkpt>
      <trkpt lat="44.62104" lon="6.95787">
        <ele>3174.9079589844</ele>
        <time>2011-07-15T11:01:31Z</time>
      </trkpt>
      <trkpt lat="44.62107" lon="6.9578">
        <ele>3173.6489257812</ele>
        <time>2011-07-15T11:01:37Z</time>
      </trkpt>
      <trkpt lat="44.62107" lon="6.9578">
        <ele>3173.5278320312</ele>
        <time>2011-07-15T11:01:43Z</time>
      </trkpt>
      <trkpt lat="44.62107" lon="6.95778">
        <ele>3172.9440917969</ele>
        <time>2011-07-15T11:01:54Z</time>
      </trkpt>
      <trkpt lat="44.62107" lon="6.95776">
        <ele>3172.7243652344</ele>
        <time>2011-07-15T11:01:55Z</time>
      </trkpt>
      <trkpt lat="44.62113" lon="6.95759">
        <ele>3171.0971679688</ele>
        <time>2011-07-15T11:02:05Z</time>
      </trkpt>
      <trkpt lat="44.62114" lon="6.95758">
        <ele>3170.9526367188</ele>
        <time>2011-07-15T11:02:06Z</time>
      </trkpt>
      <trkpt lat="44.62115" lon="6.95753">
        <ele>3170.6552734375</ele>
        <time>2011-07-15T11:02:12Z</time>
      </trkpt>
      <trkpt lat="44.62116" lon="6.95752">
        <ele>3170.6740722656</ele>
        <time>2011-07-15T11:02:13Z</time>
      </trkpt>
      <trkpt lat="44.62117" lon="6.9575">
        <ele>3170.5397949219</ele>
        <time>2011-07-15T11:02:20Z</time>
      </trkpt>
      <trkpt lat="44.62112" lon="6.95751">
        <ele>3169.3874511719</ele>
        <time>2011-07-15T11:02:26Z</time>
      </trkpt>
      <trkpt lat="44.62111" lon="6.95751">
        <ele>3169.1037597656</ele>
        <time>2011-07-15T11:02:27Z</time>
      </trkpt>
      <trkpt lat="44.62105" lon="6.9575">
        <ele>3166.9975585938</ele>
        <time>2011-07-15T11:02:32Z</time>
      </trkpt>
      <trkpt lat="44.62104" lon="6.95749">
        <ele>3166.8422851562</ele>
        <time>2011-07-15T11:02:38Z</time>
      </trkpt>
      <trkpt lat="44.62104" lon="6.95748">
        <ele>3167.0456542969</ele>
        <time>2011-07-15T11:02:46Z</time>
      </trkpt>
      <trkpt lat="44.62104" lon="6.95748">
        <ele>3167.0344238281</ele>
        <time>2011-07-15T11:02:55Z</time>
      </trkpt>
      <trkpt lat="44.62104" lon="6.95746">
        <ele>3167.2019042969</ele>
        <time>2011-07-15T11:05:48Z</time>
      </trkpt>
      <trkpt lat="44.62103" lon="6.95746">
        <ele>3166.8442382812</ele>
        <time>2011-07-15T11:06:15Z</time>
      </trkpt>
      <trkpt lat="44.62103" lon="6.95746">
        <ele>3166.7429199219</ele>
        <time>2011-07-15T11:06:19Z</time>
      </trkpt>
      <trkpt lat="44.62103" lon="6.95746">
        <ele>3166.7368164062</ele>
        <time>2011-07-15T11:06:20Z</time>
      </trkpt>
      <trkpt lat="44.62102" lon="6.95746">
        <ele>3166.5986328125</ele>
        <time>2011-07-15T11:06:33Z</time>
      </trkpt>
      <trkpt lat="44.62107" lon="6.95742">
        <ele>3168.4677734375</ele>
        <time>2011-07-15T11:06:39Z</time>
      </trkpt>
      <trkpt lat="44.62112" lon="6.95741">
        <ele>3169.7690429688</ele>
        <time>2011-07-15T11:06:44Z</time>
      </trkpt>
      <trkpt lat="44.62114" lon="6.95739">
        <ele>3170.21875</ele>
        <time>2011-07-15T11:06:47Z</time>
      </trkpt>
      <trkpt lat="44.62114" lon="6.95739">
        <ele>3170.3728027344</ele>
        <time>2011-07-15T11:06:53Z</time>
      </trkpt>
      <trkpt lat="44.62115" lon="6.9574">
        <ele>3170.4821777344</ele>
        <time>2011-07-15T11:07:02Z</time>
      </trkpt>
      <trkpt lat="44.62116" lon="6.95741">
        <ele>3170.5625</ele>
        <time>2011-07-15T11:07:19Z</time>
      </trkpt>
      <trkpt lat="44.62115" lon="6.95743">
        <ele>3170.4091796875</ele>
        <time>2011-07-15T11:10:14Z</time>
      </trkpt>
      <trkpt lat="44.62116" lon="6.95744">
        <ele>3170.4426269531</ele>
        <time>2011-07-15T11:10:31Z</time>
      </trkpt>
      <trkpt lat="44.62116" lon="6.95745">
        <ele>3170.5</ele>
        <time>2011-07-15T11:10:35Z</time>
      </trkpt>
      <trkpt lat="44.62116" lon="6.95741">
        <ele>3170.56640625</ele>
        <time>2011-07-15T11:10:43Z</time>
      </trkpt>
      <trkpt lat="44.62116" lon="6.95736">
        <ele>3170.7924804688</ele>
        <time>2011-07-15T11:10:48Z</time>
      </trkpt>
      <trkpt lat="44.62116" lon="6.95733">
        <ele>3170.9162597656</ele>
        <time>2011-07-15T11:10:50Z</time>
      </trkpt>
      <trkpt lat="44.62116" lon="6.95732">
        <ele>3171.0007324219</ele>
        <time>2011-07-15T11:10:54Z</time>
      </trkpt>
      <trkpt lat="44.62116" lon="6.95731">
        <ele>3170.9694824219</ele>
        <time>2011-07-15T11:11:08Z</time>
      </trkpt>
      <trkpt lat="44.62116" lon="6.95731">
        <ele>3171.0412597656</ele>
        <time>2011-07-15T11:11:23Z</time>
      </trkpt>
      <trkpt lat="44.62117" lon="6.9573">
        <ele>3171.1018066406</ele>
        <time>2011-07-15T11:11:50Z</time>
      </trkpt>
      <trkpt lat="44.62116" lon="6.95732">
        <ele>3170.9575195312</ele>
        <time>2011-07-15T11:12:07Z</time>
      </trkpt>
      <trkpt lat="44.62116" lon="6.95732">
        <ele>3170.9497070312</ele>
        <time>2011-07-15T11:12:11Z</time>
      </trkpt>
      <trkpt lat="44.62116" lon="6.95732">
        <ele>3170.9379882812</ele>
        <time>2011-07-15T11:12:18Z</time>
      </trkpt>
      <trkpt lat="44.62117" lon="6.9573">
        <ele>3171.1279296875</ele>
        <time>2011-07-15T11:12:23Z</time>
      </trkpt>
      <trkpt lat="44.62122" lon="6.95725">
        <ele>3171.744140625</ele>
        <time>2011-07-15T11:12:27Z</time>
      </trkpt>
      <trkpt lat="44.62125" lon="6.95724">
        <ele>3172.0673828125</ele>
        <time>2011-07-15T11:12:29Z</time>
      </trkpt>
      <trkpt lat="44.62132" lon="6.95723">
        <ele>3172.5268554688</ele>
        <time>2011-07-15T11:12:34Z</time>
      </trkpt>
      <trkpt lat="44.62136" lon="6.9572">
        <ele>3172.4899902344</ele>
        <time>2011-07-15T11:12:37Z</time>
      </trkpt>
      <trkpt lat="44.62144" lon="6.95713">
        <ele>3169.0676269531</ele>
        <time>2011-07-15T11:12:43Z</time>
      </trkpt>
      <trkpt lat="44.62151" lon="6.95709">
        <ele>3164.78125</ele>
        <time>2011-07-15T11:12:48Z</time>
      </trkpt>
      <trkpt lat="44.62151" lon="6.95709">
        <ele>3164.3195800781</ele>
        <time>2011-07-15T11:12:49Z</time>
      </trkpt>
      <trkpt lat="44.62154" lon="6.95708">
        <ele>3162.8500976562</ele>
        <time>2011-07-15T11:12:57Z</time>
      </trkpt>
      <trkpt lat="44.62156" lon="6.95708">
        <ele>3161.97265625</ele>
        <time>2011-07-15T11:12:58Z</time>
      </trkpt>
      <trkpt lat="44.62164" lon="6.95703">
        <ele>3157.2768554688</ele>
        <time>2011-07-15T11:13:04Z</time>
      </trkpt>
      <trkpt lat="44.62171" lon="6.95702">
        <ele>3153.0744628906</ele>
        <time>2011-07-15T11:13:11Z</time>
      </trkpt>
      <trkpt lat="44.62176" lon="6.957">
        <ele>3150.2419433594</ele>
        <time>2011-07-15T11:13:15Z</time>
      </trkpt>
      <trkpt lat="44.62179" lon="6.95698">
        <ele>3148.4401855469</ele>
        <time>2011-07-15T11:13:20Z</time>
      </trkpt>
      <trkpt lat="44.62183" lon="6.95693">
        <ele>3146.4743652344</ele>
        <time>2011-07-15T11:13:26Z</time>
      </trkpt>
      <trkpt lat="44.62184" lon="6.9569">
        <ele>3145.7536621094</ele>
        <time>2011-07-15T11:13:35Z</time>
      </trkpt>
      <trkpt lat="44.62185" lon="6.95689">
        <ele>3145.5737304688</ele>
        <time>2011-07-15T11:13:45Z</time>
      </trkpt>
      <trkpt lat="44.62188" lon="6.95686">
        <ele>3143.9404296875</ele>
        <time>2011-07-15T11:13:52Z</time>
      </trkpt>
      <trkpt lat="44.62193" lon="6.95681">
        <ele>3141.1342773438</ele>
        <time>2011-07-15T11:13:58Z</time>
      </trkpt>
      <trkpt lat="44.62194" lon="6.9568">
        <ele>3140.4562988281</ele>
        <time>2011-07-15T11:13:59Z</time>
      </trkpt>
      <trkpt lat="44.62197" lon="6.95677">
        <ele>3138.9797363281</ele>
        <time>2011-07-15T11:14:02Z</time>
      </trkpt>
      <trkpt lat="44.622" lon="6.95677">
        <ele>3137.9582519531</ele>
        <time>2011-07-15T11:14:08Z</time>
      </trkpt>
      <trkpt lat="44.622" lon="6.95677">
        <ele>3137.9575195312</ele>
        <time>2011-07-15T11:14:22Z</time>
      </trkpt>
      <trkpt lat="44.62203" lon="6.95675">
        <ele>3136.7651367188</ele>
        <time>2011-07-15T11:14:31Z</time>
      </trkpt>
      <trkpt lat="44.62207" lon="6.95675">
        <ele>3135.2932128906</ele>
        <time>2011-07-15T11:14:33Z</time>
      </trkpt>
      <trkpt lat="44.62218" lon="6.95676">
        <ele>3130.9074707031</ele>
        <time>2011-07-15T11:14:39Z</time>
      </trkpt>
      <trkpt lat="44.62219" lon="6.95675">
        <ele>3130.4567871094</ele>
        <time>2011-07-15T11:14:40Z</time>
      </trkpt>
      <trkpt lat="44.62222" lon="6.95673">
        <ele>3129.5104980469</ele>
        <time>2011-07-15T11:14:42Z</time>
      </trkpt>
      <trkpt lat="44.62229" lon="6.95674">
        <ele>3127.0666503906</ele>
        <time>2011-07-15T11:14:48Z</time>
      </trkpt>
      <trkpt lat="44.62235" lon="6.95674">
        <ele>3125.0380859375</ele>
        <time>2011-07-15T11:14:53Z</time>
      </trkpt>
      <trkpt lat="44.62239" lon="6.95672">
        <ele>3123.619140625</ele>
        <time>2011-07-15T11:14:57Z</time>
      </trkpt>
      <trkpt lat="44.62243" lon="6.95671">
        <ele>3122.4660644531</ele>
        <time>2011-07-15T11:15:00Z</time>
      </trkpt>
      <trkpt lat="44.6225" lon="6.95672">
        <ele>3120.0808105469</ele>
        <time>2011-07-15T11:15:05Z</time>
      </trkpt>
      <trkpt lat="44.62256" lon="6.95671">
        <ele>3116.6970214844</ele>
        <time>2011-07-15T11:15:12Z</time>
      </trkpt>
      <trkpt lat="44.62256" lon="6.95671">
        <ele>3116.6962890625</ele>
        <time>2011-07-15T11:15:19Z</time>
      </trkpt>
      <trkpt lat="44.62255" lon="6.9567">
        <ele>3117.1052246094</ele>
        <time>2011-07-15T11:15:40Z</time>
      </trkpt>
      <trkpt lat="44.62257" lon="6.95666">
        <ele>3115.9328613281</ele>
        <time>2011-07-15T11:15:54Z</time>
      </trkpt>
      <trkpt lat="44.62261" lon="6.95659">
        <ele>3112.9013671875</ele>
        <time>2011-07-15T11:15:59Z</time>
      </trkpt>
      <trkpt lat="44.62261" lon="6.95657">
        <ele>3112.5012207031</ele>
        <time>2011-07-15T11:16:00Z</time>
      </trkpt>
      <trkpt lat="44.62265" lon="6.95649">
        <ele>3109.4697265625</ele>
        <time>2011-07-15T11:16:05Z</time>
      </trkpt>
      <trkpt lat="44.62266" lon="6.95646">
        <ele>3108.4089355469</ele>
        <time>2011-07-15T11:16:08Z</time>
      </trkpt>
      <trkpt lat="44.62268" lon="6.9564">
        <ele>3106.7541503906</ele>
        <time>2011-07-15T11:16:12Z</time>
      </trkpt>
      <trkpt lat="44.62269" lon="6.95637">
        <ele>3106.068359375</ele>
        <time>2011-07-15T11:16:20Z</time>
      </trkpt>
      <trkpt lat="44.62268" lon="6.95631">
        <ele>3106.4440917969</ele>
        <time>2011-07-15T11:16:26Z</time>
      </trkpt>
      <trkpt lat="44.62268" lon="6.95621">
        <ele>3105.4982910156</ele>
        <time>2011-07-15T11:16:34Z</time>
      </trkpt>
      <trkpt lat="44.62269" lon="6.95621">
        <ele>3105.2807617188</ele>
        <time>2011-07-15T11:16:54Z</time>
      </trkpt>
      <trkpt lat="44.62269" lon="6.95615">
        <ele>3105.0219726562</ele>
        <time>2011-07-15T11:17:01Z</time>
      </trkpt>
      <trkpt lat="44.6227" lon="6.95607">
        <ele>3104.2141113281</ele>
        <time>2011-07-15T11:17:06Z</time>
      </trkpt>
      <trkpt lat="44.62271" lon="6.95604">
        <ele>3103.8022460938</ele>
        <time>2011-07-15T11:17:09Z</time>
      </trkpt>
      <trkpt lat="44.6227" lon="6.95596">
        <ele>3104.0083007812</ele>
        <time>2011-07-15T11:17:15Z</time>
      </trkpt>
      <trkpt lat="44.62271" lon="6.95592">
        <ele>3103.8022460938</ele>
        <time>2011-07-15T11:17:20Z</time>
      </trkpt>
      <trkpt lat="44.62273" lon="6.95587">
        <ele>3102.3603515625</ele>
        <time>2011-07-15T11:17:26Z</time>
      </trkpt>
      <trkpt lat="44.62277" lon="6.9558">
        <ele>3100.7595214844</ele>
        <time>2011-07-15T11:17:31Z</time>
      </trkpt>
      <trkpt lat="44.62278" lon="6.95576">
        <ele>3100.2724609375</ele>
        <time>2011-07-15T11:17:34Z</time>
      </trkpt>
      <trkpt lat="44.62281" lon="6.95573">
        <ele>3099.0812988281</ele>
        <time>2011-07-15T11:17:39Z</time>
      </trkpt>
      <trkpt lat="44.62281" lon="6.95568">
        <ele>3099.1145019531</ele>
        <time>2011-07-15T11:17:44Z</time>
      </trkpt>
      <trkpt lat="44.62283" lon="6.95561">
        <ele>3098.7043457031</ele>
        <time>2011-07-15T11:17:49Z</time>
      </trkpt>
      <trkpt lat="44.62283" lon="6.95557">
        <ele>3098.3505859375</ele>
        <time>2011-07-15T11:17:55Z</time>
      </trkpt>
      <trkpt lat="44.62283" lon="6.95557">
        <ele>3098.3601074219</ele>
        <time>2011-07-15T11:18:11Z</time>
      </trkpt>
      <trkpt lat="44.62283" lon="6.95557">
        <ele>3098.3657226562</ele>
        <time>2011-07-15T11:18:28Z</time>
      </trkpt>
      <trkpt lat="44.62284" lon="6.95556">
        <ele>3098.1484375</ele>
        <time>2011-07-15T11:18:29Z</time>
      </trkpt>
      <trkpt lat="44.62288" lon="6.95545">
        <ele>3094.6276855469</ele>
        <time>2011-07-15T11:18:37Z</time>
      </trkpt>
      <trkpt lat="44.6229" lon="6.95541">
        <ele>3092.720703125</ele>
        <time>2011-07-15T11:18:41Z</time>
      </trkpt>
      <trkpt lat="44.62292" lon="6.95537">
        <ele>3091.01171875</ele>
        <time>2011-07-15T11:18:44Z</time>
      </trkpt>
      <trkpt lat="44.62296" lon="6.9553">
        <ele>3087.2163085938</ele>
        <time>2011-07-15T11:18:51Z</time>
      </trkpt>
      <trkpt lat="44.62296" lon="6.9553">
        <ele>3087.4548339844</ele>
        <time>2011-07-15T11:18:59Z</time>
      </trkpt>
      <trkpt lat="44.62295" lon="6.95531">
        <ele>3088.0832519531</ele>
        <time>2011-07-15T11:19:03Z</time>
      </trkpt>
      <trkpt lat="44.62298" lon="6.95529">
        <ele>3085.6652832031</ele>
        <time>2011-07-15T11:19:09Z</time>
      </trkpt>
      <trkpt lat="44.623" lon="6.95523">
        <ele>3083.7055664062</ele>
        <time>2011-07-15T11:19:16Z</time>
      </trkpt>
      <trkpt lat="44.62302" lon="6.95521">
        <ele>3082.6176757812</ele>
        <time>2011-07-15T11:19:27Z</time>
      </trkpt>
      <trkpt lat="44.62305" lon="6.95519">
        <ele>3080.3161621094</ele>
        <time>2011-07-15T11:19:32Z</time>
      </trkpt>
      <trkpt lat="44.62308" lon="6.9551">
        <ele>3079.6164550781</ele>
        <time>2011-07-15T11:19:39Z</time>
      </trkpt>
      <trkpt lat="44.62308" lon="6.95504">
        <ele>3079.484375</ele>
        <time>2011-07-15T11:19:43Z</time>
      </trkpt>
      <trkpt lat="44.62308" lon="6.95501">
        <ele>3079.5368652344</ele>
        <time>2011-07-15T11:19:45Z</time>
      </trkpt>
      <trkpt lat="44.62307" lon="6.95489">
        <ele>3077.6279296875</ele>
        <time>2011-07-15T11:19:53Z</time>
      </trkpt>
      <trkpt lat="44.62307" lon="6.95487">
        <ele>3077.3354492188</ele>
        <time>2011-07-15T11:19:54Z</time>
      </trkpt>
      <trkpt lat="44.62308" lon="6.95484">
        <ele>3076.6176757812</ele>
        <time>2011-07-15T11:19:56Z</time>
      </trkpt>
      <trkpt lat="44.62313" lon="6.95477">
        <ele>3074.7443847656</ele>
        <time>2011-07-15T11:20:02Z</time>
      </trkpt>
      <trkpt lat="44.62312" lon="6.95469">
        <ele>3073.4506835938</ele>
        <time>2011-07-15T11:20:07Z</time>
      </trkpt>
      <trkpt lat="44.62312" lon="6.95466">
        <ele>3072.8811035156</ele>
        <time>2011-07-15T11:20:09Z</time>
      </trkpt>
      <trkpt lat="44.62312" lon="6.95461">
        <ele>3071.876953125</ele>
        <time>2011-07-15T11:20:13Z</time>
      </trkpt>
      <trkpt lat="44.62314" lon="6.95453">
        <ele>3070.2783203125</ele>
        <time>2011-07-15T11:20:20Z</time>
      </trkpt>
      <trkpt lat="44.62314" lon="6.95444">
        <ele>3068.6936035156</ele>
        <time>2011-07-15T11:20:26Z</time>
      </trkpt>
      <trkpt lat="44.62318" lon="6.95435">
        <ele>3067.1889648438</ele>
        <time>2011-07-15T11:20:34Z</time>
      </trkpt>
      <trkpt lat="44.62323" lon="6.95428">
        <ele>3066.19921875</ele>
        <time>2011-07-15T11:20:41Z</time>
      </trkpt>
      <trkpt lat="44.62324" lon="6.95416">
        <ele>3064.5949707031</ele>
        <time>2011-07-15T11:20:48Z</time>
      </trkpt>
      <trkpt lat="44.6232" lon="6.95405">
        <ele>3062.8862304688</ele>
        <time>2011-07-15T11:20:54Z</time>
      </trkpt>
      <trkpt lat="44.62321" lon="6.95389">
        <ele>3060.6911621094</ele>
        <time>2011-07-15T11:21:02Z</time>
      </trkpt>
      <trkpt lat="44.62321" lon="6.95383">
        <ele>3059.7770996094</ele>
        <time>2011-07-15T11:21:05Z</time>
      </trkpt>
      <trkpt lat="44.62317" lon="6.95373">
        <ele>3057.8139648438</ele>
        <time>2011-07-15T11:21:11Z</time>
      </trkpt>
      <trkpt lat="44.62314" lon="6.95355">
        <ele>3054.5439453125</ele>
        <time>2011-07-15T11:21:21Z</time>
      </trkpt>
      <trkpt lat="44.62312" lon="6.95345">
        <ele>3052.3581542969</ele>
        <time>2011-07-15T11:21:27Z</time>
      </trkpt>
      <trkpt lat="44.62312" lon="6.95341">
        <ele>3051.6848144531</ele>
        <time>2011-07-15T11:21:29Z</time>
      </trkpt>
      <trkpt lat="44.62311" lon="6.95337">
        <ele>3050.794921875</ele>
        <time>2011-07-15T11:21:32Z</time>
      </trkpt>
      <trkpt lat="44.6231" lon="6.95333">
        <ele>3050.0861816406</ele>
        <time>2011-07-15T11:21:46Z</time>
      </trkpt>
      <trkpt lat="44.62309" lon="6.95325">
        <ele>3048.939453125</ele>
        <time>2011-07-15T11:21:50Z</time>
      </trkpt>
      <trkpt lat="44.62312" lon="6.95309">
        <ele>3046.7077636719</ele>
        <time>2011-07-15T11:21:59Z</time>
      </trkpt>
      <trkpt lat="44.62312" lon="6.95294">
        <ele>3044.7607421875</ele>
        <time>2011-07-15T11:22:07Z</time>
      </trkpt>
      <trkpt lat="44.62312" lon="6.95292">
        <ele>3044.5288085938</ele>
        <time>2011-07-15T11:22:08Z</time>
      </trkpt>
      <trkpt lat="44.62312" lon="6.95279">
        <ele>3042.9436035156</ele>
        <time>2011-07-15T11:22:15Z</time>
      </trkpt>
      <trkpt lat="44.62312" lon="6.95276">
        <ele>3042.3820800781</ele>
        <time>2011-07-15T11:22:17Z</time>
      </trkpt>
      <trkpt lat="44.62308" lon="6.95259">
        <ele>3039.6098632812</ele>
        <time>2011-07-15T11:22:26Z</time>
      </trkpt>
      <trkpt lat="44.62307" lon="6.95249">
        <ele>3037.6342773438</ele>
        <time>2011-07-15T11:22:32Z</time>
      </trkpt>
      <trkpt lat="44.62306" lon="6.95247">
        <ele>3037.2438964844</ele>
        <time>2011-07-15T11:22:33Z</time>
      </trkpt>
      <trkpt lat="44.62306" lon="6.95237">
        <ele>3035.0656738281</ele>
        <time>2011-07-15T11:22:38Z</time>
      </trkpt>
      <trkpt lat="44.62312" lon="6.9523">
        <ele>3033.0336914062</ele>
        <time>2011-07-15T11:22:43Z</time>
      </trkpt>
      <trkpt lat="44.62313" lon="6.95229">
        <ele>3032.5900878906</ele>
        <time>2011-07-15T11:22:44Z</time>
      </trkpt>
      <trkpt lat="44.62313" lon="6.95209">
        <ele>3028.0634765625</ele>
        <time>2011-07-15T11:22:54Z</time>
      </trkpt>
      <trkpt lat="44.62309" lon="6.95198">
        <ele>3026.1726074219</ele>
        <time>2011-07-15T11:23:00Z</time>
      </trkpt>
      <trkpt lat="44.62304" lon="6.95189">
        <ele>3025.4365234375</ele>
        <time>2011-07-15T11:23:06Z</time>
      </trkpt>
      <trkpt lat="44.62303" lon="6.95181">
        <ele>3024.4230957031</ele>
        <time>2011-07-15T11:23:12Z</time>
      </trkpt>
      <trkpt lat="44.62302" lon="6.95178">
        <ele>3024.3012695312</ele>
        <time>2011-07-15T11:23:14Z</time>
      </trkpt>
      <trkpt lat="44.623" lon="6.95171">
        <ele>3023.7216796875</ele>
        <time>2011-07-15T11:23:18Z</time>
      </trkpt>
      <trkpt lat="44.623" lon="6.9516">
        <ele>3020.6516113281</ele>
        <time>2011-07-15T11:23:24Z</time>
      </trkpt>
      <trkpt lat="44.62301" lon="6.95153">
        <ele>3018.4948730469</ele>
        <time>2011-07-15T11:23:27Z</time>
      </trkpt>
      <trkpt lat="44.62302" lon="6.95151">
        <ele>3017.3527832031</ele>
        <time>2011-07-15T11:23:34Z</time>
      </trkpt>
      <trkpt lat="44.62302" lon="6.95146">
        <ele>3015.84375</ele>
        <time>2011-07-15T11:23:53Z</time>
      </trkpt>
      <trkpt lat="44.62305" lon="6.95143">
        <ele>3013.5776367188</ele>
        <time>2011-07-15T11:23:59Z</time>
      </trkpt>
      <trkpt lat="44.62312" lon="6.95135">
        <ele>3009.0434570312</ele>
        <time>2011-07-15T11:24:08Z</time>
      </trkpt>
      <trkpt lat="44.62317" lon="6.9513">
        <ele>3005.7661132812</ele>
        <time>2011-07-15T11:24:15Z</time>
      </trkpt>
      <trkpt lat="44.6232" lon="6.95126">
        <ele>3003.6098632812</ele>
        <time>2011-07-15T11:24:21Z</time>
      </trkpt>
      <trkpt lat="44.62324" lon="6.95121">
        <ele>3000.8640136719</ele>
        <time>2011-07-15T11:24:28Z</time>
      </trkpt>
      <trkpt lat="44.62328" lon="6.95116">
        <ele>2998.0126953125</ele>
        <time>2011-07-15T11:24:34Z</time>
      </trkpt>
      <trkpt lat="44.6233" lon="6.95113">
        <ele>2996.3269042969</ele>
        <time>2011-07-15T11:24:38Z</time>
      </trkpt>
      <trkpt lat="44.62331" lon="6.95112">
        <ele>2995.8452148438</ele>
        <time>2011-07-15T11:24:39Z</time>
      </trkpt>
      <trkpt lat="44.62331" lon="6.95111">
        <ele>2995.4909667969</ele>
        <time>2011-07-15T11:24:40Z</time>
      </trkpt>
      <trkpt lat="44.62335" lon="6.95104">
        <ele>2992.294921875</ele>
        <time>2011-07-15T11:24:47Z</time>
      </trkpt>
      <trkpt lat="44.62339" lon="6.95109">
        <ele>2992.6416015625</ele>
        <time>2011-07-15T11:24:52Z</time>
      </trkpt>
      <trkpt lat="44.62342" lon="6.95107">
        <ele>2991.2817382812</ele>
        <time>2011-07-15T11:24:58Z</time>
      </trkpt>
      <trkpt lat="44.62347" lon="6.95097">
        <ele>2986.0607910156</ele>
        <time>2011-07-15T11:25:06Z</time>
      </trkpt>
      <trkpt lat="44.62351" lon="6.95092">
        <ele>2982.9135742188</ele>
        <time>2011-07-15T11:25:14Z</time>
      </trkpt>
      <trkpt lat="44.62352" lon="6.95091">
        <ele>2981.9765625</ele>
        <time>2011-07-15T11:25:21Z</time>
      </trkpt>
      <trkpt lat="44.62357" lon="6.95089">
        <ele>2979.6286621094</ele>
        <time>2011-07-15T11:25:27Z</time>
      </trkpt>
      <trkpt lat="44.62359" lon="6.95084">
        <ele>2977.0842285156</ele>
        <time>2011-07-15T11:25:33Z</time>
      </trkpt>
      <trkpt lat="44.62364" lon="6.95083">
        <ele>2974.5532226562</ele>
        <time>2011-07-15T11:25:38Z</time>
      </trkpt>
      <trkpt lat="44.62367" lon="6.9508">
        <ele>2971.896484375</ele>
        <time>2011-07-15T11:25:45Z</time>
      </trkpt>
      <trkpt lat="44.62371" lon="6.95077">
        <ele>2969.2673339844</ele>
        <time>2011-07-15T11:25:49Z</time>
      </trkpt>
      <trkpt lat="44.62378" lon="6.95078">
        <ele>2965.8090820312</ele>
        <time>2011-07-15T11:25:56Z</time>
      </trkpt>
      <trkpt lat="44.62379" lon="6.95078">
        <ele>2965.2583007812</ele>
        <time>2011-07-15T11:25:57Z</time>
      </trkpt>
      <trkpt lat="44.62381" lon="6.95075">
        <ele>2963.4907226562</ele>
        <time>2011-07-15T11:26:02Z</time>
      </trkpt>
      <trkpt lat="44.62384" lon="6.95068">
        <ele>2960.57421875</ele>
        <time>2011-07-15T11:26:08Z</time>
      </trkpt>
      <trkpt lat="44.62386" lon="6.95065">
        <ele>2958.5712890625</ele>
        <time>2011-07-15T11:26:13Z</time>
      </trkpt>
      <trkpt lat="44.62388" lon="6.95062">
        <ele>2956.8818359375</ele>
        <time>2011-07-15T11:26:17Z</time>
      </trkpt>
      <trkpt lat="44.62395" lon="6.95062">
        <ele>2954.6752929688</ele>
        <time>2011-07-15T11:26:24Z</time>
      </trkpt>
      <trkpt lat="44.62397" lon="6.95062">
        <ele>2954.3186035156</ele>
        <time>2011-07-15T11:26:25Z</time>
      </trkpt>
      <trkpt lat="44.62404" lon="6.95064">
        <ele>2952.3139648438</ele>
        <time>2011-07-15T11:26:32Z</time>
      </trkpt>
      <trkpt lat="44.62405" lon="6.95065">
        <ele>2952.1530761719</ele>
        <time>2011-07-15T11:26:33Z</time>
      </trkpt>
      <trkpt lat="44.62411" lon="6.95071">
        <ele>2950.4702148438</ele>
        <time>2011-07-15T11:26:40Z</time>
      </trkpt>
      <trkpt lat="44.62413" lon="6.95071">
        <ele>2949.7856445312</ele>
        <time>2011-07-15T11:26:42Z</time>
      </trkpt>
      <trkpt lat="44.62421" lon="6.95076">
        <ele>2947.4008789062</ele>
        <time>2011-07-15T11:26:49Z</time>
      </trkpt>
      <trkpt lat="44.62422" lon="6.95077">
        <ele>2947.1987304688</ele>
        <time>2011-07-15T11:26:50Z</time>
      </trkpt>
      <trkpt lat="44.62427" lon="6.95085">
        <ele>2945.7854003906</ele>
        <time>2011-07-15T11:26:57Z</time>
      </trkpt>
      <trkpt lat="44.62431" lon="6.95083">
        <ele>2944.2482910156</ele>
        <time>2011-07-15T11:27:02Z</time>
      </trkpt>
      <trkpt lat="44.62432" lon="6.95083">
        <ele>2943.8781738281</ele>
        <time>2011-07-15T11:27:03Z</time>
      </trkpt>
      <trkpt lat="44.62435" lon="6.95084">
        <ele>2943.0183105469</ele>
        <time>2011-07-15T11:27:05Z</time>
      </trkpt>
      <trkpt lat="44.62441" lon="6.9509">
        <ele>2941.1059570312</ele>
        <time>2011-07-15T11:27:11Z</time>
      </trkpt>
      <trkpt lat="44.62444" lon="6.95091">
        <ele>2939.9172363281</ele>
        <time>2011-07-15T11:27:13Z</time>
      </trkpt>
      <trkpt lat="44.62457" lon="6.95096">
        <ele>2937.7685546875</ele>
        <time>2011-07-15T11:27:22Z</time>
      </trkpt>
      <trkpt lat="44.62466" lon="6.95095">
        <ele>2936.34375</ele>
        <time>2011-07-15T11:27:29Z</time>
      </trkpt>
      <trkpt lat="44.6247" lon="6.95093">
        <ele>2935.6516113281</ele>
        <time>2011-07-15T11:27:32Z</time>
      </trkpt>
      <trkpt lat="44.62482" lon="6.95094">
        <ele>2932.7416992188</ele>
        <time>2011-07-15T11:27:42Z</time>
      </trkpt>
      <trkpt lat="44.62483" lon="6.95094">
        <ele>2932.3073730469</ele>
        <time>2011-07-15T11:27:51Z</time>
      </trkpt>
      <trkpt lat="44.62488" lon="6.95092">
        <ele>2931.0375976562</ele>
        <time>2011-07-15T11:27:55Z</time>
      </trkpt>
      <trkpt lat="44.62492" lon="6.9509">
        <ele>2929.8181152344</ele>
        <time>2011-07-15T11:27:59Z</time>
      </trkpt>
      <trkpt lat="44.62495" lon="6.95091">
        <ele>2929.0732421875</ele>
        <time>2011-07-15T11:28:01Z</time>
      </trkpt>
      <trkpt lat="44.625" lon="6.9509">
        <ele>2927.6396484375</ele>
        <time>2011-07-15T11:28:05Z</time>
      </trkpt>
      <trkpt lat="44.62508" lon="6.95082">
        <ele>2925.6179199219</ele>
        <time>2011-07-15T11:28:12Z</time>
      </trkpt>
      <trkpt lat="44.62514" lon="6.95072">
        <ele>2923.2058105469</ele>
        <time>2011-07-15T11:28:20Z</time>
      </trkpt>
      <trkpt lat="44.6252" lon="6.95066">
        <ele>2921.2360839844</ele>
        <time>2011-07-15T11:28:28Z</time>
      </trkpt>
      <trkpt lat="44.62521" lon="6.95065">
        <ele>2920.9833984375</ele>
        <time>2011-07-15T11:28:33Z</time>
      </trkpt>
      <trkpt lat="44.62521" lon="6.95065">
        <ele>2920.8713378906</ele>
        <time>2011-07-15T11:28:39Z</time>
      </trkpt>
      <trkpt lat="44.62521" lon="6.95065">
        <ele>2920.9782714844</ele>
        <time>2011-07-15T11:28:49Z</time>
      </trkpt>
      <trkpt lat="44.62521" lon="6.95065">
        <ele>2920.8889160156</ele>
        <time>2011-07-15T11:28:59Z</time>
      </trkpt>
      <trkpt lat="44.62521" lon="6.95065">
        <ele>2920.9858398438</ele>
        <time>2011-07-15T11:29:01Z</time>
      </trkpt>
      <trkpt lat="44.62521" lon="6.95065">
        <ele>2921.0751953125</ele>
        <time>2011-07-15T11:29:05Z</time>
      </trkpt>
      <trkpt lat="44.62521" lon="6.95065">
        <ele>2921.0908203125</ele>
        <time>2011-07-15T11:29:14Z</time>
      </trkpt>
      <trkpt lat="44.62521" lon="6.95066">
        <ele>2921.1118164062</ele>
        <time>2011-07-15T11:29:19Z</time>
      </trkpt>
      <trkpt lat="44.62521" lon="6.95065">
        <ele>2920.9089355469</ele>
        <time>2011-07-15T11:29:24Z</time>
      </trkpt>
      <trkpt lat="44.62522" lon="6.95066">
        <ele>2920.8364257812</ele>
        <time>2011-07-15T11:29:37Z</time>
      </trkpt>
      <trkpt lat="44.62523" lon="6.95065">
        <ele>2920.5122070312</ele>
        <time>2011-07-15T11:29:43Z</time>
      </trkpt>
      <trkpt lat="44.62524" lon="6.95064">
        <ele>2920.2800292969</ele>
        <time>2011-07-15T11:29:44Z</time>
      </trkpt>
      <trkpt lat="44.62526" lon="6.95061">
        <ele>2919.7153320312</ele>
        <time>2011-07-15T11:29:46Z</time>
      </trkpt>
      <trkpt lat="44.62531" lon="6.95057">
        <ele>2917.5549316406</ele>
        <time>2011-07-15T11:29:52Z</time>
      </trkpt>
      <trkpt lat="44.62532" lon="6.95054">
        <ele>2916.662109375</ele>
        <time>2011-07-15T11:29:54Z</time>
      </trkpt>
      <trkpt lat="44.62538" lon="6.95045">
        <ele>2911.3581542969</ele>
        <time>2011-07-15T11:30:01Z</time>
      </trkpt>
      <trkpt lat="44.6254" lon="6.95039">
        <ele>2909.1904296875</ele>
        <time>2011-07-15T11:30:05Z</time>
      </trkpt>
      <trkpt lat="44.62542" lon="6.95031">
        <ele>2906.7619628906</ele>
        <time>2011-07-15T11:30:10Z</time>
      </trkpt>
      <trkpt lat="44.62543" lon="6.95028">
        <ele>2905.7653808594</ele>
        <time>2011-07-15T11:30:12Z</time>
      </trkpt>
      <trkpt lat="44.62545" lon="6.95022">
        <ele>2904.0363769531</ele>
        <time>2011-07-15T11:30:16Z</time>
      </trkpt>
      <trkpt lat="44.6255" lon="6.95012">
        <ele>2899.896484375</ele>
        <time>2011-07-15T11:30:24Z</time>
      </trkpt>
      <trkpt lat="44.62551" lon="6.95009">
        <ele>2899.0625</ele>
        <time>2011-07-15T11:30:26Z</time>
      </trkpt>
      <trkpt lat="44.62558" lon="6.95004">
        <ele>2895.72265625</ele>
        <time>2011-07-15T11:30:33Z</time>
      </trkpt>
      <trkpt lat="44.62564" lon="6.94999">
        <ele>2892.3352050781</ele>
        <time>2011-07-15T11:30:40Z</time>
      </trkpt>
      <trkpt lat="44.62568" lon="6.94994">
        <ele>2890.6735839844</ele>
        <time>2011-07-15T11:30:44Z</time>
      </trkpt>
      <trkpt lat="44.62568" lon="6.94988">
        <ele>2889.8410644531</ele>
        <time>2011-07-15T11:30:48Z</time>
      </trkpt>
      <trkpt lat="44.62569" lon="6.94978">
        <ele>2888.5002441406</ele>
        <time>2011-07-15T11:30:56Z</time>
      </trkpt>
      <trkpt lat="44.62573" lon="6.94973">
        <ele>2886.6982421875</ele>
        <time>2011-07-15T11:31:02Z</time>
      </trkpt>
      <trkpt lat="44.62574" lon="6.94967">
        <ele>2885.9331054688</ele>
        <time>2011-07-15T11:31:06Z</time>
      </trkpt>
      <trkpt lat="44.62578" lon="6.94963">
        <ele>2884.373046875</ele>
        <time>2011-07-15T11:31:12Z</time>
      </trkpt>
      <trkpt lat="44.62583" lon="6.94959">
        <ele>2882.09765625</ele>
        <time>2011-07-15T11:31:18Z</time>
      </trkpt>
      <trkpt lat="44.62585" lon="6.94959">
        <ele>2881.7158203125</ele>
        <time>2011-07-15T11:31:20Z</time>
      </trkpt>
      <trkpt lat="44.62588" lon="6.94958">
        <ele>2880.7553710938</ele>
        <time>2011-07-15T11:31:25Z</time>
      </trkpt>
      <trkpt lat="44.62592" lon="6.94957">
        <ele>2879.6606445312</ele>
        <time>2011-07-15T11:31:31Z</time>
      </trkpt>
      <trkpt lat="44.62594" lon="6.94957">
        <ele>2879.29296875</ele>
        <time>2011-07-15T11:31:32Z</time>
      </trkpt>
      <trkpt lat="44.62597" lon="6.94957">
        <ele>2878.42578125</ele>
        <time>2011-07-15T11:31:35Z</time>
      </trkpt>
      <trkpt lat="44.62601" lon="6.94956">
        <ele>2877.4714355469</ele>
        <time>2011-07-15T11:31:38Z</time>
      </trkpt>
      <trkpt lat="44.62604" lon="6.94958">
        <ele>2876.7541503906</ele>
        <time>2011-07-15T11:31:41Z</time>
      </trkpt>
      <trkpt lat="44.62608" lon="6.9496">
        <ele>2875.9072265625</ele>
        <time>2011-07-15T11:31:45Z</time>
      </trkpt>
      <trkpt lat="44.6261" lon="6.9496">
        <ele>2875.318359375</ele>
        <time>2011-07-15T11:31:48Z</time>
      </trkpt>
      <trkpt lat="44.62616" lon="6.94958">
        <ele>2873.6870117188</ele>
        <time>2011-07-15T11:31:53Z</time>
      </trkpt>
      <trkpt lat="44.6262" lon="6.94954">
        <ele>2872.615234375</ele>
        <time>2011-07-15T11:31:59Z</time>
      </trkpt>
      <trkpt lat="44.62625" lon="6.94952">
        <ele>2871.2075195312</ele>
        <time>2011-07-15T11:32:05Z</time>
      </trkpt>
      <trkpt lat="44.6263" lon="6.94949">
        <ele>2869.7587890625</ele>
        <time>2011-07-15T11:32:11Z</time>
      </trkpt>
      <trkpt lat="44.62634" lon="6.94947">
        <ele>2868.513671875</ele>
        <time>2011-07-15T11:32:16Z</time>
      </trkpt>
      <trkpt lat="44.62637" lon="6.94944">
        <ele>2867.6569824219</ele>
        <time>2011-07-15T11:32:21Z</time>
      </trkpt>
      <trkpt lat="44.62642" lon="6.94943">
        <ele>2866.2841796875</ele>
        <time>2011-07-15T11:32:28Z</time>
      </trkpt>
      <trkpt lat="44.62646" lon="6.94947">
        <ele>2865.5061035156</ele>
        <time>2011-07-15T11:32:34Z</time>
      </trkpt>
      <trkpt lat="44.6265" lon="6.94945">
        <ele>2864.5532226562</ele>
        <time>2011-07-15T11:32:40Z</time>
      </trkpt>
      <trkpt lat="44.62654" lon="6.94945">
        <ele>2863.7236328125</ele>
        <time>2011-07-15T11:32:46Z</time>
      </trkpt>
      <trkpt lat="44.62661" lon="6.94943">
        <ele>2862.2602539062</ele>
        <time>2011-07-15T11:32:53Z</time>
      </trkpt>
      <trkpt lat="44.62666" lon="6.94943">
        <ele>2861.1994628906</ele>
        <time>2011-07-15T11:32:59Z</time>
      </trkpt>
      <trkpt lat="44.62671" lon="6.94945">
        <ele>2859.8266601562</ele>
        <time>2011-07-15T11:33:05Z</time>
      </trkpt>
      <trkpt lat="44.62675" lon="6.94946">
        <ele>2858.828125</ele>
        <time>2011-07-15T11:33:10Z</time>
      </trkpt>
      <trkpt lat="44.6268" lon="6.94946">
        <ele>2857.6413574219</ele>
        <time>2011-07-15T11:33:15Z</time>
      </trkpt>
      <trkpt lat="44.62685" lon="6.9495">
        <ele>2855.91015625</ele>
        <time>2011-07-15T11:33:22Z</time>
      </trkpt>
      <trkpt lat="44.62689" lon="6.94949">
        <ele>2854.8984375</ele>
        <time>2011-07-15T11:33:28Z</time>
      </trkpt>
      <trkpt lat="44.62696" lon="6.94949">
        <ele>2852.8627929688</ele>
        <time>2011-07-15T11:33:36Z</time>
      </trkpt>
      <trkpt lat="44.62698" lon="6.94951">
        <ele>2851.3669433594</ele>
        <time>2011-07-15T11:33:42Z</time>
      </trkpt>
      <trkpt lat="44.62701" lon="6.94951">
        <ele>2850.2807617188</ele>
        <time>2011-07-15T11:33:52Z</time>
      </trkpt>
      <trkpt lat="44.62705" lon="6.94955">
        <ele>2847.9089355469</ele>
        <time>2011-07-15T11:33:58Z</time>
      </trkpt>
      <trkpt lat="44.62708" lon="6.9496">
        <ele>2846.8430175781</ele>
        <time>2011-07-15T11:34:01Z</time>
      </trkpt>
      <trkpt lat="44.62711" lon="6.94968">
        <ele>2845.419921875</ele>
        <time>2011-07-15T11:34:08Z</time>
      </trkpt>
      <trkpt lat="44.62713" lon="6.94976">
        <ele>2844.57421875</ele>
        <time>2011-07-15T11:34:15Z</time>
      </trkpt>
      <trkpt lat="44.62717" lon="6.9498">
        <ele>2843.1547851562</ele>
        <time>2011-07-15T11:34:20Z</time>
      </trkpt>
      <trkpt lat="44.62719" lon="6.94981">
        <ele>2842.2780761719</ele>
        <time>2011-07-15T11:34:25Z</time>
      </trkpt>
      <trkpt lat="44.6272" lon="6.9498">
        <ele>2841.9626464844</ele>
        <time>2011-07-15T11:34:29Z</time>
      </trkpt>
      <trkpt lat="44.62725" lon="6.94982">
        <ele>2841.1594238281</ele>
        <time>2011-07-15T11:34:34Z</time>
      </trkpt>
      <trkpt lat="44.62729" lon="6.94983">
        <ele>2840.7971191406</ele>
        <time>2011-07-15T11:34:39Z</time>
      </trkpt>
      <trkpt lat="44.62733" lon="6.94978">
        <ele>2840.9250488281</ele>
        <time>2011-07-15T11:34:45Z</time>
      </trkpt>
      <trkpt lat="44.62737" lon="6.94977">
        <ele>2840.685546875</ele>
        <time>2011-07-15T11:34:51Z</time>
      </trkpt>
      <trkpt lat="44.62741" lon="6.9498">
        <ele>2840.2639160156</ele>
        <time>2011-07-15T11:34:55Z</time>
      </trkpt>
      <trkpt lat="44.62743" lon="6.94979">
        <ele>2840.2141113281</ele>
        <time>2011-07-15T11:34:56Z</time>
      </trkpt>
      <trkpt lat="44.62748" lon="6.94975">
        <ele>2840.0285644531</ele>
        <time>2011-07-15T11:35:02Z</time>
      </trkpt>
      <trkpt lat="44.6275" lon="6.94972">
        <ele>2839.876953125</ele>
        <time>2011-07-15T11:35:04Z</time>
      </trkpt>
      <trkpt lat="44.62754" lon="6.94968">
        <ele>2838.201171875</ele>
        <time>2011-07-15T11:35:08Z</time>
      </trkpt>
      <trkpt lat="44.62758" lon="6.94963">
        <ele>2836.6921386719</ele>
        <time>2011-07-15T11:35:14Z</time>
      </trkpt>
      <trkpt lat="44.62758" lon="6.9496">
        <ele>2836.6320800781</ele>
        <time>2011-07-15T11:35:23Z</time>
      </trkpt>
      <trkpt lat="44.62759" lon="6.94958">
        <ele>2836.3591308594</ele>
        <time>2011-07-15T11:35:31Z</time>
      </trkpt>
      <trkpt lat="44.62759" lon="6.94954">
        <ele>2836.0778808594</ele>
        <time>2011-07-15T11:35:36Z</time>
      </trkpt>
      <trkpt lat="44.6276" lon="6.94948">
        <ele>2835.8244628906</ele>
        <time>2011-07-15T11:35:42Z</time>
      </trkpt>
      <trkpt lat="44.62763" lon="6.94942">
        <ele>2835.4619140625</ele>
        <time>2011-07-15T11:35:48Z</time>
      </trkpt>
      <trkpt lat="44.62763" lon="6.94938">
        <ele>2835.7080078125</ele>
        <time>2011-07-15T11:35:53Z</time>
      </trkpt>
      <trkpt lat="44.62765" lon="6.94934">
        <ele>2835.8122558594</ele>
        <time>2011-07-15T11:35:59Z</time>
      </trkpt>
      <trkpt lat="44.62769" lon="6.94929">
        <ele>2835.361328125</ele>
        <time>2011-07-15T11:36:05Z</time>
      </trkpt>
      <trkpt lat="44.62775" lon="6.94925">
        <ele>2834.7375488281</ele>
        <time>2011-07-15T11:36:11Z</time>
      </trkpt>
      <trkpt lat="44.62778" lon="6.94919">
        <ele>2834.4697265625</ele>
        <time>2011-07-15T11:36:17Z</time>
      </trkpt>
      <trkpt lat="44.6278" lon="6.94912">
        <ele>2834.568359375</ele>
        <time>2011-07-15T11:36:23Z</time>
      </trkpt>
      <trkpt lat="44.62781" lon="6.94909">
        <ele>2834.1735839844</ele>
        <time>2011-07-15T11:36:27Z</time>
      </trkpt>
      <trkpt lat="44.62784" lon="6.94905">
        <ele>2833.4645996094</ele>
        <time>2011-07-15T11:36:33Z</time>
      </trkpt>
      <trkpt lat="44.62784" lon="6.94903">
        <ele>2833.4250488281</ele>
        <time>2011-07-15T11:36:41Z</time>
      </trkpt>
      <trkpt lat="44.62786" lon="6.94895">
        <ele>2832.9770507812</ele>
        <time>2011-07-15T11:36:48Z</time>
      </trkpt>
      <trkpt lat="44.6279" lon="6.94891">
        <ele>2832.1015625</ele>
        <time>2011-07-15T11:36:53Z</time>
      </trkpt>
      <trkpt lat="44.62792" lon="6.94887">
        <ele>2831.1049804688</ele>
        <time>2011-07-15T11:37:00Z</time>
      </trkpt>
      <trkpt lat="44.62795" lon="6.94887">
        <ele>2830.2814941406</ele>
        <time>2011-07-15T11:37:05Z</time>
      </trkpt>
      <trkpt lat="44.62798" lon="6.94893">
        <ele>2829.2143554688</ele>
        <time>2011-07-15T11:37:12Z</time>
      </trkpt>
      <trkpt lat="44.62804" lon="6.94894">
        <ele>2827.423828125</ele>
        <time>2011-07-15T11:37:19Z</time>
      </trkpt>
      <trkpt lat="44.62808" lon="6.9489">
        <ele>2826.0795898438</ele>
        <time>2011-07-15T11:37:26Z</time>
      </trkpt>
      <trkpt lat="44.62813" lon="6.94888">
        <ele>2824.3818359375</ele>
        <time>2011-07-15T11:37:31Z</time>
      </trkpt>
      <trkpt lat="44.62817" lon="6.94886">
        <ele>2822.7543945312</ele>
        <time>2011-07-15T11:37:36Z</time>
      </trkpt>
      <trkpt lat="44.62818" lon="6.94887">
        <ele>2822.671875</ele>
        <time>2011-07-15T11:37:37Z</time>
      </trkpt>
      <trkpt lat="44.62822" lon="6.94884">
        <ele>2820.9965820312</ele>
        <time>2011-07-15T11:37:44Z</time>
      </trkpt>
      <trkpt lat="44.62822" lon="6.94883">
        <ele>2820.7287597656</ele>
        <time>2011-07-15T11:37:48Z</time>
      </trkpt>
      <trkpt lat="44.62825" lon="6.9488">
        <ele>2819.3623046875</ele>
        <time>2011-07-15T11:37:52Z</time>
      </trkpt>
      <trkpt lat="44.62823" lon="6.94874">
        <ele>2819.0534667969</ele>
        <time>2011-07-15T11:37:58Z</time>
      </trkpt>
      <trkpt lat="44.62824" lon="6.94867">
        <ele>2817.8930664062</ele>
        <time>2011-07-15T11:38:05Z</time>
      </trkpt>
      <trkpt lat="44.62826" lon="6.94864">
        <ele>2816.7531738281</ele>
        <time>2011-07-15T11:38:10Z</time>
      </trkpt>
      <trkpt lat="44.62828" lon="6.94862">
        <ele>2815.6750488281</ele>
        <time>2011-07-15T11:38:16Z</time>
      </trkpt>
      <trkpt lat="44.62831" lon="6.94857">
        <ele>2814.5280761719</ele>
        <time>2011-07-15T11:38:21Z</time>
      </trkpt>
      <trkpt lat="44.62835" lon="6.9485">
        <ele>2813.3117675781</ele>
        <time>2011-07-15T11:38:27Z</time>
      </trkpt>
      <trkpt lat="44.62838" lon="6.94849">
        <ele>2812.4658203125</ele>
        <time>2011-07-15T11:38:32Z</time>
      </trkpt>
      <trkpt lat="44.6284" lon="6.94843">
        <ele>2811.7744140625</ele>
        <time>2011-07-15T11:38:38Z</time>
      </trkpt>
      <trkpt lat="44.62842" lon="6.94835">
        <ele>2811.2111816406</ele>
        <time>2011-07-15T11:38:46Z</time>
      </trkpt>
      <trkpt lat="44.62843" lon="6.94829">
        <ele>2810.48046875</ele>
        <time>2011-07-15T11:38:51Z</time>
      </trkpt>
      <trkpt lat="44.62844" lon="6.94824">
        <ele>2809.6374511719</ele>
        <time>2011-07-15T11:38:54Z</time>
      </trkpt>
      <trkpt lat="44.62848" lon="6.94819">
        <ele>2808.2177734375</ele>
        <time>2011-07-15T11:39:02Z</time>
      </trkpt>
      <trkpt lat="44.62849" lon="6.94819">
        <ele>2807.9445800781</ele>
        <time>2011-07-15T11:39:09Z</time>
      </trkpt>
      <trkpt lat="44.62851" lon="6.94813">
        <ele>2806.93359375</ele>
        <time>2011-07-15T11:39:14Z</time>
      </trkpt>
      <trkpt lat="44.62855" lon="6.94806">
        <ele>2804.787109375</ele>
        <time>2011-07-15T11:39:20Z</time>
      </trkpt>
      <trkpt lat="44.62857" lon="6.94799">
        <ele>2803.3562011719</ele>
        <time>2011-07-15T11:39:25Z</time>
      </trkpt>
      <trkpt lat="44.62859" lon="6.94793">
        <ele>2802.3923339844</ele>
        <time>2011-07-15T11:39:29Z</time>
      </trkpt>
      <trkpt lat="44.62863" lon="6.94787">
        <ele>2800.3735351562</ele>
        <time>2011-07-15T11:39:34Z</time>
      </trkpt>
      <trkpt lat="44.62867" lon="6.94778">
        <ele>2798.0729980469</ele>
        <time>2011-07-15T11:39:41Z</time>
      </trkpt>
      <trkpt lat="44.62867" lon="6.94776">
        <ele>2797.7250976562</ele>
        <time>2011-07-15T11:39:42Z</time>
      </trkpt>
      <trkpt lat="44.6287" lon="6.9477">
        <ele>2795.5856933594</ele>
        <time>2011-07-15T11:39:47Z</time>
      </trkpt>
      <trkpt lat="44.62874" lon="6.94766">
        <ele>2793.5419921875</ele>
        <time>2011-07-15T11:39:52Z</time>
      </trkpt>
      <trkpt lat="44.6288" lon="6.94758">
        <ele>2789.6899414062</ele>
        <time>2011-07-15T11:39:59Z</time>
      </trkpt>
      <trkpt lat="44.62886" lon="6.94758">
        <ele>2787.7912597656</ele>
        <time>2011-07-15T11:40:06Z</time>
      </trkpt>
      <trkpt lat="44.62883" lon="6.94754">
        <ele>2787.8615722656</ele>
        <time>2011-07-15T11:40:16Z</time>
      </trkpt>
      <trkpt lat="44.62883" lon="6.94752">
        <ele>2787.6899414062</ele>
        <time>2011-07-15T11:40:17Z</time>
      </trkpt>
      <trkpt lat="44.62879" lon="6.94743">
        <ele>2787.2534179688</ele>
        <time>2011-07-15T11:40:25Z</time>
      </trkpt>
      <trkpt lat="44.62881" lon="6.94735">
        <ele>2785.2521972656</ele>
        <time>2011-07-15T11:40:31Z</time>
      </trkpt>
      <trkpt lat="44.62885" lon="6.94728">
        <ele>2782.5227050781</ele>
        <time>2011-07-15T11:40:37Z</time>
      </trkpt>
      <trkpt lat="44.62886" lon="6.94721">
        <ele>2781.3654785156</ele>
        <time>2011-07-15T11:40:44Z</time>
      </trkpt>
      <trkpt lat="44.62887" lon="6.94712">
        <ele>2781.5646972656</ele>
        <time>2011-07-15T11:40:51Z</time>
      </trkpt>
      <trkpt lat="44.62891" lon="6.94704">
        <ele>2781.138671875</ele>
        <time>2011-07-15T11:40:58Z</time>
      </trkpt>
      <trkpt lat="44.62892" lon="6.94702">
        <ele>2781.1533203125</ele>
        <time>2011-07-15T11:40:59Z</time>
      </trkpt>
      <trkpt lat="44.62894" lon="6.947">
        <ele>2781.0620117188</ele>
        <time>2011-07-15T11:41:02Z</time>
      </trkpt>
      <trkpt lat="44.62899" lon="6.94693">
        <ele>2781.0690917969</ele>
        <time>2011-07-15T11:41:08Z</time>
      </trkpt>
      <trkpt lat="44.62901" lon="6.94691">
        <ele>2781.30078125</ele>
        <time>2011-07-15T11:41:10Z</time>
      </trkpt>
      <trkpt lat="44.62909" lon="6.94689">
        <ele>2780.5356445312</ele>
        <time>2011-07-15T11:41:17Z</time>
      </trkpt>
      <trkpt lat="44.62911" lon="6.94689">
        <ele>2780.3791503906</ele>
        <time>2011-07-15T11:41:23Z</time>
      </trkpt>
      <trkpt lat="44.62917" lon="6.94687">
        <ele>2779.7985839844</ele>
        <time>2011-07-15T11:41:29Z</time>
      </trkpt>
      <trkpt lat="44.62921" lon="6.94685">
        <ele>2779.3176269531</ele>
        <time>2011-07-15T11:41:34Z</time>
      </trkpt>
      <trkpt lat="44.62925" lon="6.94682">
        <ele>2778.9389648438</ele>
        <time>2011-07-15T11:41:38Z</time>
      </trkpt>
      <trkpt lat="44.62933" lon="6.94681">
        <ele>2777.7856445312</ele>
        <time>2011-07-15T11:41:45Z</time>
      </trkpt>
      <trkpt lat="44.62934" lon="6.9468">
        <ele>2777.6247558594</ele>
        <time>2011-07-15T11:41:46Z</time>
      </trkpt>
      <trkpt lat="44.62941" lon="6.94674">
        <ele>2777.1047363281</ele>
        <time>2011-07-15T11:41:54Z</time>
      </trkpt>
      <trkpt lat="44.62948" lon="6.94664">
        <ele>2776.9235839844</ele>
        <time>2011-07-15T11:42:01Z</time>
      </trkpt>
      <trkpt lat="44.62953" lon="6.94652">
        <ele>2777.4958496094</ele>
        <time>2011-07-15T11:42:06Z</time>
      </trkpt>
      <trkpt lat="44.62959" lon="6.94649">
        <ele>2777.044921875</ele>
        <time>2011-07-15T11:42:09Z</time>
      </trkpt>
      <trkpt lat="44.62971" lon="6.94639">
        <ele>2776.1186523438</ele>
        <time>2011-07-15T11:42:16Z</time>
      </trkpt>
      <trkpt lat="44.62975" lon="6.94637">
        <ele>2775.978515625</ele>
        <time>2011-07-15T11:42:18Z</time>
      </trkpt>
      <trkpt lat="44.6298" lon="6.94627">
        <ele>2776.1889648438</ele>
        <time>2011-07-15T11:42:24Z</time>
      </trkpt>
      <trkpt lat="44.62982" lon="6.94623">
        <ele>2776.2084960938</ele>
        <time>2011-07-15T11:42:30Z</time>
      </trkpt>
      <trkpt lat="44.62981" lon="6.94624">
        <ele>2776.2272949219</ele>
        <time>2011-07-15T11:42:37Z</time>
      </trkpt>
      <trkpt lat="44.62981" lon="6.94624">
        <ele>2776.2736816406</ele>
        <time>2011-07-15T11:42:43Z</time>
      </trkpt>
      <trkpt lat="44.62981" lon="6.94624">
        <ele>2776.2766113281</ele>
        <time>2011-07-15T11:42:54Z</time>
      </trkpt>
      <trkpt lat="44.62982" lon="6.94624">
        <ele>2776.2038574219</ele>
        <time>2011-07-15T11:43:01Z</time>
      </trkpt>
      <trkpt lat="44.62983" lon="6.94626">
        <ele>2775.9626464844</ele>
        <time>2011-07-15T11:43:33Z</time>
      </trkpt>
      <trkpt lat="44.62981" lon="6.94631">
        <ele>2775.8862304688</ele>
        <time>2011-07-15T11:44:04Z</time>
      </trkpt>
      <trkpt lat="44.62981" lon="6.9463">
        <ele>2775.8864746094</ele>
        <time>2011-07-15T11:44:17Z</time>
      </trkpt>
      <trkpt lat="44.62982" lon="6.94626">
        <ele>2776.0366210938</ele>
        <time>2011-07-15T11:44:23Z</time>
      </trkpt>
      <trkpt lat="44.62983" lon="6.94623">
        <ele>2776.181640625</ele>
        <time>2011-07-15T11:44:29Z</time>
      </trkpt>
      <trkpt lat="44.62985" lon="6.94614">
        <ele>2776.4528808594</ele>
        <time>2011-07-15T11:44:36Z</time>
      </trkpt>
      <trkpt lat="44.62986" lon="6.94606">
        <ele>2776.8933105469</ele>
        <time>2011-07-15T11:44:42Z</time>
      </trkpt>
      <trkpt lat="44.62989" lon="6.94597">
        <ele>2777.1748046875</ele>
        <time>2011-07-15T11:44:49Z</time>
      </trkpt>
      <trkpt lat="44.62992" lon="6.94594">
        <ele>2777.1062011719</ele>
        <time>2011-07-15T11:44:52Z</time>
      </trkpt>
      <trkpt lat="44.62995" lon="6.94586">
        <ele>2777.3464355469</ele>
        <time>2011-07-15T11:44:57Z</time>
      </trkpt>
      <trkpt lat="44.63003" lon="6.94574">
        <ele>2777.0612792969</ele>
        <time>2011-07-15T11:45:06Z</time>
      </trkpt>
      <trkpt lat="44.63008" lon="6.94563">
        <ele>2777.0578613281</ele>
        <time>2011-07-15T11:45:13Z</time>
      </trkpt>
      <trkpt lat="44.63013" lon="6.94555">
        <ele>2777.0998535156</ele>
        <time>2011-07-15T11:45:19Z</time>
      </trkpt>
      <trkpt lat="44.63017" lon="6.9455">
        <ele>2777.0737304688</ele>
        <time>2011-07-15T11:45:23Z</time>
      </trkpt>
      <trkpt lat="44.63021" lon="6.9454">
        <ele>2777.1733398438</ele>
        <time>2011-07-15T11:45:31Z</time>
      </trkpt>
      <trkpt lat="44.63023" lon="6.94536">
        <ele>2777.1196289062</ele>
        <time>2011-07-15T11:45:34Z</time>
      </trkpt>
      <trkpt lat="44.63026" lon="6.94532">
        <ele>2777.01953125</ele>
        <time>2011-07-15T11:45:38Z</time>
      </trkpt>
      <trkpt lat="44.63028" lon="6.94525">
        <ele>2777.1906738281</ele>
        <time>2011-07-15T11:45:43Z</time>
      </trkpt>
      <trkpt lat="44.63033" lon="6.94518">
        <ele>2777.8515625</ele>
        <time>2011-07-15T11:45:50Z</time>
      </trkpt>
      <trkpt lat="44.63035" lon="6.94508">
        <ele>2778.478515625</ele>
        <time>2011-07-15T11:45:57Z</time>
      </trkpt>
      <trkpt lat="44.63039" lon="6.94498">
        <ele>2779.0373535156</ele>
        <time>2011-07-15T11:46:05Z</time>
      </trkpt>
      <trkpt lat="44.63041" lon="6.94492">
        <ele>2779.1462402344</ele>
        <time>2011-07-15T11:46:10Z</time>
      </trkpt>
      <trkpt lat="44.63043" lon="6.94489">
        <ele>2779.1821289062</ele>
        <time>2011-07-15T11:46:13Z</time>
      </trkpt>
      <trkpt lat="44.63049" lon="6.9448">
        <ele>2779.1674804688</ele>
        <time>2011-07-15T11:46:21Z</time>
      </trkpt>
      <trkpt lat="44.63052" lon="6.94476">
        <ele>2779.1123046875</ele>
        <time>2011-07-15T11:46:25Z</time>
      </trkpt>
      <trkpt lat="44.63055" lon="6.94471">
        <ele>2779.06640625</ele>
        <time>2011-07-15T11:46:32Z</time>
      </trkpt>
      <trkpt lat="44.63061" lon="6.94464">
        <ele>2779.04296875</ele>
        <time>2011-07-15T11:46:38Z</time>
      </trkpt>
      <trkpt lat="44.63063" lon="6.9446">
        <ele>2779.0646972656</ele>
        <time>2011-07-15T11:46:41Z</time>
      </trkpt>
      <trkpt lat="44.63066" lon="6.94451">
        <ele>2779.0607910156</ele>
        <time>2011-07-15T11:46:47Z</time>
      </trkpt>
      <trkpt lat="44.63072" lon="6.94442">
        <ele>2778.7431640625</ele>
        <time>2011-07-15T11:46:54Z</time>
      </trkpt>
      <trkpt lat="44.63076" lon="6.94431">
        <ele>2778.1262207031</ele>
        <time>2011-07-15T11:47:01Z</time>
      </trkpt>
      <trkpt lat="44.6308" lon="6.94422">
        <ele>2777.5339355469</ele>
        <time>2011-07-15T11:47:07Z</time>
      </trkpt>
      <trkpt lat="44.63083" lon="6.94416">
        <ele>2777.0490722656</ele>
        <time>2011-07-15T11:47:11Z</time>
      </trkpt>
      <trkpt lat="44.63089" lon="6.94409">
        <ele>2776.0124511719</ele>
        <time>2011-07-15T11:47:18Z</time>
      </trkpt>
      <trkpt lat="44.63091" lon="6.94406">
        <ele>2775.6635742188</ele>
        <time>2011-07-15T11:47:20Z</time>
      </trkpt>
      <trkpt lat="44.63096" lon="6.94396">
        <ele>2774.203125</ele>
        <time>2011-07-15T11:47:27Z</time>
      </trkpt>
      <trkpt lat="44.63099" lon="6.94388">
        <ele>2773.1423339844</ele>
        <time>2011-07-15T11:47:32Z</time>
      </trkpt>
      <trkpt lat="44.63101" lon="6.94377">
        <ele>2772.0361328125</ele>
        <time>2011-07-15T11:47:39Z</time>
      </trkpt>
      <trkpt lat="44.63105" lon="6.94367">
        <ele>2770.322265625</ele>
        <time>2011-07-15T11:47:46Z</time>
      </trkpt>
      <trkpt lat="44.6311" lon="6.94358">
        <ele>2768.37109375</ele>
        <time>2011-07-15T11:47:54Z</time>
      </trkpt>
      <trkpt lat="44.63113" lon="6.94354">
        <ele>2767.6096191406</ele>
        <time>2011-07-15T11:47:57Z</time>
      </trkpt>
      <trkpt lat="44.63124" lon="6.94344">
        <ele>2764.3544921875</ele>
        <time>2011-07-15T11:48:07Z</time>
      </trkpt>
      <trkpt lat="44.63129" lon="6.94333">
        <ele>2762.5769042969</ele>
        <time>2011-07-15T11:48:15Z</time>
      </trkpt>
      <trkpt lat="44.63132" lon="6.94321">
        <ele>2761.7209472656</ele>
        <time>2011-07-15T11:48:23Z</time>
      </trkpt>
      <trkpt lat="44.63136" lon="6.94312">
        <ele>2760.40625</ele>
        <time>2011-07-15T11:48:29Z</time>
      </trkpt>
      <trkpt lat="44.6314" lon="6.94304">
        <ele>2759.0639648438</ele>
        <time>2011-07-15T11:48:34Z</time>
      </trkpt>
      <trkpt lat="44.6314" lon="6.94297">
        <ele>2759.4699707031</ele>
        <time>2011-07-15T11:48:38Z</time>
      </trkpt>
      <trkpt lat="44.63137" lon="6.94286">
        <ele>2761.1550292969</ele>
        <time>2011-07-15T11:48:46Z</time>
      </trkpt>
      <trkpt lat="44.63138" lon="6.94276">
        <ele>2761.8798828125</ele>
        <time>2011-07-15T11:48:53Z</time>
      </trkpt>
      <trkpt lat="44.63142" lon="6.94267">
        <ele>2761.6843261719</ele>
        <time>2011-07-15T11:49:00Z</time>
      </trkpt>
      <trkpt lat="44.63148" lon="6.94262">
        <ele>2760.3481445312</ele>
        <time>2011-07-15T11:49:07Z</time>
      </trkpt>
      <trkpt lat="44.63149" lon="6.94262">
        <ele>2760.1396484375</ele>
        <time>2011-07-15T11:49:08Z</time>
      </trkpt>
      <trkpt lat="44.63156" lon="6.94255">
        <ele>2758.2578125</ele>
        <time>2011-07-15T11:49:15Z</time>
      </trkpt>
      <trkpt lat="44.63161" lon="6.94248">
        <ele>2756.3415527344</ele>
        <time>2011-07-15T11:49:22Z</time>
      </trkpt>
      <trkpt lat="44.63163" lon="6.94246">
        <ele>2755.7998046875</ele>
        <time>2011-07-15T11:49:24Z</time>
      </trkpt>
      <trkpt lat="44.63168" lon="6.94238">
        <ele>2754.8708496094</ele>
        <time>2011-07-15T11:49:30Z</time>
      </trkpt>
      <trkpt lat="44.63168" lon="6.94237">
        <ele>2754.6596679688</ele>
        <time>2011-07-15T11:49:31Z</time>
      </trkpt>
      <trkpt lat="44.6317" lon="6.94235">
        <ele>2754.2106933594</ele>
        <time>2011-07-15T11:49:33Z</time>
      </trkpt>
      <trkpt lat="44.63177" lon="6.94228">
        <ele>2751.1369628906</ele>
        <time>2011-07-15T11:49:40Z</time>
      </trkpt>
      <trkpt lat="44.63184" lon="6.94222">
        <ele>2748.2670898438</ele>
        <time>2011-07-15T11:49:47Z</time>
      </trkpt>
      <trkpt lat="44.6319" lon="6.94217">
        <ele>2745.9343261719</ele>
        <time>2011-07-15T11:49:53Z</time>
      </trkpt>
      <trkpt lat="44.6319" lon="6.94216">
        <ele>2745.6787109375</ele>
        <time>2011-07-15T11:49:54Z</time>
      </trkpt>
      <trkpt lat="44.63196" lon="6.94206">
        <ele>2744.2104492188</ele>
        <time>2011-07-15T11:50:02Z</time>
      </trkpt>
      <trkpt lat="44.63202" lon="6.942">
        <ele>2743.1130371094</ele>
        <time>2011-07-15T11:50:08Z</time>
      </trkpt>
      <trkpt lat="44.63205" lon="6.94195">
        <ele>2742.0725097656</ele>
        <time>2011-07-15T11:50:14Z</time>
      </trkpt>
      <trkpt lat="44.6321" lon="6.94189">
        <ele>2741.0905761719</ele>
        <time>2011-07-15T11:50:20Z</time>
      </trkpt>
      <trkpt lat="44.63216" lon="6.9418">
        <ele>2740.1025390625</ele>
        <time>2011-07-15T11:50:28Z</time>
      </trkpt>
      <trkpt lat="44.63219" lon="6.94172">
        <ele>2739.8200683594</ele>
        <time>2011-07-15T11:50:34Z</time>
      </trkpt>
      <trkpt lat="44.63224" lon="6.94164">
        <ele>2738.5830078125</ele>
        <time>2011-07-15T11:50:41Z</time>
      </trkpt>
      <trkpt lat="44.63224" lon="6.94162">
        <ele>2738.7202148438</ele>
        <time>2011-07-15T11:50:42Z</time>
      </trkpt>
      <trkpt lat="44.6323" lon="6.94153">
        <ele>2736.853515625</ele>
        <time>2011-07-15T11:50:51Z</time>
      </trkpt>
      <trkpt lat="44.63234" lon="6.94146">
        <ele>2735.9345703125</ele>
        <time>2011-07-15T11:50:57Z</time>
      </trkpt>
      <trkpt lat="44.63241" lon="6.94143">
        <ele>2733.6645507812</ele>
        <time>2011-07-15T11:51:05Z</time>
      </trkpt>
      <trkpt lat="44.63243" lon="6.94144">
        <ele>2733.0329589844</ele>
        <time>2011-07-15T11:51:10Z</time>
      </trkpt>
      <trkpt lat="44.63245" lon="6.94141">
        <ele>2732.3666992188</ele>
        <time>2011-07-15T11:51:16Z</time>
      </trkpt>
      <trkpt lat="44.6325" lon="6.94139">
        <ele>2730.7583007812</ele>
        <time>2011-07-15T11:51:22Z</time>
      </trkpt>
      <trkpt lat="44.63258" lon="6.94135">
        <ele>2727.568359375</ele>
        <time>2011-07-15T11:51:30Z</time>
      </trkpt>
      <trkpt lat="44.63267" lon="6.94128">
        <ele>2724.2121582031</ele>
        <time>2011-07-15T11:51:38Z</time>
      </trkpt>
      <trkpt lat="44.63276" lon="6.94123">
        <ele>2719.9350585938</ele>
        <time>2011-07-15T11:51:46Z</time>
      </trkpt>
      <trkpt lat="44.63278" lon="6.94121">
        <ele>2719.1259765625</ele>
        <time>2011-07-15T11:51:48Z</time>
      </trkpt>
      <trkpt lat="44.63285" lon="6.94121">
        <ele>2716.6440429688</ele>
        <time>2011-07-15T11:51:55Z</time>
      </trkpt>
      <trkpt lat="44.63288" lon="6.94119">
        <ele>2715.3854980469</ele>
        <time>2011-07-15T11:52:00Z</time>
      </trkpt>
      <trkpt lat="44.63292" lon="6.94114">
        <ele>2713.7307128906</ele>
        <time>2011-07-15T11:52:05Z</time>
      </trkpt>
      <trkpt lat="44.63298" lon="6.94105">
        <ele>2711.2490234375</ele>
        <time>2011-07-15T11:52:13Z</time>
      </trkpt>
      <trkpt lat="44.633" lon="6.94101">
        <ele>2710.2602539062</ele>
        <time>2011-07-15T11:52:19Z</time>
      </trkpt>
      <trkpt lat="44.6331" lon="6.94087">
        <ele>2706.6052246094</ele>
        <time>2011-07-15T11:52:27Z</time>
      </trkpt>
      <trkpt lat="44.63315" lon="6.94077">
        <ele>2705.3371582031</ele>
        <time>2011-07-15T11:52:32Z</time>
      </trkpt>
      <trkpt lat="44.6332" lon="6.94067">
        <ele>2704.1145019531</ele>
        <time>2011-07-15T11:52:37Z</time>
      </trkpt>
      <trkpt lat="44.63325" lon="6.94059">
        <ele>2702.4418945312</ele>
        <time>2011-07-15T11:52:41Z</time>
      </trkpt>
      <trkpt lat="44.63329" lon="6.94042">
        <ele>2700.6474609375</ele>
        <time>2011-07-15T11:52:48Z</time>
      </trkpt>
      <trkpt lat="44.63331" lon="6.94037">
        <ele>2699.5874023438</ele>
        <time>2011-07-15T11:52:51Z</time>
      </trkpt>
      <trkpt lat="44.63332" lon="6.94027">
        <ele>2698.7312011719</ele>
        <time>2011-07-15T11:52:57Z</time>
      </trkpt>
      <trkpt lat="44.63332" lon="6.94025">
        <ele>2698.5285644531</ele>
        <time>2011-07-15T11:52:58Z</time>
      </trkpt>
      <trkpt lat="44.63335" lon="6.94013">
        <ele>2697.5771484375</ele>
        <time>2011-07-15T11:53:05Z</time>
      </trkpt>
      <trkpt lat="44.63341" lon="6.94002">
        <ele>2695.595703125</ele>
        <time>2011-07-15T11:53:11Z</time>
      </trkpt>
      <trkpt lat="44.63342" lon="6.93999">
        <ele>2695.1608886719</ele>
        <time>2011-07-15T11:53:17Z</time>
      </trkpt>
      <trkpt lat="44.63342" lon="6.93995">
        <ele>2695.3840332031</ele>
        <time>2011-07-15T11:53:23Z</time>
      </trkpt>
      <trkpt lat="44.63346" lon="6.93986">
        <ele>2694.3154296875</ele>
        <time>2011-07-15T11:53:28Z</time>
      </trkpt>
      <trkpt lat="44.63349" lon="6.93977">
        <ele>2693.4797363281</ele>
        <time>2011-07-15T11:53:34Z</time>
      </trkpt>
      <trkpt lat="44.63355" lon="6.93971">
        <ele>2690.9072265625</ele>
        <time>2011-07-15T11:53:41Z</time>
      </trkpt>
      <trkpt lat="44.63358" lon="6.93966">
        <ele>2690.1569824219</ele>
        <time>2011-07-15T11:53:45Z</time>
      </trkpt>
      <trkpt lat="44.63361" lon="6.93956">
        <ele>2689.8461914062</ele>
        <time>2011-07-15T11:53:52Z</time>
      </trkpt>
      <trkpt lat="44.63367" lon="6.93947">
        <ele>2688.6013183594</ele>
        <time>2011-07-15T11:53:58Z</time>
      </trkpt>
      <trkpt lat="44.63368" lon="6.93945">
        <ele>2688.4853515625</ele>
        <time>2011-07-15T11:53:59Z</time>
      </trkpt>
      <trkpt lat="44.63372" lon="6.9394">
        <ele>2687.3215332031</ele>
        <time>2011-07-15T11:54:03Z</time>
      </trkpt>
      <trkpt lat="44.6338" lon="6.93927">
        <ele>2684.8410644531</ele>
        <time>2011-07-15T11:54:12Z</time>
      </trkpt>
      <trkpt lat="44.63385" lon="6.93921">
        <ele>2683.2116699219</ele>
        <time>2011-07-15T11:54:19Z</time>
      </trkpt>
      <trkpt lat="44.63387" lon="6.93919">
        <ele>2682.828125</ele>
        <time>2011-07-15T11:54:21Z</time>
      </trkpt>
      <trkpt lat="44.63392" lon="6.93918">
        <ele>2681.2375488281</ele>
        <time>2011-07-15T11:54:27Z</time>
      </trkpt>
      <trkpt lat="44.63396" lon="6.93914">
        <ele>2680.4741210938</ele>
        <time>2011-07-15T11:54:32Z</time>
      </trkpt>
      <trkpt lat="44.63401" lon="6.93913">
        <ele>2679.5576171875</ele>
        <time>2011-07-15T11:54:37Z</time>
      </trkpt>
      <trkpt lat="44.63407" lon="6.93911">
        <ele>2678.064453125</ele>
        <time>2011-07-15T11:54:44Z</time>
      </trkpt>
      <trkpt lat="44.63411" lon="6.93907">
        <ele>2676.9995117188</ele>
        <time>2011-07-15T11:54:50Z</time>
      </trkpt>
      <trkpt lat="44.63416" lon="6.93901">
        <ele>2675.7548828125</ele>
        <time>2011-07-15T11:54:55Z</time>
      </trkpt>
      <trkpt lat="44.63416" lon="6.93894">
        <ele>2675.3151855469</ele>
        <time>2011-07-15T11:55:00Z</time>
      </trkpt>
      <trkpt lat="44.63422" lon="6.93884">
        <ele>2673.318359375</ele>
        <time>2011-07-15T11:55:08Z</time>
      </trkpt>
      <trkpt lat="44.63424" lon="6.93878">
        <ele>2672.4230957031</ele>
        <time>2011-07-15T11:55:12Z</time>
      </trkpt>
      <trkpt lat="44.63428" lon="6.93874">
        <ele>2670.9699707031</ele>
        <time>2011-07-15T11:55:16Z</time>
      </trkpt>
      <trkpt lat="44.63434" lon="6.93866">
        <ele>2668.4602050781</ele>
        <time>2011-07-15T11:55:23Z</time>
      </trkpt>
      <trkpt lat="44.63445" lon="6.93856">
        <ele>2664.3569335938</ele>
        <time>2011-07-15T11:55:32Z</time>
      </trkpt>
      <trkpt lat="44.63448" lon="6.9385">
        <ele>2664.1232910156</ele>
        <time>2011-07-15T11:55:36Z</time>
      </trkpt>
      <trkpt lat="44.63453" lon="6.93836">
        <ele>2663.8349609375</ele>
        <time>2011-07-15T11:55:46Z</time>
      </trkpt>
      <trkpt lat="44.63457" lon="6.93824">
        <ele>2663.0581054688</ele>
        <time>2011-07-15T11:55:53Z</time>
      </trkpt>
      <trkpt lat="44.63462" lon="6.93815">
        <ele>2662.1589355469</ele>
        <time>2011-07-15T11:55:59Z</time>
      </trkpt>
      <trkpt lat="44.63466" lon="6.93803">
        <ele>2661.0913085938</ele>
        <time>2011-07-15T11:56:07Z</time>
      </trkpt>
      <trkpt lat="44.63469" lon="6.93795">
        <ele>2660.2915039062</ele>
        <time>2011-07-15T11:56:12Z</time>
      </trkpt>
      <trkpt lat="44.63472" lon="6.93785">
        <ele>2659.0895996094</ele>
        <time>2011-07-15T11:56:19Z</time>
      </trkpt>
      <trkpt lat="44.63473" lon="6.93779">
        <ele>2658.8427734375</ele>
        <time>2011-07-15T11:56:23Z</time>
      </trkpt>
      <trkpt lat="44.63474" lon="6.93779">
        <ele>2658.7724609375</ele>
        <time>2011-07-15T11:56:24Z</time>
      </trkpt>
      <trkpt lat="44.63472" lon="6.93771">
        <ele>2659.34375</ele>
        <time>2011-07-15T11:56:30Z</time>
      </trkpt>
      <trkpt lat="44.63472" lon="6.93759">
        <ele>2659.9189453125</ele>
        <time>2011-07-15T11:56:38Z</time>
      </trkpt>
      <trkpt lat="44.63474" lon="6.93752">
        <ele>2659.5036621094</ele>
        <time>2011-07-15T11:56:43Z</time>
      </trkpt>
      <trkpt lat="44.63475" lon="6.93742">
        <ele>2660.1823730469</ele>
        <time>2011-07-15T11:56:52Z</time>
      </trkpt>
      <trkpt lat="44.63477" lon="6.93736">
        <ele>2660.2797851562</ele>
        <time>2011-07-15T11:56:56Z</time>
      </trkpt>
      <trkpt lat="44.63482" lon="6.93726">
        <ele>2659.486328125</ele>
        <time>2011-07-15T11:57:01Z</time>
      </trkpt>
      <trkpt lat="44.63487" lon="6.93715">
        <ele>2657.5615234375</ele>
        <time>2011-07-15T11:57:06Z</time>
      </trkpt>
      <trkpt lat="44.63492" lon="6.93702">
        <ele>2655.4831542969</ele>
        <time>2011-07-15T11:57:12Z</time>
      </trkpt>
      <trkpt lat="44.63495" lon="6.93691">
        <ele>2654.5375976562</ele>
        <time>2011-07-15T11:57:19Z</time>
      </trkpt>
      <trkpt lat="44.63496" lon="6.93689">
        <ele>2654.4140625</ele>
        <time>2011-07-15T11:57:20Z</time>
      </trkpt>
      <trkpt lat="44.63497" lon="6.93684">
        <ele>2653.9194335938</ele>
        <time>2011-07-15T11:57:23Z</time>
      </trkpt>
      <trkpt lat="44.63499" lon="6.93678">
        <ele>2653.3015136719</ele>
        <time>2011-07-15T11:57:27Z</time>
      </trkpt>
      <trkpt lat="44.63499" lon="6.93675">
        <ele>2653.3015136719</ele>
        <time>2011-07-15T11:57:29Z</time>
      </trkpt>
      <trkpt lat="44.63503" lon="6.93667">
        <ele>2652.1857910156</ele>
        <time>2011-07-15T11:57:34Z</time>
      </trkpt>
      <trkpt lat="44.63504" lon="6.93665">
        <ele>2651.7790527344</ele>
        <time>2011-07-15T11:57:41Z</time>
      </trkpt>
      <trkpt lat="44.63505" lon="6.93663">
        <ele>2651.8151855469</ele>
        <time>2011-07-15T11:57:47Z</time>
      </trkpt>
      <trkpt lat="44.63506" lon="6.93663">
        <ele>2651.48046875</ele>
        <time>2011-07-15T11:57:51Z</time>
      </trkpt>
      <trkpt lat="44.63506" lon="6.93663">
        <ele>2651.48046875</ele>
        <time>2011-07-15T11:57:57Z</time>
      </trkpt>
      <trkpt lat="44.63506" lon="6.93662">
        <ele>2651.7329101562</ele>
        <time>2011-07-15T11:58:01Z</time>
      </trkpt>
      <trkpt lat="44.63504" lon="6.9366">
        <ele>2652.3662109375</ele>
        <time>2011-07-15T11:58:06Z</time>
      </trkpt>
      <trkpt lat="44.63502" lon="6.93659">
        <ele>2653.2263183594</ele>
        <time>2011-07-15T11:58:26Z</time>
      </trkpt>
      <trkpt lat="44.63502" lon="6.93658">
        <ele>2653.2365722656</ele>
        <time>2011-07-15T11:58:42Z</time>
      </trkpt>
      <trkpt lat="44.63503" lon="6.93658">
        <ele>2653.1540527344</ele>
        <time>2011-07-15T11:58:48Z</time>
      </trkpt>
      <trkpt lat="44.63502" lon="6.93658">
        <ele>2653.2416992188</ele>
        <time>2011-07-15T11:58:54Z</time>
      </trkpt>
      <trkpt lat="44.63503" lon="6.93656">
        <ele>2653.1901855469</ele>
        <time>2011-07-15T11:59:11Z</time>
      </trkpt>
      <trkpt lat="44.63503" lon="6.93654">
        <ele>2653.3293457031</ele>
        <time>2011-07-15T11:59:25Z</time>
      </trkpt>
      <trkpt lat="44.63506" lon="6.93647">
        <ele>2653.1901855469</ele>
        <time>2011-07-15T11:59:30Z</time>
      </trkpt>
      <trkpt lat="44.63506" lon="6.93646">
        <ele>2653.2106933594</ele>
        <time>2011-07-15T11:59:31Z</time>
      </trkpt>
      <trkpt lat="44.63509" lon="6.9364">
        <ele>2653.1232910156</ele>
        <time>2011-07-15T11:59:38Z</time>
      </trkpt>
      <trkpt lat="44.63508" lon="6.9364">
        <ele>2653.2468261719</ele>
        <time>2011-07-15T11:59:47Z</time>
      </trkpt>
      <trkpt lat="44.63508" lon="6.93639">
        <ele>2653.2727050781</ele>
        <time>2011-07-15T11:59:58Z</time>
      </trkpt>
      <trkpt lat="44.63508" lon="6.93639">
        <ele>2653.4270019531</ele>
        <time>2011-07-15T12:00:02Z</time>
      </trkpt>
      <trkpt lat="44.63508" lon="6.93639">
        <ele>2653.4270019531</ele>
        <time>2011-07-15T12:00:13Z</time>
      </trkpt>
      <trkpt lat="44.63508" lon="6.93638">
        <ele>2653.3911132812</ele>
        <time>2011-07-15T12:00:19Z</time>
      </trkpt>
      <trkpt lat="44.6351" lon="6.93636">
        <ele>2653.1591796875</ele>
        <time>2011-07-15T12:00:30Z</time>
      </trkpt>
      <trkpt lat="44.63512" lon="6.93634">
        <ele>2652.7111816406</ele>
        <time>2011-07-15T12:00:35Z</time>
      </trkpt>
      <trkpt lat="44.63512" lon="6.93633">
        <ele>2652.7009277344</ele>
        <time>2011-07-15T12:00:38Z</time>
      </trkpt>
      <trkpt lat="44.63514" lon="6.93626">
        <ele>2652.7421875</ele>
        <time>2011-07-15T12:00:45Z</time>
      </trkpt>
      <trkpt lat="44.63515" lon="6.93624">
        <ele>2652.7216796875</ele>
        <time>2011-07-15T12:00:51Z</time>
      </trkpt>
      <trkpt lat="44.63517" lon="6.93619">
        <ele>2652.8142089844</ele>
        <time>2011-07-15T12:00:57Z</time>
      </trkpt>
      <trkpt lat="44.63518" lon="6.93613">
        <ele>2652.9069824219</ele>
        <time>2011-07-15T12:01:03Z</time>
      </trkpt>
      <trkpt lat="44.63521" lon="6.93606">
        <ele>2651.7700195312</ele>
        <time>2011-07-15T12:01:10Z</time>
      </trkpt>
      <trkpt lat="44.6352" lon="6.936">
        <ele>2651.501953125</ele>
        <time>2011-07-15T12:01:13Z</time>
      </trkpt>
      <trkpt lat="44.63521" lon="6.9359">
        <ele>2650.2375488281</ele>
        <time>2011-07-15T12:01:20Z</time>
      </trkpt>
      <trkpt lat="44.63523" lon="6.93584">
        <ele>2649.2756347656</ele>
        <time>2011-07-15T12:01:24Z</time>
      </trkpt>
      <trkpt lat="44.63524" lon="6.93581">
        <ele>2648.8679199219</ele>
        <time>2011-07-15T12:01:31Z</time>
      </trkpt>
      <trkpt lat="44.63525" lon="6.93574">
        <ele>2648.2038574219</ele>
        <time>2011-07-15T12:01:35Z</time>
      </trkpt>
      <trkpt lat="44.63528" lon="6.93564">
        <ele>2647.255859375</ele>
        <time>2011-07-15T12:01:41Z</time>
      </trkpt>
      <trkpt lat="44.63533" lon="6.93553">
        <ele>2645.6181640625</ele>
        <time>2011-07-15T12:01:49Z</time>
      </trkpt>
      <trkpt lat="44.63538" lon="6.93541">
        <ele>2642.6909179688</ele>
        <time>2011-07-15T12:01:56Z</time>
      </trkpt>
      <trkpt lat="44.63542" lon="6.93527">
        <ele>2639.7048339844</ele>
        <time>2011-07-15T12:02:04Z</time>
      </trkpt>
      <trkpt lat="44.63543" lon="6.93513">
        <ele>2637.0056152344</ele>
        <time>2011-07-15T12:02:12Z</time>
      </trkpt>
      <trkpt lat="44.63544" lon="6.93498">
        <ele>2634.3955078125</ele>
        <time>2011-07-15T12:02:20Z</time>
      </trkpt>
      <trkpt lat="44.63546" lon="6.93487">
        <ele>2633.5834960938</ele>
        <time>2011-07-15T12:02:26Z</time>
      </trkpt>
      <trkpt lat="44.63549" lon="6.93472">
        <ele>2632.4916992188</ele>
        <time>2011-07-15T12:02:34Z</time>
      </trkpt>
      <trkpt lat="44.63549" lon="6.93468">
        <ele>2632.2651367188</ele>
        <time>2011-07-15T12:02:36Z</time>
      </trkpt>
      <trkpt lat="44.6355" lon="6.93453">
        <ele>2631.8933105469</ele>
        <time>2011-07-15T12:02:44Z</time>
      </trkpt>
      <trkpt lat="44.63551" lon="6.93447">
        <ele>2631.7478027344</ele>
        <time>2011-07-15T12:02:47Z</time>
      </trkpt>
      <trkpt lat="44.63553" lon="6.93439">
        <ele>2631.1691894531</ele>
        <time>2011-07-15T12:02:51Z</time>
      </trkpt>
      <trkpt lat="44.63556" lon="6.93423">
        <ele>2630.2451171875</ele>
        <time>2011-07-15T12:02:59Z</time>
      </trkpt>
      <trkpt lat="44.63556" lon="6.93409">
        <ele>2629.88671875</ele>
        <time>2011-07-15T12:03:07Z</time>
      </trkpt>
      <trkpt lat="44.63558" lon="6.93397">
        <ele>2629.6162109375</ele>
        <time>2011-07-15T12:03:13Z</time>
      </trkpt>
      <trkpt lat="44.63558" lon="6.93388">
        <ele>2629.5534667969</ele>
        <time>2011-07-15T12:03:19Z</time>
      </trkpt>
      <trkpt lat="44.63559" lon="6.93374">
        <ele>2628.6989746094</ele>
        <time>2011-07-15T12:03:27Z</time>
      </trkpt>
      <trkpt lat="44.63562" lon="6.93365">
        <ele>2627.5529785156</ele>
        <time>2011-07-15T12:03:33Z</time>
      </trkpt>
      <trkpt lat="44.63563" lon="6.93358">
        <ele>2626.6962890625</ele>
        <time>2011-07-15T12:03:39Z</time>
      </trkpt>
      <trkpt lat="44.63562" lon="6.93348">
        <ele>2625.8999023438</ele>
        <time>2011-07-15T12:03:44Z</time>
      </trkpt>
      <trkpt lat="44.63562" lon="6.9334">
        <ele>2625.1547851562</ele>
        <time>2011-07-15T12:03:50Z</time>
      </trkpt>
      <trkpt lat="44.63562" lon="6.93336">
        <ele>2624.7033691406</ele>
        <time>2011-07-15T12:03:52Z</time>
      </trkpt>
      <trkpt lat="44.63561" lon="6.93325">
        <ele>2624.0268554688</ele>
        <time>2011-07-15T12:03:59Z</time>
      </trkpt>
      <trkpt lat="44.63562" lon="6.93303">
        <ele>2622.2189941406</ele>
        <time>2011-07-15T12:04:10Z</time>
      </trkpt>
      <trkpt lat="44.63565" lon="6.93291">
        <ele>2620.8078613281</ele>
        <time>2011-07-15T12:04:17Z</time>
      </trkpt>
      <trkpt lat="44.63564" lon="6.9328">
        <ele>2620.2331542969</ele>
        <time>2011-07-15T12:04:23Z</time>
      </trkpt>
      <trkpt lat="44.63567" lon="6.93268">
        <ele>2619.4711914062</ele>
        <time>2011-07-15T12:04:30Z</time>
      </trkpt>
      <trkpt lat="44.63569" lon="6.93263">
        <ele>2619.0427246094</ele>
        <time>2011-07-15T12:04:33Z</time>
      </trkpt>
      <trkpt lat="44.63574" lon="6.93257">
        <ele>2618.041015625</ele>
        <time>2011-07-15T12:04:38Z</time>
      </trkpt>
      <trkpt lat="44.6358" lon="6.93247">
        <ele>2616.4609375</ele>
        <time>2011-07-15T12:04:46Z</time>
      </trkpt>
      <trkpt lat="44.63581" lon="6.93245">
        <ele>2615.966796875</ele>
        <time>2011-07-15T12:04:48Z</time>
      </trkpt>
      <trkpt lat="44.63588" lon="6.93239">
        <ele>2614.0368652344</ele>
        <time>2011-07-15T12:04:55Z</time>
      </trkpt>
      <trkpt lat="44.63589" lon="6.93235">
        <ele>2613.48828125</ele>
        <time>2011-07-15T12:05:02Z</time>
      </trkpt>
      <trkpt lat="44.63593" lon="6.93223">
        <ele>2611.7492675781</ele>
        <time>2011-07-15T12:05:10Z</time>
      </trkpt>
      <trkpt lat="44.63597" lon="6.93211">
        <ele>2610.0437011719</ele>
        <time>2011-07-15T12:05:17Z</time>
      </trkpt>
      <trkpt lat="44.63604" lon="6.93205">
        <ele>2608.0817871094</ele>
        <time>2011-07-15T12:05:24Z</time>
      </trkpt>
      <trkpt lat="44.6361" lon="6.9319">
        <ele>2606.1577148438</ele>
        <time>2011-07-15T12:05:33Z</time>
      </trkpt>
      <trkpt lat="44.63614" lon="6.93177">
        <ele>2605.3994140625</ele>
        <time>2011-07-15T12:05:40Z</time>
      </trkpt>
      <trkpt lat="44.63617" lon="6.93165">
        <ele>2604.5415039062</ele>
        <time>2011-07-15T12:05:47Z</time>
      </trkpt>
      <trkpt lat="44.63622" lon="6.93154">
        <ele>2603.1662597656</ele>
        <time>2011-07-15T12:05:54Z</time>
      </trkpt>
      <trkpt lat="44.63626" lon="6.9314">
        <ele>2601.8312988281</ele>
        <time>2011-07-15T12:06:02Z</time>
      </trkpt>
      <trkpt lat="44.6363" lon="6.9313">
        <ele>2601.3474121094</ele>
        <time>2011-07-15T12:06:08Z</time>
      </trkpt>
      <trkpt lat="44.63636" lon="6.93123">
        <ele>2600.4135742188</ele>
        <time>2011-07-15T12:06:14Z</time>
      </trkpt>
      <trkpt lat="44.63639" lon="6.93117">
        <ele>2600.0290527344</ele>
        <time>2011-07-15T12:06:18Z</time>
      </trkpt>
      <trkpt lat="44.63642" lon="6.93109">
        <ele>2598.94140625</ele>
        <time>2011-07-15T12:06:23Z</time>
      </trkpt>
      <trkpt lat="44.63647" lon="6.93096">
        <ele>2596.4343261719</ele>
        <time>2011-07-15T12:06:31Z</time>
      </trkpt>
      <trkpt lat="44.63653" lon="6.93086">
        <ele>2594.0466308594</ele>
        <time>2011-07-15T12:06:38Z</time>
      </trkpt>
      <trkpt lat="44.63662" lon="6.93081">
        <ele>2591.5749511719</ele>
        <time>2011-07-15T12:06:45Z</time>
      </trkpt>
      <trkpt lat="44.63669" lon="6.93075">
        <ele>2589.9750976562</ele>
        <time>2011-07-15T12:06:52Z</time>
      </trkpt>
      <trkpt lat="44.63674" lon="6.93069">
        <ele>2588.8278808594</ele>
        <time>2011-07-15T12:06:58Z</time>
      </trkpt>
      <trkpt lat="44.63679" lon="6.93067">
        <ele>2587.0400390625</ele>
        <time>2011-07-15T12:07:03Z</time>
      </trkpt>
      <trkpt lat="44.63684" lon="6.9306">
        <ele>2585.537109375</ele>
        <time>2011-07-15T12:07:08Z</time>
      </trkpt>
      <trkpt lat="44.6369" lon="6.93048">
        <ele>2584.5009765625</ele>
        <time>2011-07-15T12:07:15Z</time>
      </trkpt>
      <trkpt lat="44.63696" lon="6.93037">
        <ele>2583.6008300781</ele>
        <time>2011-07-15T12:07:23Z</time>
      </trkpt>
      <trkpt lat="44.637" lon="6.93026">
        <ele>2583.5231933594</ele>
        <time>2011-07-15T12:07:30Z</time>
      </trkpt>
      <trkpt lat="44.63704" lon="6.93016">
        <ele>2582.8986816406</ele>
        <time>2011-07-15T12:07:37Z</time>
      </trkpt>
      <trkpt lat="44.63708" lon="6.93005">
        <ele>2582.0837402344</ele>
        <time>2011-07-15T12:07:45Z</time>
      </trkpt>
      <trkpt lat="44.6371" lon="6.93001">
        <ele>2581.3952636719</ele>
        <time>2011-07-15T12:07:48Z</time>
      </trkpt>
      <trkpt lat="44.63716" lon="6.92986">
        <ele>2578.8806152344</ele>
        <time>2011-07-15T12:07:56Z</time>
      </trkpt>
      <trkpt lat="44.63722" lon="6.92976">
        <ele>2576.3879394531</ele>
        <time>2011-07-15T12:08:03Z</time>
      </trkpt>
      <trkpt lat="44.63726" lon="6.92964">
        <ele>2573.9477539062</ele>
        <time>2011-07-15T12:08:10Z</time>
      </trkpt>
      <trkpt lat="44.6373" lon="6.92951">
        <ele>2571.2060546875</ele>
        <time>2011-07-15T12:08:17Z</time>
      </trkpt>
      <trkpt lat="44.63735" lon="6.92939">
        <ele>2568.373046875</ele>
        <time>2011-07-15T12:08:24Z</time>
      </trkpt>
      <trkpt lat="44.63738" lon="6.92928">
        <ele>2566.4013671875</ele>
        <time>2011-07-15T12:08:30Z</time>
      </trkpt>
      <trkpt lat="44.63739" lon="6.92916">
        <ele>2565.0373535156</ele>
        <time>2011-07-15T12:08:37Z</time>
      </trkpt>
      <trkpt lat="44.63738" lon="6.92904">
        <ele>2564.7043457031</ele>
        <time>2011-07-15T12:08:43Z</time>
      </trkpt>
      <trkpt lat="44.63735" lon="6.92889">
        <ele>2564.7868652344</ele>
        <time>2011-07-15T12:08:51Z</time>
      </trkpt>
      <trkpt lat="44.63737" lon="6.92878">
        <ele>2563.71484375</ele>
        <time>2011-07-15T12:08:57Z</time>
      </trkpt>
      <trkpt lat="44.63738" lon="6.92867">
        <ele>2562.888671875</ele>
        <time>2011-07-15T12:09:03Z</time>
      </trkpt>
      <trkpt lat="44.63739" lon="6.92857">
        <ele>2561.7192382812</ele>
        <time>2011-07-15T12:09:09Z</time>
      </trkpt>
      <trkpt lat="44.63738" lon="6.92845">
        <ele>2560.02734375</ele>
        <time>2011-07-15T12:09:15Z</time>
      </trkpt>
      <trkpt lat="44.63741" lon="6.92838">
        <ele>2558.3728027344</ele>
        <time>2011-07-15T12:09:20Z</time>
      </trkpt>
      <trkpt lat="44.63744" lon="6.92836">
        <ele>2557.5812988281</ele>
        <time>2011-07-15T12:09:24Z</time>
      </trkpt>
      <trkpt lat="44.63743" lon="6.92828">
        <ele>2556.6259765625</ele>
        <time>2011-07-15T12:09:30Z</time>
      </trkpt>
      <trkpt lat="44.63741" lon="6.92814">
        <ele>2555.3950195312</ele>
        <time>2011-07-15T12:09:38Z</time>
      </trkpt>
      <trkpt lat="44.63742" lon="6.92808">
        <ele>2554.5463867188</ele>
        <time>2011-07-15T12:09:42Z</time>
      </trkpt>
      <trkpt lat="44.63746" lon="6.92804">
        <ele>2553.1472167969</ele>
        <time>2011-07-15T12:09:47Z</time>
      </trkpt>
      <trkpt lat="44.63745" lon="6.92798">
        <ele>2553.3386230469</ele>
        <time>2011-07-15T12:09:52Z</time>
      </trkpt>
      <trkpt lat="44.63743" lon="6.92794">
        <ele>2553.7409667969</ele>
        <time>2011-07-15T12:09:56Z</time>
      </trkpt>
      <trkpt lat="44.63742" lon="6.92786">
        <ele>2553.9829101562</ele>
        <time>2011-07-15T12:10:03Z</time>
      </trkpt>
      <trkpt lat="44.63741" lon="6.92785">
        <ele>2554.3522949219</ele>
        <time>2011-07-15T12:10:07Z</time>
      </trkpt>
      <trkpt lat="44.63741" lon="6.92785">
        <ele>2554.3522949219</ele>
        <time>2011-07-15T12:10:12Z</time>
      </trkpt>
      <trkpt lat="44.63741" lon="6.92785">
        <ele>2554.4833984375</ele>
        <time>2011-07-15T12:10:24Z</time>
      </trkpt>
      <trkpt lat="44.63741" lon="6.92783">
        <ele>2554.4714355469</ele>
        <time>2011-07-15T12:10:37Z</time>
      </trkpt>
      <trkpt lat="44.63741" lon="6.92783">
        <ele>2554.337890625</ele>
        <time>2011-07-15T12:10:45Z</time>
      </trkpt>
      <trkpt lat="44.63743" lon="6.92779">
        <ele>2553.4760742188</ele>
        <time>2011-07-15T12:10:51Z</time>
      </trkpt>
      <trkpt lat="44.63746" lon="6.92773">
        <ele>2552.3205566406</ele>
        <time>2011-07-15T12:10:58Z</time>
      </trkpt>
      <trkpt lat="44.63748" lon="6.92769">
        <ele>2551.6379394531</ele>
        <time>2011-07-15T12:11:04Z</time>
      </trkpt>
      <trkpt lat="44.63749" lon="6.92768">
        <ele>2551.37109375</ele>
        <time>2011-07-15T12:11:09Z</time>
      </trkpt>
      <trkpt lat="44.63749" lon="6.92767">
        <ele>2551.5024414062</ele>
        <time>2011-07-15T12:12:32Z</time>
      </trkpt>
      <trkpt lat="44.6375" lon="6.92763">
        <ele>2550.97265625</ele>
        <time>2011-07-15T12:12:44Z</time>
      </trkpt>
      <trkpt lat="44.63751" lon="6.92761">
        <ele>2550.705078125</ele>
        <time>2011-07-15T12:12:46Z</time>
      </trkpt>
      <trkpt lat="44.63753" lon="6.92751">
        <ele>2550.1062011719</ele>
        <time>2011-07-15T12:12:53Z</time>
      </trkpt>
      <trkpt lat="44.63753" lon="6.92743">
        <ele>2549.5007324219</ele>
        <time>2011-07-15T12:12:59Z</time>
      </trkpt>
      <trkpt lat="44.63755" lon="6.92735">
        <ele>2548.2543945312</ele>
        <time>2011-07-15T12:13:06Z</time>
      </trkpt>
      <trkpt lat="44.63756" lon="6.92724">
        <ele>2547.0974121094</ele>
        <time>2011-07-15T12:13:13Z</time>
      </trkpt>
      <trkpt lat="44.63759" lon="6.92711">
        <ele>2545.4909667969</ele>
        <time>2011-07-15T12:13:20Z</time>
      </trkpt>
      <trkpt lat="44.63761" lon="6.92706">
        <ele>2544.818359375</ele>
        <time>2011-07-15T12:13:23Z</time>
      </trkpt>
      <trkpt lat="44.63765" lon="6.92694">
        <ele>2543.3217773438</ele>
        <time>2011-07-15T12:13:30Z</time>
      </trkpt>
      <trkpt lat="44.63765" lon="6.92692">
        <ele>2543.1252441406</ele>
        <time>2011-07-15T12:13:31Z</time>
      </trkpt>
      <trkpt lat="44.63768" lon="6.92676">
        <ele>2541.5637207031</ele>
        <time>2011-07-15T12:13:40Z</time>
      </trkpt>
      <trkpt lat="44.63771" lon="6.92665">
        <ele>2540.3354492188</ele>
        <time>2011-07-15T12:13:46Z</time>
      </trkpt>
      <trkpt lat="44.63776" lon="6.92653">
        <ele>2538.4094238281</ele>
        <time>2011-07-15T12:13:53Z</time>
      </trkpt>
      <trkpt lat="44.63777" lon="6.92649">
        <ele>2537.9733886719</ele>
        <time>2011-07-15T12:13:55Z</time>
      </trkpt>
      <trkpt lat="44.63784" lon="6.92635">
        <ele>2534.5268554688</ele>
        <time>2011-07-15T12:14:04Z</time>
      </trkpt>
      <trkpt lat="44.63787" lon="6.92624">
        <ele>2532.6459960938</ele>
        <time>2011-07-15T12:14:10Z</time>
      </trkpt>
      <trkpt lat="44.6379" lon="6.92611">
        <ele>2530.9848632812</ele>
        <time>2011-07-15T12:14:17Z</time>
      </trkpt>
      <trkpt lat="44.63791" lon="6.92602">
        <ele>2530.2292480469</ele>
        <time>2011-07-15T12:14:22Z</time>
      </trkpt>
      <trkpt lat="44.63786" lon="6.92589">
        <ele>2530.9094238281</ele>
        <time>2011-07-15T12:14:30Z</time>
      </trkpt>
      <trkpt lat="44.6378" lon="6.92575">
        <ele>2532.0634765625</ele>
        <time>2011-07-15T12:14:39Z</time>
      </trkpt>
      <trkpt lat="44.63778" lon="6.9257">
        <ele>2532.5622558594</ele>
        <time>2011-07-15T12:14:44Z</time>
      </trkpt>
      <trkpt lat="44.63776" lon="6.92563">
        <ele>2532.6640625</ele>
        <time>2011-07-15T12:14:49Z</time>
      </trkpt>
      <trkpt lat="44.63772" lon="6.92555">
        <ele>2533.2797851562</ele>
        <time>2011-07-15T12:14:55Z</time>
      </trkpt>
      <trkpt lat="44.63768" lon="6.92547">
        <ele>2533.9790039062</ele>
        <time>2011-07-15T12:15:01Z</time>
      </trkpt>
      <trkpt lat="44.63765" lon="6.92541">
        <ele>2534.2067871094</ele>
        <time>2011-07-15T12:15:05Z</time>
      </trkpt>
      <trkpt lat="44.63766" lon="6.92529">
        <ele>2533.66015625</ele>
        <time>2011-07-15T12:15:12Z</time>
      </trkpt>
      <trkpt lat="44.63766" lon="6.92519">
        <ele>2534.1999511719</ele>
        <time>2011-07-15T12:15:18Z</time>
      </trkpt>
      <trkpt lat="44.63765" lon="6.92505">
        <ele>2534.9926757812</ele>
        <time>2011-07-15T12:15:26Z</time>
      </trkpt>
      <trkpt lat="44.63766" lon="6.92496">
        <ele>2535.3178710938</ele>
        <time>2011-07-15T12:15:31Z</time>
      </trkpt>
      <trkpt lat="44.63767" lon="6.92483">
        <ele>2535.513671875</ele>
        <time>2011-07-15T12:15:38Z</time>
      </trkpt>
      <trkpt lat="44.63771" lon="6.92469">
        <ele>2535.0122070312</ele>
        <time>2011-07-15T12:15:46Z</time>
      </trkpt>
      <trkpt lat="44.63772" lon="6.92457">
        <ele>2533.9516601562</ele>
        <time>2011-07-15T12:15:52Z</time>
      </trkpt>
      <trkpt lat="44.63774" lon="6.92443">
        <ele>2532.9052734375</ele>
        <time>2011-07-15T12:16:00Z</time>
      </trkpt>
      <trkpt lat="44.63774" lon="6.9243">
        <ele>2532.3171386719</ele>
        <time>2011-07-15T12:16:06Z</time>
      </trkpt>
      <trkpt lat="44.63774" lon="6.92416">
        <ele>2531.591796875</ele>
        <time>2011-07-15T12:16:13Z</time>
      </trkpt>
      <trkpt lat="44.63771" lon="6.92399">
        <ele>2530.1633300781</ele>
        <time>2011-07-15T12:16:22Z</time>
      </trkpt>
      <trkpt lat="44.63766" lon="6.92387">
        <ele>2528.2751464844</ele>
        <time>2011-07-15T12:16:29Z</time>
      </trkpt>
      <trkpt lat="44.63762" lon="6.92375">
        <ele>2525.4255371094</ele>
        <time>2011-07-15T12:16:36Z</time>
      </trkpt>
      <trkpt lat="44.63758" lon="6.92361">
        <ele>2522.7612304688</ele>
        <time>2011-07-15T12:16:43Z</time>
      </trkpt>
      <trkpt lat="44.63756" lon="6.92349">
        <ele>2519.5678710938</ele>
        <time>2011-07-15T12:16:50Z</time>
      </trkpt>
      <trkpt lat="44.63757" lon="6.9234">
        <ele>2517.5795898438</ele>
        <time>2011-07-15T12:16:56Z</time>
      </trkpt>
      <trkpt lat="44.63755" lon="6.92333">
        <ele>2515.8054199219</ele>
        <time>2011-07-15T12:17:00Z</time>
      </trkpt>
      <trkpt lat="44.63753" lon="6.92329">
        <ele>2514.8217773438</ele>
        <time>2011-07-15T12:17:03Z</time>
      </trkpt>
      <trkpt lat="44.6375" lon="6.92317">
        <ele>2512.6845703125</ele>
        <time>2011-07-15T12:17:10Z</time>
      </trkpt>
      <trkpt lat="44.6375" lon="6.92305">
        <ele>2510.962890625</ele>
        <time>2011-07-15T12:17:16Z</time>
      </trkpt>
      <trkpt lat="44.6375" lon="6.92304">
        <ele>2510.7922363281</ele>
        <time>2011-07-15T12:17:24Z</time>
      </trkpt>
      <trkpt lat="44.6375" lon="6.92304">
        <ele>2510.8093261719</ele>
        <time>2011-07-15T12:17:29Z</time>
      </trkpt>
      <trkpt lat="44.6375" lon="6.92304">
        <ele>2510.8093261719</ele>
        <time>2011-07-15T12:17:37Z</time>
      </trkpt>
      <trkpt lat="44.63749" lon="6.92298">
        <ele>2509.890625</ele>
        <time>2011-07-15T12:17:43Z</time>
      </trkpt>
      <trkpt lat="44.63747" lon="6.92289">
        <ele>2508.6860351562</ele>
        <time>2011-07-15T12:17:49Z</time>
      </trkpt>
      <trkpt lat="44.63749" lon="6.92275">
        <ele>2506.0678710938</ele>
        <time>2011-07-15T12:17:57Z</time>
      </trkpt>
      <trkpt lat="44.6375" lon="6.92262">
        <ele>2503.7575683594</ele>
        <time>2011-07-15T12:18:04Z</time>
      </trkpt>
      <trkpt lat="44.6375" lon="6.92254">
        <ele>2502.7058105469</ele>
        <time>2011-07-15T12:18:08Z</time>
      </trkpt>
      <trkpt lat="44.63748" lon="6.92249">
        <ele>2502.6335449219</ele>
        <time>2011-07-15T12:18:13Z</time>
      </trkpt>
      <trkpt lat="44.63747" lon="6.92247">
        <ele>2502.4963378906</ele>
        <time>2011-07-15T12:18:14Z</time>
      </trkpt>
      <trkpt lat="44.63747" lon="6.92235">
        <ele>2501.0200195312</ele>
        <time>2011-07-15T12:18:21Z</time>
      </trkpt>
      <trkpt lat="44.63744" lon="6.9223">
        <ele>2501.4458007812</ele>
        <time>2011-07-15T12:18:25Z</time>
      </trkpt>
      <trkpt lat="44.63743" lon="6.92227">
        <ele>2501.3151855469</ele>
        <time>2011-07-15T12:18:27Z</time>
      </trkpt>
      <trkpt lat="44.63744" lon="6.92217">
        <ele>2499.7016601562</ele>
        <time>2011-07-15T12:18:33Z</time>
      </trkpt>
      <trkpt lat="44.63745" lon="6.92209">
        <ele>2498.0725097656</ele>
        <time>2011-07-15T12:18:38Z</time>
      </trkpt>
      <trkpt lat="44.63745" lon="6.92197">
        <ele>2497.0415039062</ele>
        <time>2011-07-15T12:18:44Z</time>
      </trkpt>
      <trkpt lat="44.63743" lon="6.92181">
        <ele>2495.6591796875</ele>
        <time>2011-07-15T12:18:53Z</time>
      </trkpt>
      <trkpt lat="44.63742" lon="6.92167">
        <ele>2494.3127441406</ele>
        <time>2011-07-15T12:19:01Z</time>
      </trkpt>
      <trkpt lat="44.63741" lon="6.92156">
        <ele>2493.0239257812</ele>
        <time>2011-07-15T12:19:07Z</time>
      </trkpt>
      <trkpt lat="44.63741" lon="6.92147">
        <ele>2491.4748535156</ele>
        <time>2011-07-15T12:19:12Z</time>
      </trkpt>
      <trkpt lat="44.63742" lon="6.92143">
        <ele>2490.7431640625</ele>
        <time>2011-07-15T12:19:14Z</time>
      </trkpt>
      <trkpt lat="44.63745" lon="6.92137">
        <ele>2489.37890625</ele>
        <time>2011-07-15T12:19:19Z</time>
      </trkpt>
      <trkpt lat="44.63748" lon="6.92123">
        <ele>2486.685546875</ele>
        <time>2011-07-15T12:19:27Z</time>
      </trkpt>
      <trkpt lat="44.63749" lon="6.92111">
        <ele>2484.8908691406</ele>
        <time>2011-07-15T12:19:34Z</time>
      </trkpt>
      <trkpt lat="44.63749" lon="6.9211">
        <ele>2484.8395996094</ele>
        <time>2011-07-15T12:19:35Z</time>
      </trkpt>
      <trkpt lat="44.63752" lon="6.92103">
        <ele>2483.634765625</ele>
        <time>2011-07-15T12:19:41Z</time>
      </trkpt>
      <trkpt lat="44.63755" lon="6.92093">
        <ele>2481.1877441406</ele>
        <time>2011-07-15T12:19:48Z</time>
      </trkpt>
      <trkpt lat="44.63759" lon="6.9208">
        <ele>2478.1652832031</ele>
        <time>2011-07-15T12:19:56Z</time>
      </trkpt>
      <trkpt lat="44.63764" lon="6.9207">
        <ele>2475.013671875</ele>
        <time>2011-07-15T12:20:03Z</time>
      </trkpt>
      <trkpt lat="44.63764" lon="6.9206">
        <ele>2473.5166015625</ele>
        <time>2011-07-15T12:20:10Z</time>
      </trkpt>
      <trkpt lat="44.63765" lon="6.92054">
        <ele>2472.2412109375</ele>
        <time>2011-07-15T12:20:13Z</time>
      </trkpt>
      <trkpt lat="44.63766" lon="6.92045">
        <ele>2469.4118652344</ele>
        <time>2011-07-15T12:20:19Z</time>
      </trkpt>
      <trkpt lat="44.63764" lon="6.92035">
        <ele>2467.28125</ele>
        <time>2011-07-15T12:20:26Z</time>
      </trkpt>
      <trkpt lat="44.63767" lon="6.92032">
        <ele>2466.0166015625</ele>
        <time>2011-07-15T12:20:32Z</time>
      </trkpt>
      <trkpt lat="44.63773" lon="6.92036">
        <ele>2465.6147460938</ele>
        <time>2011-07-15T12:20:39Z</time>
      </trkpt>
      <trkpt lat="44.63778" lon="6.92042">
        <ele>2465.6877441406</ele>
        <time>2011-07-15T12:20:46Z</time>
      </trkpt>
      <trkpt lat="44.63779" lon="6.92038">
        <ele>2464.7451171875</ele>
        <time>2011-07-15T12:20:51Z</time>
      </trkpt>
      <trkpt lat="44.63782" lon="6.92032">
        <ele>2463.2277832031</ele>
        <time>2011-07-15T12:20:57Z</time>
      </trkpt>
      <trkpt lat="44.63782" lon="6.92025">
        <ele>2462.3100585938</ele>
        <time>2011-07-15T12:21:03Z</time>
      </trkpt>
      <trkpt lat="44.63784" lon="6.92018">
        <ele>2461.4934082031</ele>
        <time>2011-07-15T12:21:08Z</time>
      </trkpt>
      <trkpt lat="44.63784" lon="6.92014">
        <ele>2461.1218261719</ele>
        <time>2011-07-15T12:21:11Z</time>
      </trkpt>
      <trkpt lat="44.63787" lon="6.92005">
        <ele>2460.3464355469</ele>
        <time>2011-07-15T12:21:17Z</time>
      </trkpt>
      <trkpt lat="44.63788" lon="6.92">
        <ele>2460.0168457031</ele>
        <time>2011-07-15T12:21:20Z</time>
      </trkpt>
      <trkpt lat="44.63792" lon="6.91987">
        <ele>2460</ele>
        <time>2011-07-15T12:21:28Z</time>
      </trkpt>
      <trkpt lat="44.63796" lon="6.91975">
        <ele>2460</ele>
        <time>2011-07-15T12:21:35Z</time>
      </trkpt>
      <trkpt lat="44.63801" lon="6.91967">
        <ele>2460</ele>
        <time>2011-07-15T12:21:43Z</time>
      </trkpt>
      <trkpt lat="44.63802" lon="6.91966">
        <ele>2460</ele>
        <time>2011-07-15T12:21:44Z</time>
      </trkpt>
      <trkpt lat="44.63804" lon="6.91961">
        <ele>2460</ele>
        <time>2011-07-15T12:21:49Z</time>
      </trkpt>
      <trkpt lat="44.63805" lon="6.9196">
        <ele>2460</ele>
        <time>2011-07-15T12:21:53Z</time>
      </trkpt>
      <trkpt lat="44.63804" lon="6.91959">
        <ele>2460</ele>
        <time>2011-07-15T12:22:01Z</time>
      </trkpt>
      <trkpt lat="44.63804" lon="6.9196">
        <ele>2460</ele>
        <time>2011-07-15T12:22:10Z</time>
      </trkpt>
      <trkpt lat="44.63804" lon="6.91956">
        <ele>2460</ele>
        <time>2011-07-15T12:22:15Z</time>
      </trkpt>
      <trkpt lat="44.63805" lon="6.91945">
        <ele>2460</ele>
        <time>2011-07-15T12:22:21Z</time>
      </trkpt>
      <trkpt lat="44.63805" lon="6.91933">
        <ele>2460</ele>
        <time>2011-07-15T12:22:28Z</time>
      </trkpt>
      <trkpt lat="44.638" lon="6.9192">
        <ele>2460</ele>
        <time>2011-07-15T12:22:36Z</time>
      </trkpt>
      <trkpt lat="44.63795" lon="6.91904">
        <ele>2460</ele>
        <time>2011-07-15T12:22:45Z</time>
      </trkpt>
      <trkpt lat="44.6379" lon="6.91892">
        <ele>2460</ele>
        <time>2011-07-15T12:22:53Z</time>
      </trkpt>
      <trkpt lat="44.63787" lon="6.9188">
        <ele>2460.1005859375</ele>
        <time>2011-07-15T12:23:00Z</time>
      </trkpt>
      <trkpt lat="44.63785" lon="6.9187">
        <ele>2460.1674804688</ele>
        <time>2011-07-15T12:23:06Z</time>
      </trkpt>
      <trkpt lat="44.63785" lon="6.91854">
        <ele>2460.1899414062</ele>
        <time>2011-07-15T12:23:15Z</time>
      </trkpt>
      <trkpt lat="44.63784" lon="6.91841">
        <ele>2460.0666503906</ele>
        <time>2011-07-15T12:23:23Z</time>
      </trkpt>
      <trkpt lat="44.63783" lon="6.9183">
        <ele>2460</ele>
        <time>2011-07-15T12:23:30Z</time>
      </trkpt>
      <trkpt lat="44.63783" lon="6.91822">
        <ele>2460</ele>
        <time>2011-07-15T12:23:35Z</time>
      </trkpt>
      <trkpt lat="44.63784" lon="6.91814">
        <ele>2460</ele>
        <time>2011-07-15T12:23:40Z</time>
      </trkpt>
      <trkpt lat="44.63776" lon="6.91807">
        <ele>2460</ele>
        <time>2011-07-15T12:23:48Z</time>
      </trkpt>
      <trkpt lat="44.63768" lon="6.91797">
        <ele>2460</ele>
        <time>2011-07-15T12:23:56Z</time>
      </trkpt>
      <trkpt lat="44.6376" lon="6.91788">
        <ele>2460</ele>
        <time>2011-07-15T12:24:05Z</time>
      </trkpt>
      <trkpt lat="44.63753" lon="6.91779">
        <ele>2460</ele>
        <time>2011-07-15T12:24:13Z</time>
      </trkpt>
      <trkpt lat="44.63749" lon="6.91773">
        <ele>2460</ele>
        <time>2011-07-15T12:24:17Z</time>
      </trkpt>
      <trkpt lat="44.63744" lon="6.91765">
        <ele>2460</ele>
        <time>2011-07-15T12:24:23Z</time>
      </trkpt>
      <trkpt lat="44.63737" lon="6.91756">
        <ele>2460</ele>
        <time>2011-07-15T12:24:30Z</time>
      </trkpt>
      <trkpt lat="44.63732" lon="6.91747">
        <ele>2460</ele>
        <time>2011-07-15T12:24:36Z</time>
      </trkpt>
      <trkpt lat="44.63727" lon="6.91738">
        <ele>2460</ele>
        <time>2011-07-15T12:24:42Z</time>
      </trkpt>
      <trkpt lat="44.63723" lon="6.91726">
        <ele>2460</ele>
        <time>2011-07-15T12:24:49Z</time>
      </trkpt>
      <trkpt lat="44.63722" lon="6.91723">
        <ele>2460</ele>
        <time>2011-07-15T12:24:51Z</time>
      </trkpt>
      <trkpt lat="44.63718" lon="6.91712">
        <ele>2460</ele>
        <time>2011-07-15T12:24:58Z</time>
      </trkpt>
      <trkpt lat="44.63715" lon="6.91701">
        <ele>2460</ele>
        <time>2011-07-15T12:25:05Z</time>
      </trkpt>
      <trkpt lat="44.63712" lon="6.9169">
        <ele>2460</ele>
        <time>2011-07-15T12:25:12Z</time>
      </trkpt>
      <trkpt lat="44.63708" lon="6.9168">
        <ele>2460</ele>
        <time>2011-07-15T12:25:19Z</time>
      </trkpt>
      <trkpt lat="44.63707" lon="6.91673">
        <ele>2460</ele>
        <time>2011-07-15T12:25:23Z</time>
      </trkpt>
      <trkpt lat="44.63701" lon="6.91668">
        <ele>2460</ele>
        <time>2011-07-15T12:25:29Z</time>
      </trkpt>
      <trkpt lat="44.63692" lon="6.91657">
        <ele>2460.9348144531</ele>
        <time>2011-07-15T12:25:39Z</time>
      </trkpt>
      <trkpt lat="44.6369" lon="6.91655">
        <ele>2461.0610351562</ele>
        <time>2011-07-15T12:25:41Z</time>
      </trkpt>
      <trkpt lat="44.63683" lon="6.91653">
        <ele>2460.8747558594</ele>
        <time>2011-07-15T12:25:47Z</time>
      </trkpt>
      <trkpt lat="44.63676" lon="6.91648">
        <ele>2460.6928710938</ele>
        <time>2011-07-15T12:25:54Z</time>
      </trkpt>
      <trkpt lat="44.63667" lon="6.91645">
        <ele>2460.0541992188</ele>
        <time>2011-07-15T12:26:02Z</time>
      </trkpt>
      <trkpt lat="44.63659" lon="6.91642">
        <ele>2459.763671875</ele>
        <time>2011-07-15T12:26:08Z</time>
      </trkpt>
      <trkpt lat="44.63658" lon="6.91641">
        <ele>2459.7075195312</ele>
        <time>2011-07-15T12:26:09Z</time>
      </trkpt>
      <trkpt lat="44.63643" lon="6.91635">
        <ele>2459.33984375</ele>
        <time>2011-07-15T12:26:20Z</time>
      </trkpt>
      <trkpt lat="44.63642" lon="6.91634">
        <ele>2459.3090820312</ele>
        <time>2011-07-15T12:26:21Z</time>
      </trkpt>
      <trkpt lat="44.63635" lon="6.91629">
        <ele>2459.1635742188</ele>
        <time>2011-07-15T12:26:27Z</time>
      </trkpt>
      <trkpt lat="44.63621" lon="6.91617">
        <ele>2458.6398925781</ele>
        <time>2011-07-15T12:26:38Z</time>
      </trkpt>
      <trkpt lat="44.6361" lon="6.91607">
        <ele>2458.2082519531</ele>
        <time>2011-07-15T12:26:47Z</time>
      </trkpt>
      <trkpt lat="44.63604" lon="6.91597">
        <ele>2457.6513671875</ele>
        <time>2011-07-15T12:26:53Z</time>
      </trkpt>
      <trkpt lat="44.63598" lon="6.91583">
        <ele>2456.7775878906</ele>
        <time>2011-07-15T12:27:01Z</time>
      </trkpt>
      <trkpt lat="44.63598" lon="6.91569">
        <ele>2458.7175292969</ele>
        <time>2011-07-15T12:27:08Z</time>
      </trkpt>
      <trkpt lat="44.63593" lon="6.91561">
        <ele>2458.7778320312</ele>
        <time>2011-07-15T12:27:14Z</time>
      </trkpt>
      <trkpt lat="44.6359" lon="6.9156">
        <ele>2458.4060058594</ele>
        <time>2011-07-15T12:27:16Z</time>
      </trkpt>
      <trkpt lat="44.63583" lon="6.91555">
        <ele>2457.7307128906</ele>
        <time>2011-07-15T12:27:24Z</time>
      </trkpt>
      <trkpt lat="44.63575" lon="6.91552">
        <ele>2455.0368652344</ele>
        <time>2011-07-15T12:27:30Z</time>
      </trkpt>
      <trkpt lat="44.63565" lon="6.91549">
        <ele>2452.1452636719</ele>
        <time>2011-07-15T12:27:37Z</time>
      </trkpt>
      <trkpt lat="44.63557" lon="6.91547">
        <ele>2449.2602539062</ele>
        <time>2011-07-15T12:27:43Z</time>
      </trkpt>
      <trkpt lat="44.6355" lon="6.91545">
        <ele>2448.0268554688</ele>
        <time>2011-07-15T12:27:48Z</time>
      </trkpt>
      <trkpt lat="44.6354" lon="6.91541">
        <ele>2446.4479980469</ele>
        <time>2011-07-15T12:27:55Z</time>
      </trkpt>
      <trkpt lat="44.63529" lon="6.91537">
        <ele>2444.7348632812</ele>
        <time>2011-07-15T12:28:02Z</time>
      </trkpt>
      <trkpt lat="44.63518" lon="6.91534">
        <ele>2443.1467285156</ele>
        <time>2011-07-15T12:28:10Z</time>
      </trkpt>
      <trkpt lat="44.63504" lon="6.91531">
        <ele>2441.1896972656</ele>
        <time>2011-07-15T12:28:19Z</time>
      </trkpt>
      <trkpt lat="44.63493" lon="6.91525">
        <ele>2439.3205566406</ele>
        <time>2011-07-15T12:28:27Z</time>
      </trkpt>
      <trkpt lat="44.63485" lon="6.91518">
        <ele>2437.9323730469</ele>
        <time>2011-07-15T12:28:33Z</time>
      </trkpt>
      <trkpt lat="44.63483" lon="6.91513">
        <ele>2437.9584960938</ele>
        <time>2011-07-15T12:28:36Z</time>
      </trkpt>
      <trkpt lat="44.63474" lon="6.91501">
        <ele>2437.9890136719</ele>
        <time>2011-07-15T12:28:44Z</time>
      </trkpt>
      <trkpt lat="44.63465" lon="6.91492">
        <ele>2435.2834472656</ele>
        <time>2011-07-15T12:28:51Z</time>
      </trkpt>
      <trkpt lat="44.63455" lon="6.91481">
        <ele>2432.2509765625</ele>
        <time>2011-07-15T12:28:59Z</time>
      </trkpt>
      <trkpt lat="44.63445" lon="6.91478">
        <ele>2429.0354003906</ele>
        <time>2011-07-15T12:29:06Z</time>
      </trkpt>
      <trkpt lat="44.63435" lon="6.91474">
        <ele>2426.9140625</ele>
        <time>2011-07-15T12:29:13Z</time>
      </trkpt>
      <trkpt lat="44.63428" lon="6.91471">
        <ele>2425.619140625</ele>
        <time>2011-07-15T12:29:18Z</time>
      </trkpt>
      <trkpt lat="44.63427" lon="6.9147">
        <ele>2425.583984375</ele>
        <time>2011-07-15T12:29:19Z</time>
      </trkpt>
      <trkpt lat="44.63419" lon="6.91466">
        <ele>2423.9765625</ele>
        <time>2011-07-15T12:29:25Z</time>
      </trkpt>
      <trkpt lat="44.63412" lon="6.91463">
        <ele>2422.7856445312</ele>
        <time>2011-07-15T12:29:30Z</time>
      </trkpt>
      <trkpt lat="44.63409" lon="6.9146">
        <ele>2422.5861816406</ele>
        <time>2011-07-15T12:29:33Z</time>
      </trkpt>
      <trkpt lat="44.63401" lon="6.91454">
        <ele>2421.7729492188</ele>
        <time>2011-07-15T12:29:39Z</time>
      </trkpt>
      <trkpt lat="44.63401" lon="6.91452">
        <ele>2422.0595703125</ele>
        <time>2011-07-15T12:29:40Z</time>
      </trkpt>
      <trkpt lat="44.63395" lon="6.91444">
        <ele>2421.7116699219</ele>
        <time>2011-07-15T12:29:46Z</time>
      </trkpt>
      <trkpt lat="44.63385" lon="6.91438">
        <ele>2421.1442871094</ele>
        <time>2011-07-15T12:29:53Z</time>
      </trkpt>
      <trkpt lat="44.63384" lon="6.91439">
        <ele>2420.4641113281</ele>
        <time>2011-07-15T12:29:54Z</time>
      </trkpt>
      <trkpt lat="44.63378" lon="6.91434">
        <ele>2419.9235839844</ele>
        <time>2011-07-15T12:29:59Z</time>
      </trkpt>
      <trkpt lat="44.63367" lon="6.91431">
        <ele>2417.0163574219</ele>
        <time>2011-07-15T12:30:07Z</time>
      </trkpt>
      <trkpt lat="44.63357" lon="6.91431">
        <ele>2413.2490234375</ele>
        <time>2011-07-15T12:30:14Z</time>
      </trkpt>
      <trkpt lat="44.63347" lon="6.91427">
        <ele>2410.6813964844</ele>
        <time>2011-07-15T12:30:21Z</time>
      </trkpt>
      <trkpt lat="44.63336" lon="6.91422">
        <ele>2408.0368652344</ele>
        <time>2011-07-15T12:30:29Z</time>
      </trkpt>
      <trkpt lat="44.63327" lon="6.9142">
        <ele>2405.9670410156</ele>
        <time>2011-07-15T12:30:35Z</time>
      </trkpt>
      <trkpt lat="44.63324" lon="6.91416">
        <ele>2406.0451660156</ele>
        <time>2011-07-15T12:30:38Z</time>
      </trkpt>
      <trkpt lat="44.6331" lon="6.91414">
        <ele>2402.6157226562</ele>
        <time>2011-07-15T12:30:47Z</time>
      </trkpt>
      <trkpt lat="44.63302" lon="6.91408">
        <ele>2402.5798339844</ele>
        <time>2011-07-15T12:30:53Z</time>
      </trkpt>
      <trkpt lat="44.63293" lon="6.91402">
        <ele>2402.2463378906</ele>
        <time>2011-07-15T12:31:00Z</time>
      </trkpt>
      <trkpt lat="44.63292" lon="6.91402">
        <ele>2402.0729980469</ele>
        <time>2011-07-15T12:31:01Z</time>
      </trkpt>
      <trkpt lat="44.63292" lon="6.914">
        <ele>2402.7241210938</ele>
        <time>2011-07-15T12:31:18Z</time>
      </trkpt>
      <trkpt lat="44.6329" lon="6.91399">
        <ele>2402.9406738281</ele>
        <time>2011-07-15T12:31:31Z</time>
      </trkpt>
      <trkpt lat="44.63289" lon="6.91399">
        <ele>2402.6030273438</ele>
        <time>2011-07-15T12:31:32Z</time>
      </trkpt>
      <trkpt lat="44.63282" lon="6.91395">
        <ele>2401.7858886719</ele>
        <time>2011-07-15T12:31:38Z</time>
      </trkpt>
      <trkpt lat="44.63279" lon="6.91393">
        <ele>2401.7814941406</ele>
        <time>2011-07-15T12:31:41Z</time>
      </trkpt>
      <trkpt lat="44.63272" lon="6.91389">
        <ele>2400.7644042969</ele>
        <time>2011-07-15T12:31:46Z</time>
      </trkpt>
      <trkpt lat="44.63265" lon="6.91387">
        <ele>2398.6262207031</ele>
        <time>2011-07-15T12:31:52Z</time>
      </trkpt>
      <trkpt lat="44.63264" lon="6.91388">
        <ele>2398.0986328125</ele>
        <time>2011-07-15T12:31:53Z</time>
      </trkpt>
      <trkpt lat="44.63258" lon="6.91386">
        <ele>2396.0656738281</ele>
        <time>2011-07-15T12:31:58Z</time>
      </trkpt>
      <trkpt lat="44.6325" lon="6.91382">
        <ele>2394.4982910156</ele>
        <time>2011-07-15T12:32:04Z</time>
      </trkpt>
      <trkpt lat="44.63242" lon="6.9138">
        <ele>2393.5090332031</ele>
        <time>2011-07-15T12:32:10Z</time>
      </trkpt>
      <trkpt lat="44.63229" lon="6.91375">
        <ele>2392.9287109375</ele>
        <time>2011-07-15T12:32:19Z</time>
      </trkpt>
      <trkpt lat="44.63219" lon="6.91369">
        <ele>2392.8435058594</ele>
        <time>2011-07-15T12:32:27Z</time>
      </trkpt>
      <trkpt lat="44.63217" lon="6.91368">
        <ele>2392.4614257812</ele>
        <time>2011-07-15T12:32:29Z</time>
      </trkpt>
      <trkpt lat="44.63207" lon="6.91361">
        <ele>2391.3703613281</ele>
        <time>2011-07-15T12:32:37Z</time>
      </trkpt>
      <trkpt lat="44.63194" lon="6.9136">
        <ele>2386.3840332031</ele>
        <time>2011-07-15T12:32:47Z</time>
      </trkpt>
      <trkpt lat="44.63184" lon="6.91359">
        <ele>2384.4558105469</ele>
        <time>2011-07-15T12:32:54Z</time>
      </trkpt>
      <trkpt lat="44.63177" lon="6.91356">
        <ele>2383.8547363281</ele>
        <time>2011-07-15T12:33:00Z</time>
      </trkpt>
      <trkpt lat="44.63166" lon="6.91353">
        <ele>2382.458984375</ele>
        <time>2011-07-15T12:33:08Z</time>
      </trkpt>
      <trkpt lat="44.63157" lon="6.91353">
        <ele>2380.1384277344</ele>
        <time>2011-07-15T12:33:15Z</time>
      </trkpt>
      <trkpt lat="44.63149" lon="6.91349">
        <ele>2378.8901367188</ele>
        <time>2011-07-15T12:33:21Z</time>
      </trkpt>
      <trkpt lat="44.63139" lon="6.91344">
        <ele>2377.3200683594</ele>
        <time>2011-07-15T12:33:29Z</time>
      </trkpt>
      <trkpt lat="44.63135" lon="6.9134">
        <ele>2377.6032714844</ele>
        <time>2011-07-15T12:33:33Z</time>
      </trkpt>
      <trkpt lat="44.63129" lon="6.91338">
        <ele>2377.2990722656</ele>
        <time>2011-07-15T12:33:37Z</time>
      </trkpt>
      <trkpt lat="44.63121" lon="6.91337">
        <ele>2376.1701660156</ele>
        <time>2011-07-15T12:33:44Z</time>
      </trkpt>
      <trkpt lat="44.63114" lon="6.91336">
        <ele>2375.4819335938</ele>
        <time>2011-07-15T12:33:49Z</time>
      </trkpt>
      <trkpt lat="44.63111" lon="6.91335">
        <ele>2375.09765625</ele>
        <time>2011-07-15T12:33:51Z</time>
      </trkpt>
      <trkpt lat="44.63103" lon="6.91329">
        <ele>2373.61328125</ele>
        <time>2011-07-15T12:33:58Z</time>
      </trkpt>
      <trkpt lat="44.63094" lon="6.91324">
        <ele>2371.5122070312</ele>
        <time>2011-07-15T12:34:05Z</time>
      </trkpt>
      <trkpt lat="44.63087" lon="6.91318">
        <ele>2370.2377929688</ele>
        <time>2011-07-15T12:34:11Z</time>
      </trkpt>
      <trkpt lat="44.63076" lon="6.91307">
        <ele>2370.5378417969</ele>
        <time>2011-07-15T12:34:21Z</time>
      </trkpt>
      <trkpt lat="44.63066" lon="6.913">
        <ele>2369.1472167969</ele>
        <time>2011-07-15T12:34:29Z</time>
      </trkpt>
      <trkpt lat="44.63059" lon="6.91295">
        <ele>2367.9572753906</ele>
        <time>2011-07-15T12:34:35Z</time>
      </trkpt>
      <trkpt lat="44.63049" lon="6.91286">
        <ele>2366.0864257812</ele>
        <time>2011-07-15T12:34:43Z</time>
      </trkpt>
      <trkpt lat="44.63041" lon="6.91278">
        <ele>2364.8674316406</ele>
        <time>2011-07-15T12:34:50Z</time>
      </trkpt>
      <trkpt lat="44.63035" lon="6.91269">
        <ele>2364.1652832031</ele>
        <time>2011-07-15T12:34:57Z</time>
      </trkpt>
      <trkpt lat="44.63028" lon="6.91263">
        <ele>2362.6652832031</ele>
        <time>2011-07-15T12:35:03Z</time>
      </trkpt>
      <trkpt lat="44.63021" lon="6.91255">
        <ele>2361.4946289062</ele>
        <time>2011-07-15T12:35:10Z</time>
      </trkpt>
      <trkpt lat="44.63018" lon="6.91252">
        <ele>2361.2114257812</ele>
        <time>2011-07-15T12:35:15Z</time>
      </trkpt>
      <trkpt lat="44.63014" lon="6.91248">
        <ele>2360.2587890625</ele>
        <time>2011-07-15T12:35:20Z</time>
      </trkpt>
      <trkpt lat="44.63013" lon="6.91247">
        <ele>2360.1298828125</ele>
        <time>2011-07-15T12:35:25Z</time>
      </trkpt>
      <trkpt lat="44.63012" lon="6.91246">
        <ele>2359.966796875</ele>
        <time>2011-07-15T12:35:31Z</time>
      </trkpt>
      <trkpt lat="44.6301" lon="6.91245">
        <ele>2359.4604492188</ele>
        <time>2011-07-15T12:35:33Z</time>
      </trkpt>
      <trkpt lat="44.63004" lon="6.91241">
        <ele>2358.0615234375</ele>
        <time>2011-07-15T12:35:38Z</time>
      </trkpt>
      <trkpt lat="44.62993" lon="6.91233">
        <ele>2355.8596191406</ele>
        <time>2011-07-15T12:35:48Z</time>
      </trkpt>
      <trkpt lat="44.62984" lon="6.91227">
        <ele>2354.1569824219</ele>
        <time>2011-07-15T12:35:55Z</time>
      </trkpt>
      <trkpt lat="44.62983" lon="6.91226">
        <ele>2353.8830566406</ele>
        <time>2011-07-15T12:35:56Z</time>
      </trkpt>
      <trkpt lat="44.62975" lon="6.9122">
        <ele>2352.0769042969</ele>
        <time>2011-07-15T12:36:04Z</time>
      </trkpt>
      <trkpt lat="44.62972" lon="6.91219">
        <ele>2351.4296875</ele>
        <time>2011-07-15T12:36:06Z</time>
      </trkpt>
      <trkpt lat="44.62967" lon="6.91217">
        <ele>2350.0456542969</ele>
        <time>2011-07-15T12:36:10Z</time>
      </trkpt>
      <trkpt lat="44.62957" lon="6.91212">
        <ele>2347.2419433594</ele>
        <time>2011-07-15T12:36:18Z</time>
      </trkpt>
      <trkpt lat="44.62947" lon="6.91209">
        <ele>2344.1159667969</ele>
        <time>2011-07-15T12:36:26Z</time>
      </trkpt>
      <trkpt lat="44.62937" lon="6.91205">
        <ele>2340.7663574219</ele>
        <time>2011-07-15T12:36:34Z</time>
      </trkpt>
      <trkpt lat="44.62934" lon="6.91204">
        <ele>2339.8942871094</ele>
        <time>2011-07-15T12:36:36Z</time>
      </trkpt>
      <trkpt lat="44.62926" lon="6.91203">
        <ele>2337.1477050781</ele>
        <time>2011-07-15T12:36:42Z</time>
      </trkpt>
      <trkpt lat="44.62922" lon="6.91195">
        <ele>2336.6259765625</ele>
        <time>2011-07-15T12:36:47Z</time>
      </trkpt>
      <trkpt lat="44.62917" lon="6.9119">
        <ele>2335.837890625</ele>
        <time>2011-07-15T12:36:52Z</time>
      </trkpt>
      <trkpt lat="44.62909" lon="6.91183">
        <ele>2335.5600585938</ele>
        <time>2011-07-15T12:36:59Z</time>
      </trkpt>
      <trkpt lat="44.629" lon="6.91177">
        <ele>2334.7807617188</ele>
        <time>2011-07-15T12:37:06Z</time>
      </trkpt>
      <trkpt lat="44.62893" lon="6.91172">
        <ele>2334.6240234375</ele>
        <time>2011-07-15T12:37:12Z</time>
      </trkpt>
      <trkpt lat="44.62882" lon="6.91166">
        <ele>2332.8190917969</ele>
        <time>2011-07-15T12:37:20Z</time>
      </trkpt>
      <trkpt lat="44.6287" lon="6.91161">
        <ele>2330.0895996094</ele>
        <time>2011-07-15T12:37:29Z</time>
      </trkpt>
      <trkpt lat="44.62869" lon="6.9116">
        <ele>2329.7705078125</ele>
        <time>2011-07-15T12:37:30Z</time>
      </trkpt>
      <trkpt lat="44.62862" lon="6.91163">
        <ele>2327.125</ele>
        <time>2011-07-15T12:37:36Z</time>
      </trkpt>
      <trkpt lat="44.62861" lon="6.91163">
        <ele>2326.6513671875</ele>
        <time>2011-07-15T12:37:37Z</time>
      </trkpt>
      <trkpt lat="44.6285" lon="6.91167">
        <ele>2323.5402832031</ele>
        <time>2011-07-15T12:37:45Z</time>
      </trkpt>
      <trkpt lat="44.6284" lon="6.91167">
        <ele>2321.3835449219</ele>
        <time>2011-07-15T12:37:52Z</time>
      </trkpt>
      <trkpt lat="44.62836" lon="6.91168">
        <ele>2320.3754882812</ele>
        <time>2011-07-15T12:37:55Z</time>
      </trkpt>
      <trkpt lat="44.62828" lon="6.91164">
        <ele>2320.1259765625</ele>
        <time>2011-07-15T12:38:01Z</time>
      </trkpt>
      <trkpt lat="44.62825" lon="6.91163">
        <ele>2320.0380859375</ele>
        <time>2011-07-15T12:38:04Z</time>
      </trkpt>
      <trkpt lat="44.62812" lon="6.91161">
        <ele>2319.0441894531</ele>
        <time>2011-07-15T12:38:13Z</time>
      </trkpt>
      <trkpt lat="44.62809" lon="6.9116">
        <ele>2318.8278808594</ele>
        <time>2011-07-15T12:38:15Z</time>
      </trkpt>
      <trkpt lat="44.62799" lon="6.91157">
        <ele>2318.0056152344</ele>
        <time>2011-07-15T12:38:22Z</time>
      </trkpt>
      <trkpt lat="44.62788" lon="6.91156">
        <ele>2316.8452148438</ele>
        <time>2011-07-15T12:38:30Z</time>
      </trkpt>
      <trkpt lat="44.62778" lon="6.91156">
        <ele>2315.7509765625</ele>
        <time>2011-07-15T12:38:37Z</time>
      </trkpt>
      <trkpt lat="44.62776" lon="6.91156">
        <ele>2315.6140136719</ele>
        <time>2011-07-15T12:38:38Z</time>
      </trkpt>
      <trkpt lat="44.62764" lon="6.91162">
        <ele>2313.9326171875</ele>
        <time>2011-07-15T12:38:47Z</time>
      </trkpt>
      <trkpt lat="44.6275" lon="6.91167">
        <ele>2312.0139160156</ele>
        <time>2011-07-15T12:38:57Z</time>
      </trkpt>
      <trkpt lat="44.62739" lon="6.91169">
        <ele>2310.9304199219</ele>
        <time>2011-07-15T12:39:05Z</time>
      </trkpt>
      <trkpt lat="44.62727" lon="6.9117">
        <ele>2309.916015625</ele>
        <time>2011-07-15T12:39:14Z</time>
      </trkpt>
      <trkpt lat="44.62716" lon="6.91172">
        <ele>2308.9340820312</ele>
        <time>2011-07-15T12:39:22Z</time>
      </trkpt>
      <trkpt lat="44.62707" lon="6.91174">
        <ele>2308.12890625</ele>
        <time>2011-07-15T12:39:28Z</time>
      </trkpt>
      <trkpt lat="44.62701" lon="6.91177">
        <ele>2307.3168945312</ele>
        <time>2011-07-15T12:39:33Z</time>
      </trkpt>
      <trkpt lat="44.62696" lon="6.91178">
        <ele>2306.8845214844</ele>
        <time>2011-07-15T12:39:37Z</time>
      </trkpt>
      <trkpt lat="44.62695" lon="6.91179">
        <ele>2306.7248535156</ele>
        <time>2011-07-15T12:39:52Z</time>
      </trkpt>
      <trkpt lat="44.62691" lon="6.91181">
        <ele>2306.1396484375</ele>
        <time>2011-07-15T12:39:57Z</time>
      </trkpt>
      <trkpt lat="44.62684" lon="6.9118">
        <ele>2305.4650878906</ele>
        <time>2011-07-15T12:41:02Z</time>
      </trkpt>
      <trkpt lat="44.6268" lon="6.91178">
        <ele>2305.212890625</ele>
        <time>2011-07-15T12:41:10Z</time>
      </trkpt>
      <trkpt lat="44.62677" lon="6.91176">
        <ele>2305.1354980469</ele>
        <time>2011-07-15T12:41:13Z</time>
      </trkpt>
      <trkpt lat="44.62675" lon="6.91175">
        <ele>2305.0222167969</ele>
        <time>2011-07-15T12:41:15Z</time>
      </trkpt>
      <trkpt lat="44.62673" lon="6.91173">
        <ele>2305.0170898438</ele>
        <time>2011-07-15T12:41:17Z</time>
      </trkpt>
      <trkpt lat="44.62665" lon="6.91164">
        <ele>2305.1201171875</ele>
        <time>2011-07-15T12:41:25Z</time>
      </trkpt>
      <trkpt lat="44.62661" lon="6.91161">
        <ele>2304.9294433594</ele>
        <time>2011-07-15T12:41:29Z</time>
      </trkpt>
      <trkpt lat="44.62653" lon="6.91156">
        <ele>2304.6875</ele>
        <time>2011-07-15T12:41:35Z</time>
      </trkpt>
      <trkpt lat="44.62646" lon="6.91149">
        <ele>2304.5947265625</ele>
        <time>2011-07-15T12:41:42Z</time>
      </trkpt>
      <trkpt lat="44.62638" lon="6.91143">
        <ele>2304.5146484375</ele>
        <time>2011-07-15T12:41:48Z</time>
      </trkpt>
      <trkpt lat="44.62636" lon="6.91141">
        <ele>2304.5087890625</ele>
        <time>2011-07-15T12:41:50Z</time>
      </trkpt>
      <trkpt lat="44.62625" lon="6.91134">
        <ele>2303.8154296875</ele>
        <time>2011-07-15T12:41:59Z</time>
      </trkpt>
      <trkpt lat="44.62617" lon="6.91128">
        <ele>2303.4926757812</ele>
        <time>2011-07-15T12:42:05Z</time>
      </trkpt>
      <trkpt lat="44.62614" lon="6.91126">
        <ele>2303.2351074219</ele>
        <time>2011-07-15T12:42:08Z</time>
      </trkpt>
      <trkpt lat="44.62605" lon="6.91114">
        <ele>2302.9514160156</ele>
        <time>2011-07-15T12:42:17Z</time>
      </trkpt>
      <trkpt lat="44.62598" lon="6.91106">
        <ele>2302.4702148438</ele>
        <time>2011-07-15T12:42:25Z</time>
      </trkpt>
      <trkpt lat="44.62596" lon="6.91101">
        <ele>2302.3681640625</ele>
        <time>2011-07-15T12:42:29Z</time>
      </trkpt>
      <trkpt lat="44.62591" lon="6.91093">
        <ele>2301.9086914062</ele>
        <time>2011-07-15T12:42:35Z</time>
      </trkpt>
      <trkpt lat="44.62589" lon="6.91087">
        <ele>2301.7834472656</ele>
        <time>2011-07-15T12:42:38Z</time>
      </trkpt>
      <trkpt lat="44.6258" lon="6.91073">
        <ele>2300.3676757812</ele>
        <time>2011-07-15T12:42:47Z</time>
      </trkpt>
      <trkpt lat="44.62577" lon="6.91065">
        <ele>2299.4787597656</ele>
        <time>2011-07-15T12:42:52Z</time>
      </trkpt>
      <trkpt lat="44.6257" lon="6.91055">
        <ele>2298.1723632812</ele>
        <time>2011-07-15T12:42:59Z</time>
      </trkpt>
      <trkpt lat="44.62565" lon="6.91047">
        <ele>2296.0263671875</ele>
        <time>2011-07-15T12:43:05Z</time>
      </trkpt>
      <trkpt lat="44.6256" lon="6.91041">
        <ele>2294.1931152344</ele>
        <time>2011-07-15T12:43:10Z</time>
      </trkpt>
      <trkpt lat="44.62553" lon="6.91034">
        <ele>2291.3742675781</ele>
        <time>2011-07-15T12:43:17Z</time>
      </trkpt>
      <trkpt lat="44.62549" lon="6.91026">
        <ele>2289.9353027344</ele>
        <time>2011-07-15T12:43:22Z</time>
      </trkpt>
      <trkpt lat="44.62547" lon="6.91013">
        <ele>2291.654296875</ele>
        <time>2011-07-15T12:43:29Z</time>
      </trkpt>
      <trkpt lat="44.62543" lon="6.91003">
        <ele>2292.7858886719</ele>
        <time>2011-07-15T12:43:35Z</time>
      </trkpt>
      <trkpt lat="44.62542" lon="6.91002">
        <ele>2292.8049316406</ele>
        <time>2011-07-15T12:43:36Z</time>
      </trkpt>
      <trkpt lat="44.62534" lon="6.90997">
        <ele>2292.1752929688</ele>
        <time>2011-07-15T12:43:43Z</time>
      </trkpt>
      <trkpt lat="44.62525" lon="6.90992">
        <ele>2291.4025878906</ele>
        <time>2011-07-15T12:43:50Z</time>
      </trkpt>
      <trkpt lat="44.62515" lon="6.90987">
        <ele>2290.7277832031</ele>
        <time>2011-07-15T12:43:57Z</time>
      </trkpt>
      <trkpt lat="44.62507" lon="6.90983">
        <ele>2290.3391113281</ele>
        <time>2011-07-15T12:44:03Z</time>
      </trkpt>
      <trkpt lat="44.625" lon="6.90977">
        <ele>2290.4499511719</ele>
        <time>2011-07-15T12:44:09Z</time>
      </trkpt>
      <trkpt lat="44.6249" lon="6.90974">
        <ele>2287.8283691406</ele>
        <time>2011-07-15T12:44:16Z</time>
      </trkpt>
      <trkpt lat="44.62478" lon="6.9097">
        <ele>2284.8349609375</ele>
        <time>2011-07-15T12:44:24Z</time>
      </trkpt>
      <trkpt lat="44.62468" lon="6.90966">
        <ele>2282.8395996094</ele>
        <time>2011-07-15T12:44:31Z</time>
      </trkpt>
      <trkpt lat="44.62459" lon="6.90962">
        <ele>2281.6623535156</ele>
        <time>2011-07-15T12:44:38Z</time>
      </trkpt>
      <trkpt lat="44.62448" lon="6.90955">
        <ele>2279.9606933594</ele>
        <time>2011-07-15T12:44:46Z</time>
      </trkpt>
      <trkpt lat="44.62442" lon="6.90946">
        <ele>2279.2619628906</ele>
        <time>2011-07-15T12:44:52Z</time>
      </trkpt>
      <trkpt lat="44.62436" lon="6.90935">
        <ele>2280.9436035156</ele>
        <time>2011-07-15T12:44:59Z</time>
      </trkpt>
      <trkpt lat="44.62433" lon="6.90931">
        <ele>2281.3784179688</ele>
        <time>2011-07-15T12:45:02Z</time>
      </trkpt>
      <trkpt lat="44.6243" lon="6.90929">
        <ele>2281.0268554688</ele>
        <time>2011-07-15T12:45:05Z</time>
      </trkpt>
      <trkpt lat="44.62421" lon="6.90917">
        <ele>2281.2084960938</ele>
        <time>2011-07-15T12:45:13Z</time>
      </trkpt>
      <trkpt lat="44.62415" lon="6.90905">
        <ele>2282.1108398438</ele>
        <time>2011-07-15T12:45:20Z</time>
      </trkpt>
      <trkpt lat="44.62408" lon="6.90893">
        <ele>2282.5737304688</ele>
        <time>2011-07-15T12:45:28Z</time>
      </trkpt>
      <trkpt lat="44.62398" lon="6.90883">
        <ele>2281.1555175781</ele>
        <time>2011-07-15T12:45:36Z</time>
      </trkpt>
      <trkpt lat="44.62395" lon="6.9088">
        <ele>2280.7026367188</ele>
        <time>2011-07-15T12:45:39Z</time>
      </trkpt>
      <trkpt lat="44.62391" lon="6.9087">
        <ele>2281.9912109375</ele>
        <time>2011-07-15T12:45:45Z</time>
      </trkpt>
      <trkpt lat="44.62384" lon="6.90871">
        <ele>2279.7687988281</ele>
        <time>2011-07-15T12:45:50Z</time>
      </trkpt>
      <trkpt lat="44.62378" lon="6.90868">
        <ele>2278.58203125</ele>
        <time>2011-07-15T12:45:55Z</time>
      </trkpt>
      <trkpt lat="44.6237" lon="6.90859">
        <ele>2278.4309082031</ele>
        <time>2011-07-15T12:46:02Z</time>
      </trkpt>
      <trkpt lat="44.62367" lon="6.90856">
        <ele>2278.3383789062</ele>
        <time>2011-07-15T12:46:04Z</time>
      </trkpt>
      <trkpt lat="44.62358" lon="6.90845">
        <ele>2278.3127441406</ele>
        <time>2011-07-15T12:46:12Z</time>
      </trkpt>
      <trkpt lat="44.6235" lon="6.90841">
        <ele>2277.224609375</ele>
        <time>2011-07-15T12:46:18Z</time>
      </trkpt>
      <trkpt lat="44.62342" lon="6.90833">
        <ele>2277.1743164062</ele>
        <time>2011-07-15T12:46:25Z</time>
      </trkpt>
      <trkpt lat="44.62336" lon="6.90825">
        <ele>2277.7717285156</ele>
        <time>2011-07-15T12:46:31Z</time>
      </trkpt>
      <trkpt lat="44.62325" lon="6.90816">
        <ele>2275.9650878906</ele>
        <time>2011-07-15T12:46:40Z</time>
      </trkpt>
      <trkpt lat="44.62312" lon="6.90807">
        <ele>2273.3833007812</ele>
        <time>2011-07-15T12:46:50Z</time>
      </trkpt>
      <trkpt lat="44.62304" lon="6.90799">
        <ele>2271.9113769531</ele>
        <time>2011-07-15T12:46:57Z</time>
      </trkpt>
      <trkpt lat="44.62303" lon="6.90798">
        <ele>2271.80859375</ele>
        <time>2011-07-15T12:46:58Z</time>
      </trkpt>
      <trkpt lat="44.62295" lon="6.90791">
        <ele>2270.654296875</ele>
        <time>2011-07-15T12:47:05Z</time>
      </trkpt>
      <trkpt lat="44.62292" lon="6.90789">
        <ele>2270.3815917969</ele>
        <time>2011-07-15T12:47:07Z</time>
      </trkpt>
      <trkpt lat="44.6228" lon="6.90779">
        <ele>2268.5161132812</ele>
        <time>2011-07-15T12:47:17Z</time>
      </trkpt>
      <trkpt lat="44.62268" lon="6.90768">
        <ele>2267.6235351562</ele>
        <time>2011-07-15T12:47:26Z</time>
      </trkpt>
      <trkpt lat="44.62256" lon="6.90755">
        <ele>2266.7729492188</ele>
        <time>2011-07-15T12:47:37Z</time>
      </trkpt>
      <trkpt lat="44.62245" lon="6.90745">
        <ele>2266.4304199219</ele>
        <time>2011-07-15T12:47:46Z</time>
      </trkpt>
      <trkpt lat="44.62239" lon="6.90736">
        <ele>2267.0864257812</ele>
        <time>2011-07-15T12:47:52Z</time>
      </trkpt>
      <trkpt lat="44.62234" lon="6.90732">
        <ele>2266.7065429688</ele>
        <time>2011-07-15T12:47:56Z</time>
      </trkpt>
      <trkpt lat="44.62227" lon="6.90723">
        <ele>2265.8635253906</ele>
        <time>2011-07-15T12:48:03Z</time>
      </trkpt>
      <trkpt lat="44.6222" lon="6.90715">
        <ele>2265.6130371094</ele>
        <time>2011-07-15T12:48:09Z</time>
      </trkpt>
      <trkpt lat="44.62213" lon="6.90711">
        <ele>2265.1296386719</ele>
        <time>2011-07-15T12:48:15Z</time>
      </trkpt>
      <trkpt lat="44.62203" lon="6.90702">
        <ele>2263.9365234375</ele>
        <time>2011-07-15T12:48:23Z</time>
      </trkpt>
      <trkpt lat="44.62194" lon="6.90695">
        <ele>2261.9699707031</ele>
        <time>2011-07-15T12:48:30Z</time>
      </trkpt>
      <trkpt lat="44.62186" lon="6.90689">
        <ele>2261.0729980469</ele>
        <time>2011-07-15T12:48:37Z</time>
      </trkpt>
      <trkpt lat="44.62177" lon="6.90679">
        <ele>2259.2145996094</ele>
        <time>2011-07-15T12:48:46Z</time>
      </trkpt>
      <trkpt lat="44.62171" lon="6.90673">
        <ele>2257.5483398438</ele>
        <time>2011-07-15T12:48:51Z</time>
      </trkpt>
      <trkpt lat="44.62163" lon="6.90665">
        <ele>2254.7778320312</ele>
        <time>2011-07-15T12:48:58Z</time>
      </trkpt>
      <trkpt lat="44.62156" lon="6.90652">
        <ele>2252.0993652344</ele>
        <time>2011-07-15T12:49:07Z</time>
      </trkpt>
      <trkpt lat="44.62152" lon="6.90637">
        <ele>2250.9663085938</ele>
        <time>2011-07-15T12:49:15Z</time>
      </trkpt>
      <trkpt lat="44.62148" lon="6.90626">
        <ele>2250.6726074219</ele>
        <time>2011-07-15T12:49:22Z</time>
      </trkpt>
      <trkpt lat="44.62145" lon="6.90614">
        <ele>2251.4064941406</ele>
        <time>2011-07-15T12:49:28Z</time>
      </trkpt>
      <trkpt lat="44.62142" lon="6.90605">
        <ele>2252.0920410156</ele>
        <time>2011-07-15T12:49:34Z</time>
      </trkpt>
      <trkpt lat="44.62141" lon="6.90602">
        <ele>2252.2478027344</ele>
        <time>2011-07-15T12:49:36Z</time>
      </trkpt>
      <trkpt lat="44.6214" lon="6.90595">
        <ele>2253.0874023438</ele>
        <time>2011-07-15T12:49:40Z</time>
      </trkpt>
      <trkpt lat="44.62136" lon="6.90591">
        <ele>2252.6479492188</ele>
        <time>2011-07-15T12:49:43Z</time>
      </trkpt>
      <trkpt lat="44.6213" lon="6.90577">
        <ele>2252.4665527344</ele>
        <time>2011-07-15T12:49:52Z</time>
      </trkpt>
      <trkpt lat="44.62126" lon="6.90562">
        <ele>2253.5439453125</ele>
        <time>2011-07-15T12:50:00Z</time>
      </trkpt>
      <trkpt lat="44.62125" lon="6.90554">
        <ele>2254.6352539062</ele>
        <time>2011-07-15T12:50:04Z</time>
      </trkpt>
      <trkpt lat="44.62117" lon="6.90552">
        <ele>2252.6474609375</ele>
        <time>2011-07-15T12:50:10Z</time>
      </trkpt>
      <trkpt lat="44.6211" lon="6.90543">
        <ele>2252.2980957031</ele>
        <time>2011-07-15T12:50:16Z</time>
      </trkpt>
      <trkpt lat="44.62108" lon="6.9054">
        <ele>2252.2895507812</ele>
        <time>2011-07-15T12:50:18Z</time>
      </trkpt>
      <trkpt lat="44.62099" lon="6.90522">
        <ele>2252.68359375</ele>
        <time>2011-07-15T12:50:29Z</time>
      </trkpt>
      <trkpt lat="44.62099" lon="6.90518">
        <ele>2253.236328125</ele>
        <time>2011-07-15T12:50:31Z</time>
      </trkpt>
      <trkpt lat="44.62092" lon="6.90513">
        <ele>2251.4545898438</ele>
        <time>2011-07-15T12:50:37Z</time>
      </trkpt>
      <trkpt lat="44.62083" lon="6.90507">
        <ele>2249.3701171875</ele>
        <time>2011-07-15T12:50:44Z</time>
      </trkpt>
      <trkpt lat="44.62073" lon="6.90498">
        <ele>2248.4282226562</ele>
        <time>2011-07-15T12:50:52Z</time>
      </trkpt>
      <trkpt lat="44.62064" lon="6.90488">
        <ele>2247.4926757812</ele>
        <time>2011-07-15T12:51:00Z</time>
      </trkpt>
      <trkpt lat="44.62056" lon="6.9048">
        <ele>2246.533203125</ele>
        <time>2011-07-15T12:51:07Z</time>
      </trkpt>
      <trkpt lat="44.62047" lon="6.90473">
        <ele>2245.4118652344</ele>
        <time>2011-07-15T12:51:14Z</time>
      </trkpt>
      <trkpt lat="44.62045" lon="6.9047">
        <ele>2245.1394042969</ele>
        <time>2011-07-15T12:51:16Z</time>
      </trkpt>
      <trkpt lat="44.62041" lon="6.90465">
        <ele>2245.0571289062</ele>
        <time>2011-07-15T12:51:20Z</time>
      </trkpt>
      <trkpt lat="44.62032" lon="6.90451">
        <ele>2244.4809570312</ele>
        <time>2011-07-15T12:51:29Z</time>
      </trkpt>
      <trkpt lat="44.62026" lon="6.9044">
        <ele>2244.6418457031</ele>
        <time>2011-07-15T12:51:36Z</time>
      </trkpt>
      <trkpt lat="44.62017" lon="6.90429">
        <ele>2245.0349121094</ele>
        <time>2011-07-15T12:51:45Z</time>
      </trkpt>
      <trkpt lat="44.62008" lon="6.90426">
        <ele>2243.94140625</ele>
        <time>2011-07-15T12:51:52Z</time>
      </trkpt>
      <trkpt lat="44.62001" lon="6.90422">
        <ele>2243.4216308594</ele>
        <time>2011-07-15T12:51:57Z</time>
      </trkpt>
      <trkpt lat="44.61995" lon="6.90419">
        <ele>2243.0646972656</ele>
        <time>2011-07-15T12:52:02Z</time>
      </trkpt>
      <trkpt lat="44.61987" lon="6.90413">
        <ele>2243.2978515625</ele>
        <time>2011-07-15T12:52:08Z</time>
      </trkpt>
      <trkpt lat="44.61981" lon="6.9041">
        <ele>2243.0935058594</ele>
        <time>2011-07-15T12:52:12Z</time>
      </trkpt>
      <trkpt lat="44.61968" lon="6.90401">
        <ele>2243.1423339844</ele>
        <time>2011-07-15T12:52:22Z</time>
      </trkpt>
      <trkpt lat="44.61959" lon="6.90393">
        <ele>2242.9482421875</ele>
        <time>2011-07-15T12:52:30Z</time>
      </trkpt>
      <trkpt lat="44.61948" lon="6.90387">
        <ele>2242.0834960938</ele>
        <time>2011-07-15T12:52:38Z</time>
      </trkpt>
      <trkpt lat="44.61938" lon="6.90383">
        <ele>2241.1291503906</ele>
        <time>2011-07-15T12:52:45Z</time>
      </trkpt>
      <trkpt lat="44.61926" lon="6.90374">
        <ele>2240.6909179688</ele>
        <time>2011-07-15T12:52:54Z</time>
      </trkpt>
      <trkpt lat="44.61917" lon="6.90367">
        <ele>2240.2314453125</ele>
        <time>2011-07-15T12:53:01Z</time>
      </trkpt>
      <trkpt lat="44.61906" lon="6.9036">
        <ele>2239.9873046875</ele>
        <time>2011-07-15T12:53:09Z</time>
      </trkpt>
      <trkpt lat="44.61898" lon="6.90353">
        <ele>2239.9252929688</ele>
        <time>2011-07-15T12:53:16Z</time>
      </trkpt>
      <trkpt lat="44.61889" lon="6.90349">
        <ele>2239.2780761719</ele>
        <time>2011-07-15T12:53:23Z</time>
      </trkpt>
      <trkpt lat="44.6188" lon="6.90342">
        <ele>2238.2670898438</ele>
        <time>2011-07-15T12:53:30Z</time>
      </trkpt>
      <trkpt lat="44.61872" lon="6.90333">
        <ele>2237.3015136719</ele>
        <time>2011-07-15T12:53:38Z</time>
      </trkpt>
      <trkpt lat="44.61861" lon="6.90323">
        <ele>2234.8469238281</ele>
        <time>2011-07-15T12:53:47Z</time>
      </trkpt>
      <trkpt lat="44.6185" lon="6.90314">
        <ele>2230.9799804688</ele>
        <time>2011-07-15T12:53:56Z</time>
      </trkpt>
      <trkpt lat="44.6184" lon="6.90304">
        <ele>2227.4272460938</ele>
        <time>2011-07-15T12:54:04Z</time>
      </trkpt>
      <trkpt lat="44.61832" lon="6.90298">
        <ele>2223.8959960938</ele>
        <time>2011-07-15T12:54:11Z</time>
      </trkpt>
      <trkpt lat="44.61824" lon="6.90294">
        <ele>2220.9982910156</ele>
        <time>2011-07-15T12:54:18Z</time>
      </trkpt>
      <trkpt lat="44.61818" lon="6.90284">
        <ele>2218.3117675781</ele>
        <time>2011-07-15T12:54:25Z</time>
      </trkpt>
      <trkpt lat="44.61818" lon="6.9027">
        <ele>2217.2729492188</ele>
        <time>2011-07-15T12:54:32Z</time>
      </trkpt>
      <trkpt lat="44.61818" lon="6.90268">
        <ele>2217.177734375</ele>
        <time>2011-07-15T12:54:33Z</time>
      </trkpt>
      <trkpt lat="44.61819" lon="6.90258">
        <ele>2216.9575195312</ele>
        <time>2011-07-15T12:54:38Z</time>
      </trkpt>
      <trkpt lat="44.61816" lon="6.90247">
        <ele>2215.5786132812</ele>
        <time>2011-07-15T12:54:44Z</time>
      </trkpt>
      <trkpt lat="44.61813" lon="6.9024">
        <ele>2214.60546875</ele>
        <time>2011-07-15T12:54:48Z</time>
      </trkpt>
      <trkpt lat="44.61811" lon="6.90237">
        <ele>2214.1022949219</ele>
        <time>2011-07-15T12:54:50Z</time>
      </trkpt>
      <trkpt lat="44.61809" lon="6.90229">
        <ele>2213.2390136719</ele>
        <time>2011-07-15T12:54:54Z</time>
      </trkpt>
      <trkpt lat="44.61807" lon="6.90218">
        <ele>2212.6831054688</ele>
        <time>2011-07-15T12:55:00Z</time>
      </trkpt>
      <trkpt lat="44.61801" lon="6.90204">
        <ele>2211.9289550781</ele>
        <time>2011-07-15T12:55:08Z</time>
      </trkpt>
      <trkpt lat="44.61796" lon="6.90192">
        <ele>2210.8986816406</ele>
        <time>2011-07-15T12:55:15Z</time>
      </trkpt>
      <trkpt lat="44.61792" lon="6.90181">
        <ele>2210.1911621094</ele>
        <time>2011-07-15T12:55:21Z</time>
      </trkpt>
      <trkpt lat="44.61787" lon="6.90175">
        <ele>2208.9294433594</ele>
        <time>2011-07-15T12:55:28Z</time>
      </trkpt>
      <trkpt lat="44.61787" lon="6.90173">
        <ele>2208.9069824219</ele>
        <time>2011-07-15T12:57:25Z</time>
      </trkpt>
      <trkpt lat="44.61784" lon="6.90171">
        <ele>2208.3950195312</ele>
        <time>2011-07-15T12:57:28Z</time>
      </trkpt>
      <trkpt lat="44.61778" lon="6.90166">
        <ele>2207.0510253906</ele>
        <time>2011-07-15T12:57:34Z</time>
      </trkpt>
      <trkpt lat="44.61773" lon="6.90161">
        <ele>2205.9526367188</ele>
        <time>2011-07-15T12:57:39Z</time>
      </trkpt>
      <trkpt lat="44.6177" lon="6.90159">
        <ele>2205.2065429688</ele>
        <time>2011-07-15T12:57:42Z</time>
      </trkpt>
      <trkpt lat="44.61763" lon="6.90155">
        <ele>2203.3664550781</ele>
        <time>2011-07-15T12:57:48Z</time>
      </trkpt>
      <trkpt lat="44.61758" lon="6.90153">
        <ele>2202.2719726562</ele>
        <time>2011-07-15T12:57:51Z</time>
      </trkpt>
      <trkpt lat="44.61749" lon="6.90147">
        <ele>2200</ele>
        <time>2011-07-15T12:57:58Z</time>
      </trkpt>
      <trkpt lat="44.6174" lon="6.90145">
        <ele>2200</ele>
        <time>2011-07-15T12:58:04Z</time>
      </trkpt>
      <trkpt lat="44.61726" lon="6.90142">
        <ele>2200</ele>
        <time>2011-07-15T12:58:14Z</time>
      </trkpt>
      <trkpt lat="44.61718" lon="6.9014">
        <ele>2200</ele>
        <time>2011-07-15T12:58:20Z</time>
      </trkpt>
      <trkpt lat="44.61707" lon="6.90136">
        <ele>2200</ele>
        <time>2011-07-15T12:58:28Z</time>
      </trkpt>
      <trkpt lat="44.617" lon="6.90131">
        <ele>2200</ele>
        <time>2011-07-15T12:58:33Z</time>
      </trkpt>
      <trkpt lat="44.61695" lon="6.90122">
        <ele>2200</ele>
        <time>2011-07-15T12:58:40Z</time>
      </trkpt>
      <trkpt lat="44.61694" lon="6.90121">
        <ele>2200</ele>
        <time>2011-07-15T12:58:41Z</time>
      </trkpt>
      <trkpt lat="44.6168" lon="6.90108">
        <ele>2200</ele>
        <time>2011-07-15T12:58:52Z</time>
      </trkpt>
      <trkpt lat="44.61672" lon="6.90096">
        <ele>2200</ele>
        <time>2011-07-15T12:59:00Z</time>
      </trkpt>
      <trkpt lat="44.61669" lon="6.90085">
        <ele>2200</ele>
        <time>2011-07-15T12:59:07Z</time>
      </trkpt>
      <trkpt lat="44.61667" lon="6.9008">
        <ele>2200.4047851562</ele>
        <time>2011-07-15T12:59:12Z</time>
      </trkpt>
      <trkpt lat="44.61664" lon="6.90075">
        <ele>2200.8090820312</ele>
        <time>2011-07-15T12:59:16Z</time>
      </trkpt>
      <trkpt lat="44.61658" lon="6.90065">
        <ele>2201.4033203125</ele>
        <time>2011-07-15T12:59:23Z</time>
      </trkpt>
      <trkpt lat="44.61652" lon="6.90057">
        <ele>2201.3686523438</ele>
        <time>2011-07-15T12:59:30Z</time>
      </trkpt>
      <trkpt lat="44.61647" lon="6.90046">
        <ele>2203.1369628906</ele>
        <time>2011-07-15T12:59:36Z</time>
      </trkpt>
      <trkpt lat="44.61642" lon="6.90034">
        <ele>2205.6613769531</ele>
        <time>2011-07-15T12:59:43Z</time>
      </trkpt>
      <trkpt lat="44.61632" lon="6.90024">
        <ele>2206.2448730469</ele>
        <time>2011-07-15T12:59:51Z</time>
      </trkpt>
      <trkpt lat="44.61624" lon="6.90018">
        <ele>2205.8122558594</ele>
        <time>2011-07-15T12:59:57Z</time>
      </trkpt>
      <trkpt lat="44.61612" lon="6.90014">
        <ele>2203.8054199219</ele>
        <time>2011-07-15T13:00:05Z</time>
      </trkpt>
      <trkpt lat="44.61599" lon="6.9001">
        <ele>2202.5866699219</ele>
        <time>2011-07-15T13:00:14Z</time>
      </trkpt>
      <trkpt lat="44.6159" lon="6.90005">
        <ele>2201.3408203125</ele>
        <time>2011-07-15T13:00:21Z</time>
      </trkpt>
      <trkpt lat="44.6158" lon="6.89997">
        <ele>2200.8041992188</ele>
        <time>2011-07-15T13:00:29Z</time>
      </trkpt>
      <trkpt lat="44.61573" lon="6.89988">
        <ele>2202.1232910156</ele>
        <time>2011-07-15T13:00:36Z</time>
      </trkpt>
      <trkpt lat="44.61565" lon="6.89981">
        <ele>2201.8422851562</ele>
        <time>2011-07-15T13:00:43Z</time>
      </trkpt>
      <trkpt lat="44.61557" lon="6.89974">
        <ele>2200.3859863281</ele>
        <time>2011-07-15T13:00:50Z</time>
      </trkpt>
      <trkpt lat="44.61549" lon="6.89969">
        <ele>2200.6638183594</ele>
        <time>2011-07-15T13:00:58Z</time>
      </trkpt>
      <trkpt lat="44.61545" lon="6.89967">
        <ele>2201.0622558594</ele>
        <time>2011-07-15T13:01:04Z</time>
      </trkpt>
      <trkpt lat="44.61541" lon="6.89969">
        <ele>2200.6867675781</ele>
        <time>2011-07-15T13:01:09Z</time>
      </trkpt>
      <trkpt lat="44.61534" lon="6.8997">
        <ele>2200.3244628906</ele>
        <time>2011-07-15T13:01:15Z</time>
      </trkpt>
      <trkpt lat="44.61531" lon="6.89969">
        <ele>2200.5925292969</ele>
        <time>2011-07-15T13:01:17Z</time>
      </trkpt>
      <trkpt lat="44.61523" lon="6.89968">
        <ele>2200.6391601562</ele>
        <time>2011-07-15T13:01:23Z</time>
      </trkpt>
      <trkpt lat="44.61515" lon="6.89967">
        <ele>2200.4633789062</ele>
        <time>2011-07-15T13:01:29Z</time>
      </trkpt>
      <trkpt lat="44.61506" lon="6.89962">
        <ele>2200.3798828125</ele>
        <time>2011-07-15T13:01:36Z</time>
      </trkpt>
      <trkpt lat="44.61501" lon="6.89959">
        <ele>2200.0783691406</ele>
        <time>2011-07-15T13:01:40Z</time>
      </trkpt>
      <trkpt lat="44.61491" lon="6.89954">
        <ele>2200</ele>
        <time>2011-07-15T13:01:47Z</time>
      </trkpt>
      <trkpt lat="44.6149" lon="6.89953">
        <ele>2200</ele>
        <time>2011-07-15T13:01:48Z</time>
      </trkpt>
      <trkpt lat="44.61485" lon="6.89938">
        <ele>2200.7966308594</ele>
        <time>2011-07-15T13:01:57Z</time>
      </trkpt>
      <trkpt lat="44.61479" lon="6.89929">
        <ele>2201.5158691406</ele>
        <time>2011-07-15T13:02:04Z</time>
      </trkpt>
      <trkpt lat="44.6147" lon="6.8992">
        <ele>2201.6457519531</ele>
        <time>2011-07-15T13:02:12Z</time>
      </trkpt>
      <trkpt lat="44.61459" lon="6.89911">
        <ele>2201.3999023438</ele>
        <time>2011-07-15T13:02:21Z</time>
      </trkpt>
      <trkpt lat="44.61452" lon="6.89903">
        <ele>2201.1315917969</ele>
        <time>2011-07-15T13:02:27Z</time>
      </trkpt>
      <trkpt lat="44.61451" lon="6.89902">
        <ele>2201.0080566406</ele>
        <time>2011-07-15T13:02:28Z</time>
      </trkpt>
      <trkpt lat="44.61446" lon="6.89893">
        <ele>2200.3017578125</ele>
        <time>2011-07-15T13:02:34Z</time>
      </trkpt>
      <trkpt lat="44.61445" lon="6.89892">
        <ele>2200.0812988281</ele>
        <time>2011-07-15T13:02:35Z</time>
      </trkpt>
      <trkpt lat="44.61437" lon="6.89887">
        <ele>2199.8645019531</ele>
        <time>2011-07-15T13:02:41Z</time>
      </trkpt>
      <trkpt lat="44.61427" lon="6.89879">
        <ele>2199.7827148438</ele>
        <time>2011-07-15T13:02:48Z</time>
      </trkpt>
      <trkpt lat="44.61423" lon="6.89876">
        <ele>2199.5881347656</ele>
        <time>2011-07-15T13:02:51Z</time>
      </trkpt>
      <trkpt lat="44.61421" lon="6.89874">
        <ele>2199.3928222656</ele>
        <time>2011-07-15T13:02:58Z</time>
      </trkpt>
      <trkpt lat="44.61411" lon="6.89859">
        <ele>2198.66796875</ele>
        <time>2011-07-15T13:03:07Z</time>
      </trkpt>
      <trkpt lat="44.61407" lon="6.8985">
        <ele>2198.611328125</ele>
        <time>2011-07-15T13:03:13Z</time>
      </trkpt>
      <trkpt lat="44.61405" lon="6.89832">
        <ele>2198.88671875</ele>
        <time>2011-07-15T13:03:23Z</time>
      </trkpt>
      <trkpt lat="44.61405" lon="6.89829">
        <ele>2199.0432128906</ele>
        <time>2011-07-15T13:03:25Z</time>
      </trkpt>
      <trkpt lat="44.61399" lon="6.89816">
        <ele>2198.9165039062</ele>
        <time>2011-07-15T13:03:33Z</time>
      </trkpt>
      <trkpt lat="44.61394" lon="6.89804">
        <ele>2198.3684082031</ele>
        <time>2011-07-15T13:03:40Z</time>
      </trkpt>
      <trkpt lat="44.6139" lon="6.89791">
        <ele>2197.4621582031</ele>
        <time>2011-07-15T13:03:47Z</time>
      </trkpt>
      <trkpt lat="44.61385" lon="6.89778">
        <ele>2194.3674316406</ele>
        <time>2011-07-15T13:03:55Z</time>
      </trkpt>
      <trkpt lat="44.61378" lon="6.89766">
        <ele>2190.9362792969</ele>
        <time>2011-07-15T13:04:03Z</time>
      </trkpt>
      <trkpt lat="44.61377" lon="6.89754">
        <ele>2190.8762207031</ele>
        <time>2011-07-15T13:04:09Z</time>
      </trkpt>
      <trkpt lat="44.61372" lon="6.89741">
        <ele>2189.4689941406</ele>
        <time>2011-07-15T13:04:17Z</time>
      </trkpt>
      <trkpt lat="44.61364" lon="6.89733">
        <ele>2186.6398925781</ele>
        <time>2011-07-15T13:04:24Z</time>
      </trkpt>
      <trkpt lat="44.61358" lon="6.89723">
        <ele>2187.09765625</ele>
        <time>2011-07-15T13:04:31Z</time>
      </trkpt>
      <trkpt lat="44.61352" lon="6.8971">
        <ele>2188.2336425781</ele>
        <time>2011-07-15T13:04:39Z</time>
      </trkpt>
      <trkpt lat="44.61343" lon="6.89697">
        <ele>2186.23828125</ele>
        <time>2011-07-15T13:04:48Z</time>
      </trkpt>
      <trkpt lat="44.61336" lon="6.89687">
        <ele>2184.9250488281</ele>
        <time>2011-07-15T13:04:55Z</time>
      </trkpt>
      <trkpt lat="44.61325" lon="6.8968">
        <ele>2184.3686523438</ele>
        <time>2011-07-15T13:05:04Z</time>
      </trkpt>
      <trkpt lat="44.61322" lon="6.8968">
        <ele>2183.8835449219</ele>
        <time>2011-07-15T13:05:06Z</time>
      </trkpt>
      <trkpt lat="44.6132" lon="6.8968">
        <ele>2183.2785644531</ele>
        <time>2011-07-15T13:05:20Z</time>
      </trkpt>
      <trkpt lat="44.6132" lon="6.89675">
        <ele>2184.224609375</ele>
        <time>2011-07-15T13:05:24Z</time>
      </trkpt>
      <trkpt lat="44.61319" lon="6.89666">
        <ele>2185.7692871094</ele>
        <time>2011-07-15T13:05:31Z</time>
      </trkpt>
      <trkpt lat="44.61318" lon="6.89664">
        <ele>2185.8349609375</ele>
        <time>2011-07-15T13:05:32Z</time>
      </trkpt>
      <trkpt lat="44.61312" lon="6.89659">
        <ele>2183.4528808594</ele>
        <time>2011-07-15T13:05:40Z</time>
      </trkpt>
      <trkpt lat="44.6131" lon="6.8966">
        <ele>2182.2248535156</ele>
        <time>2011-07-15T13:05:46Z</time>
      </trkpt>
      <trkpt lat="44.61307" lon="6.89661">
        <ele>2180.8122558594</ele>
        <time>2011-07-15T13:05:58Z</time>
      </trkpt>
      <trkpt lat="44.61308" lon="6.89663">
        <ele>2180.9487304688</ele>
        <time>2011-07-15T13:06:03Z</time>
      </trkpt>
      <trkpt lat="44.61306" lon="6.89667">
        <ele>2180.3544921875</ele>
        <time>2011-07-15T13:06:07Z</time>
      </trkpt>
      <trkpt lat="44.61306" lon="6.89668">
        <ele>2180.1840820312</ele>
        <time>2011-07-15T13:06:08Z</time>
      </trkpt>
      <trkpt lat="44.61306" lon="6.89676">
        <ele>2180.234375</ele>
        <time>2011-07-15T13:06:14Z</time>
      </trkpt>
      <trkpt lat="44.61303" lon="6.89678">
        <ele>2180.2092285156</ele>
        <time>2011-07-15T13:06:18Z</time>
      </trkpt>
      <trkpt lat="44.61299" lon="6.89669">
        <ele>2180.3024902344</ele>
        <time>2011-07-15T13:06:25Z</time>
      </trkpt>
      <trkpt lat="44.61296" lon="6.89665">
        <ele>2180.3291015625</ele>
        <time>2011-07-15T13:06:29Z</time>
      </trkpt>
      <trkpt lat="44.61295" lon="6.89663">
        <ele>2180.326171875</ele>
        <time>2011-07-15T13:06:46Z</time>
      </trkpt>
      <trkpt lat="44.61294" lon="6.89662">
        <ele>2180.3586425781</ele>
        <time>2011-07-15T13:06:53Z</time>
      </trkpt>
      <trkpt lat="44.61292" lon="6.89662">
        <ele>2180.3928222656</ele>
        <time>2011-07-15T13:06:56Z</time>
      </trkpt>
      <trkpt lat="44.61289" lon="6.89658">
        <ele>2180.423828125</ele>
        <time>2011-07-15T13:07:01Z</time>
      </trkpt>
      <trkpt lat="44.61286" lon="6.89652">
        <ele>2180.3273925781</ele>
        <time>2011-07-15T13:07:06Z</time>
      </trkpt>
      <trkpt lat="44.61282" lon="6.89646">
        <ele>2180.2041015625</ele>
        <time>2011-07-15T13:07:10Z</time>
      </trkpt>
      <trkpt lat="44.61275" lon="6.89635">
        <ele>2180.095703125</ele>
        <time>2011-07-15T13:07:18Z</time>
      </trkpt>
      <trkpt lat="44.61271" lon="6.89632">
        <ele>2180.1723632812</ele>
        <time>2011-07-15T13:07:21Z</time>
      </trkpt>
      <trkpt lat="44.61269" lon="6.89623">
        <ele>2180.1328125</ele>
        <time>2011-07-15T13:07:26Z</time>
      </trkpt>
      <trkpt lat="44.61267" lon="6.89618">
        <ele>2180.0969238281</ele>
        <time>2011-07-15T13:07:29Z</time>
      </trkpt>
      <trkpt lat="44.61266" lon="6.89609">
        <ele>2180</ele>
        <time>2011-07-15T13:07:34Z</time>
      </trkpt>
      <trkpt lat="44.61264" lon="6.896">
        <ele>2180</ele>
        <time>2011-07-15T13:07:39Z</time>
      </trkpt>
      <trkpt lat="44.61264" lon="6.89598">
        <ele>2180</ele>
        <time>2011-07-15T13:07:40Z</time>
      </trkpt>
      <trkpt lat="44.61261" lon="6.89589">
        <ele>2180</ele>
        <time>2011-07-15T13:07:45Z</time>
      </trkpt>
      <trkpt lat="44.61256" lon="6.89583">
        <ele>2180.0283203125</ele>
        <time>2011-07-15T13:07:50Z</time>
      </trkpt>
      <trkpt lat="44.61251" lon="6.89574">
        <ele>2180.0734863281</ele>
        <time>2011-07-15T13:07:57Z</time>
      </trkpt>
      <trkpt lat="44.61245" lon="6.89571">
        <ele>2180</ele>
        <time>2011-07-15T13:08:02Z</time>
      </trkpt>
      <trkpt lat="44.61238" lon="6.89566">
        <ele>2180</ele>
        <time>2011-07-15T13:08:07Z</time>
      </trkpt>
      <trkpt lat="44.61235" lon="6.8956">
        <ele>2180</ele>
        <time>2011-07-15T13:08:11Z</time>
      </trkpt>
      <trkpt lat="44.61229" lon="6.89555">
        <ele>2180.0021972656</ele>
        <time>2011-07-15T13:08:16Z</time>
      </trkpt>
      <trkpt lat="44.61225" lon="6.8955">
        <ele>2180.021484375</ele>
        <time>2011-07-15T13:08:23Z</time>
      </trkpt>
      <trkpt lat="44.61222" lon="6.89547">
        <ele>2180</ele>
        <time>2011-07-15T13:08:34Z</time>
      </trkpt>
      <trkpt lat="44.61221" lon="6.89546">
        <ele>2180</ele>
        <time>2011-07-15T13:08:43Z</time>
      </trkpt>
      <trkpt lat="44.6122" lon="6.89546">
        <ele>2180</ele>
        <time>2011-07-15T13:08:46Z</time>
      </trkpt>
      <trkpt lat="44.61218" lon="6.89544">
        <ele>2180</ele>
        <time>2011-07-15T13:08:53Z</time>
      </trkpt>
      <trkpt lat="44.61216" lon="6.89542">
        <ele>2180</ele>
        <time>2011-07-15T13:09:19Z</time>
      </trkpt>
      <trkpt lat="44.61213" lon="6.89538">
        <ele>2180</ele>
        <time>2011-07-15T13:09:23Z</time>
      </trkpt>
      <trkpt lat="44.61211" lon="6.89536">
        <ele>2180</ele>
        <time>2011-07-15T13:09:26Z</time>
      </trkpt>
      <trkpt lat="44.6121" lon="6.89534">
        <ele>2180</ele>
        <time>2011-07-15T13:09:34Z</time>
      </trkpt>
      <trkpt lat="44.61209" lon="6.89525">
        <ele>2180</ele>
        <time>2011-07-15T13:09:40Z</time>
      </trkpt>
      <trkpt lat="44.61208" lon="6.8952">
        <ele>2180</ele>
        <time>2011-07-15T13:09:43Z</time>
      </trkpt>
      <trkpt lat="44.61208" lon="6.89515">
        <ele>2180</ele>
        <time>2011-07-15T13:09:47Z</time>
      </trkpt>
      <trkpt lat="44.61206" lon="6.89505">
        <ele>2180</ele>
        <time>2011-07-15T13:09:53Z</time>
      </trkpt>
      <trkpt lat="44.61205" lon="6.89502">
        <ele>2180</ele>
        <time>2011-07-15T13:09:55Z</time>
      </trkpt>
      <trkpt lat="44.61207" lon="6.89492">
        <ele>2180</ele>
        <time>2011-07-15T13:10:00Z</time>
      </trkpt>
      <trkpt lat="44.61199" lon="6.8948">
        <ele>2180</ele>
        <time>2011-07-15T13:10:07Z</time>
      </trkpt>
      <trkpt lat="44.61197" lon="6.89475">
        <ele>2180</ele>
        <time>2011-07-15T13:10:10Z</time>
      </trkpt>
      <trkpt lat="44.61192" lon="6.89462">
        <ele>2180</ele>
        <time>2011-07-15T13:10:16Z</time>
      </trkpt>
      <trkpt lat="44.61186" lon="6.89451">
        <ele>2180</ele>
        <time>2011-07-15T13:10:23Z</time>
      </trkpt>
      <trkpt lat="44.61181" lon="6.89442">
        <ele>2179.9567871094</ele>
        <time>2011-07-15T13:10:28Z</time>
      </trkpt>
      <trkpt lat="44.61171" lon="6.8943">
        <ele>2179.5732421875</ele>
        <time>2011-07-15T13:10:35Z</time>
      </trkpt>
      <trkpt lat="44.61164" lon="6.89425">
        <ele>2179.0783691406</ele>
        <time>2011-07-15T13:10:40Z</time>
      </trkpt>
      <trkpt lat="44.61158" lon="6.89422">
        <ele>2178.5634765625</ele>
        <time>2011-07-15T13:10:45Z</time>
      </trkpt>
      <trkpt lat="44.61152" lon="6.89416">
        <ele>2177.904296875</ele>
        <time>2011-07-15T13:10:50Z</time>
      </trkpt>
      <trkpt lat="44.61143" lon="6.89406">
        <ele>2177.0229492188</ele>
        <time>2011-07-15T13:10:58Z</time>
      </trkpt>
      <trkpt lat="44.61145" lon="6.89389">
        <ele>2176.6555175781</ele>
        <time>2011-07-15T13:11:27Z</time>
      </trkpt>
      <trkpt lat="44.61146" lon="6.89386">
        <ele>2176.6762695312</ele>
        <time>2011-07-15T13:11:29Z</time>
      </trkpt>
      <trkpt lat="44.61145" lon="6.89386">
        <ele>2176.6286621094</ele>
        <time>2011-07-15T13:11:30Z</time>
      </trkpt>
      <trkpt lat="44.61143" lon="6.89385">
        <ele>2176.3442382812</ele>
        <time>2011-07-15T13:11:32Z</time>
      </trkpt>
      <trkpt lat="44.61135" lon="6.89384">
        <ele>2175.1789550781</ele>
        <time>2011-07-15T13:11:38Z</time>
      </trkpt>
      <trkpt lat="44.61129" lon="6.89377">
        <ele>2173.5400390625</ele>
        <time>2011-07-15T13:11:44Z</time>
      </trkpt>
      <trkpt lat="44.61124" lon="6.89374">
        <ele>2172.2189941406</ele>
        <time>2011-07-15T13:11:49Z</time>
      </trkpt>
      <trkpt lat="44.61123" lon="6.89373">
        <ele>2171.9289550781</ele>
        <time>2011-07-15T13:11:50Z</time>
      </trkpt>
      <trkpt lat="44.61109" lon="6.89358">
        <ele>2167.3715820312</ele>
        <time>2011-07-15T13:11:57Z</time>
      </trkpt>
      <trkpt lat="44.61097" lon="6.89344">
        <ele>2170.07421875</ele>
        <time>2011-07-15T13:12:03Z</time>
      </trkpt>
      <trkpt lat="44.61094" lon="6.89339">
        <ele>2170.2062988281</ele>
        <time>2011-07-15T13:12:06Z</time>
      </trkpt>
      <trkpt lat="44.6109" lon="6.89334">
        <ele>2170.7175292969</ele>
        <time>2011-07-15T13:12:10Z</time>
      </trkpt>
      <trkpt lat="44.61091" lon="6.89322">
        <ele>2167.2922363281</ele>
        <time>2011-07-15T13:12:18Z</time>
      </trkpt>
      <trkpt lat="44.61087" lon="6.89308">
        <ele>2164.9731445312</ele>
        <time>2011-07-15T13:12:25Z</time>
      </trkpt>
      <trkpt lat="44.61086" lon="6.89304">
        <ele>2164.2541503906</ele>
        <time>2011-07-15T13:12:28Z</time>
      </trkpt>
      <trkpt lat="44.61085" lon="6.893">
        <ele>2163.767578125</ele>
        <time>2011-07-15T13:12:31Z</time>
      </trkpt>
      <trkpt lat="44.61084" lon="6.89297">
        <ele>2163.4306640625</ele>
        <time>2011-07-15T13:12:33Z</time>
      </trkpt>
      <trkpt lat="44.6109" lon="6.89284">
        <ele>2160.8618164062</ele>
        <time>2011-07-15T13:12:41Z</time>
      </trkpt>
      <trkpt lat="44.61084" lon="6.8927">
        <ele>2160.1489257812</ele>
        <time>2011-07-15T13:12:48Z</time>
      </trkpt>
      <trkpt lat="44.61077" lon="6.89261">
        <ele>2160.1789550781</ele>
        <time>2011-07-15T13:12:55Z</time>
      </trkpt>
      <trkpt lat="44.61071" lon="6.89257">
        <ele>2160.2241210938</ele>
        <time>2011-07-15T13:13:01Z</time>
      </trkpt>
      <trkpt lat="44.61061" lon="6.89251">
        <ele>2160.052734375</ele>
        <time>2011-07-15T13:13:07Z</time>
      </trkpt>
      <trkpt lat="44.61054" lon="6.89249">
        <ele>2160.5524902344</ele>
        <time>2011-07-15T13:13:14Z</time>
      </trkpt>
      <trkpt lat="44.6105" lon="6.89249">
        <ele>2160.359375</ele>
        <time>2011-07-15T13:13:20Z</time>
      </trkpt>
      <trkpt lat="44.6104" lon="6.89247">
        <ele>2160.4890136719</ele>
        <time>2011-07-15T13:13:25Z</time>
      </trkpt>
      <trkpt lat="44.61031" lon="6.89246">
        <ele>2160.16015625</ele>
        <time>2011-07-15T13:13:30Z</time>
      </trkpt>
      <trkpt lat="44.61026" lon="6.89249">
        <ele>2159.9982910156</ele>
        <time>2011-07-15T13:13:37Z</time>
      </trkpt>
      <trkpt lat="44.61024" lon="6.8925">
        <ele>2159.9978027344</ele>
        <time>2011-07-15T13:13:41Z</time>
      </trkpt>
      <trkpt lat="44.61013" lon="6.89249">
        <ele>2159.9885253906</ele>
        <time>2011-07-15T13:14:07Z</time>
      </trkpt>
      <trkpt lat="44.61009" lon="6.89249">
        <ele>2159.9716796875</ele>
        <time>2011-07-15T13:14:13Z</time>
      </trkpt>
      <trkpt lat="44.61005" lon="6.89249">
        <ele>2159.9812011719</ele>
        <time>2011-07-15T13:14:18Z</time>
      </trkpt>
      <trkpt lat="44.60999" lon="6.89245">
        <ele>2159.9958496094</ele>
        <time>2011-07-15T13:14:28Z</time>
      </trkpt>
      <trkpt lat="44.60992" lon="6.89242">
        <ele>2160.3725585938</ele>
        <time>2011-07-15T13:14:34Z</time>
      </trkpt>
      <trkpt lat="44.60984" lon="6.89234">
        <ele>2159.0612792969</ele>
        <time>2011-07-15T13:14:42Z</time>
      </trkpt>
      <trkpt lat="44.60983" lon="6.89232">
        <ele>2158.4494628906</ele>
        <time>2011-07-15T13:14:44Z</time>
      </trkpt>
      <trkpt lat="44.60978" lon="6.89224">
        <ele>2155.4333496094</ele>
        <time>2011-07-15T13:14:50Z</time>
      </trkpt>
      <trkpt lat="44.60969" lon="6.8922">
        <ele>2153.0869140625</ele>
        <time>2011-07-15T13:14:57Z</time>
      </trkpt>
      <trkpt lat="44.60958" lon="6.89218">
        <ele>2150.9453125</ele>
        <time>2011-07-15T13:15:04Z</time>
      </trkpt>
      <trkpt lat="44.60953" lon="6.89212">
        <ele>2148.3479003906</ele>
        <time>2011-07-15T13:15:09Z</time>
      </trkpt>
      <trkpt lat="44.60942" lon="6.89204">
        <ele>2143.9650878906</ele>
        <time>2011-07-15T13:15:16Z</time>
      </trkpt>
      <trkpt lat="44.60934" lon="6.89195">
        <ele>2141.2470703125</ele>
        <time>2011-07-15T13:15:23Z</time>
      </trkpt>
      <trkpt lat="44.6093" lon="6.89184">
        <ele>2139.8115234375</ele>
        <time>2011-07-15T13:15:30Z</time>
      </trkpt>
      <trkpt lat="44.60925" lon="6.89179">
        <ele>2139.0012207031</ele>
        <time>2011-07-15T13:15:35Z</time>
      </trkpt>
      <trkpt lat="44.60918" lon="6.89176">
        <ele>2138.1640625</ele>
        <time>2011-07-15T13:15:42Z</time>
      </trkpt>
      <trkpt lat="44.60913" lon="6.89176">
        <ele>2138.3188476562</ele>
        <time>2011-07-15T13:15:47Z</time>
      </trkpt>
      <trkpt lat="44.60909" lon="6.89175">
        <ele>2138.5866699219</ele>
        <time>2011-07-15T13:16:26Z</time>
      </trkpt>
      <trkpt lat="44.60906" lon="6.89171">
        <ele>2137.6235351562</ele>
        <time>2011-07-15T13:16:31Z</time>
      </trkpt>
      <trkpt lat="44.60904" lon="6.89169">
        <ele>2136.7119140625</ele>
        <time>2011-07-15T13:16:33Z</time>
      </trkpt>
      <trkpt lat="44.60899" lon="6.89161">
        <ele>2133.64453125</ele>
        <time>2011-07-15T13:16:38Z</time>
      </trkpt>
      <trkpt lat="44.60889" lon="6.89154">
        <ele>2128.625</ele>
        <time>2011-07-15T13:16:45Z</time>
      </trkpt>
      <trkpt lat="44.6088" lon="6.8915">
        <ele>2127.6638183594</ele>
        <time>2011-07-15T13:16:49Z</time>
      </trkpt>
      <trkpt lat="44.6087" lon="6.89145">
        <ele>2126.7043457031</ele>
        <time>2011-07-15T13:16:55Z</time>
      </trkpt>
      <trkpt lat="44.60866" lon="6.89142">
        <ele>2125.5239257812</ele>
        <time>2011-07-15T13:16:59Z</time>
      </trkpt>
      <trkpt lat="44.60865" lon="6.89139">
        <ele>2124.0769042969</ele>
        <time>2011-07-15T13:17:01Z</time>
      </trkpt>
      <trkpt lat="44.60865" lon="6.89135">
        <ele>2122.7749023438</ele>
        <time>2011-07-15T13:17:03Z</time>
      </trkpt>
      <trkpt lat="44.6086" lon="6.89129">
        <ele>2120.7705078125</ele>
        <time>2011-07-15T13:17:08Z</time>
      </trkpt>
      <trkpt lat="44.60855" lon="6.89123">
        <ele>2119.431640625</ele>
        <time>2011-07-15T13:17:14Z</time>
      </trkpt>
      <trkpt lat="44.60851" lon="6.89123">
        <ele>2120.1748046875</ele>
        <time>2011-07-15T13:17:17Z</time>
      </trkpt>
      <trkpt lat="44.60847" lon="6.89125">
        <ele>2122.7875976562</ele>
        <time>2011-07-15T13:17:24Z</time>
      </trkpt>
      <trkpt lat="44.60843" lon="6.89125">
        <ele>2123.7524414062</ele>
        <time>2011-07-15T13:17:27Z</time>
      </trkpt>
      <trkpt lat="44.60835" lon="6.89117">
        <ele>2122.2880859375</ele>
        <time>2011-07-15T13:17:33Z</time>
      </trkpt>
      <trkpt lat="44.60828" lon="6.89111">
        <ele>2121.9992675781</ele>
        <time>2011-07-15T13:17:38Z</time>
      </trkpt>
      <trkpt lat="44.60823" lon="6.89107">
        <ele>2122.8864746094</ele>
        <time>2011-07-15T13:17:43Z</time>
      </trkpt>
      <trkpt lat="44.60816" lon="6.891">
        <ele>2122.9443359375</ele>
        <time>2011-07-15T13:17:49Z</time>
      </trkpt>
      <trkpt lat="44.60811" lon="6.89091">
        <ele>2121.7312011719</ele>
        <time>2011-07-15T13:17:56Z</time>
      </trkpt>
      <trkpt lat="44.60804" lon="6.89079">
        <ele>2121.228515625</ele>
        <time>2011-07-15T13:18:04Z</time>
      </trkpt>
      <trkpt lat="44.60799" lon="6.89068">
        <ele>2120.6672363281</ele>
        <time>2011-07-15T13:18:11Z</time>
      </trkpt>
      <trkpt lat="44.60794" lon="6.89058">
        <ele>2119.9272460938</ele>
        <time>2011-07-15T13:18:17Z</time>
      </trkpt>
      <trkpt lat="44.60794" lon="6.89052">
        <ele>2117.1513671875</ele>
        <time>2011-07-15T13:18:21Z</time>
      </trkpt>
      <trkpt lat="44.60793" lon="6.8904">
        <ele>2112.9890136719</ele>
        <time>2011-07-15T13:18:28Z</time>
      </trkpt>
      <trkpt lat="44.60789" lon="6.8903">
        <ele>2111.1989746094</ele>
        <time>2011-07-15T13:18:34Z</time>
      </trkpt>
      <trkpt lat="44.60786" lon="6.89019">
        <ele>2107.8308105469</ele>
        <time>2011-07-15T13:18:40Z</time>
      </trkpt>
      <trkpt lat="44.60781" lon="6.89013">
        <ele>2108.1416015625</ele>
        <time>2011-07-15T13:18:45Z</time>
      </trkpt>
      <trkpt lat="44.60778" lon="6.89005">
        <ele>2106.5258789062</ele>
        <time>2011-07-15T13:18:50Z</time>
      </trkpt>
      <trkpt lat="44.60772" lon="6.88999">
        <ele>2105.2065429688</ele>
        <time>2011-07-15T13:18:54Z</time>
      </trkpt>
      <trkpt lat="44.60773" lon="6.88993">
        <ele>2102.4262695312</ele>
        <time>2011-07-15T13:18:58Z</time>
      </trkpt>
      <trkpt lat="44.60782" lon="6.88994">
        <ele>2099.1384277344</ele>
        <time>2011-07-15T13:19:04Z</time>
      </trkpt>
      <trkpt lat="44.60792" lon="6.8899">
        <ele>2093.0004882812</ele>
        <time>2011-07-15T13:19:13Z</time>
      </trkpt>
      <trkpt lat="44.60787" lon="6.88983">
        <ele>2092.3459472656</ele>
        <time>2011-07-15T13:19:19Z</time>
      </trkpt>
      <trkpt lat="44.60791" lon="6.88979">
        <ele>2088.9777832031</ele>
        <time>2011-07-15T13:19:29Z</time>
      </trkpt>
      <trkpt lat="44.60789" lon="6.88976">
        <ele>2088.3244628906</ele>
        <time>2011-07-15T13:19:32Z</time>
      </trkpt>
      <trkpt lat="44.60785" lon="6.88967">
        <ele>2087.2094726562</ele>
        <time>2011-07-15T13:19:38Z</time>
      </trkpt>
      <trkpt lat="44.60783" lon="6.88959">
        <ele>2084.9782714844</ele>
        <time>2011-07-15T13:19:44Z</time>
      </trkpt>
      <trkpt lat="44.60781" lon="6.88952">
        <ele>2082.8146972656</ele>
        <time>2011-07-15T13:19:49Z</time>
      </trkpt>
      <trkpt lat="44.60778" lon="6.88946">
        <ele>2080.80078125</ele>
        <time>2011-07-15T13:19:53Z</time>
      </trkpt>
      <trkpt lat="44.60772" lon="6.8894">
        <ele>2081.7790527344</ele>
        <time>2011-07-15T13:19:58Z</time>
      </trkpt>
      <trkpt lat="44.60766" lon="6.88938">
        <ele>2083.1879882812</ele>
        <time>2011-07-15T13:20:02Z</time>
      </trkpt>
      <trkpt lat="44.60762" lon="6.88934">
        <ele>2083.6530761719</ele>
        <time>2011-07-15T13:20:06Z</time>
      </trkpt>
      <trkpt lat="44.6076" lon="6.88931">
        <ele>2083.3107910156</ele>
        <time>2011-07-15T13:20:09Z</time>
      </trkpt>
      <trkpt lat="44.60758" lon="6.88924">
        <ele>2081.951171875</ele>
        <time>2011-07-15T13:20:16Z</time>
      </trkpt>
      <trkpt lat="44.60754" lon="6.88921">
        <ele>2081.3488769531</ele>
        <time>2011-07-15T13:20:20Z</time>
      </trkpt>
      <trkpt lat="44.60752" lon="6.8892">
        <ele>2081.0056152344</ele>
        <time>2011-07-15T13:20:22Z</time>
      </trkpt>
      <trkpt lat="44.60744" lon="6.88914">
        <ele>2081.2709960938</ele>
        <time>2011-07-15T13:20:29Z</time>
      </trkpt>
      <trkpt lat="44.60737" lon="6.88908">
        <ele>2082.3264160156</ele>
        <time>2011-07-15T13:20:35Z</time>
      </trkpt>
      <trkpt lat="44.60732" lon="6.88906">
        <ele>2082.8198242188</ele>
        <time>2011-07-15T13:20:40Z</time>
      </trkpt>
      <trkpt lat="44.60725" lon="6.88898">
        <ele>2082.1059570312</ele>
        <time>2011-07-15T13:20:46Z</time>
      </trkpt>
      <trkpt lat="44.60719" lon="6.88892">
        <ele>2081.388671875</ele>
        <time>2011-07-15T13:20:51Z</time>
      </trkpt>
      <trkpt lat="44.60714" lon="6.88886">
        <ele>2081.2651367188</ele>
        <time>2011-07-15T13:20:57Z</time>
      </trkpt>
      <trkpt lat="44.60711" lon="6.8888">
        <ele>2081.3696289062</ele>
        <time>2011-07-15T13:21:02Z</time>
      </trkpt>
      <trkpt lat="44.60707" lon="6.88872">
        <ele>2081.1101074219</ele>
        <time>2011-07-15T13:21:06Z</time>
      </trkpt>
      <trkpt lat="44.607" lon="6.88856">
        <ele>2080</ele>
        <time>2011-07-15T13:21:12Z</time>
      </trkpt>
      <trkpt lat="44.60698" lon="6.88843">
        <ele>2080</ele>
        <time>2011-07-15T13:21:17Z</time>
      </trkpt>
      <trkpt lat="44.60698" lon="6.88842">
        <ele>2080</ele>
        <time>2011-07-15T13:21:18Z</time>
      </trkpt>
      <trkpt lat="44.60696" lon="6.88831">
        <ele>2079.9821777344</ele>
        <time>2011-07-15T13:21:23Z</time>
      </trkpt>
      <trkpt lat="44.60694" lon="6.88819">
        <ele>2079.4299316406</ele>
        <time>2011-07-15T13:21:29Z</time>
      </trkpt>
      <trkpt lat="44.60692" lon="6.88817">
        <ele>2079.2443847656</ele>
        <time>2011-07-15T13:21:30Z</time>
      </trkpt>
      <trkpt lat="44.60689" lon="6.88813">
        <ele>2078.8193359375</ele>
        <time>2011-07-15T13:21:32Z</time>
      </trkpt>
      <trkpt lat="44.6069" lon="6.888">
        <ele>2078.572265625</ele>
        <time>2011-07-15T13:21:36Z</time>
      </trkpt>
      <trkpt lat="44.6069" lon="6.88787">
        <ele>2078.8454589844</ele>
        <time>2011-07-15T13:21:40Z</time>
      </trkpt>
      <trkpt lat="44.60688" lon="6.8878">
        <ele>2078.5061035156</ele>
        <time>2011-07-15T13:21:43Z</time>
      </trkpt>
      <trkpt lat="44.60685" lon="6.88776">
        <ele>2077.8693847656</ele>
        <time>2011-07-15T13:21:45Z</time>
      </trkpt>
      <trkpt lat="44.60681" lon="6.8877">
        <ele>2076.4709472656</ele>
        <time>2011-07-15T13:21:49Z</time>
      </trkpt>
      <trkpt lat="44.60673" lon="6.88758">
        <ele>2073.49609375</ele>
        <time>2011-07-15T13:21:54Z</time>
      </trkpt>
      <trkpt lat="44.60672" lon="6.88755">
        <ele>2072.8908691406</ele>
        <time>2011-07-15T13:21:55Z</time>
      </trkpt>
      <trkpt lat="44.6067" lon="6.88752">
        <ele>2072.2529296875</ele>
        <time>2011-07-15T13:21:57Z</time>
      </trkpt>
      <trkpt lat="44.60664" lon="6.88741">
        <ele>2069.62890625</ele>
        <time>2011-07-15T13:22:02Z</time>
      </trkpt>
      <trkpt lat="44.60666" lon="6.88731">
        <ele>2069.2375488281</ele>
        <time>2011-07-15T13:22:06Z</time>
      </trkpt>
      <trkpt lat="44.60666" lon="6.88728">
        <ele>2069.1584472656</ele>
        <time>2011-07-15T13:22:07Z</time>
      </trkpt>
      <trkpt lat="44.60669" lon="6.88715">
        <ele>2070.7631835938</ele>
        <time>2011-07-15T13:22:12Z</time>
      </trkpt>
      <trkpt lat="44.60667" lon="6.88697">
        <ele>2070.3110351562</ele>
        <time>2011-07-15T13:22:19Z</time>
      </trkpt>
      <trkpt lat="44.60662" lon="6.88686">
        <ele>2069.5129394531</ele>
        <time>2011-07-15T13:22:24Z</time>
      </trkpt>
      <trkpt lat="44.60659" lon="6.88672">
        <ele>2069.4338378906</ele>
        <time>2011-07-15T13:22:30Z</time>
      </trkpt>
      <trkpt lat="44.60658" lon="6.88669">
        <ele>2069.3276367188</ele>
        <time>2011-07-15T13:22:31Z</time>
      </trkpt>
      <trkpt lat="44.60656" lon="6.88653">
        <ele>2070.86328125</ele>
        <time>2011-07-15T13:22:37Z</time>
      </trkpt>
      <trkpt lat="44.60656" lon="6.88651">
        <ele>2070.8200683594</ele>
        <time>2011-07-15T13:22:38Z</time>
      </trkpt>
      <trkpt lat="44.60653" lon="6.88644">
        <ele>2070.1889648438</ele>
        <time>2011-07-15T13:22:41Z</time>
      </trkpt>
      <trkpt lat="44.60646" lon="6.88633">
        <ele>2067.9680175781</ele>
        <time>2011-07-15T13:22:46Z</time>
      </trkpt>
      <trkpt lat="44.60643" lon="6.88624">
        <ele>2067.0632324219</ele>
        <time>2011-07-15T13:22:50Z</time>
      </trkpt>
      <trkpt lat="44.60643" lon="6.88617">
        <ele>2067.3955078125</ele>
        <time>2011-07-15T13:22:54Z</time>
      </trkpt>
      <trkpt lat="44.60641" lon="6.88602">
        <ele>2068.4965820312</ele>
        <time>2011-07-15T13:23:02Z</time>
      </trkpt>
      <trkpt lat="44.60639" lon="6.88587">
        <ele>2068.6154785156</ele>
        <time>2011-07-15T13:23:09Z</time>
      </trkpt>
      <trkpt lat="44.60635" lon="6.88567">
        <ele>2067.73828125</ele>
        <time>2011-07-15T13:23:19Z</time>
      </trkpt>
      <trkpt lat="44.60632" lon="6.88551">
        <ele>2065.9387207031</ele>
        <time>2011-07-15T13:23:27Z</time>
      </trkpt>
      <trkpt lat="44.60627" lon="6.88533">
        <ele>2062.3637695312</ele>
        <time>2011-07-15T13:23:36Z</time>
      </trkpt>
      <trkpt lat="44.60627" lon="6.8853">
        <ele>2061.9138183594</ele>
        <time>2011-07-15T13:23:37Z</time>
      </trkpt>
      <trkpt lat="44.60633" lon="6.88512">
        <ele>2060.9826660156</ele>
        <time>2011-07-15T13:23:43Z</time>
      </trkpt>
      <trkpt lat="44.60644" lon="6.88493">
        <ele>2062.4594726562</ele>
        <time>2011-07-15T13:23:50Z</time>
      </trkpt>
      <trkpt lat="44.60647" lon="6.8848">
        <ele>2063.630859375</ele>
        <time>2011-07-15T13:23:54Z</time>
      </trkpt>
      <trkpt lat="44.60654" lon="6.88449">
        <ele>2064.0456542969</ele>
        <time>2011-07-15T13:24:05Z</time>
      </trkpt>
      <trkpt lat="44.60656" lon="6.88432">
        <ele>2063.1259765625</ele>
        <time>2011-07-15T13:24:11Z</time>
      </trkpt>
      <trkpt lat="44.60657" lon="6.88415">
        <ele>2061.7824707031</ele>
        <time>2011-07-15T13:24:17Z</time>
      </trkpt>
      <trkpt lat="44.60661" lon="6.88398">
        <ele>2060.7761230469</ele>
        <time>2011-07-15T13:24:23Z</time>
      </trkpt>
      <trkpt lat="44.60665" lon="6.88385">
        <ele>2060</ele>
        <time>2011-07-15T13:24:28Z</time>
      </trkpt>
      <trkpt lat="44.6067" lon="6.88366">
        <ele>2061.8942871094</ele>
        <time>2011-07-15T13:24:35Z</time>
      </trkpt>
      <trkpt lat="44.60671" lon="6.88353">
        <ele>2062.3522949219</ele>
        <time>2011-07-15T13:24:40Z</time>
      </trkpt>
      <trkpt lat="44.6067" lon="6.88337">
        <ele>2061.6298828125</ele>
        <time>2011-07-15T13:24:46Z</time>
      </trkpt>
      <trkpt lat="44.60668" lon="6.88315">
        <ele>2060.708984375</ele>
        <time>2011-07-15T13:24:54Z</time>
      </trkpt>
      <trkpt lat="44.6067" lon="6.88295">
        <ele>2061.3444824219</ele>
        <time>2011-07-15T13:25:01Z</time>
      </trkpt>
      <trkpt lat="44.60672" lon="6.8828">
        <ele>2061.9077148438</ele>
        <time>2011-07-15T13:25:07Z</time>
      </trkpt>
      <trkpt lat="44.60676" lon="6.88261">
        <ele>2062.3522949219</ele>
        <time>2011-07-15T13:25:15Z</time>
      </trkpt>
      <trkpt lat="44.60678" lon="6.88248">
        <ele>2062.4631347656</ele>
        <time>2011-07-15T13:25:20Z</time>
      </trkpt>
      <trkpt lat="44.60681" lon="6.88233">
        <ele>2062.1818847656</ele>
        <time>2011-07-15T13:25:26Z</time>
      </trkpt>
      <trkpt lat="44.60684" lon="6.88215">
        <ele>2061.5881347656</ele>
        <time>2011-07-15T13:25:33Z</time>
      </trkpt>
      <trkpt lat="44.60686" lon="6.882">
        <ele>2060.9653320312</ele>
        <time>2011-07-15T13:25:39Z</time>
      </trkpt>
      <trkpt lat="44.60688" lon="6.88181">
        <ele>2060.3823242188</ele>
        <time>2011-07-15T13:25:46Z</time>
      </trkpt>
      <trkpt lat="44.60693" lon="6.8816">
        <ele>2060</ele>
        <time>2011-07-15T13:25:54Z</time>
      </trkpt>
      <trkpt lat="44.60699" lon="6.88142">
        <ele>2061.7233886719</ele>
        <time>2011-07-15T13:26:01Z</time>
      </trkpt>
      <trkpt lat="44.60703" lon="6.88125">
        <ele>2063.8237304688</ele>
        <time>2011-07-15T13:26:08Z</time>
      </trkpt>
      <trkpt lat="44.60705" lon="6.88109">
        <ele>2064.8229980469</ele>
        <time>2011-07-15T13:26:14Z</time>
      </trkpt>
      <trkpt lat="44.60704" lon="6.88089">
        <ele>2064.2124023438</ele>
        <time>2011-07-15T13:26:22Z</time>
      </trkpt>
      <trkpt lat="44.60704" lon="6.88071">
        <ele>2064.298828125</ele>
        <time>2011-07-15T13:26:29Z</time>
      </trkpt>
      <trkpt lat="44.60703" lon="6.8805">
        <ele>2063.9167480469</ele>
        <time>2011-07-15T13:26:37Z</time>
      </trkpt>
      <trkpt lat="44.60701" lon="6.88033">
        <ele>2063.5251464844</ele>
        <time>2011-07-15T13:26:44Z</time>
      </trkpt>
      <trkpt lat="44.60699" lon="6.88015">
        <ele>2063.0031738281</ele>
        <time>2011-07-15T13:26:51Z</time>
      </trkpt>
      <trkpt lat="44.60703" lon="6.87997">
        <ele>2064.5083007812</ele>
        <time>2011-07-15T13:26:58Z</time>
      </trkpt>
      <trkpt lat="44.60704" lon="6.87984">
        <ele>2064.529296875</ele>
        <time>2011-07-15T13:27:03Z</time>
      </trkpt>
      <trkpt lat="44.60706" lon="6.87969">
        <ele>2064.361328125</ele>
        <time>2011-07-15T13:27:09Z</time>
      </trkpt>
      <trkpt lat="44.60704" lon="6.87948">
        <ele>2062.7224121094</ele>
        <time>2011-07-15T13:27:17Z</time>
      </trkpt>
      <trkpt lat="44.60706" lon="6.87931">
        <ele>2062.3876953125</ele>
        <time>2011-07-15T13:27:24Z</time>
      </trkpt>
      <trkpt lat="44.60708" lon="6.87916">
        <ele>2061.9108886719</ele>
        <time>2011-07-15T13:27:30Z</time>
      </trkpt>
      <trkpt lat="44.60709" lon="6.87895">
        <ele>2060.4836425781</ele>
        <time>2011-07-15T13:27:38Z</time>
      </trkpt>
      <trkpt lat="44.60714" lon="6.87879">
        <ele>2060</ele>
        <time>2011-07-15T13:27:45Z</time>
      </trkpt>
      <trkpt lat="44.60722" lon="6.87863">
        <ele>2060</ele>
        <time>2011-07-15T13:27:52Z</time>
      </trkpt>
      <trkpt lat="44.60729" lon="6.87847">
        <ele>2060.4536132812</ele>
        <time>2011-07-15T13:27:59Z</time>
      </trkpt>
      <trkpt lat="44.60732" lon="6.87836">
        <ele>2060.1403808594</ele>
        <time>2011-07-15T13:28:05Z</time>
      </trkpt>
      <trkpt lat="44.60735" lon="6.87826">
        <ele>2061.0842285156</ele>
        <time>2011-07-15T13:28:11Z</time>
      </trkpt>
      <trkpt lat="44.60739" lon="6.87815">
        <ele>2062.8666992188</ele>
        <time>2011-07-15T13:28:17Z</time>
      </trkpt>
      <trkpt lat="44.60743" lon="6.87805">
        <ele>2064.9934082031</ele>
        <time>2011-07-15T13:28:23Z</time>
      </trkpt>
      <trkpt lat="44.60747" lon="6.87793">
        <ele>2065.9736328125</ele>
        <time>2011-07-15T13:28:30Z</time>
      </trkpt>
      <trkpt lat="44.60746" lon="6.87788">
        <ele>2066.1125488281</ele>
        <time>2011-07-15T13:28:33Z</time>
      </trkpt>
      <trkpt lat="44.6075" lon="6.87776">
        <ele>2067.1105957031</ele>
        <time>2011-07-15T13:28:41Z</time>
      </trkpt>
      <trkpt lat="44.60745" lon="6.87763">
        <ele>2066.9184570312</ele>
        <time>2011-07-15T13:28:48Z</time>
      </trkpt>
      <trkpt lat="44.60743" lon="6.8775">
        <ele>2067.2072753906</ele>
        <time>2011-07-15T13:28:55Z</time>
      </trkpt>
      <trkpt lat="44.60742" lon="6.87736">
        <ele>2068.1789550781</ele>
        <time>2011-07-15T13:29:02Z</time>
      </trkpt>
      <trkpt lat="44.60741" lon="6.87726">
        <ele>2068.796875</ele>
        <time>2011-07-15T13:29:07Z</time>
      </trkpt>
      <trkpt lat="44.6074" lon="6.87713">
        <ele>2069.3405761719</ele>
        <time>2011-07-15T13:29:13Z</time>
      </trkpt>
      <trkpt lat="44.60738" lon="6.87695">
        <ele>2070.0651855469</ele>
        <time>2011-07-15T13:29:22Z</time>
      </trkpt>
      <trkpt lat="44.60737" lon="6.87683">
        <ele>2070.8864746094</ele>
        <time>2011-07-15T13:29:28Z</time>
      </trkpt>
      <trkpt lat="44.6073" lon="6.87674">
        <ele>2071.02734375</ele>
        <time>2011-07-15T13:29:34Z</time>
      </trkpt>
      <trkpt lat="44.60723" lon="6.8766">
        <ele>2071.5341796875</ele>
        <time>2011-07-15T13:29:40Z</time>
      </trkpt>
      <trkpt lat="44.60717" lon="6.87643">
        <ele>2072.7380371094</ele>
        <time>2011-07-15T13:29:47Z</time>
      </trkpt>
      <trkpt lat="44.60712" lon="6.87626">
        <ele>2073.9086914062</ele>
        <time>2011-07-15T13:29:53Z</time>
      </trkpt>
      <trkpt lat="44.60705" lon="6.87611">
        <ele>2074.9833984375</ele>
        <time>2011-07-15T13:29:59Z</time>
      </trkpt>
      <trkpt lat="44.60701" lon="6.87596">
        <ele>2076.1198730469</ele>
        <time>2011-07-15T13:30:05Z</time>
      </trkpt>
      <trkpt lat="44.60696" lon="6.8758">
        <ele>2077.1179199219</ele>
        <time>2011-07-15T13:30:11Z</time>
      </trkpt>
      <trkpt lat="44.60685" lon="6.87567">
        <ele>2077.4682617188</ele>
        <time>2011-07-15T13:30:18Z</time>
      </trkpt>
      <trkpt lat="44.60676" lon="6.87553">
        <ele>2078.1547851562</ele>
        <time>2011-07-15T13:30:24Z</time>
      </trkpt>
      <trkpt lat="44.60665" lon="6.87545">
        <ele>2078.7993164062</ele>
        <time>2011-07-15T13:30:30Z</time>
      </trkpt>
      <trkpt lat="44.60652" lon="6.87543">
        <ele>2079.1564941406</ele>
        <time>2011-07-15T13:30:36Z</time>
      </trkpt>
      <trkpt lat="44.60635" lon="6.87542">
        <ele>2079.095703125</ele>
        <time>2011-07-15T13:30:44Z</time>
      </trkpt>
      <trkpt lat="44.60623" lon="6.87539">
        <ele>2078.4885253906</ele>
        <time>2011-07-15T13:30:51Z</time>
      </trkpt>
      <trkpt lat="44.6061" lon="6.87535">
        <ele>2078.4033203125</ele>
        <time>2011-07-15T13:31:00Z</time>
      </trkpt>
      <trkpt lat="44.60599" lon="6.87529">
        <ele>2078.3312988281</ele>
        <time>2011-07-15T13:31:08Z</time>
      </trkpt>
      <trkpt lat="44.60589" lon="6.87523">
        <ele>2078.4455566406</ele>
        <time>2011-07-15T13:31:15Z</time>
      </trkpt>
      <trkpt lat="44.60582" lon="6.8752">
        <ele>2078.2387695312</ele>
        <time>2011-07-15T13:31:20Z</time>
      </trkpt>
      <trkpt lat="44.60572" lon="6.87513">
        <ele>2077.5356445312</ele>
        <time>2011-07-15T13:31:28Z</time>
      </trkpt>
      <trkpt lat="44.60563" lon="6.87505">
        <ele>2077.7465820312</ele>
        <time>2011-07-15T13:31:36Z</time>
      </trkpt>
      <trkpt lat="44.60555" lon="6.87497">
        <ele>2078.4650878906</ele>
        <time>2011-07-15T13:31:43Z</time>
      </trkpt>
      <trkpt lat="44.60548" lon="6.87485">
        <ele>2078.5363769531</ele>
        <time>2011-07-15T13:31:51Z</time>
      </trkpt>
      <trkpt lat="44.60542" lon="6.87471">
        <ele>2078.669921875</ele>
        <time>2011-07-15T13:31:57Z</time>
      </trkpt>
      <trkpt lat="44.60533" lon="6.87451">
        <ele>2078.0402832031</ele>
        <time>2011-07-15T13:32:05Z</time>
      </trkpt>
      <trkpt lat="44.60528" lon="6.8743">
        <ele>2078.703125</ele>
        <time>2011-07-15T13:32:12Z</time>
      </trkpt>
      <trkpt lat="44.60527" lon="6.87428">
        <ele>2078.8601074219</ele>
        <time>2011-07-15T13:32:13Z</time>
      </trkpt>
      <trkpt lat="44.60517" lon="6.87425">
        <ele>2079.7529296875</ele>
        <time>2011-07-15T13:32:18Z</time>
      </trkpt>
      <trkpt lat="44.60506" lon="6.87428">
        <ele>2080.0341796875</ele>
        <time>2011-07-15T13:32:24Z</time>
      </trkpt>
      <trkpt lat="44.60497" lon="6.87425">
        <ele>2080.2270507812</ele>
        <time>2011-07-15T13:32:30Z</time>
      </trkpt>
      <trkpt lat="44.6049" lon="6.87417">
        <ele>2079.685546875</ele>
        <time>2011-07-15T13:32:36Z</time>
      </trkpt>
      <trkpt lat="44.60489" lon="6.87416">
        <ele>2079.6235351562</ele>
        <time>2011-07-15T13:32:37Z</time>
      </trkpt>
      <trkpt lat="44.60479" lon="6.87406">
        <ele>2079.1579589844</ele>
        <time>2011-07-15T13:32:45Z</time>
      </trkpt>
      <trkpt lat="44.60467" lon="6.87393">
        <ele>2077.9755859375</ele>
        <time>2011-07-15T13:32:55Z</time>
      </trkpt>
      <trkpt lat="44.60455" lon="6.87385">
        <ele>2076.5769042969</ele>
        <time>2011-07-15T13:33:03Z</time>
      </trkpt>
      <trkpt lat="44.60446" lon="6.87377">
        <ele>2075.5620117188</ele>
        <time>2011-07-15T13:33:10Z</time>
      </trkpt>
      <trkpt lat="44.60437" lon="6.87368">
        <ele>2075.7065429688</ele>
        <time>2011-07-15T13:33:17Z</time>
      </trkpt>
      <trkpt lat="44.60429" lon="6.87358">
        <ele>2076.3955078125</ele>
        <time>2011-07-15T13:33:24Z</time>
      </trkpt>
      <trkpt lat="44.60421" lon="6.87351">
        <ele>2076.5346679688</ele>
        <time>2011-07-15T13:33:30Z</time>
      </trkpt>
      <trkpt lat="44.60409" lon="6.87343">
        <ele>2076.1665039062</ele>
        <time>2011-07-15T13:33:39Z</time>
      </trkpt>
      <trkpt lat="44.60401" lon="6.87336">
        <ele>2076.3090820312</ele>
        <time>2011-07-15T13:33:46Z</time>
      </trkpt>
      <trkpt lat="44.60392" lon="6.87327">
        <ele>2076.6560058594</ele>
        <time>2011-07-15T13:33:52Z</time>
      </trkpt>
      <trkpt lat="44.60382" lon="6.87311">
        <ele>2077.7263183594</ele>
        <time>2011-07-15T13:33:59Z</time>
      </trkpt>
      <trkpt lat="44.60376" lon="6.87294">
        <ele>2078.4118652344</ele>
        <time>2011-07-15T13:34:06Z</time>
      </trkpt>
      <trkpt lat="44.60367" lon="6.8728">
        <ele>2078.0153808594</ele>
        <time>2011-07-15T13:34:13Z</time>
      </trkpt>
      <trkpt lat="44.6036" lon="6.87262">
        <ele>2078.4853515625</ele>
        <time>2011-07-15T13:34:20Z</time>
      </trkpt>
      <trkpt lat="44.60352" lon="6.87242">
        <ele>2080.2028808594</ele>
        <time>2011-07-15T13:34:27Z</time>
      </trkpt>
      <trkpt lat="44.60344" lon="6.87228">
        <ele>2081.1669921875</ele>
        <time>2011-07-15T13:34:33Z</time>
      </trkpt>
      <trkpt lat="44.60335" lon="6.87223">
        <ele>2080.2565917969</ele>
        <time>2011-07-15T13:34:40Z</time>
      </trkpt>
      <trkpt lat="44.60329" lon="6.87219">
        <ele>2080.1364746094</ele>
        <time>2011-07-15T13:34:45Z</time>
      </trkpt>
      <trkpt lat="44.60318" lon="6.8721">
        <ele>2080.5637207031</ele>
        <time>2011-07-15T13:34:54Z</time>
      </trkpt>
      <trkpt lat="44.60307" lon="6.872">
        <ele>2080.7299804688</ele>
        <time>2011-07-15T13:35:03Z</time>
      </trkpt>
      <trkpt lat="44.60298" lon="6.8719">
        <ele>2079.1625976562</ele>
        <time>2011-07-15T13:35:09Z</time>
      </trkpt>
      <trkpt lat="44.60287" lon="6.87181">
        <ele>2076.6909179688</ele>
        <time>2011-07-15T13:35:15Z</time>
      </trkpt>
      <trkpt lat="44.60278" lon="6.87168">
        <ele>2075.0803222656</ele>
        <time>2011-07-15T13:35:21Z</time>
      </trkpt>
      <trkpt lat="44.60272" lon="6.87148">
        <ele>2072.4895019531</ele>
        <time>2011-07-15T13:35:28Z</time>
      </trkpt>
      <trkpt lat="44.60262" lon="6.87135">
        <ele>2069.380859375</ele>
        <time>2011-07-15T13:35:34Z</time>
      </trkpt>
      <trkpt lat="44.60254" lon="6.87116">
        <ele>2068.2834472656</ele>
        <time>2011-07-15T13:35:41Z</time>
      </trkpt>
      <trkpt lat="44.60246" lon="6.87104">
        <ele>2066.9221191406</ele>
        <time>2011-07-15T13:35:46Z</time>
      </trkpt>
      <trkpt lat="44.60233" lon="6.87098">
        <ele>2064.0261230469</ele>
        <time>2011-07-15T13:35:52Z</time>
      </trkpt>
      <trkpt lat="44.60217" lon="6.87094">
        <ele>2059.79296875</ele>
        <time>2011-07-15T13:35:59Z</time>
      </trkpt>
      <trkpt lat="44.60207" lon="6.87084">
        <ele>2057.0415039062</ele>
        <time>2011-07-15T13:36:04Z</time>
      </trkpt>
      <trkpt lat="44.60198" lon="6.8707">
        <ele>2055.0922851562</ele>
        <time>2011-07-15T13:36:10Z</time>
      </trkpt>
      <trkpt lat="44.60191" lon="6.87053">
        <ele>2053.6350097656</ele>
        <time>2011-07-15T13:36:16Z</time>
      </trkpt>
      <trkpt lat="44.60183" lon="6.87037">
        <ele>2051.4216308594</ele>
        <time>2011-07-15T13:36:22Z</time>
      </trkpt>
      <trkpt lat="44.60173" lon="6.87014">
        <ele>2049.2172851562</ele>
        <time>2011-07-15T13:36:30Z</time>
      </trkpt>
      <trkpt lat="44.60168" lon="6.86992">
        <ele>2048.0559082031</ele>
        <time>2011-07-15T13:36:37Z</time>
      </trkpt>
      <trkpt lat="44.60166" lon="6.86976">
        <ele>2046.9840087891</ele>
        <time>2011-07-15T13:36:42Z</time>
      </trkpt>
      <trkpt lat="44.60166" lon="6.86957">
        <ele>2045.1643066406</ele>
        <time>2011-07-15T13:36:48Z</time>
      </trkpt>
      <trkpt lat="44.60162" lon="6.86941">
        <ele>2042.0179443359</ele>
        <time>2011-07-15T13:36:53Z</time>
      </trkpt>
      <trkpt lat="44.60155" lon="6.86927">
        <ele>2037.1092529297</ele>
        <time>2011-07-15T13:36:59Z</time>
      </trkpt>
      <trkpt lat="44.60153" lon="6.86925">
        <ele>2035.8254394531</ele>
        <time>2011-07-15T13:37:00Z</time>
      </trkpt>
      <trkpt lat="44.60148" lon="6.86905">
        <ele>2030.2896728516</ele>
        <time>2011-07-15T13:37:06Z</time>
      </trkpt>
      <trkpt lat="44.60148" lon="6.86888">
        <ele>2027.3043212891</ele>
        <time>2011-07-15T13:37:11Z</time>
      </trkpt>
      <trkpt lat="44.60148" lon="6.86884">
        <ele>2026.9017333984</ele>
        <time>2011-07-15T13:37:12Z</time>
      </trkpt>
      <trkpt lat="44.60155" lon="6.86857">
        <ele>2025.3988037109</ele>
        <time>2011-07-15T13:37:21Z</time>
      </trkpt>
      <trkpt lat="44.60162" lon="6.86829">
        <ele>2022.7321777344</ele>
        <time>2011-07-15T13:37:30Z</time>
      </trkpt>
      <trkpt lat="44.6017" lon="6.86813">
        <ele>2023.140625</ele>
        <time>2011-07-15T13:37:36Z</time>
      </trkpt>
      <trkpt lat="44.60181" lon="6.86795">
        <ele>2027.7348632812</ele>
        <time>2011-07-15T13:37:43Z</time>
      </trkpt>
      <trkpt lat="44.60187" lon="6.86779">
        <ele>2029.6779785156</ele>
        <time>2011-07-15T13:37:48Z</time>
      </trkpt>
      <trkpt lat="44.60192" lon="6.8676">
        <ele>2031.7976074219</ele>
        <time>2011-07-15T13:37:55Z</time>
      </trkpt>
      <trkpt lat="44.60194" lon="6.86743">
        <ele>2035.9852294922</ele>
        <time>2011-07-15T13:38:03Z</time>
      </trkpt>
      <trkpt lat="44.60192" lon="6.86733">
        <ele>2041.3952636719</ele>
        <time>2011-07-15T13:38:09Z</time>
      </trkpt>
      <trkpt lat="44.60185" lon="6.86718">
        <ele>2044.3671875</ele>
        <time>2011-07-15T13:38:19Z</time>
      </trkpt>
      <trkpt lat="44.60177" lon="6.86704">
        <ele>2044.8787841797</ele>
        <time>2011-07-15T13:38:28Z</time>
      </trkpt>
      <trkpt lat="44.6017" lon="6.86695">
        <ele>2044.5386962891</ele>
        <time>2011-07-15T13:38:35Z</time>
      </trkpt>
      <trkpt lat="44.60159" lon="6.86681">
        <ele>2043.431640625</ele>
        <time>2011-07-15T13:38:43Z</time>
      </trkpt>
      <trkpt lat="44.60148" lon="6.86658">
        <ele>2042.6700439453</ele>
        <time>2011-07-15T13:38:52Z</time>
      </trkpt>
      <trkpt lat="44.60143" lon="6.86644">
        <ele>2042.1086425781</ele>
        <time>2011-07-15T13:38:57Z</time>
      </trkpt>
      <trkpt lat="44.60141" lon="6.86641">
        <ele>2041.4700927734</ele>
        <time>2011-07-15T13:38:58Z</time>
      </trkpt>
      <trkpt lat="44.60131" lon="6.86641">
        <ele>2039.2537841797</ele>
        <time>2011-07-15T13:39:03Z</time>
      </trkpt>
      <trkpt lat="44.6013" lon="6.86643">
        <ele>2038.5861816406</ele>
        <time>2011-07-15T13:39:04Z</time>
      </trkpt>
      <trkpt lat="44.60115" lon="6.86655">
        <ele>2034.0574951172</ele>
        <time>2011-07-15T13:39:12Z</time>
      </trkpt>
      <trkpt lat="44.60104" lon="6.86656">
        <ele>2033.3021240234</ele>
        <time>2011-07-15T13:39:17Z</time>
      </trkpt>
      <trkpt lat="44.60091" lon="6.86654">
        <ele>2034.0281982422</ele>
        <time>2011-07-15T13:39:23Z</time>
      </trkpt>
      <trkpt lat="44.60077" lon="6.86655">
        <ele>2033.0809326172</ele>
        <time>2011-07-15T13:39:30Z</time>
      </trkpt>
      <trkpt lat="44.60061" lon="6.86656">
        <ele>2030.8656005859</ele>
        <time>2011-07-15T13:39:38Z</time>
      </trkpt>
      <trkpt lat="44.60044" lon="6.86653">
        <ele>2027.9300537109</ele>
        <time>2011-07-15T13:39:46Z</time>
      </trkpt>
      <trkpt lat="44.60028" lon="6.86641">
        <ele>2025.8524169922</ele>
        <time>2011-07-15T13:39:54Z</time>
      </trkpt>
      <trkpt lat="44.60018" lon="6.86629">
        <ele>2025.2467041016</ele>
        <time>2011-07-15T13:40:00Z</time>
      </trkpt>
      <trkpt lat="44.60007" lon="6.86613">
        <ele>2024.5793457031</ele>
        <time>2011-07-15T13:40:07Z</time>
      </trkpt>
      <trkpt lat="44.59999" lon="6.86598">
        <ele>2024.7973632812</ele>
        <time>2011-07-15T13:40:13Z</time>
      </trkpt>
      <trkpt lat="44.59991" lon="6.86583">
        <ele>2022.7028808594</ele>
        <time>2011-07-15T13:40:19Z</time>
      </trkpt>
      <trkpt lat="44.59988" lon="6.86563">
        <ele>2024.7216796875</ele>
        <time>2011-07-15T13:40:25Z</time>
      </trkpt>
      <trkpt lat="44.59986" lon="6.86544">
        <ele>2027.6496582031</ele>
        <time>2011-07-15T13:40:31Z</time>
      </trkpt>
      <trkpt lat="44.59982" lon="6.86525">
        <ele>2029.44140625</ele>
        <time>2011-07-15T13:40:37Z</time>
      </trkpt>
      <trkpt lat="44.5997" lon="6.86517">
        <ele>2026.6553955078</ele>
        <time>2011-07-15T13:40:43Z</time>
      </trkpt>
      <trkpt lat="44.59955" lon="6.86513">
        <ele>2024.6463623047</ele>
        <time>2011-07-15T13:40:49Z</time>
      </trkpt>
      <trkpt lat="44.59942" lon="6.86506">
        <ele>2023.5034179688</ele>
        <time>2011-07-15T13:40:55Z</time>
      </trkpt>
      <trkpt lat="44.59932" lon="6.86501">
        <ele>2022.0942382812</ele>
        <time>2011-07-15T13:41:00Z</time>
      </trkpt>
      <trkpt lat="44.59916" lon="6.86499">
        <ele>2018.1766357422</ele>
        <time>2011-07-15T13:41:07Z</time>
      </trkpt>
      <trkpt lat="44.59904" lon="6.86501">
        <ele>2016.6989746094</ele>
        <time>2011-07-15T13:41:13Z</time>
      </trkpt>
      <trkpt lat="44.59893" lon="6.86495">
        <ele>2017.8621826172</ele>
        <time>2011-07-15T13:41:19Z</time>
      </trkpt>
      <trkpt lat="44.59882" lon="6.86485">
        <ele>2017.8181152344</ele>
        <time>2011-07-15T13:41:26Z</time>
      </trkpt>
      <trkpt lat="44.59871" lon="6.86471">
        <ele>2017.6267089844</ele>
        <time>2011-07-15T13:41:34Z</time>
      </trkpt>
      <trkpt lat="44.5986" lon="6.86467">
        <ele>2014.9538574219</ele>
        <time>2011-07-15T13:41:40Z</time>
      </trkpt>
      <trkpt lat="44.59846" lon="6.86461">
        <ele>2014.3221435547</ele>
        <time>2011-07-15T13:41:48Z</time>
      </trkpt>
      <trkpt lat="44.59833" lon="6.86458">
        <ele>2013.0700683594</ele>
        <time>2011-07-15T13:41:55Z</time>
      </trkpt>
      <trkpt lat="44.59822" lon="6.86454">
        <ele>2012.3657226562</ele>
        <time>2011-07-15T13:42:01Z</time>
      </trkpt>
      <trkpt lat="44.59811" lon="6.86449">
        <ele>2012.1781005859</ele>
        <time>2011-07-15T13:42:07Z</time>
      </trkpt>
      <trkpt lat="44.59797" lon="6.86444">
        <ele>2012.6796875</ele>
        <time>2011-07-15T13:42:14Z</time>
      </trkpt>
      <trkpt lat="44.59786" lon="6.86438">
        <ele>2013.9205322266</ele>
        <time>2011-07-15T13:42:20Z</time>
      </trkpt>
      <trkpt lat="44.59774" lon="6.86428">
        <ele>2016.2208251953</ele>
        <time>2011-07-15T13:42:27Z</time>
      </trkpt>
      <trkpt lat="44.59765" lon="6.86417">
        <ele>2017.5836181641</ele>
        <time>2011-07-15T13:42:33Z</time>
      </trkpt>
      <trkpt lat="44.59756" lon="6.86404">
        <ele>2018.7214355469</ele>
        <time>2011-07-15T13:42:40Z</time>
      </trkpt>
      <trkpt lat="44.59746" lon="6.86392">
        <ele>2018.7670898438</ele>
        <time>2011-07-15T13:42:46Z</time>
      </trkpt>
      <trkpt lat="44.59736" lon="6.86378">
        <ele>2016.7315673828</ele>
        <time>2011-07-15T13:42:53Z</time>
      </trkpt>
      <trkpt lat="44.59726" lon="6.86363">
        <ele>2015.12890625</ele>
        <time>2011-07-15T13:43:00Z</time>
      </trkpt>
      <trkpt lat="44.59718" lon="6.86349">
        <ele>2014.3420410156</ele>
        <time>2011-07-15T13:43:06Z</time>
      </trkpt>
      <trkpt lat="44.59708" lon="6.86335">
        <ele>2012.3540039062</ele>
        <time>2011-07-15T13:43:12Z</time>
      </trkpt>
      <trkpt lat="44.59701" lon="6.86323">
        <ele>2009.6022949219</ele>
        <time>2011-07-15T13:43:17Z</time>
      </trkpt>
      <trkpt lat="44.59692" lon="6.86304">
        <ele>2007.60546875</ele>
        <time>2011-07-15T13:43:24Z</time>
      </trkpt>
      <trkpt lat="44.59684" lon="6.86289">
        <ele>2005.7122802734</ele>
        <time>2011-07-15T13:43:30Z</time>
      </trkpt>
      <trkpt lat="44.59673" lon="6.86269">
        <ele>2002.2388916016</ele>
        <time>2011-07-15T13:43:38Z</time>
      </trkpt>
      <trkpt lat="44.59665" lon="6.8625">
        <ele>2000.0208740234</ele>
        <time>2011-07-15T13:43:45Z</time>
      </trkpt>
      <trkpt lat="44.59661" lon="6.86235">
        <ele>2002.0682373047</ele>
        <time>2011-07-15T13:43:50Z</time>
      </trkpt>
      <trkpt lat="44.59655" lon="6.86215">
        <ele>2003.5133056641</ele>
        <time>2011-07-15T13:43:57Z</time>
      </trkpt>
      <trkpt lat="44.59655" lon="6.86212">
        <ele>2003.6439208984</ele>
        <time>2011-07-15T13:43:58Z</time>
      </trkpt>
      <trkpt lat="44.59643" lon="6.862">
        <ele>2001.275390625</ele>
        <time>2011-07-15T13:44:05Z</time>
      </trkpt>
      <trkpt lat="44.59634" lon="6.86187">
        <ele>2000.3273925781</ele>
        <time>2011-07-15T13:44:11Z</time>
      </trkpt>
      <trkpt lat="44.59627" lon="6.86173">
        <ele>2000.8109130859</ele>
        <time>2011-07-15T13:44:17Z</time>
      </trkpt>
      <trkpt lat="44.59618" lon="6.86154">
        <ele>2000.9991455078</ele>
        <time>2011-07-15T13:44:25Z</time>
      </trkpt>
      <trkpt lat="44.59611" lon="6.86139">
        <ele>2000.0227050781</ele>
        <time>2011-07-15T13:44:31Z</time>
      </trkpt>
      <trkpt lat="44.59605" lon="6.86122">
        <ele>1998.4611816406</ele>
        <time>2011-07-15T13:44:37Z</time>
      </trkpt>
      <trkpt lat="44.59596" lon="6.86102">
        <ele>1997.076171875</ele>
        <time>2011-07-15T13:44:44Z</time>
      </trkpt>
      <trkpt lat="44.59589" lon="6.86085">
        <ele>1995.654296875</ele>
        <time>2011-07-15T13:44:50Z</time>
      </trkpt>
      <trkpt lat="44.59582" lon="6.86066">
        <ele>1992.6069335938</ele>
        <time>2011-07-15T13:44:57Z</time>
      </trkpt>
      <trkpt lat="44.59576" lon="6.86049">
        <ele>1991.0693359375</ele>
        <time>2011-07-15T13:45:03Z</time>
      </trkpt>
      <trkpt lat="44.5957" lon="6.86024">
        <ele>1989.01953125</ele>
        <time>2011-07-15T13:45:11Z</time>
      </trkpt>
      <trkpt lat="44.59568" lon="6.86003">
        <ele>1984.5374755859</ele>
        <time>2011-07-15T13:45:18Z</time>
      </trkpt>
      <trkpt lat="44.59569" lon="6.85987">
        <ele>1982.6724853516</ele>
        <time>2011-07-15T13:45:23Z</time>
      </trkpt>
      <trkpt lat="44.59573" lon="6.85966">
        <ele>1980.9365234375</ele>
        <time>2011-07-15T13:45:30Z</time>
      </trkpt>
      <trkpt lat="44.59575" lon="6.85944">
        <ele>1978.3199462891</ele>
        <time>2011-07-15T13:45:37Z</time>
      </trkpt>
      <trkpt lat="44.59576" lon="6.85924">
        <ele>1976.6492919922</ele>
        <time>2011-07-15T13:45:43Z</time>
      </trkpt>
      <trkpt lat="44.59576" lon="6.85921">
        <ele>1976.4702148438</ele>
        <time>2011-07-15T13:45:44Z</time>
      </trkpt>
      <trkpt lat="44.59579" lon="6.85909">
        <ele>1976.0931396484</ele>
        <time>2011-07-15T13:45:48Z</time>
      </trkpt>
      <trkpt lat="44.59584" lon="6.85891">
        <ele>1975.3658447266</ele>
        <time>2011-07-15T13:45:54Z</time>
      </trkpt>
      <trkpt lat="44.59588" lon="6.85875">
        <ele>1975.0622558594</ele>
        <time>2011-07-15T13:46:00Z</time>
      </trkpt>
      <trkpt lat="44.59593" lon="6.85859">
        <ele>1975.1685791016</ele>
        <time>2011-07-15T13:46:06Z</time>
      </trkpt>
      <trkpt lat="44.59597" lon="6.85839">
        <ele>1975.6011962891</ele>
        <time>2011-07-15T13:46:13Z</time>
      </trkpt>
      <trkpt lat="44.596" lon="6.85818">
        <ele>1975.0037841797</ele>
        <time>2011-07-15T13:46:20Z</time>
      </trkpt>
      <trkpt lat="44.59599" lon="6.85799">
        <ele>1972.4630126953</ele>
        <time>2011-07-15T13:46:26Z</time>
      </trkpt>
      <trkpt lat="44.59598" lon="6.85783">
        <ele>1971.4547119141</ele>
        <time>2011-07-15T13:46:31Z</time>
      </trkpt>
      <trkpt lat="44.59602" lon="6.85757">
        <ele>1969.3547363281</ele>
        <time>2011-07-15T13:46:39Z</time>
      </trkpt>
      <trkpt lat="44.59605" lon="6.85738">
        <ele>1966.1520996094</ele>
        <time>2011-07-15T13:46:45Z</time>
      </trkpt>
      <trkpt lat="44.5961" lon="6.85719">
        <ele>1964.0380859375</ele>
        <time>2011-07-15T13:46:51Z</time>
      </trkpt>
      <trkpt lat="44.59617" lon="6.85704">
        <ele>1963.8464355469</ele>
        <time>2011-07-15T13:46:56Z</time>
      </trkpt>
      <trkpt lat="44.59626" lon="6.85689">
        <ele>1964.2513427734</ele>
        <time>2011-07-15T13:47:02Z</time>
      </trkpt>
      <trkpt lat="44.59636" lon="6.85674">
        <ele>1964.4678955078</ele>
        <time>2011-07-15T13:47:09Z</time>
      </trkpt>
      <trkpt lat="44.59646" lon="6.85666">
        <ele>1966.3548583984</ele>
        <time>2011-07-15T13:47:15Z</time>
      </trkpt>
      <trkpt lat="44.59656" lon="6.85655">
        <ele>1969.4738769531</ele>
        <time>2011-07-15T13:47:22Z</time>
      </trkpt>
      <trkpt lat="44.5966" lon="6.85652">
        <ele>1971.0653076172</ele>
        <time>2011-07-15T13:47:24Z</time>
      </trkpt>
      <trkpt lat="44.59664" lon="6.85633">
        <ele>1971.0688476562</ele>
        <time>2011-07-15T13:47:31Z</time>
      </trkpt>
      <trkpt lat="44.59669" lon="6.85614">
        <ele>1970.9600830078</ele>
        <time>2011-07-15T13:47:37Z</time>
      </trkpt>
      <trkpt lat="44.59673" lon="6.85594">
        <ele>1970.2281494141</ele>
        <time>2011-07-15T13:47:44Z</time>
      </trkpt>
      <trkpt lat="44.59673" lon="6.85569">
        <ele>1968.4030761719</ele>
        <time>2011-07-15T13:47:52Z</time>
      </trkpt>
      <trkpt lat="44.59674" lon="6.85552">
        <ele>1967.5560302734</ele>
        <time>2011-07-15T13:47:58Z</time>
      </trkpt>
      <trkpt lat="44.59674" lon="6.85531">
        <ele>1968.3706054688</ele>
        <time>2011-07-15T13:48:05Z</time>
      </trkpt>
      <trkpt lat="44.59672" lon="6.85514">
        <ele>1969.0289306641</ele>
        <time>2011-07-15T13:48:11Z</time>
      </trkpt>
      <trkpt lat="44.59666" lon="6.85489">
        <ele>1968.8204345703</ele>
        <time>2011-07-15T13:48:20Z</time>
      </trkpt>
      <trkpt lat="44.59661" lon="6.85474">
        <ele>1967.578125</ele>
        <time>2011-07-15T13:48:26Z</time>
      </trkpt>
      <trkpt lat="44.59657" lon="6.85452">
        <ele>1968.5578613281</ele>
        <time>2011-07-15T13:48:33Z</time>
      </trkpt>
      <trkpt lat="44.59651" lon="6.85428">
        <ele>1968.5405273438</ele>
        <time>2011-07-15T13:48:41Z</time>
      </trkpt>
      <trkpt lat="44.59647" lon="6.8541">
        <ele>1967.8056640625</ele>
        <time>2011-07-15T13:48:47Z</time>
      </trkpt>
      <trkpt lat="44.59641" lon="6.85385">
        <ele>1965.5062255859</ele>
        <time>2011-07-15T13:48:55Z</time>
      </trkpt>
      <trkpt lat="44.59636" lon="6.85366">
        <ele>1964.3321533203</ele>
        <time>2011-07-15T13:49:01Z</time>
      </trkpt>
      <trkpt lat="44.5963" lon="6.85349">
        <ele>1962.6397705078</ele>
        <time>2011-07-15T13:49:07Z</time>
      </trkpt>
      <trkpt lat="44.59621" lon="6.85334">
        <ele>1959.6309814453</ele>
        <time>2011-07-15T13:49:13Z</time>
      </trkpt>
      <trkpt lat="44.59611" lon="6.85315">
        <ele>1957.6975097656</ele>
        <time>2011-07-15T13:49:20Z</time>
      </trkpt>
      <trkpt lat="44.59607" lon="6.85299">
        <ele>1956.7379150391</ele>
        <time>2011-07-15T13:49:25Z</time>
      </trkpt>
      <trkpt lat="44.59605" lon="6.85284">
        <ele>1955.9156494141</ele>
        <time>2011-07-15T13:49:30Z</time>
      </trkpt>
      <trkpt lat="44.59602" lon="6.85261">
        <ele>1956.7318115234</ele>
        <time>2011-07-15T13:49:37Z</time>
      </trkpt>
      <trkpt lat="44.59598" lon="6.85244">
        <ele>1955.986328125</ele>
        <time>2011-07-15T13:49:43Z</time>
      </trkpt>
      <trkpt lat="44.5959" lon="6.85228">
        <ele>1953.5660400391</ele>
        <time>2011-07-15T13:49:49Z</time>
      </trkpt>
      <trkpt lat="44.59579" lon="6.85213">
        <ele>1950.6516113281</ele>
        <time>2011-07-15T13:49:55Z</time>
      </trkpt>
      <trkpt lat="44.59567" lon="6.85195">
        <ele>1949.322265625</ele>
        <time>2011-07-15T13:50:02Z</time>
      </trkpt>
      <trkpt lat="44.59557" lon="6.85177">
        <ele>1951.3439941406</ele>
        <time>2011-07-15T13:50:09Z</time>
      </trkpt>
      <trkpt lat="44.59547" lon="6.85165">
        <ele>1951.4766845703</ele>
        <time>2011-07-15T13:50:15Z</time>
      </trkpt>
      <trkpt lat="44.59535" lon="6.8515">
        <ele>1949.2762451172</ele>
        <time>2011-07-15T13:50:22Z</time>
      </trkpt>
      <trkpt lat="44.5952" lon="6.85138">
        <ele>1946.3817138672</ele>
        <time>2011-07-15T13:50:29Z</time>
      </trkpt>
      <trkpt lat="44.59509" lon="6.8513">
        <ele>1944.9155273438</ele>
        <time>2011-07-15T13:50:34Z</time>
      </trkpt>
      <trkpt lat="44.59496" lon="6.85122">
        <ele>1940.9354248047</ele>
        <time>2011-07-15T13:50:40Z</time>
      </trkpt>
      <trkpt lat="44.59484" lon="6.85107">
        <ele>1935.7579345703</ele>
        <time>2011-07-15T13:50:47Z</time>
      </trkpt>
      <trkpt lat="44.59477" lon="6.85089">
        <ele>1933.5985107422</ele>
        <time>2011-07-15T13:50:53Z</time>
      </trkpt>
      <trkpt lat="44.5947" lon="6.85069">
        <ele>1933.693359375</ele>
        <time>2011-07-15T13:51:00Z</time>
      </trkpt>
      <trkpt lat="44.59464" lon="6.85051">
        <ele>1934.5811767578</ele>
        <time>2011-07-15T13:51:06Z</time>
      </trkpt>
      <trkpt lat="44.59459" lon="6.85031">
        <ele>1935.8840332031</ele>
        <time>2011-07-15T13:51:12Z</time>
      </trkpt>
      <trkpt lat="44.59459" lon="6.85013">
        <ele>1937.5794677734</ele>
        <time>2011-07-15T13:51:17Z</time>
      </trkpt>
      <trkpt lat="44.59459" lon="6.84997">
        <ele>1938.8312988281</ele>
        <time>2011-07-15T13:51:22Z</time>
      </trkpt>
      <trkpt lat="44.59453" lon="6.84979">
        <ele>1938.6939697266</ele>
        <time>2011-07-15T13:51:28Z</time>
      </trkpt>
      <trkpt lat="44.59444" lon="6.8496">
        <ele>1938.14453125</ele>
        <time>2011-07-15T13:51:35Z</time>
      </trkpt>
      <trkpt lat="44.59436" lon="6.8494">
        <ele>1936.474609375</ele>
        <time>2011-07-15T13:51:42Z</time>
      </trkpt>
      <trkpt lat="44.59426" lon="6.84921">
        <ele>1934.0021972656</ele>
        <time>2011-07-15T13:51:49Z</time>
      </trkpt>
      <trkpt lat="44.59416" lon="6.84903">
        <ele>1931.8493652344</ele>
        <time>2011-07-15T13:51:56Z</time>
      </trkpt>
      <trkpt lat="44.59408" lon="6.84886">
        <ele>1930.5676269531</ele>
        <time>2011-07-15T13:52:02Z</time>
      </trkpt>
      <trkpt lat="44.59399" lon="6.84867">
        <ele>1929.1909179688</ele>
        <time>2011-07-15T13:52:09Z</time>
      </trkpt>
      <trkpt lat="44.59389" lon="6.84851">
        <ele>1926.5577392578</ele>
        <time>2011-07-15T13:52:15Z</time>
      </trkpt>
      <trkpt lat="44.59383" lon="6.84836">
        <ele>1925.4348144531</ele>
        <time>2011-07-15T13:52:20Z</time>
      </trkpt>
      <trkpt lat="44.59373" lon="6.84818">
        <ele>1923.4278564453</ele>
        <time>2011-07-15T13:52:27Z</time>
      </trkpt>
      <trkpt lat="44.59363" lon="6.84797">
        <ele>1921.36328125</ele>
        <time>2011-07-15T13:52:35Z</time>
      </trkpt>
      <trkpt lat="44.59354" lon="6.84783">
        <ele>1919.7233886719</ele>
        <time>2011-07-15T13:52:41Z</time>
      </trkpt>
      <trkpt lat="44.59345" lon="6.84766">
        <ele>1917.6466064453</ele>
        <time>2011-07-15T13:52:48Z</time>
      </trkpt>
      <trkpt lat="44.59341" lon="6.84749">
        <ele>1916.3201904297</ele>
        <time>2011-07-15T13:52:54Z</time>
      </trkpt>
      <trkpt lat="44.59339" lon="6.84732">
        <ele>1915.9768066406</ele>
        <time>2011-07-15T13:53:00Z</time>
      </trkpt>
      <trkpt lat="44.59336" lon="6.84712">
        <ele>1915.1735839844</ele>
        <time>2011-07-15T13:53:07Z</time>
      </trkpt>
      <trkpt lat="44.59336" lon="6.84692">
        <ele>1914.2989501953</ele>
        <time>2011-07-15T13:53:14Z</time>
      </trkpt>
      <trkpt lat="44.59339" lon="6.84672">
        <ele>1913.3000488281</ele>
        <time>2011-07-15T13:53:21Z</time>
      </trkpt>
      <trkpt lat="44.59341" lon="6.84654">
        <ele>1912.7371826172</ele>
        <time>2011-07-15T13:53:27Z</time>
      </trkpt>
      <trkpt lat="44.59344" lon="6.84633">
        <ele>1912.6889648438</ele>
        <time>2011-07-15T13:53:34Z</time>
      </trkpt>
      <trkpt lat="44.59349" lon="6.84612">
        <ele>1913.7380371094</ele>
        <time>2011-07-15T13:53:41Z</time>
      </trkpt>
      <trkpt lat="44.59351" lon="6.84591">
        <ele>1914.2427978516</ele>
        <time>2011-07-15T13:53:48Z</time>
      </trkpt>
      <trkpt lat="44.59352" lon="6.84574">
        <ele>1913.9089355469</ele>
        <time>2011-07-15T13:53:54Z</time>
      </trkpt>
      <trkpt lat="44.59354" lon="6.84555">
        <ele>1913.2041015625</ele>
        <time>2011-07-15T13:54:00Z</time>
      </trkpt>
      <trkpt lat="44.59358" lon="6.84537">
        <ele>1912.87109375</ele>
        <time>2011-07-15T13:54:06Z</time>
      </trkpt>
      <trkpt lat="44.59364" lon="6.84523">
        <ele>1913.2749023438</ele>
        <time>2011-07-15T13:54:11Z</time>
      </trkpt>
      <trkpt lat="44.59372" lon="6.8451">
        <ele>1914.2216796875</ele>
        <time>2011-07-15T13:54:17Z</time>
      </trkpt>
      <trkpt lat="44.59375" lon="6.84502">
        <ele>1914.6970214844</ele>
        <time>2011-07-15T13:54:20Z</time>
      </trkpt>
      <trkpt lat="44.59378" lon="6.84486">
        <ele>1914.7756347656</ele>
        <time>2011-07-15T13:54:25Z</time>
      </trkpt>
      <trkpt lat="44.59378" lon="6.84467">
        <ele>1914.1352539062</ele>
        <time>2011-07-15T13:54:31Z</time>
      </trkpt>
      <trkpt lat="44.59375" lon="6.84448">
        <ele>1912.6350097656</ele>
        <time>2011-07-15T13:54:37Z</time>
      </trkpt>
      <trkpt lat="44.59373" lon="6.84432">
        <ele>1912.9063720703</ele>
        <time>2011-07-15T13:54:42Z</time>
      </trkpt>
      <trkpt lat="44.5937" lon="6.84416">
        <ele>1912.9410400391</ele>
        <time>2011-07-15T13:54:47Z</time>
      </trkpt>
      <trkpt lat="44.59366" lon="6.844">
        <ele>1913.0939941406</ele>
        <time>2011-07-15T13:54:52Z</time>
      </trkpt>
      <trkpt lat="44.59361" lon="6.84384">
        <ele>1913.3760986328</ele>
        <time>2011-07-15T13:54:57Z</time>
      </trkpt>
      <trkpt lat="44.59357" lon="6.84373">
        <ele>1913.0471191406</ele>
        <time>2011-07-15T13:55:01Z</time>
      </trkpt>
      <trkpt lat="44.59352" lon="6.84354">
        <ele>1912.91015625</ele>
        <time>2011-07-15T13:55:07Z</time>
      </trkpt>
      <trkpt lat="44.59347" lon="6.84336">
        <ele>1912.5054931641</ele>
        <time>2011-07-15T13:55:13Z</time>
      </trkpt>
      <trkpt lat="44.5934" lon="6.84315">
        <ele>1913.2404785156</ele>
        <time>2011-07-15T13:55:20Z</time>
      </trkpt>
      <trkpt lat="44.59332" lon="6.84297">
        <ele>1912.7196044922</ele>
        <time>2011-07-15T13:55:27Z</time>
      </trkpt>
      <trkpt lat="44.59322" lon="6.84276">
        <ele>1912.9443359375</ele>
        <time>2011-07-15T13:55:35Z</time>
      </trkpt>
      <trkpt lat="44.59313" lon="6.84261">
        <ele>1913.4873046875</ele>
        <time>2011-07-15T13:55:41Z</time>
      </trkpt>
      <trkpt lat="44.59304" lon="6.84252">
        <ele>1913.3010253906</ele>
        <time>2011-07-15T13:55:46Z</time>
      </trkpt>
      <trkpt lat="44.59292" lon="6.84243">
        <ele>1913.3463134766</ele>
        <time>2011-07-15T13:55:52Z</time>
      </trkpt>
      <trkpt lat="44.59283" lon="6.84234">
        <ele>1913.6124267578</ele>
        <time>2011-07-15T13:55:58Z</time>
      </trkpt>
      <trkpt lat="44.59271" lon="6.84225">
        <ele>1913.0335693359</ele>
        <time>2011-07-15T13:56:05Z</time>
      </trkpt>
      <trkpt lat="44.59258" lon="6.84213">
        <ele>1912.4259033203</ele>
        <time>2011-07-15T13:56:12Z</time>
      </trkpt>
      <trkpt lat="44.59246" lon="6.84199">
        <ele>1911.8721923828</ele>
        <time>2011-07-15T13:56:19Z</time>
      </trkpt>
      <trkpt lat="44.59233" lon="6.84181">
        <ele>1910.4998779297</ele>
        <time>2011-07-15T13:56:27Z</time>
      </trkpt>
      <trkpt lat="44.59225" lon="6.84168">
        <ele>1908.8775634766</ele>
        <time>2011-07-15T13:56:33Z</time>
      </trkpt>
      <trkpt lat="44.59214" lon="6.84152">
        <ele>1908.5457763672</ele>
        <time>2011-07-15T13:56:40Z</time>
      </trkpt>
      <trkpt lat="44.59204" lon="6.84139">
        <ele>1908.1901855469</ele>
        <time>2011-07-15T13:56:46Z</time>
      </trkpt>
      <trkpt lat="44.59198" lon="6.84128">
        <ele>1907.5177001953</ele>
        <time>2011-07-15T13:56:52Z</time>
      </trkpt>
      <trkpt lat="44.59198" lon="6.84121">
        <ele>1908.0185546875</ele>
        <time>2011-07-15T13:56:58Z</time>
      </trkpt>
      <trkpt lat="44.59196" lon="6.84117">
        <ele>1907.8792724609</ele>
        <time>2011-07-15T13:57:02Z</time>
      </trkpt>
      <trkpt lat="44.59198" lon="6.84113">
        <ele>1908.759765625</ele>
        <time>2011-07-15T13:57:07Z</time>
      </trkpt>
      <trkpt lat="44.59199" lon="6.84106">
        <ele>1909.5705566406</ele>
        <time>2011-07-15T13:57:12Z</time>
      </trkpt>
      <trkpt lat="44.592" lon="6.84105">
        <ele>1909.7628173828</ele>
        <time>2011-07-15T13:57:14Z</time>
      </trkpt>
    </trkseg>
  </trk>
</gpx>